<?xml version="1.0" encoding="UTF-8" standalone="no" ?>
<gpx xmlns="http://www.topografix.com/GPX/1/1" xmlns:xsi="http://www.w3.org/2001/XMLSchema-instance" xsi:schemaLocation="http://www.topografix.com/GPX/1/1 http://www.topografix.com/GPX/1/1/gpx.xsd" version="1.1" creator="VisuGPX - https://www.visugpx.com">
  <metadata>
    <name>Rando VTT - Les DRAILHES DU DIABLE Aniane Pont du diable by L'ORSALHER VTT</name>
    <desc><![CDATA[Jean-Jacques & Kristian à la Rando VTT Les DRAILHES du DIABLE.
Les 25 premiers km jusqu’au sommet du pic Baudile et par là les 2/3 du D+final furent une vraie purge:que de la piste parfois chaotique pour 3 km de single dont seulement 500 m en descente. 
Heureusement que la suite était dantesque avec de belles descentes extrêmement techniques.]]></desc>
  </metadata>
  <trk>
    <name><![CDATA[Rando VTT - Les DRAILHES DU DIABLE Aniane Pont du diable by L'ORSALHER VTT]]></name>
    <desc><![CDATA[Jean-Jacques & Kristian à la Rando VTT Les DRAILHES du DIABLE.]]></desc>
    <extensions>
      <line xmlns="http://www.topografix.com/GPX/gpx_style/0/2">
        <color>0000FF</color>
        <width>4</width>
          <extensions>
            <sens>1</sens>
          </extensions>
      </line>
    </extensions>
    <trkseg>
      <trkpt lat="43.70241" lon="3.56091">
        <ele>67.1</ele>
        <time>2023-05-14T05:59:44.000Z</time>
      </trkpt>
      <trkpt lat="43.70241" lon="3.56091">
        <ele>67.1</ele>
        <time>2023-05-14T05:59:45.000Z</time>
      </trkpt>
      <trkpt lat="43.70241" lon="3.5609">
        <ele>67</ele>
        <time>2023-05-14T05:59:50.000Z</time>
      </trkpt>
      <trkpt lat="43.70242" lon="3.56089">
        <ele>67</ele>
        <time>2023-05-14T05:59:55.000Z</time>
      </trkpt>
      <trkpt lat="43.70242" lon="3.56088">
        <ele>67</ele>
        <time>2023-05-14T06:00:01.000Z</time>
      </trkpt>
      <trkpt lat="43.70252" lon="3.56085">
        <ele>67</ele>
        <time>2023-05-14T06:00:08.000Z</time>
      </trkpt>
      <trkpt lat="43.70261" lon="3.56085">
        <ele>67</ele>
        <time>2023-05-14T06:00:13.000Z</time>
      </trkpt>
      <trkpt lat="43.7027" lon="3.56083">
        <ele>67</ele>
        <time>2023-05-14T06:00:18.000Z</time>
      </trkpt>
      <trkpt lat="43.7028" lon="3.5608">
        <ele>66.9</ele>
        <time>2023-05-14T06:00:23.000Z</time>
      </trkpt>
      <trkpt lat="43.70281" lon="3.56065">
        <ele>66.9</ele>
        <time>2023-05-14T06:00:29.000Z</time>
      </trkpt>
      <trkpt lat="43.70287" lon="3.56055">
        <ele>66.9</ele>
        <time>2023-05-14T06:00:35.000Z</time>
      </trkpt>
      <trkpt lat="43.70297" lon="3.56054">
        <ele>66.9</ele>
        <time>2023-05-14T06:00:41.000Z</time>
      </trkpt>
      <trkpt lat="43.70297" lon="3.56054">
        <ele>66.9</ele>
        <time>2023-05-14T06:00:41.000Z</time>
      </trkpt>
      <trkpt lat="43.70307" lon="3.56058">
        <ele>66.8</ele>
        <time>2023-05-14T06:00:46.000Z</time>
      </trkpt>
      <trkpt lat="43.70306" lon="3.56073">
        <ele>66.8</ele>
        <time>2023-05-14T06:00:51.000Z</time>
      </trkpt>
      <trkpt lat="43.70315" lon="3.5608">
        <ele>66.8</ele>
        <time>2023-05-14T06:00:57.000Z</time>
      </trkpt>
      <trkpt lat="43.70324" lon="3.56079">
        <ele>66.9</ele>
        <time>2023-05-14T06:01:01.000Z</time>
      </trkpt>
      <trkpt lat="43.70334" lon="3.56079">
        <ele>67</ele>
        <time>2023-05-14T06:01:05.000Z</time>
      </trkpt>
      <trkpt lat="43.70344" lon="3.56079">
        <ele>67.2</ele>
        <time>2023-05-14T06:01:09.000Z</time>
      </trkpt>
      <trkpt lat="43.70354" lon="3.56078">
        <ele>67.7</ele>
        <time>2023-05-14T06:01:13.000Z</time>
      </trkpt>
      <trkpt lat="43.70364" lon="3.56078">
        <ele>68.4</ele>
        <time>2023-05-14T06:01:17.000Z</time>
      </trkpt>
      <trkpt lat="43.70374" lon="3.56078">
        <ele>69.3</ele>
        <time>2023-05-14T06:01:21.000Z</time>
      </trkpt>
      <trkpt lat="43.70385" lon="3.56077">
        <ele>70.1</ele>
        <time>2023-05-14T06:01:25.000Z</time>
      </trkpt>
      <trkpt lat="43.70397" lon="3.56077">
        <ele>70.7</ele>
        <time>2023-05-14T06:01:29.000Z</time>
      </trkpt>
      <trkpt lat="43.70407" lon="3.56076">
        <ele>71.1</ele>
        <time>2023-05-14T06:01:32.000Z</time>
      </trkpt>
      <trkpt lat="43.70417" lon="3.56075">
        <ele>71.3</ele>
        <time>2023-05-14T06:01:35.000Z</time>
      </trkpt>
      <trkpt lat="43.70428" lon="3.56075">
        <ele>71.5</ele>
        <time>2023-05-14T06:01:38.000Z</time>
      </trkpt>
      <trkpt lat="43.70439" lon="3.56074">
        <ele>71.7</ele>
        <time>2023-05-14T06:01:41.000Z</time>
      </trkpt>
      <trkpt lat="43.70449" lon="3.56073">
        <ele>71.8</ele>
        <time>2023-05-14T06:01:44.000Z</time>
      </trkpt>
      <trkpt lat="43.7046" lon="3.56072">
        <ele>72</ele>
        <time>2023-05-14T06:01:47.000Z</time>
      </trkpt>
      <trkpt lat="43.70471" lon="3.56072">
        <ele>72.1</ele>
        <time>2023-05-14T06:01:50.000Z</time>
      </trkpt>
      <trkpt lat="43.70482" lon="3.56071">
        <ele>72.2</ele>
        <time>2023-05-14T06:01:53.000Z</time>
      </trkpt>
      <trkpt lat="43.70493" lon="3.56071">
        <ele>72.4</ele>
        <time>2023-05-14T06:01:56.000Z</time>
      </trkpt>
      <trkpt lat="43.70504" lon="3.56071">
        <ele>72.5</ele>
        <time>2023-05-14T06:01:59.000Z</time>
      </trkpt>
      <trkpt lat="43.70515" lon="3.5607">
        <ele>72.7</ele>
        <time>2023-05-14T06:02:02.000Z</time>
      </trkpt>
      <trkpt lat="43.70526" lon="3.5607">
        <ele>72.7</ele>
        <time>2023-05-14T06:02:05.000Z</time>
      </trkpt>
      <trkpt lat="43.70537" lon="3.56069">
        <ele>72.8</ele>
        <time>2023-05-14T06:02:08.000Z</time>
      </trkpt>
      <trkpt lat="43.70547" lon="3.56071">
        <ele>73</ele>
        <time>2023-05-14T06:02:11.000Z</time>
      </trkpt>
      <trkpt lat="43.70556" lon="3.56076">
        <ele>73.1</ele>
        <time>2023-05-14T06:02:14.000Z</time>
      </trkpt>
      <trkpt lat="43.70566" lon="3.56084">
        <ele>73.4</ele>
        <time>2023-05-14T06:02:18.000Z</time>
      </trkpt>
      <trkpt lat="43.70576" lon="3.56089">
        <ele>73.6</ele>
        <time>2023-05-14T06:02:22.000Z</time>
      </trkpt>
      <trkpt lat="43.70586" lon="3.56088">
        <ele>73.7</ele>
        <time>2023-05-14T06:02:25.000Z</time>
      </trkpt>
      <trkpt lat="43.70595" lon="3.56079">
        <ele>73.8</ele>
        <time>2023-05-14T06:02:28.000Z</time>
      </trkpt>
      <trkpt lat="43.70603" lon="3.56072">
        <ele>73.7</ele>
        <time>2023-05-14T06:02:30.000Z</time>
      </trkpt>
      <trkpt lat="43.70612" lon="3.56064">
        <ele>73.7</ele>
        <time>2023-05-14T06:02:32.000Z</time>
      </trkpt>
      <trkpt lat="43.7062" lon="3.56055">
        <ele>73.6</ele>
        <time>2023-05-14T06:02:34.000Z</time>
      </trkpt>
      <trkpt lat="43.70629" lon="3.56046">
        <ele>73.6</ele>
        <time>2023-05-14T06:02:36.000Z</time>
      </trkpt>
      <trkpt lat="43.70637" lon="3.56037">
        <ele>73.5</ele>
        <time>2023-05-14T06:02:38.000Z</time>
      </trkpt>
      <trkpt lat="43.70644" lon="3.56026">
        <ele>73.4</ele>
        <time>2023-05-14T06:02:40.000Z</time>
      </trkpt>
      <trkpt lat="43.70653" lon="3.56017">
        <ele>73.4</ele>
        <time>2023-05-14T06:02:42.000Z</time>
      </trkpt>
      <trkpt lat="43.70661" lon="3.56008">
        <ele>73.3</ele>
        <time>2023-05-14T06:02:44.000Z</time>
      </trkpt>
      <trkpt lat="43.70669" lon="3.56">
        <ele>73.3</ele>
        <time>2023-05-14T06:02:46.000Z</time>
      </trkpt>
      <trkpt lat="43.70677" lon="3.55993">
        <ele>73.3</ele>
        <time>2023-05-14T06:02:48.000Z</time>
      </trkpt>
      <trkpt lat="43.70685" lon="3.55985">
        <ele>73.3</ele>
        <time>2023-05-14T06:02:50.000Z</time>
      </trkpt>
      <trkpt lat="43.70693" lon="3.55978">
        <ele>73.3</ele>
        <time>2023-05-14T06:02:52.000Z</time>
      </trkpt>
      <trkpt lat="43.70703" lon="3.55967">
        <ele>73.4</ele>
        <time>2023-05-14T06:02:55.000Z</time>
      </trkpt>
      <trkpt lat="43.70712" lon="3.55956">
        <ele>73.4</ele>
        <time>2023-05-14T06:02:58.000Z</time>
      </trkpt>
      <trkpt lat="43.70719" lon="3.55947">
        <ele>73.5</ele>
        <time>2023-05-14T06:03:00.000Z</time>
      </trkpt>
      <trkpt lat="43.70725" lon="3.55937">
        <ele>73.6</ele>
        <time>2023-05-14T06:03:02.000Z</time>
      </trkpt>
      <trkpt lat="43.70731" lon="3.55927">
        <ele>73.6</ele>
        <time>2023-05-14T06:03:04.000Z</time>
      </trkpt>
      <trkpt lat="43.70737" lon="3.55917">
        <ele>73.6</ele>
        <time>2023-05-14T06:03:06.000Z</time>
      </trkpt>
      <trkpt lat="43.70743" lon="3.55907">
        <ele>73.7</ele>
        <time>2023-05-14T06:03:08.000Z</time>
      </trkpt>
      <trkpt lat="43.70749" lon="3.55896">
        <ele>73.7</ele>
        <time>2023-05-14T06:03:10.000Z</time>
      </trkpt>
      <trkpt lat="43.70756" lon="3.55886">
        <ele>73.8</ele>
        <time>2023-05-14T06:03:12.000Z</time>
      </trkpt>
      <trkpt lat="43.70762" lon="3.55875">
        <ele>73.8</ele>
        <time>2023-05-14T06:03:14.000Z</time>
      </trkpt>
      <trkpt lat="43.70769" lon="3.55864">
        <ele>73.9</ele>
        <time>2023-05-14T06:03:16.000Z</time>
      </trkpt>
      <trkpt lat="43.70775" lon="3.55853">
        <ele>73.9</ele>
        <time>2023-05-14T06:03:18.000Z</time>
      </trkpt>
      <trkpt lat="43.70782" lon="3.55843">
        <ele>73.9</ele>
        <time>2023-05-14T06:03:20.000Z</time>
      </trkpt>
      <trkpt lat="43.70788" lon="3.55832">
        <ele>73.9</ele>
        <time>2023-05-14T06:03:22.000Z</time>
      </trkpt>
      <trkpt lat="43.70795" lon="3.55821">
        <ele>74</ele>
        <time>2023-05-14T06:03:24.000Z</time>
      </trkpt>
      <trkpt lat="43.70802" lon="3.5581">
        <ele>74</ele>
        <time>2023-05-14T06:03:26.000Z</time>
      </trkpt>
      <trkpt lat="43.70809" lon="3.55799">
        <ele>74</ele>
        <time>2023-05-14T06:03:28.000Z</time>
      </trkpt>
      <trkpt lat="43.70816" lon="3.55788">
        <ele>74</ele>
        <time>2023-05-14T06:03:30.000Z</time>
      </trkpt>
      <trkpt lat="43.7082" lon="3.55776">
        <ele>74</ele>
        <time>2023-05-14T06:03:32.000Z</time>
      </trkpt>
      <trkpt lat="43.7082" lon="3.55762">
        <ele>74.1</ele>
        <time>2023-05-14T06:03:34.000Z</time>
      </trkpt>
      <trkpt lat="43.70816" lon="3.55749">
        <ele>74.1</ele>
        <time>2023-05-14T06:03:36.000Z</time>
      </trkpt>
      <trkpt lat="43.70811" lon="3.55738">
        <ele>74.1</ele>
        <time>2023-05-14T06:03:38.000Z</time>
      </trkpt>
      <trkpt lat="43.70807" lon="3.55726">
        <ele>74.1</ele>
        <time>2023-05-14T06:03:40.000Z</time>
      </trkpt>
      <trkpt lat="43.70801" lon="3.55711">
        <ele>74.2</ele>
        <time>2023-05-14T06:03:43.000Z</time>
      </trkpt>
      <trkpt lat="43.70796" lon="3.55696">
        <ele>74.3</ele>
        <time>2023-05-14T06:03:46.000Z</time>
      </trkpt>
      <trkpt lat="43.7079" lon="3.55684">
        <ele>74.4</ele>
        <time>2023-05-14T06:03:49.000Z</time>
      </trkpt>
      <trkpt lat="43.7078" lon="3.5568">
        <ele>74.6</ele>
        <time>2023-05-14T06:03:52.000Z</time>
      </trkpt>
      <trkpt lat="43.70768" lon="3.5568">
        <ele>74.7</ele>
        <time>2023-05-14T06:03:55.000Z</time>
      </trkpt>
      <trkpt lat="43.70757" lon="3.55671">
        <ele>74.7</ele>
        <time>2023-05-14T06:03:58.000Z</time>
      </trkpt>
      <trkpt lat="43.70751" lon="3.55661">
        <ele>74.7</ele>
        <time>2023-05-14T06:04:00.000Z</time>
      </trkpt>
      <trkpt lat="43.70746" lon="3.5565">
        <ele>74.8</ele>
        <time>2023-05-14T06:04:02.000Z</time>
      </trkpt>
      <trkpt lat="43.7074" lon="3.55639">
        <ele>74.8</ele>
        <time>2023-05-14T06:04:04.000Z</time>
      </trkpt>
      <trkpt lat="43.70735" lon="3.55628">
        <ele>74.8</ele>
        <time>2023-05-14T06:04:06.000Z</time>
      </trkpt>
      <trkpt lat="43.70728" lon="3.55619">
        <ele>74.8</ele>
        <time>2023-05-14T06:04:08.000Z</time>
      </trkpt>
      <trkpt lat="43.70721" lon="3.55609">
        <ele>74.9</ele>
        <time>2023-05-14T06:04:10.000Z</time>
      </trkpt>
      <trkpt lat="43.70713" lon="3.55602">
        <ele>74.9</ele>
        <time>2023-05-14T06:04:12.000Z</time>
      </trkpt>
      <trkpt lat="43.70704" lon="3.55595">
        <ele>74.9</ele>
        <time>2023-05-14T06:04:14.000Z</time>
      </trkpt>
      <trkpt lat="43.70696" lon="3.5559">
        <ele>75</ele>
        <time>2023-05-14T06:04:16.000Z</time>
      </trkpt>
      <trkpt lat="43.70684" lon="3.55582">
        <ele>75.1</ele>
        <time>2023-05-14T06:04:19.000Z</time>
      </trkpt>
      <trkpt lat="43.70673" lon="3.55574">
        <ele>75.3</ele>
        <time>2023-05-14T06:04:22.000Z</time>
      </trkpt>
      <trkpt lat="43.70661" lon="3.55566">
        <ele>75.5</ele>
        <time>2023-05-14T06:04:25.000Z</time>
      </trkpt>
      <trkpt lat="43.70653" lon="3.5556">
        <ele>75.7</ele>
        <time>2023-05-14T06:04:27.000Z</time>
      </trkpt>
      <trkpt lat="43.70642" lon="3.5555">
        <ele>76.1</ele>
        <time>2023-05-14T06:04:30.000Z</time>
      </trkpt>
      <trkpt lat="43.70631" lon="3.55542">
        <ele>76.7</ele>
        <time>2023-05-14T06:04:33.000Z</time>
      </trkpt>
      <trkpt lat="43.70619" lon="3.55535">
        <ele>77.5</ele>
        <time>2023-05-14T06:04:36.000Z</time>
      </trkpt>
      <trkpt lat="43.70607" lon="3.55533">
        <ele>78.4</ele>
        <time>2023-05-14T06:04:39.000Z</time>
      </trkpt>
      <trkpt lat="43.70595" lon="3.55533">
        <ele>79.3</ele>
        <time>2023-05-14T06:04:42.000Z</time>
      </trkpt>
      <trkpt lat="43.70582" lon="3.55535">
        <ele>80.3</ele>
        <time>2023-05-14T06:04:45.000Z</time>
      </trkpt>
      <trkpt lat="43.70569" lon="3.55537">
        <ele>81.2</ele>
        <time>2023-05-14T06:04:48.000Z</time>
      </trkpt>
      <trkpt lat="43.70556" lon="3.55537">
        <ele>82</ele>
        <time>2023-05-14T06:04:51.000Z</time>
      </trkpt>
      <trkpt lat="43.70543" lon="3.55534">
        <ele>83.1</ele>
        <time>2023-05-14T06:04:54.000Z</time>
      </trkpt>
      <trkpt lat="43.70532" lon="3.55528">
        <ele>84.1</ele>
        <time>2023-05-14T06:04:57.000Z</time>
      </trkpt>
      <trkpt lat="43.7052" lon="3.55519">
        <ele>85</ele>
        <time>2023-05-14T06:05:00.000Z</time>
      </trkpt>
      <trkpt lat="43.7051" lon="3.5551">
        <ele>85.8</ele>
        <time>2023-05-14T06:05:03.000Z</time>
      </trkpt>
      <trkpt lat="43.705" lon="3.555">
        <ele>86.6</ele>
        <time>2023-05-14T06:05:06.000Z</time>
      </trkpt>
      <trkpt lat="43.70491" lon="3.55491">
        <ele>87.3</ele>
        <time>2023-05-14T06:05:09.000Z</time>
      </trkpt>
      <trkpt lat="43.70482" lon="3.55482">
        <ele>87.9</ele>
        <time>2023-05-14T06:05:12.000Z</time>
      </trkpt>
      <trkpt lat="43.70472" lon="3.55473">
        <ele>88.5</ele>
        <time>2023-05-14T06:05:15.000Z</time>
      </trkpt>
      <trkpt lat="43.70462" lon="3.55464">
        <ele>89</ele>
        <time>2023-05-14T06:05:18.000Z</time>
      </trkpt>
      <trkpt lat="43.70453" lon="3.55453">
        <ele>89.7</ele>
        <time>2023-05-14T06:05:21.000Z</time>
      </trkpt>
      <trkpt lat="43.70444" lon="3.55443">
        <ele>90.4</ele>
        <time>2023-05-14T06:05:24.000Z</time>
      </trkpt>
      <trkpt lat="43.70435" lon="3.55433">
        <ele>91.1</ele>
        <time>2023-05-14T06:05:27.000Z</time>
      </trkpt>
      <trkpt lat="43.70426" lon="3.55424">
        <ele>91.8</ele>
        <time>2023-05-14T06:05:30.000Z</time>
      </trkpt>
      <trkpt lat="43.70417" lon="3.55414">
        <ele>92.5</ele>
        <time>2023-05-14T06:05:33.000Z</time>
      </trkpt>
      <trkpt lat="43.70407" lon="3.55404">
        <ele>93.4</ele>
        <time>2023-05-14T06:05:36.000Z</time>
      </trkpt>
      <trkpt lat="43.70398" lon="3.55395">
        <ele>94.1</ele>
        <time>2023-05-14T06:05:39.000Z</time>
      </trkpt>
      <trkpt lat="43.70389" lon="3.55388">
        <ele>94.7</ele>
        <time>2023-05-14T06:05:42.000Z</time>
      </trkpt>
      <trkpt lat="43.70384" lon="3.55376">
        <ele>95.5</ele>
        <time>2023-05-14T06:05:46.000Z</time>
      </trkpt>
      <trkpt lat="43.70392" lon="3.55364">
        <ele>96.1</ele>
        <time>2023-05-14T06:05:50.000Z</time>
      </trkpt>
      <trkpt lat="43.704" lon="3.55352">
        <ele>96.8</ele>
        <time>2023-05-14T06:05:54.000Z</time>
      </trkpt>
      <trkpt lat="43.70408" lon="3.55343">
        <ele>97.2</ele>
        <time>2023-05-14T06:05:57.000Z</time>
      </trkpt>
      <trkpt lat="43.70416" lon="3.55334">
        <ele>97.6</ele>
        <time>2023-05-14T06:06:00.000Z</time>
      </trkpt>
      <trkpt lat="43.70424" lon="3.55325">
        <ele>98.1</ele>
        <time>2023-05-14T06:06:03.000Z</time>
      </trkpt>
      <trkpt lat="43.70432" lon="3.55316">
        <ele>98.6</ele>
        <time>2023-05-14T06:06:06.000Z</time>
      </trkpt>
      <trkpt lat="43.70439" lon="3.55308">
        <ele>99</ele>
        <time>2023-05-14T06:06:09.000Z</time>
      </trkpt>
      <trkpt lat="43.70446" lon="3.55299">
        <ele>99.4</ele>
        <time>2023-05-14T06:06:12.000Z</time>
      </trkpt>
      <trkpt lat="43.70453" lon="3.5529">
        <ele>99.9</ele>
        <time>2023-05-14T06:06:15.000Z</time>
      </trkpt>
      <trkpt lat="43.70461" lon="3.55281">
        <ele>100.5</ele>
        <time>2023-05-14T06:06:18.000Z</time>
      </trkpt>
      <trkpt lat="43.70468" lon="3.55273">
        <ele>101.3</ele>
        <time>2023-05-14T06:06:21.000Z</time>
      </trkpt>
      <trkpt lat="43.70476" lon="3.55263">
        <ele>102.4</ele>
        <time>2023-05-14T06:06:25.000Z</time>
      </trkpt>
      <trkpt lat="43.70484" lon="3.55251">
        <ele>103.7</ele>
        <time>2023-05-14T06:06:29.000Z</time>
      </trkpt>
      <trkpt lat="43.70492" lon="3.55241">
        <ele>105.3</ele>
        <time>2023-05-14T06:06:33.000Z</time>
      </trkpt>
      <trkpt lat="43.70501" lon="3.55232">
        <ele>106.8</ele>
        <time>2023-05-14T06:06:37.000Z</time>
      </trkpt>
      <trkpt lat="43.70509" lon="3.5522">
        <ele>108.4</ele>
        <time>2023-05-14T06:06:41.000Z</time>
      </trkpt>
      <trkpt lat="43.70516" lon="3.55209">
        <ele>110.2</ele>
        <time>2023-05-14T06:06:45.000Z</time>
      </trkpt>
      <trkpt lat="43.70522" lon="3.55198">
        <ele>112</ele>
        <time>2023-05-14T06:06:49.000Z</time>
      </trkpt>
      <trkpt lat="43.70528" lon="3.55188">
        <ele>114</ele>
        <time>2023-05-14T06:06:53.000Z</time>
      </trkpt>
      <trkpt lat="43.70534" lon="3.55178">
        <ele>115.8</ele>
        <time>2023-05-14T06:06:57.000Z</time>
      </trkpt>
      <trkpt lat="43.70542" lon="3.55171">
        <ele>117.9</ele>
        <time>2023-05-14T06:07:01.000Z</time>
      </trkpt>
      <trkpt lat="43.7055" lon="3.55163">
        <ele>119.8</ele>
        <time>2023-05-14T06:07:05.000Z</time>
      </trkpt>
      <trkpt lat="43.70559" lon="3.55154">
        <ele>121.8</ele>
        <time>2023-05-14T06:07:10.000Z</time>
      </trkpt>
      <trkpt lat="43.70563" lon="3.55142">
        <ele>123.9</ele>
        <time>2023-05-14T06:07:15.000Z</time>
      </trkpt>
      <trkpt lat="43.70559" lon="3.55128">
        <ele>125.6</ele>
        <time>2023-05-14T06:07:20.000Z</time>
      </trkpt>
      <trkpt lat="43.70555" lon="3.55117">
        <ele>126.9</ele>
        <time>2023-05-14T06:07:24.000Z</time>
      </trkpt>
      <trkpt lat="43.70547" lon="3.55107">
        <ele>127.7</ele>
        <time>2023-05-14T06:07:28.000Z</time>
      </trkpt>
      <trkpt lat="43.7054" lon="3.55099">
        <ele>128.1</ele>
        <time>2023-05-14T06:07:31.000Z</time>
      </trkpt>
      <trkpt lat="43.70534" lon="3.55088">
        <ele>128.3</ele>
        <time>2023-05-14T06:07:34.000Z</time>
      </trkpt>
      <trkpt lat="43.70527" lon="3.55078">
        <ele>128.4</ele>
        <time>2023-05-14T06:07:37.000Z</time>
      </trkpt>
      <trkpt lat="43.7052" lon="3.55067">
        <ele>128.5</ele>
        <time>2023-05-14T06:07:40.000Z</time>
      </trkpt>
      <trkpt lat="43.70513" lon="3.55055">
        <ele>128.7</ele>
        <time>2023-05-14T06:07:43.000Z</time>
      </trkpt>
      <trkpt lat="43.70505" lon="3.55042">
        <ele>128.6</ele>
        <time>2023-05-14T06:07:46.000Z</time>
      </trkpt>
      <trkpt lat="43.705" lon="3.55029">
        <ele>128.5</ele>
        <time>2023-05-14T06:07:48.000Z</time>
      </trkpt>
      <trkpt lat="43.70496" lon="3.55015">
        <ele>128.4</ele>
        <time>2023-05-14T06:07:50.000Z</time>
      </trkpt>
      <trkpt lat="43.70493" lon="3.55001">
        <ele>128.2</ele>
        <time>2023-05-14T06:07:52.000Z</time>
      </trkpt>
      <trkpt lat="43.70488" lon="3.54988">
        <ele>128.1</ele>
        <time>2023-05-14T06:07:55.000Z</time>
      </trkpt>
      <trkpt lat="43.70482" lon="3.54977">
        <ele>127.7</ele>
        <time>2023-05-14T06:07:59.000Z</time>
      </trkpt>
      <trkpt lat="43.70479" lon="3.54975">
        <ele>127.3</ele>
        <time>2023-05-14T06:08:02.000Z</time>
      </trkpt>
      <trkpt lat="43.7048" lon="3.54975">
        <ele>127.2</ele>
        <time>2023-05-14T06:08:03.000Z</time>
      </trkpt>
      <trkpt lat="43.7048" lon="3.54975">
        <ele>127.1</ele>
        <time>2023-05-14T06:08:04.000Z</time>
      </trkpt>
      <trkpt lat="43.70479" lon="3.54975">
        <ele>125.6</ele>
        <time>2023-05-14T06:10:21.000Z</time>
      </trkpt>
      <trkpt lat="43.70475" lon="3.54959">
        <ele>125.6</ele>
        <time>2023-05-14T06:10:26.000Z</time>
      </trkpt>
      <trkpt lat="43.70477" lon="3.5494">
        <ele>125.4</ele>
        <time>2023-05-14T06:10:29.000Z</time>
      </trkpt>
      <trkpt lat="43.70476" lon="3.54924">
        <ele>125.3</ele>
        <time>2023-05-14T06:10:31.000Z</time>
      </trkpt>
      <trkpt lat="43.70468" lon="3.54915">
        <ele>125.1</ele>
        <time>2023-05-14T06:10:33.000Z</time>
      </trkpt>
      <trkpt lat="43.70459" lon="3.54913">
        <ele>124.8</ele>
        <time>2023-05-14T06:10:35.000Z</time>
      </trkpt>
      <trkpt lat="43.7045" lon="3.54916">
        <ele>124.5</ele>
        <time>2023-05-14T06:10:37.000Z</time>
      </trkpt>
      <trkpt lat="43.70441" lon="3.54923">
        <ele>124.2</ele>
        <time>2023-05-14T06:10:39.000Z</time>
      </trkpt>
      <trkpt lat="43.70432" lon="3.54931">
        <ele>123.8</ele>
        <time>2023-05-14T06:10:41.000Z</time>
      </trkpt>
      <trkpt lat="43.70423" lon="3.54939">
        <ele>123.2</ele>
        <time>2023-05-14T06:10:43.000Z</time>
      </trkpt>
      <trkpt lat="43.70414" lon="3.54947">
        <ele>122.6</ele>
        <time>2023-05-14T06:10:45.000Z</time>
      </trkpt>
      <trkpt lat="43.70411" lon="3.54935">
        <ele>121.6</ele>
        <time>2023-05-14T06:10:50.000Z</time>
      </trkpt>
      <trkpt lat="43.70419" lon="3.54927">
        <ele>121.6</ele>
        <time>2023-05-14T06:10:53.000Z</time>
      </trkpt>
      <trkpt lat="43.70429" lon="3.54917">
        <ele>122.4</ele>
        <time>2023-05-14T06:10:57.000Z</time>
      </trkpt>
      <trkpt lat="43.70435" lon="3.54908">
        <ele>123.3</ele>
        <time>2023-05-14T06:11:00.000Z</time>
      </trkpt>
      <trkpt lat="43.70442" lon="3.549">
        <ele>124.7</ele>
        <time>2023-05-14T06:11:03.000Z</time>
      </trkpt>
      <trkpt lat="43.70437" lon="3.54888">
        <ele>127.1</ele>
        <time>2023-05-14T06:11:07.000Z</time>
      </trkpt>
      <trkpt lat="43.70428" lon="3.54886">
        <ele>128.6</ele>
        <time>2023-05-14T06:11:10.000Z</time>
      </trkpt>
      <trkpt lat="43.70417" lon="3.54882">
        <ele>130.4</ele>
        <time>2023-05-14T06:11:14.000Z</time>
      </trkpt>
      <trkpt lat="43.70407" lon="3.54876">
        <ele>131.6</ele>
        <time>2023-05-14T06:11:18.000Z</time>
      </trkpt>
      <trkpt lat="43.70398" lon="3.54866">
        <ele>132.9</ele>
        <time>2023-05-14T06:11:22.000Z</time>
      </trkpt>
      <trkpt lat="43.7039" lon="3.54857">
        <ele>134.1</ele>
        <time>2023-05-14T06:11:26.000Z</time>
      </trkpt>
      <trkpt lat="43.70382" lon="3.54845">
        <ele>135</ele>
        <time>2023-05-14T06:11:30.000Z</time>
      </trkpt>
      <trkpt lat="43.70376" lon="3.54835">
        <ele>135.3</ele>
        <time>2023-05-14T06:11:33.000Z</time>
      </trkpt>
      <trkpt lat="43.7037" lon="3.54824">
        <ele>135.6</ele>
        <time>2023-05-14T06:11:36.000Z</time>
      </trkpt>
      <trkpt lat="43.70364" lon="3.54811">
        <ele>135.6</ele>
        <time>2023-05-14T06:11:39.000Z</time>
      </trkpt>
      <trkpt lat="43.70358" lon="3.54797">
        <ele>135.7</ele>
        <time>2023-05-14T06:11:42.000Z</time>
      </trkpt>
      <trkpt lat="43.70355" lon="3.54784">
        <ele>135.6</ele>
        <time>2023-05-14T06:11:45.000Z</time>
      </trkpt>
      <trkpt lat="43.70354" lon="3.54771">
        <ele>135.5</ele>
        <time>2023-05-14T06:11:49.000Z</time>
      </trkpt>
      <trkpt lat="43.7036" lon="3.54757">
        <ele>135.6</ele>
        <time>2023-05-14T06:11:53.000Z</time>
      </trkpt>
      <trkpt lat="43.70365" lon="3.54743">
        <ele>136</ele>
        <time>2023-05-14T06:11:57.000Z</time>
      </trkpt>
      <trkpt lat="43.7037" lon="3.54731">
        <ele>136.5</ele>
        <time>2023-05-14T06:12:01.000Z</time>
      </trkpt>
      <trkpt lat="43.70372" lon="3.54718">
        <ele>137.3</ele>
        <time>2023-05-14T06:12:05.000Z</time>
      </trkpt>
      <trkpt lat="43.70376" lon="3.54705">
        <ele>138.4</ele>
        <time>2023-05-14T06:12:09.000Z</time>
      </trkpt>
      <trkpt lat="43.70379" lon="3.54692">
        <ele>139.8</ele>
        <time>2023-05-14T06:12:13.000Z</time>
      </trkpt>
      <trkpt lat="43.70376" lon="3.54679">
        <ele>141.1</ele>
        <time>2023-05-14T06:12:17.000Z</time>
      </trkpt>
      <trkpt lat="43.70371" lon="3.54665">
        <ele>141.5</ele>
        <time>2023-05-14T06:12:20.000Z</time>
      </trkpt>
      <trkpt lat="43.70365" lon="3.54653">
        <ele>141.8</ele>
        <time>2023-05-14T06:12:23.000Z</time>
      </trkpt>
      <trkpt lat="43.70358" lon="3.54641">
        <ele>141.7</ele>
        <time>2023-05-14T06:12:26.000Z</time>
      </trkpt>
      <trkpt lat="43.70349" lon="3.54627">
        <ele>141.7</ele>
        <time>2023-05-14T06:12:29.000Z</time>
      </trkpt>
      <trkpt lat="43.70343" lon="3.54617">
        <ele>141.7</ele>
        <time>2023-05-14T06:12:31.000Z</time>
      </trkpt>
      <trkpt lat="43.70338" lon="3.54606">
        <ele>141.6</ele>
        <time>2023-05-14T06:12:33.000Z</time>
      </trkpt>
      <trkpt lat="43.70335" lon="3.54594">
        <ele>141.4</ele>
        <time>2023-05-14T06:12:35.000Z</time>
      </trkpt>
      <trkpt lat="43.70333" lon="3.54582">
        <ele>141.3</ele>
        <time>2023-05-14T06:12:37.000Z</time>
      </trkpt>
      <trkpt lat="43.70332" lon="3.54569">
        <ele>141.3</ele>
        <time>2023-05-14T06:12:39.000Z</time>
      </trkpt>
      <trkpt lat="43.70329" lon="3.54553">
        <ele>141.4</ele>
        <time>2023-05-14T06:12:42.000Z</time>
      </trkpt>
      <trkpt lat="43.70323" lon="3.54539">
        <ele>141.6</ele>
        <time>2023-05-14T06:12:45.000Z</time>
      </trkpt>
      <trkpt lat="43.70317" lon="3.54527">
        <ele>141.6</ele>
        <time>2023-05-14T06:12:47.000Z</time>
      </trkpt>
      <trkpt lat="43.70311" lon="3.54515">
        <ele>141.6</ele>
        <time>2023-05-14T06:12:49.000Z</time>
      </trkpt>
      <trkpt lat="43.70305" lon="3.54504">
        <ele>141.5</ele>
        <time>2023-05-14T06:12:51.000Z</time>
      </trkpt>
      <trkpt lat="43.70299" lon="3.54495">
        <ele>141.5</ele>
        <time>2023-05-14T06:12:54.000Z</time>
      </trkpt>
      <trkpt lat="43.70293" lon="3.54484">
        <ele>141.5</ele>
        <time>2023-05-14T06:12:57.000Z</time>
      </trkpt>
      <trkpt lat="43.70285" lon="3.54472">
        <ele>141.4</ele>
        <time>2023-05-14T06:13:00.000Z</time>
      </trkpt>
      <trkpt lat="43.70279" lon="3.54459">
        <ele>141.4</ele>
        <time>2023-05-14T06:13:03.000Z</time>
      </trkpt>
      <trkpt lat="43.70271" lon="3.54447">
        <ele>141.3</ele>
        <time>2023-05-14T06:13:07.000Z</time>
      </trkpt>
      <trkpt lat="43.70264" lon="3.54439">
        <ele>141.2</ele>
        <time>2023-05-14T06:13:09.000Z</time>
      </trkpt>
      <trkpt lat="43.70258" lon="3.5443">
        <ele>141.1</ele>
        <time>2023-05-14T06:13:11.000Z</time>
      </trkpt>
      <trkpt lat="43.70251" lon="3.54421">
        <ele>141</ele>
        <time>2023-05-14T06:13:13.000Z</time>
      </trkpt>
      <trkpt lat="43.70244" lon="3.54411">
        <ele>140.9</ele>
        <time>2023-05-14T06:13:15.000Z</time>
      </trkpt>
      <trkpt lat="43.70237" lon="3.54397">
        <ele>140.8</ele>
        <time>2023-05-14T06:13:18.000Z</time>
      </trkpt>
      <trkpt lat="43.70234" lon="3.54384">
        <ele>140.9</ele>
        <time>2023-05-14T06:13:21.000Z</time>
      </trkpt>
      <trkpt lat="43.70228" lon="3.54371">
        <ele>141</ele>
        <time>2023-05-14T06:13:26.000Z</time>
      </trkpt>
      <trkpt lat="43.70222" lon="3.54361">
        <ele>141.1</ele>
        <time>2023-05-14T06:13:30.000Z</time>
      </trkpt>
      <trkpt lat="43.70212" lon="3.54359">
        <ele>141</ele>
        <time>2023-05-14T06:13:36.000Z</time>
      </trkpt>
      <trkpt lat="43.702" lon="3.54368">
        <ele>140.7</ele>
        <time>2023-05-14T06:13:39.000Z</time>
      </trkpt>
      <trkpt lat="43.70192" lon="3.54373">
        <ele>140.4</ele>
        <time>2023-05-14T06:13:41.000Z</time>
      </trkpt>
      <trkpt lat="43.70183" lon="3.54379">
        <ele>139.9</ele>
        <time>2023-05-14T06:13:43.000Z</time>
      </trkpt>
      <trkpt lat="43.70175" lon="3.54386">
        <ele>139.3</ele>
        <time>2023-05-14T06:13:45.000Z</time>
      </trkpt>
      <trkpt lat="43.70166" lon="3.54383">
        <ele>137.7</ele>
        <time>2023-05-14T06:13:49.000Z</time>
      </trkpt>
      <trkpt lat="43.70164" lon="3.5437">
        <ele>136.9</ele>
        <time>2023-05-14T06:13:52.000Z</time>
      </trkpt>
      <trkpt lat="43.70162" lon="3.54357">
        <ele>136.6</ele>
        <time>2023-05-14T06:13:55.000Z</time>
      </trkpt>
      <trkpt lat="43.70159" lon="3.54345">
        <ele>136.4</ele>
        <time>2023-05-14T06:13:58.000Z</time>
      </trkpt>
      <trkpt lat="43.70157" lon="3.54332">
        <ele>136.4</ele>
        <time>2023-05-14T06:14:01.000Z</time>
      </trkpt>
      <trkpt lat="43.70157" lon="3.54318">
        <ele>136.5</ele>
        <time>2023-05-14T06:14:04.000Z</time>
      </trkpt>
      <trkpt lat="43.70159" lon="3.54304">
        <ele>136.6</ele>
        <time>2023-05-14T06:14:07.000Z</time>
      </trkpt>
      <trkpt lat="43.70161" lon="3.54289">
        <ele>136.9</ele>
        <time>2023-05-14T06:14:10.000Z</time>
      </trkpt>
      <trkpt lat="43.70161" lon="3.54274">
        <ele>137.1</ele>
        <time>2023-05-14T06:14:13.000Z</time>
      </trkpt>
      <trkpt lat="43.70161" lon="3.5426">
        <ele>137.4</ele>
        <time>2023-05-14T06:14:16.000Z</time>
      </trkpt>
      <trkpt lat="43.70161" lon="3.54245">
        <ele>137.8</ele>
        <time>2023-05-14T06:14:19.000Z</time>
      </trkpt>
      <trkpt lat="43.70161" lon="3.54229">
        <ele>138.1</ele>
        <time>2023-05-14T06:14:22.000Z</time>
      </trkpt>
      <trkpt lat="43.7016" lon="3.54215">
        <ele>138.4</ele>
        <time>2023-05-14T06:14:25.000Z</time>
      </trkpt>
      <trkpt lat="43.7016" lon="3.542">
        <ele>138.7</ele>
        <time>2023-05-14T06:14:28.000Z</time>
      </trkpt>
      <trkpt lat="43.70159" lon="3.54186">
        <ele>139</ele>
        <time>2023-05-14T06:14:31.000Z</time>
      </trkpt>
      <trkpt lat="43.70159" lon="3.54172">
        <ele>139.4</ele>
        <time>2023-05-14T06:14:34.000Z</time>
      </trkpt>
      <trkpt lat="43.7017" lon="3.5417">
        <ele>140.2</ele>
        <time>2023-05-14T06:14:38.000Z</time>
      </trkpt>
      <trkpt lat="43.70181" lon="3.5417">
        <ele>140.8</ele>
        <time>2023-05-14T06:14:41.000Z</time>
      </trkpt>
      <trkpt lat="43.70191" lon="3.54169">
        <ele>141.5</ele>
        <time>2023-05-14T06:14:44.000Z</time>
      </trkpt>
      <trkpt lat="43.70202" lon="3.54168">
        <ele>142.3</ele>
        <time>2023-05-14T06:14:47.000Z</time>
      </trkpt>
      <trkpt lat="43.70212" lon="3.54165">
        <ele>143.2</ele>
        <time>2023-05-14T06:14:50.000Z</time>
      </trkpt>
      <trkpt lat="43.70222" lon="3.5416">
        <ele>144</ele>
        <time>2023-05-14T06:14:53.000Z</time>
      </trkpt>
      <trkpt lat="43.7023" lon="3.54152">
        <ele>144.8</ele>
        <time>2023-05-14T06:14:56.000Z</time>
      </trkpt>
      <trkpt lat="43.70237" lon="3.54143">
        <ele>145.4</ele>
        <time>2023-05-14T06:14:59.000Z</time>
      </trkpt>
      <trkpt lat="43.70243" lon="3.54132">
        <ele>145.9</ele>
        <time>2023-05-14T06:15:02.000Z</time>
      </trkpt>
      <trkpt lat="43.7025" lon="3.54123">
        <ele>146.4</ele>
        <time>2023-05-14T06:15:05.000Z</time>
      </trkpt>
      <trkpt lat="43.70257" lon="3.54113">
        <ele>146.9</ele>
        <time>2023-05-14T06:15:08.000Z</time>
      </trkpt>
      <trkpt lat="43.70263" lon="3.54103">
        <ele>147.3</ele>
        <time>2023-05-14T06:15:11.000Z</time>
      </trkpt>
      <trkpt lat="43.70269" lon="3.54093">
        <ele>147.7</ele>
        <time>2023-05-14T06:15:14.000Z</time>
      </trkpt>
      <trkpt lat="43.70274" lon="3.54081">
        <ele>148.1</ele>
        <time>2023-05-14T06:15:17.000Z</time>
      </trkpt>
      <trkpt lat="43.70278" lon="3.54069">
        <ele>148.5</ele>
        <time>2023-05-14T06:15:20.000Z</time>
      </trkpt>
      <trkpt lat="43.70282" lon="3.54057">
        <ele>148.9</ele>
        <time>2023-05-14T06:15:23.000Z</time>
      </trkpt>
      <trkpt lat="43.70286" lon="3.54046">
        <ele>149.4</ele>
        <time>2023-05-14T06:15:26.000Z</time>
      </trkpt>
      <trkpt lat="43.70291" lon="3.54034">
        <ele>149.9</ele>
        <time>2023-05-14T06:15:29.000Z</time>
      </trkpt>
      <trkpt lat="43.70296" lon="3.54023">
        <ele>150.3</ele>
        <time>2023-05-14T06:15:32.000Z</time>
      </trkpt>
      <trkpt lat="43.70302" lon="3.54012">
        <ele>150.8</ele>
        <time>2023-05-14T06:15:35.000Z</time>
      </trkpt>
      <trkpt lat="43.70306" lon="3.54">
        <ele>151.4</ele>
        <time>2023-05-14T06:15:38.000Z</time>
      </trkpt>
      <trkpt lat="43.70308" lon="3.53987">
        <ele>151.8</ele>
        <time>2023-05-14T06:15:41.000Z</time>
      </trkpt>
      <trkpt lat="43.70308" lon="3.53974">
        <ele>152.2</ele>
        <time>2023-05-14T06:15:44.000Z</time>
      </trkpt>
      <trkpt lat="43.70309" lon="3.53961">
        <ele>152.8</ele>
        <time>2023-05-14T06:15:47.000Z</time>
      </trkpt>
      <trkpt lat="43.70309" lon="3.53947">
        <ele>153.4</ele>
        <time>2023-05-14T06:15:50.000Z</time>
      </trkpt>
      <trkpt lat="43.70309" lon="3.53934">
        <ele>154</ele>
        <time>2023-05-14T06:15:53.000Z</time>
      </trkpt>
      <trkpt lat="43.70309" lon="3.53921">
        <ele>154.7</ele>
        <time>2023-05-14T06:15:56.000Z</time>
      </trkpt>
      <trkpt lat="43.7031" lon="3.53907">
        <ele>155.4</ele>
        <time>2023-05-14T06:15:59.000Z</time>
      </trkpt>
      <trkpt lat="43.70311" lon="3.53894">
        <ele>155.9</ele>
        <time>2023-05-14T06:16:02.000Z</time>
      </trkpt>
      <trkpt lat="43.70312" lon="3.53882">
        <ele>156.3</ele>
        <time>2023-05-14T06:16:05.000Z</time>
      </trkpt>
      <trkpt lat="43.70315" lon="3.53869">
        <ele>156.8</ele>
        <time>2023-05-14T06:16:08.000Z</time>
      </trkpt>
      <trkpt lat="43.7032" lon="3.53855">
        <ele>157.5</ele>
        <time>2023-05-14T06:16:12.000Z</time>
      </trkpt>
      <trkpt lat="43.70327" lon="3.53843">
        <ele>158.1</ele>
        <time>2023-05-14T06:16:16.000Z</time>
      </trkpt>
      <trkpt lat="43.70334" lon="3.53829">
        <ele>158.8</ele>
        <time>2023-05-14T06:16:20.000Z</time>
      </trkpt>
      <trkpt lat="43.70338" lon="3.53818">
        <ele>159.3</ele>
        <time>2023-05-14T06:16:23.000Z</time>
      </trkpt>
      <trkpt lat="43.70336" lon="3.53802">
        <ele>160</ele>
        <time>2023-05-14T06:16:27.000Z</time>
      </trkpt>
      <trkpt lat="43.70331" lon="3.53791">
        <ele>160.6</ele>
        <time>2023-05-14T06:16:30.000Z</time>
      </trkpt>
      <trkpt lat="43.70325" lon="3.53782">
        <ele>161.2</ele>
        <time>2023-05-14T06:16:33.000Z</time>
      </trkpt>
      <trkpt lat="43.70318" lon="3.53774">
        <ele>161.5</ele>
        <time>2023-05-14T06:16:36.000Z</time>
      </trkpt>
      <trkpt lat="43.70311" lon="3.53766">
        <ele>162</ele>
        <time>2023-05-14T06:16:39.000Z</time>
      </trkpt>
      <trkpt lat="43.70304" lon="3.53757">
        <ele>162.4</ele>
        <time>2023-05-14T06:16:42.000Z</time>
      </trkpt>
      <trkpt lat="43.70297" lon="3.53747">
        <ele>162.9</ele>
        <time>2023-05-14T06:16:45.000Z</time>
      </trkpt>
      <trkpt lat="43.70292" lon="3.53736">
        <ele>163.4</ele>
        <time>2023-05-14T06:16:48.000Z</time>
      </trkpt>
      <trkpt lat="43.70289" lon="3.53724">
        <ele>163.9</ele>
        <time>2023-05-14T06:16:51.000Z</time>
      </trkpt>
      <trkpt lat="43.70286" lon="3.53712">
        <ele>164.4</ele>
        <time>2023-05-14T06:16:54.000Z</time>
      </trkpt>
      <trkpt lat="43.70284" lon="3.53699">
        <ele>164.9</ele>
        <time>2023-05-14T06:16:57.000Z</time>
      </trkpt>
      <trkpt lat="43.70283" lon="3.53686">
        <ele>165.3</ele>
        <time>2023-05-14T06:17:00.000Z</time>
      </trkpt>
      <trkpt lat="43.70281" lon="3.53673">
        <ele>165.9</ele>
        <time>2023-05-14T06:17:03.000Z</time>
      </trkpt>
      <trkpt lat="43.70279" lon="3.5366">
        <ele>166.3</ele>
        <time>2023-05-14T06:17:06.000Z</time>
      </trkpt>
      <trkpt lat="43.70277" lon="3.53646">
        <ele>167</ele>
        <time>2023-05-14T06:17:09.000Z</time>
      </trkpt>
      <trkpt lat="43.70276" lon="3.53633">
        <ele>167.7</ele>
        <time>2023-05-14T06:17:12.000Z</time>
      </trkpt>
      <trkpt lat="43.70275" lon="3.5362">
        <ele>168.3</ele>
        <time>2023-05-14T06:17:15.000Z</time>
      </trkpt>
      <trkpt lat="43.70275" lon="3.53607">
        <ele>168.8</ele>
        <time>2023-05-14T06:17:18.000Z</time>
      </trkpt>
      <trkpt lat="43.70274" lon="3.53594">
        <ele>169.4</ele>
        <time>2023-05-14T06:17:21.000Z</time>
      </trkpt>
      <trkpt lat="43.70272" lon="3.53581">
        <ele>169.9</ele>
        <time>2023-05-14T06:17:24.000Z</time>
      </trkpt>
      <trkpt lat="43.70269" lon="3.53568">
        <ele>170.5</ele>
        <time>2023-05-14T06:17:27.000Z</time>
      </trkpt>
      <trkpt lat="43.70267" lon="3.53555">
        <ele>171.1</ele>
        <time>2023-05-14T06:17:30.000Z</time>
      </trkpt>
      <trkpt lat="43.70265" lon="3.53543">
        <ele>171.7</ele>
        <time>2023-05-14T06:17:33.000Z</time>
      </trkpt>
      <trkpt lat="43.70262" lon="3.5353">
        <ele>172.1</ele>
        <time>2023-05-14T06:17:36.000Z</time>
      </trkpt>
      <trkpt lat="43.70258" lon="3.53518">
        <ele>172.6</ele>
        <time>2023-05-14T06:17:39.000Z</time>
      </trkpt>
      <trkpt lat="43.70255" lon="3.53505">
        <ele>173</ele>
        <time>2023-05-14T06:17:42.000Z</time>
      </trkpt>
      <trkpt lat="43.70252" lon="3.53493">
        <ele>173.3</ele>
        <time>2023-05-14T06:17:45.000Z</time>
      </trkpt>
      <trkpt lat="43.70249" lon="3.53478">
        <ele>174</ele>
        <time>2023-05-14T06:17:49.000Z</time>
      </trkpt>
      <trkpt lat="43.70247" lon="3.53463">
        <ele>174.7</ele>
        <time>2023-05-14T06:17:53.000Z</time>
      </trkpt>
      <trkpt lat="43.70247" lon="3.53451">
        <ele>175</ele>
        <time>2023-05-14T06:17:56.000Z</time>
      </trkpt>
      <trkpt lat="43.7025" lon="3.53436">
        <ele>175.5</ele>
        <time>2023-05-14T06:18:00.000Z</time>
      </trkpt>
      <trkpt lat="43.7026" lon="3.53434">
        <ele>176.1</ele>
        <time>2023-05-14T06:18:04.000Z</time>
      </trkpt>
      <trkpt lat="43.70257" lon="3.53448">
        <ele>176.9</ele>
        <time>2023-05-14T06:18:08.000Z</time>
      </trkpt>
      <trkpt lat="43.70256" lon="3.5346">
        <ele>177.3</ele>
        <time>2023-05-14T06:18:11.000Z</time>
      </trkpt>
      <trkpt lat="43.70259" lon="3.53476">
        <ele>178</ele>
        <time>2023-05-14T06:18:15.000Z</time>
      </trkpt>
      <trkpt lat="43.70264" lon="3.5349">
        <ele>178.5</ele>
        <time>2023-05-14T06:18:19.000Z</time>
      </trkpt>
      <trkpt lat="43.7027" lon="3.53499">
        <ele>178.9</ele>
        <time>2023-05-14T06:18:22.000Z</time>
      </trkpt>
      <trkpt lat="43.70277" lon="3.53513">
        <ele>179.4</ele>
        <time>2023-05-14T06:18:26.000Z</time>
      </trkpt>
      <trkpt lat="43.70283" lon="3.53523">
        <ele>179.8</ele>
        <time>2023-05-14T06:18:29.000Z</time>
      </trkpt>
      <trkpt lat="43.70289" lon="3.53536">
        <ele>180.4</ele>
        <time>2023-05-14T06:18:33.000Z</time>
      </trkpt>
      <trkpt lat="43.70296" lon="3.5355">
        <ele>180.9</ele>
        <time>2023-05-14T06:18:37.000Z</time>
      </trkpt>
      <trkpt lat="43.70299" lon="3.53562">
        <ele>181.4</ele>
        <time>2023-05-14T06:18:40.000Z</time>
      </trkpt>
      <trkpt lat="43.70303" lon="3.53577">
        <ele>182</ele>
        <time>2023-05-14T06:18:44.000Z</time>
      </trkpt>
      <trkpt lat="43.70306" lon="3.53589">
        <ele>182.5</ele>
        <time>2023-05-14T06:18:47.000Z</time>
      </trkpt>
      <trkpt lat="43.70308" lon="3.53602">
        <ele>182.9</ele>
        <time>2023-05-14T06:18:50.000Z</time>
      </trkpt>
      <trkpt lat="43.70311" lon="3.53614">
        <ele>183.5</ele>
        <time>2023-05-14T06:18:53.000Z</time>
      </trkpt>
      <trkpt lat="43.70315" lon="3.53628">
        <ele>184.1</ele>
        <time>2023-05-14T06:18:56.000Z</time>
      </trkpt>
      <trkpt lat="43.70318" lon="3.5364">
        <ele>184.6</ele>
        <time>2023-05-14T06:18:59.000Z</time>
      </trkpt>
      <trkpt lat="43.70323" lon="3.53652">
        <ele>185.1</ele>
        <time>2023-05-14T06:19:02.000Z</time>
      </trkpt>
      <trkpt lat="43.70329" lon="3.53663">
        <ele>185.6</ele>
        <time>2023-05-14T06:19:05.000Z</time>
      </trkpt>
      <trkpt lat="43.70335" lon="3.53673">
        <ele>186.1</ele>
        <time>2023-05-14T06:19:08.000Z</time>
      </trkpt>
      <trkpt lat="43.70343" lon="3.53682">
        <ele>186.8</ele>
        <time>2023-05-14T06:19:11.000Z</time>
      </trkpt>
      <trkpt lat="43.70351" lon="3.5369">
        <ele>187.7</ele>
        <time>2023-05-14T06:19:14.000Z</time>
      </trkpt>
      <trkpt lat="43.70359" lon="3.53696">
        <ele>188.3</ele>
        <time>2023-05-14T06:19:17.000Z</time>
      </trkpt>
      <trkpt lat="43.70368" lon="3.53701">
        <ele>188.9</ele>
        <time>2023-05-14T06:19:20.000Z</time>
      </trkpt>
      <trkpt lat="43.70377" lon="3.53704">
        <ele>189.3</ele>
        <time>2023-05-14T06:19:23.000Z</time>
      </trkpt>
      <trkpt lat="43.70387" lon="3.53704">
        <ele>189.8</ele>
        <time>2023-05-14T06:19:26.000Z</time>
      </trkpt>
      <trkpt lat="43.70396" lon="3.53708">
        <ele>190.2</ele>
        <time>2023-05-14T06:19:29.000Z</time>
      </trkpt>
      <trkpt lat="43.70402" lon="3.53717">
        <ele>190.6</ele>
        <time>2023-05-14T06:19:32.000Z</time>
      </trkpt>
      <trkpt lat="43.70407" lon="3.53727">
        <ele>191.2</ele>
        <time>2023-05-14T06:19:35.000Z</time>
      </trkpt>
      <trkpt lat="43.70414" lon="3.53736">
        <ele>191.8</ele>
        <time>2023-05-14T06:19:38.000Z</time>
      </trkpt>
      <trkpt lat="43.70421" lon="3.53743">
        <ele>192.5</ele>
        <time>2023-05-14T06:19:41.000Z</time>
      </trkpt>
      <trkpt lat="43.7043" lon="3.5375">
        <ele>193.2</ele>
        <time>2023-05-14T06:19:44.000Z</time>
      </trkpt>
      <trkpt lat="43.70439" lon="3.53754">
        <ele>193.9</ele>
        <time>2023-05-14T06:19:47.000Z</time>
      </trkpt>
      <trkpt lat="43.70448" lon="3.53757">
        <ele>194.6</ele>
        <time>2023-05-14T06:19:50.000Z</time>
      </trkpt>
      <trkpt lat="43.70458" lon="3.53757">
        <ele>195.2</ele>
        <time>2023-05-14T06:19:53.000Z</time>
      </trkpt>
      <trkpt lat="43.70469" lon="3.53755">
        <ele>195.9</ele>
        <time>2023-05-14T06:19:57.000Z</time>
      </trkpt>
      <trkpt lat="43.7048" lon="3.53759">
        <ele>196.6</ele>
        <time>2023-05-14T06:20:01.000Z</time>
      </trkpt>
      <trkpt lat="43.70481" lon="3.53774">
        <ele>197.2</ele>
        <time>2023-05-14T06:20:05.000Z</time>
      </trkpt>
      <trkpt lat="43.70479" lon="3.53787">
        <ele>197.6</ele>
        <time>2023-05-14T06:20:08.000Z</time>
      </trkpt>
      <trkpt lat="43.70476" lon="3.538">
        <ele>198.1</ele>
        <time>2023-05-14T06:20:11.000Z</time>
      </trkpt>
      <trkpt lat="43.70474" lon="3.53813">
        <ele>198.6</ele>
        <time>2023-05-14T06:20:14.000Z</time>
      </trkpt>
      <trkpt lat="43.70474" lon="3.53827">
        <ele>199.4</ele>
        <time>2023-05-14T06:20:17.000Z</time>
      </trkpt>
      <trkpt lat="43.70474" lon="3.5384">
        <ele>200.1</ele>
        <time>2023-05-14T06:20:20.000Z</time>
      </trkpt>
      <trkpt lat="43.70473" lon="3.53853">
        <ele>201.1</ele>
        <time>2023-05-14T06:20:23.000Z</time>
      </trkpt>
      <trkpt lat="43.70473" lon="3.53866">
        <ele>201.9</ele>
        <time>2023-05-14T06:20:26.000Z</time>
      </trkpt>
      <trkpt lat="43.70474" lon="3.53879">
        <ele>202.5</ele>
        <time>2023-05-14T06:20:29.000Z</time>
      </trkpt>
      <trkpt lat="43.70475" lon="3.53892">
        <ele>203.3</ele>
        <time>2023-05-14T06:20:32.000Z</time>
      </trkpt>
      <trkpt lat="43.70478" lon="3.53905">
        <ele>203.8</ele>
        <time>2023-05-14T06:20:35.000Z</time>
      </trkpt>
      <trkpt lat="43.70481" lon="3.53917">
        <ele>204.3</ele>
        <time>2023-05-14T06:20:38.000Z</time>
      </trkpt>
      <trkpt lat="43.70484" lon="3.5393">
        <ele>205.2</ele>
        <time>2023-05-14T06:20:41.000Z</time>
      </trkpt>
      <trkpt lat="43.70488" lon="3.53943">
        <ele>205.9</ele>
        <time>2023-05-14T06:20:44.000Z</time>
      </trkpt>
      <trkpt lat="43.70493" lon="3.53955">
        <ele>206.6</ele>
        <time>2023-05-14T06:20:47.000Z</time>
      </trkpt>
      <trkpt lat="43.70498" lon="3.53966">
        <ele>207.5</ele>
        <time>2023-05-14T06:20:50.000Z</time>
      </trkpt>
      <trkpt lat="43.70503" lon="3.53978">
        <ele>208.4</ele>
        <time>2023-05-14T06:20:53.000Z</time>
      </trkpt>
      <trkpt lat="43.70508" lon="3.53989">
        <ele>209.5</ele>
        <time>2023-05-14T06:20:56.000Z</time>
      </trkpt>
      <trkpt lat="43.70513" lon="3.54">
        <ele>210.5</ele>
        <time>2023-05-14T06:20:59.000Z</time>
      </trkpt>
      <trkpt lat="43.70518" lon="3.54012">
        <ele>211.4</ele>
        <time>2023-05-14T06:21:02.000Z</time>
      </trkpt>
      <trkpt lat="43.70524" lon="3.54023">
        <ele>211.7</ele>
        <time>2023-05-14T06:21:05.000Z</time>
      </trkpt>
      <trkpt lat="43.70531" lon="3.54032">
        <ele>212.7</ele>
        <time>2023-05-14T06:21:08.000Z</time>
      </trkpt>
      <trkpt lat="43.70537" lon="3.54044">
        <ele>213.6</ele>
        <time>2023-05-14T06:21:11.000Z</time>
      </trkpt>
      <trkpt lat="43.70542" lon="3.54055">
        <ele>214.5</ele>
        <time>2023-05-14T06:21:14.000Z</time>
      </trkpt>
      <trkpt lat="43.70547" lon="3.54067">
        <ele>215.3</ele>
        <time>2023-05-14T06:21:17.000Z</time>
      </trkpt>
      <trkpt lat="43.70551" lon="3.54079">
        <ele>216.2</ele>
        <time>2023-05-14T06:21:20.000Z</time>
      </trkpt>
      <trkpt lat="43.70555" lon="3.54091">
        <ele>217.1</ele>
        <time>2023-05-14T06:21:23.000Z</time>
      </trkpt>
      <trkpt lat="43.70558" lon="3.54103">
        <ele>218</ele>
        <time>2023-05-14T06:21:26.000Z</time>
      </trkpt>
      <trkpt lat="43.70562" lon="3.54116">
        <ele>218.7</ele>
        <time>2023-05-14T06:21:29.000Z</time>
      </trkpt>
      <trkpt lat="43.70566" lon="3.54128">
        <ele>219.3</ele>
        <time>2023-05-14T06:21:32.000Z</time>
      </trkpt>
      <trkpt lat="43.70571" lon="3.54139">
        <ele>220.1</ele>
        <time>2023-05-14T06:21:35.000Z</time>
      </trkpt>
      <trkpt lat="43.70577" lon="3.54149">
        <ele>220.8</ele>
        <time>2023-05-14T06:21:38.000Z</time>
      </trkpt>
      <trkpt lat="43.70584" lon="3.54156">
        <ele>221.4</ele>
        <time>2023-05-14T06:21:41.000Z</time>
      </trkpt>
      <trkpt lat="43.70592" lon="3.54165">
        <ele>222.1</ele>
        <time>2023-05-14T06:21:44.000Z</time>
      </trkpt>
      <trkpt lat="43.706" lon="3.54171">
        <ele>222.7</ele>
        <time>2023-05-14T06:21:47.000Z</time>
      </trkpt>
      <trkpt lat="43.70608" lon="3.54177">
        <ele>223.3</ele>
        <time>2023-05-14T06:21:50.000Z</time>
      </trkpt>
      <trkpt lat="43.70618" lon="3.5418">
        <ele>224</ele>
        <time>2023-05-14T06:21:53.000Z</time>
      </trkpt>
      <trkpt lat="43.70628" lon="3.54181">
        <ele>224.9</ele>
        <time>2023-05-14T06:21:56.000Z</time>
      </trkpt>
      <trkpt lat="43.70638" lon="3.54183">
        <ele>225.8</ele>
        <time>2023-05-14T06:21:59.000Z</time>
      </trkpt>
      <trkpt lat="43.70647" lon="3.54183">
        <ele>226.6</ele>
        <time>2023-05-14T06:22:02.000Z</time>
      </trkpt>
      <trkpt lat="43.70657" lon="3.54183">
        <ele>227.4</ele>
        <time>2023-05-14T06:22:05.000Z</time>
      </trkpt>
      <trkpt lat="43.70667" lon="3.54182">
        <ele>228.4</ele>
        <time>2023-05-14T06:22:08.000Z</time>
      </trkpt>
      <trkpt lat="43.70676" lon="3.5418">
        <ele>229.1</ele>
        <time>2023-05-14T06:22:11.000Z</time>
      </trkpt>
      <trkpt lat="43.70685" lon="3.54177">
        <ele>229.8</ele>
        <time>2023-05-14T06:22:14.000Z</time>
      </trkpt>
      <trkpt lat="43.70695" lon="3.54174">
        <ele>230.5</ele>
        <time>2023-05-14T06:22:17.000Z</time>
      </trkpt>
      <trkpt lat="43.70704" lon="3.54172">
        <ele>231.4</ele>
        <time>2023-05-14T06:22:20.000Z</time>
      </trkpt>
      <trkpt lat="43.70713" lon="3.54169">
        <ele>232.3</ele>
        <time>2023-05-14T06:22:23.000Z</time>
      </trkpt>
      <trkpt lat="43.70722" lon="3.54166">
        <ele>233.2</ele>
        <time>2023-05-14T06:22:26.000Z</time>
      </trkpt>
      <trkpt lat="43.70734" lon="3.54162">
        <ele>234.3</ele>
        <time>2023-05-14T06:22:30.000Z</time>
      </trkpt>
      <trkpt lat="43.70743" lon="3.5416">
        <ele>235.2</ele>
        <time>2023-05-14T06:22:33.000Z</time>
      </trkpt>
      <trkpt lat="43.70752" lon="3.54157">
        <ele>235.7</ele>
        <time>2023-05-14T06:22:36.000Z</time>
      </trkpt>
      <trkpt lat="43.70761" lon="3.54154">
        <ele>236.2</ele>
        <time>2023-05-14T06:22:39.000Z</time>
      </trkpt>
      <trkpt lat="43.70769" lon="3.54144">
        <ele>236.9</ele>
        <time>2023-05-14T06:22:43.000Z</time>
      </trkpt>
      <trkpt lat="43.70757" lon="3.54143">
        <ele>237.7</ele>
        <time>2023-05-14T06:22:47.000Z</time>
      </trkpt>
      <trkpt lat="43.70747" lon="3.54144">
        <ele>238.4</ele>
        <time>2023-05-14T06:22:50.000Z</time>
      </trkpt>
      <trkpt lat="43.70737" lon="3.54142">
        <ele>239.1</ele>
        <time>2023-05-14T06:22:53.000Z</time>
      </trkpt>
      <trkpt lat="43.70728" lon="3.54138">
        <ele>239.7</ele>
        <time>2023-05-14T06:22:56.000Z</time>
      </trkpt>
      <trkpt lat="43.70719" lon="3.54135">
        <ele>240.4</ele>
        <time>2023-05-14T06:22:59.000Z</time>
      </trkpt>
      <trkpt lat="43.70709" lon="3.54129">
        <ele>241.1</ele>
        <time>2023-05-14T06:23:02.000Z</time>
      </trkpt>
      <trkpt lat="43.707" lon="3.54125">
        <ele>241.8</ele>
        <time>2023-05-14T06:23:05.000Z</time>
      </trkpt>
      <trkpt lat="43.70691" lon="3.54119">
        <ele>242.5</ele>
        <time>2023-05-14T06:23:08.000Z</time>
      </trkpt>
      <trkpt lat="43.70683" lon="3.54113">
        <ele>243.1</ele>
        <time>2023-05-14T06:23:11.000Z</time>
      </trkpt>
      <trkpt lat="43.70674" lon="3.54106">
        <ele>243.9</ele>
        <time>2023-05-14T06:23:14.000Z</time>
      </trkpt>
      <trkpt lat="43.70667" lon="3.54095">
        <ele>244.6</ele>
        <time>2023-05-14T06:23:17.000Z</time>
      </trkpt>
      <trkpt lat="43.70664" lon="3.54083">
        <ele>245.5</ele>
        <time>2023-05-14T06:23:20.000Z</time>
      </trkpt>
      <trkpt lat="43.70661" lon="3.5407">
        <ele>246.3</ele>
        <time>2023-05-14T06:23:23.000Z</time>
      </trkpt>
      <trkpt lat="43.70659" lon="3.54057">
        <ele>247.2</ele>
        <time>2023-05-14T06:23:26.000Z</time>
      </trkpt>
      <trkpt lat="43.70656" lon="3.54045">
        <ele>248</ele>
        <time>2023-05-14T06:23:29.000Z</time>
      </trkpt>
      <trkpt lat="43.70654" lon="3.54031">
        <ele>248.8</ele>
        <time>2023-05-14T06:23:32.000Z</time>
      </trkpt>
      <trkpt lat="43.70651" lon="3.54019">
        <ele>249.6</ele>
        <time>2023-05-14T06:23:35.000Z</time>
      </trkpt>
      <trkpt lat="43.70649" lon="3.54007">
        <ele>250.6</ele>
        <time>2023-05-14T06:23:38.000Z</time>
      </trkpt>
      <trkpt lat="43.70647" lon="3.53995">
        <ele>251.4</ele>
        <time>2023-05-14T06:23:41.000Z</time>
      </trkpt>
      <trkpt lat="43.70644" lon="3.53982">
        <ele>252.1</ele>
        <time>2023-05-14T06:23:44.000Z</time>
      </trkpt>
      <trkpt lat="43.70641" lon="3.53969">
        <ele>252.7</ele>
        <time>2023-05-14T06:23:47.000Z</time>
      </trkpt>
      <trkpt lat="43.70639" lon="3.53957">
        <ele>253.5</ele>
        <time>2023-05-14T06:23:50.000Z</time>
      </trkpt>
      <trkpt lat="43.70637" lon="3.53941">
        <ele>254.6</ele>
        <time>2023-05-14T06:23:54.000Z</time>
      </trkpt>
      <trkpt lat="43.70635" lon="3.53928">
        <ele>255.3</ele>
        <time>2023-05-14T06:23:57.000Z</time>
      </trkpt>
      <trkpt lat="43.70634" lon="3.53916">
        <ele>256.1</ele>
        <time>2023-05-14T06:24:00.000Z</time>
      </trkpt>
      <trkpt lat="43.70632" lon="3.539">
        <ele>257.3</ele>
        <time>2023-05-14T06:24:04.000Z</time>
      </trkpt>
      <trkpt lat="43.7063" lon="3.53884">
        <ele>258.1</ele>
        <time>2023-05-14T06:24:08.000Z</time>
      </trkpt>
      <trkpt lat="43.7063" lon="3.53867">
        <ele>259.2</ele>
        <time>2023-05-14T06:24:12.000Z</time>
      </trkpt>
      <trkpt lat="43.70631" lon="3.53855">
        <ele>260.3</ele>
        <time>2023-05-14T06:24:15.000Z</time>
      </trkpt>
      <trkpt lat="43.70633" lon="3.53842">
        <ele>261.3</ele>
        <time>2023-05-14T06:24:18.000Z</time>
      </trkpt>
      <trkpt lat="43.70635" lon="3.53829">
        <ele>262.1</ele>
        <time>2023-05-14T06:24:21.000Z</time>
      </trkpt>
      <trkpt lat="43.70637" lon="3.53817">
        <ele>263</ele>
        <time>2023-05-14T06:24:24.000Z</time>
      </trkpt>
      <trkpt lat="43.70641" lon="3.53805">
        <ele>263.9</ele>
        <time>2023-05-14T06:24:27.000Z</time>
      </trkpt>
      <trkpt lat="43.70645" lon="3.53794">
        <ele>264.7</ele>
        <time>2023-05-14T06:24:30.000Z</time>
      </trkpt>
      <trkpt lat="43.7065" lon="3.53782">
        <ele>265.5</ele>
        <time>2023-05-14T06:24:33.000Z</time>
      </trkpt>
      <trkpt lat="43.70654" lon="3.53771">
        <ele>266.4</ele>
        <time>2023-05-14T06:24:36.000Z</time>
      </trkpt>
      <trkpt lat="43.70659" lon="3.5376">
        <ele>267.5</ele>
        <time>2023-05-14T06:24:39.000Z</time>
      </trkpt>
      <trkpt lat="43.70663" lon="3.53748">
        <ele>268.5</ele>
        <time>2023-05-14T06:24:42.000Z</time>
      </trkpt>
      <trkpt lat="43.70668" lon="3.53736">
        <ele>269.6</ele>
        <time>2023-05-14T06:24:45.000Z</time>
      </trkpt>
      <trkpt lat="43.70672" lon="3.53725">
        <ele>270.7</ele>
        <time>2023-05-14T06:24:48.000Z</time>
      </trkpt>
      <trkpt lat="43.70676" lon="3.53713">
        <ele>271.5</ele>
        <time>2023-05-14T06:24:51.000Z</time>
      </trkpt>
      <trkpt lat="43.70682" lon="3.53702">
        <ele>272.4</ele>
        <time>2023-05-14T06:24:54.000Z</time>
      </trkpt>
      <trkpt lat="43.70688" lon="3.53692">
        <ele>273.2</ele>
        <time>2023-05-14T06:24:57.000Z</time>
      </trkpt>
      <trkpt lat="43.70693" lon="3.53682">
        <ele>274</ele>
        <time>2023-05-14T06:25:00.000Z</time>
      </trkpt>
      <trkpt lat="43.70699" lon="3.53672">
        <ele>274.8</ele>
        <time>2023-05-14T06:25:03.000Z</time>
      </trkpt>
      <trkpt lat="43.70704" lon="3.53661">
        <ele>275.8</ele>
        <time>2023-05-14T06:25:06.000Z</time>
      </trkpt>
      <trkpt lat="43.70713" lon="3.53651">
        <ele>277</ele>
        <time>2023-05-14T06:25:10.000Z</time>
      </trkpt>
      <trkpt lat="43.70722" lon="3.53645">
        <ele>278.3</ele>
        <time>2023-05-14T06:25:14.000Z</time>
      </trkpt>
      <trkpt lat="43.70733" lon="3.5364">
        <ele>279.4</ele>
        <time>2023-05-14T06:25:18.000Z</time>
      </trkpt>
      <trkpt lat="43.70745" lon="3.53641">
        <ele>280.4</ele>
        <time>2023-05-14T06:25:22.000Z</time>
      </trkpt>
      <trkpt lat="43.70755" lon="3.53645">
        <ele>281.6</ele>
        <time>2023-05-14T06:25:26.000Z</time>
      </trkpt>
      <trkpt lat="43.70765" lon="3.5365">
        <ele>283.3</ele>
        <time>2023-05-14T06:25:30.000Z</time>
      </trkpt>
      <trkpt lat="43.70776" lon="3.53653">
        <ele>284.7</ele>
        <time>2023-05-14T06:25:34.000Z</time>
      </trkpt>
      <trkpt lat="43.70787" lon="3.53655">
        <ele>286</ele>
        <time>2023-05-14T06:25:38.000Z</time>
      </trkpt>
      <trkpt lat="43.70783" lon="3.53668">
        <ele>287.4</ele>
        <time>2023-05-14T06:25:44.000Z</time>
      </trkpt>
      <trkpt lat="43.70773" lon="3.5367">
        <ele>287.9</ele>
        <time>2023-05-14T06:25:47.000Z</time>
      </trkpt>
      <trkpt lat="43.70764" lon="3.53676">
        <ele>288.1</ele>
        <time>2023-05-14T06:25:50.000Z</time>
      </trkpt>
      <trkpt lat="43.70757" lon="3.53686">
        <ele>288.6</ele>
        <time>2023-05-14T06:25:53.000Z</time>
      </trkpt>
      <trkpt lat="43.70754" lon="3.53698">
        <ele>289.1</ele>
        <time>2023-05-14T06:25:56.000Z</time>
      </trkpt>
      <trkpt lat="43.70752" lon="3.53711">
        <ele>289.7</ele>
        <time>2023-05-14T06:25:59.000Z</time>
      </trkpt>
      <trkpt lat="43.70752" lon="3.53724">
        <ele>290.5</ele>
        <time>2023-05-14T06:26:02.000Z</time>
      </trkpt>
      <trkpt lat="43.70753" lon="3.53737">
        <ele>291.4</ele>
        <time>2023-05-14T06:26:05.000Z</time>
      </trkpt>
      <trkpt lat="43.70755" lon="3.5375">
        <ele>292.5</ele>
        <time>2023-05-14T06:26:08.000Z</time>
      </trkpt>
      <trkpt lat="43.70759" lon="3.53765">
        <ele>294.1</ele>
        <time>2023-05-14T06:26:12.000Z</time>
      </trkpt>
      <trkpt lat="43.70763" lon="3.5378">
        <ele>295.4</ele>
        <time>2023-05-14T06:26:16.000Z</time>
      </trkpt>
      <trkpt lat="43.70766" lon="3.53791">
        <ele>296</ele>
        <time>2023-05-14T06:26:19.000Z</time>
      </trkpt>
      <trkpt lat="43.7077" lon="3.53803">
        <ele>296.7</ele>
        <time>2023-05-14T06:26:22.000Z</time>
      </trkpt>
      <trkpt lat="43.70775" lon="3.53818">
        <ele>297.9</ele>
        <time>2023-05-14T06:26:26.000Z</time>
      </trkpt>
      <trkpt lat="43.70781" lon="3.53828">
        <ele>298.8</ele>
        <time>2023-05-14T06:26:29.000Z</time>
      </trkpt>
      <trkpt lat="43.70789" lon="3.53834">
        <ele>299.7</ele>
        <time>2023-05-14T06:26:32.000Z</time>
      </trkpt>
      <trkpt lat="43.70799" lon="3.53835">
        <ele>300.3</ele>
        <time>2023-05-14T06:26:35.000Z</time>
      </trkpt>
      <trkpt lat="43.70808" lon="3.53832">
        <ele>300.8</ele>
        <time>2023-05-14T06:26:38.000Z</time>
      </trkpt>
      <trkpt lat="43.70818" lon="3.5383">
        <ele>301.2</ele>
        <time>2023-05-14T06:26:41.000Z</time>
      </trkpt>
      <trkpt lat="43.70827" lon="3.53829">
        <ele>301.6</ele>
        <time>2023-05-14T06:26:44.000Z</time>
      </trkpt>
      <trkpt lat="43.70838" lon="3.53828">
        <ele>302</ele>
        <time>2023-05-14T06:26:47.000Z</time>
      </trkpt>
      <trkpt lat="43.70848" lon="3.53827">
        <ele>302.2</ele>
        <time>2023-05-14T06:26:50.000Z</time>
      </trkpt>
      <trkpt lat="43.70858" lon="3.53826">
        <ele>302.6</ele>
        <time>2023-05-14T06:26:53.000Z</time>
      </trkpt>
      <trkpt lat="43.70868" lon="3.53825">
        <ele>303.2</ele>
        <time>2023-05-14T06:26:56.000Z</time>
      </trkpt>
      <trkpt lat="43.70879" lon="3.53822">
        <ele>303.6</ele>
        <time>2023-05-14T06:26:59.000Z</time>
      </trkpt>
      <trkpt lat="43.70889" lon="3.5382">
        <ele>304</ele>
        <time>2023-05-14T06:27:02.000Z</time>
      </trkpt>
      <trkpt lat="43.709" lon="3.53819">
        <ele>304.4</ele>
        <time>2023-05-14T06:27:05.000Z</time>
      </trkpt>
      <trkpt lat="43.7091" lon="3.53817">
        <ele>304.8</ele>
        <time>2023-05-14T06:27:08.000Z</time>
      </trkpt>
      <trkpt lat="43.7092" lon="3.53816">
        <ele>305.2</ele>
        <time>2023-05-14T06:27:11.000Z</time>
      </trkpt>
      <trkpt lat="43.70931" lon="3.53815">
        <ele>305.5</ele>
        <time>2023-05-14T06:27:14.000Z</time>
      </trkpt>
      <trkpt lat="43.70941" lon="3.53813">
        <ele>306</ele>
        <time>2023-05-14T06:27:17.000Z</time>
      </trkpt>
      <trkpt lat="43.70951" lon="3.53812">
        <ele>306.7</ele>
        <time>2023-05-14T06:27:20.000Z</time>
      </trkpt>
      <trkpt lat="43.7096" lon="3.5381">
        <ele>307.6</ele>
        <time>2023-05-14T06:27:23.000Z</time>
      </trkpt>
      <trkpt lat="43.70969" lon="3.53809">
        <ele>308.6</ele>
        <time>2023-05-14T06:27:26.000Z</time>
      </trkpt>
      <trkpt lat="43.70978" lon="3.53808">
        <ele>309.4</ele>
        <time>2023-05-14T06:27:29.000Z</time>
      </trkpt>
      <trkpt lat="43.7099" lon="3.53806">
        <ele>310.6</ele>
        <time>2023-05-14T06:27:33.000Z</time>
      </trkpt>
      <trkpt lat="43.71001" lon="3.53805">
        <ele>312</ele>
        <time>2023-05-14T06:27:37.000Z</time>
      </trkpt>
      <trkpt lat="43.71013" lon="3.53803">
        <ele>313.2</ele>
        <time>2023-05-14T06:27:41.000Z</time>
      </trkpt>
      <trkpt lat="43.71024" lon="3.53802">
        <ele>314.6</ele>
        <time>2023-05-14T06:27:45.000Z</time>
      </trkpt>
      <trkpt lat="43.71033" lon="3.53801">
        <ele>315.4</ele>
        <time>2023-05-14T06:27:48.000Z</time>
      </trkpt>
      <trkpt lat="43.71042" lon="3.538">
        <ele>316.2</ele>
        <time>2023-05-14T06:27:51.000Z</time>
      </trkpt>
      <trkpt lat="43.71052" lon="3.53798">
        <ele>316.9</ele>
        <time>2023-05-14T06:27:54.000Z</time>
      </trkpt>
      <trkpt lat="43.71061" lon="3.53797">
        <ele>317.6</ele>
        <time>2023-05-14T06:27:57.000Z</time>
      </trkpt>
      <trkpt lat="43.71071" lon="3.53796">
        <ele>318.3</ele>
        <time>2023-05-14T06:28:00.000Z</time>
      </trkpt>
      <trkpt lat="43.7108" lon="3.53795">
        <ele>319.1</ele>
        <time>2023-05-14T06:28:03.000Z</time>
      </trkpt>
      <trkpt lat="43.71089" lon="3.53794">
        <ele>319.6</ele>
        <time>2023-05-14T06:28:06.000Z</time>
      </trkpt>
      <trkpt lat="43.71098" lon="3.53792">
        <ele>320</ele>
        <time>2023-05-14T06:28:09.000Z</time>
      </trkpt>
      <trkpt lat="43.71108" lon="3.5379">
        <ele>320.5</ele>
        <time>2023-05-14T06:28:12.000Z</time>
      </trkpt>
      <trkpt lat="43.71117" lon="3.53789">
        <ele>321.1</ele>
        <time>2023-05-14T06:28:15.000Z</time>
      </trkpt>
      <trkpt lat="43.71126" lon="3.53788">
        <ele>321.8</ele>
        <time>2023-05-14T06:28:18.000Z</time>
      </trkpt>
      <trkpt lat="43.71135" lon="3.53787">
        <ele>322.6</ele>
        <time>2023-05-14T06:28:21.000Z</time>
      </trkpt>
      <trkpt lat="43.71144" lon="3.53786">
        <ele>323.4</ele>
        <time>2023-05-14T06:28:24.000Z</time>
      </trkpt>
      <trkpt lat="43.71154" lon="3.53784">
        <ele>324.5</ele>
        <time>2023-05-14T06:28:27.000Z</time>
      </trkpt>
      <trkpt lat="43.71163" lon="3.53783">
        <ele>325.4</ele>
        <time>2023-05-14T06:28:30.000Z</time>
      </trkpt>
      <trkpt lat="43.71172" lon="3.53781">
        <ele>326.2</ele>
        <time>2023-05-14T06:28:33.000Z</time>
      </trkpt>
      <trkpt lat="43.71182" lon="3.5378">
        <ele>327</ele>
        <time>2023-05-14T06:28:36.000Z</time>
      </trkpt>
      <trkpt lat="43.71192" lon="3.53778">
        <ele>327.9</ele>
        <time>2023-05-14T06:28:39.000Z</time>
      </trkpt>
      <trkpt lat="43.71202" lon="3.53777">
        <ele>328.7</ele>
        <time>2023-05-14T06:28:42.000Z</time>
      </trkpt>
      <trkpt lat="43.71211" lon="3.53775">
        <ele>329.6</ele>
        <time>2023-05-14T06:28:45.000Z</time>
      </trkpt>
      <trkpt lat="43.71221" lon="3.53774">
        <ele>330.5</ele>
        <time>2023-05-14T06:28:48.000Z</time>
      </trkpt>
      <trkpt lat="43.71231" lon="3.53772">
        <ele>331.3</ele>
        <time>2023-05-14T06:28:51.000Z</time>
      </trkpt>
      <trkpt lat="43.71241" lon="3.53771">
        <ele>332.1</ele>
        <time>2023-05-14T06:28:54.000Z</time>
      </trkpt>
      <trkpt lat="43.71251" lon="3.53769">
        <ele>332.8</ele>
        <time>2023-05-14T06:28:57.000Z</time>
      </trkpt>
      <trkpt lat="43.7126" lon="3.53768">
        <ele>333.5</ele>
        <time>2023-05-14T06:29:00.000Z</time>
      </trkpt>
      <trkpt lat="43.7127" lon="3.53767">
        <ele>334.1</ele>
        <time>2023-05-14T06:29:03.000Z</time>
      </trkpt>
      <trkpt lat="43.7128" lon="3.53766">
        <ele>334.7</ele>
        <time>2023-05-14T06:29:06.000Z</time>
      </trkpt>
      <trkpt lat="43.7129" lon="3.53765">
        <ele>335.2</ele>
        <time>2023-05-14T06:29:09.000Z</time>
      </trkpt>
      <trkpt lat="43.71299" lon="3.53765">
        <ele>335.8</ele>
        <time>2023-05-14T06:29:12.000Z</time>
      </trkpt>
      <trkpt lat="43.71309" lon="3.53763">
        <ele>336.1</ele>
        <time>2023-05-14T06:29:15.000Z</time>
      </trkpt>
      <trkpt lat="43.71319" lon="3.53763">
        <ele>336.5</ele>
        <time>2023-05-14T06:29:18.000Z</time>
      </trkpt>
      <trkpt lat="43.71329" lon="3.53762">
        <ele>336.9</ele>
        <time>2023-05-14T06:29:21.000Z</time>
      </trkpt>
      <trkpt lat="43.71339" lon="3.5376">
        <ele>337.2</ele>
        <time>2023-05-14T06:29:24.000Z</time>
      </trkpt>
      <trkpt lat="43.71349" lon="3.53759">
        <ele>337.7</ele>
        <time>2023-05-14T06:29:27.000Z</time>
      </trkpt>
      <trkpt lat="43.71358" lon="3.53758">
        <ele>338.3</ele>
        <time>2023-05-14T06:29:30.000Z</time>
      </trkpt>
      <trkpt lat="43.71368" lon="3.53756">
        <ele>339.2</ele>
        <time>2023-05-14T06:29:33.000Z</time>
      </trkpt>
      <trkpt lat="43.71377" lon="3.53754">
        <ele>340.1</ele>
        <time>2023-05-14T06:29:36.000Z</time>
      </trkpt>
      <trkpt lat="43.71386" lon="3.53753">
        <ele>341.2</ele>
        <time>2023-05-14T06:29:39.000Z</time>
      </trkpt>
      <trkpt lat="43.71395" lon="3.53749">
        <ele>342.1</ele>
        <time>2023-05-14T06:29:42.000Z</time>
      </trkpt>
      <trkpt lat="43.714" lon="3.53748">
        <ele>343.5</ele>
        <time>2023-05-14T06:29:46.000Z</time>
      </trkpt>
      <trkpt lat="43.71402" lon="3.53748">
        <ele>344</ele>
        <time>2023-05-14T06:29:47.000Z</time>
      </trkpt>
      <trkpt lat="43.71412" lon="3.53746">
        <ele>345.2</ele>
        <time>2023-05-14T06:29:50.000Z</time>
      </trkpt>
      <trkpt lat="43.71421" lon="3.53744">
        <ele>346.5</ele>
        <time>2023-05-14T06:29:53.000Z</time>
      </trkpt>
      <trkpt lat="43.7143" lon="3.53742">
        <ele>347.5</ele>
        <time>2023-05-14T06:29:56.000Z</time>
      </trkpt>
      <trkpt lat="43.7144" lon="3.53741">
        <ele>348.4</ele>
        <time>2023-05-14T06:29:59.000Z</time>
      </trkpt>
      <trkpt lat="43.71451" lon="3.53738">
        <ele>349.4</ele>
        <time>2023-05-14T06:30:03.000Z</time>
      </trkpt>
      <trkpt lat="43.7146" lon="3.53737">
        <ele>350</ele>
        <time>2023-05-14T06:30:06.000Z</time>
      </trkpt>
      <trkpt lat="43.7147" lon="3.53735">
        <ele>350.6</ele>
        <time>2023-05-14T06:30:09.000Z</time>
      </trkpt>
      <trkpt lat="43.71482" lon="3.53733">
        <ele>351.6</ele>
        <time>2023-05-14T06:30:13.000Z</time>
      </trkpt>
      <trkpt lat="43.71491" lon="3.5373">
        <ele>352.2</ele>
        <time>2023-05-14T06:30:16.000Z</time>
      </trkpt>
      <trkpt lat="43.715" lon="3.53728">
        <ele>352.5</ele>
        <time>2023-05-14T06:30:19.000Z</time>
      </trkpt>
      <trkpt lat="43.71509" lon="3.53726">
        <ele>352.9</ele>
        <time>2023-05-14T06:30:22.000Z</time>
      </trkpt>
      <trkpt lat="43.71519" lon="3.53725">
        <ele>353.2</ele>
        <time>2023-05-14T06:30:25.000Z</time>
      </trkpt>
      <trkpt lat="43.7153" lon="3.53725">
        <ele>353.5</ele>
        <time>2023-05-14T06:30:28.000Z</time>
      </trkpt>
      <trkpt lat="43.7154" lon="3.53727">
        <ele>353.9</ele>
        <time>2023-05-14T06:30:31.000Z</time>
      </trkpt>
      <trkpt lat="43.7155" lon="3.5373">
        <ele>354.2</ele>
        <time>2023-05-14T06:30:34.000Z</time>
      </trkpt>
      <trkpt lat="43.71562" lon="3.53732">
        <ele>354.4</ele>
        <time>2023-05-14T06:30:37.000Z</time>
      </trkpt>
      <trkpt lat="43.71573" lon="3.53735">
        <ele>354.5</ele>
        <time>2023-05-14T06:30:40.000Z</time>
      </trkpt>
      <trkpt lat="43.71585" lon="3.53738">
        <ele>354.6</ele>
        <time>2023-05-14T06:30:43.000Z</time>
      </trkpt>
      <trkpt lat="43.71597" lon="3.53739">
        <ele>354.8</ele>
        <time>2023-05-14T06:30:46.000Z</time>
      </trkpt>
      <trkpt lat="43.71609" lon="3.53741">
        <ele>354.9</ele>
        <time>2023-05-14T06:30:49.000Z</time>
      </trkpt>
      <trkpt lat="43.71622" lon="3.53744">
        <ele>355.1</ele>
        <time>2023-05-14T06:30:52.000Z</time>
      </trkpt>
      <trkpt lat="43.71634" lon="3.53745">
        <ele>355.3</ele>
        <time>2023-05-14T06:30:55.000Z</time>
      </trkpt>
      <trkpt lat="43.71647" lon="3.53746">
        <ele>355.5</ele>
        <time>2023-05-14T06:30:58.000Z</time>
      </trkpt>
      <trkpt lat="43.71659" lon="3.53748">
        <ele>355.8</ele>
        <time>2023-05-14T06:31:01.000Z</time>
      </trkpt>
      <trkpt lat="43.71672" lon="3.53751">
        <ele>356</ele>
        <time>2023-05-14T06:31:04.000Z</time>
      </trkpt>
      <trkpt lat="43.71684" lon="3.53754">
        <ele>356.1</ele>
        <time>2023-05-14T06:31:07.000Z</time>
      </trkpt>
      <trkpt lat="43.71697" lon="3.53755">
        <ele>356.1</ele>
        <time>2023-05-14T06:31:10.000Z</time>
      </trkpt>
      <trkpt lat="43.71706" lon="3.53755">
        <ele>356.2</ele>
        <time>2023-05-14T06:31:12.000Z</time>
      </trkpt>
      <trkpt lat="43.71715" lon="3.53755">
        <ele>356.3</ele>
        <time>2023-05-14T06:31:14.000Z</time>
      </trkpt>
      <trkpt lat="43.71728" lon="3.53751">
        <ele>356.3</ele>
        <time>2023-05-14T06:31:17.000Z</time>
      </trkpt>
      <trkpt lat="43.71738" lon="3.5375">
        <ele>356.4</ele>
        <time>2023-05-14T06:31:19.000Z</time>
      </trkpt>
      <trkpt lat="43.71747" lon="3.53748">
        <ele>356.4</ele>
        <time>2023-05-14T06:31:21.000Z</time>
      </trkpt>
      <trkpt lat="43.71757" lon="3.53745">
        <ele>356.4</ele>
        <time>2023-05-14T06:31:23.000Z</time>
      </trkpt>
      <trkpt lat="43.71767" lon="3.53743">
        <ele>356.4</ele>
        <time>2023-05-14T06:31:25.000Z</time>
      </trkpt>
      <trkpt lat="43.71778" lon="3.53741">
        <ele>356.4</ele>
        <time>2023-05-14T06:31:27.000Z</time>
      </trkpt>
      <trkpt lat="43.71788" lon="3.5374">
        <ele>356.4</ele>
        <time>2023-05-14T06:31:29.000Z</time>
      </trkpt>
      <trkpt lat="43.718" lon="3.53737">
        <ele>356.2</ele>
        <time>2023-05-14T06:31:31.000Z</time>
      </trkpt>
      <trkpt lat="43.71812" lon="3.53736">
        <ele>355.8</ele>
        <time>2023-05-14T06:31:33.000Z</time>
      </trkpt>
      <trkpt lat="43.71823" lon="3.53734">
        <ele>355.7</ele>
        <time>2023-05-14T06:31:35.000Z</time>
      </trkpt>
      <trkpt lat="43.71833" lon="3.53731">
        <ele>355.5</ele>
        <time>2023-05-14T06:31:37.000Z</time>
      </trkpt>
      <trkpt lat="43.71842" lon="3.53725">
        <ele>355.4</ele>
        <time>2023-05-14T06:31:39.000Z</time>
      </trkpt>
      <trkpt lat="43.71851" lon="3.53723">
        <ele>355.2</ele>
        <time>2023-05-14T06:31:41.000Z</time>
      </trkpt>
      <trkpt lat="43.71864" lon="3.5372">
        <ele>355.1</ele>
        <time>2023-05-14T06:31:44.000Z</time>
      </trkpt>
      <trkpt lat="43.71877" lon="3.53718">
        <ele>355</ele>
        <time>2023-05-14T06:31:47.000Z</time>
      </trkpt>
      <trkpt lat="43.71889" lon="3.53714">
        <ele>355</ele>
        <time>2023-05-14T06:31:50.000Z</time>
      </trkpt>
      <trkpt lat="43.71899" lon="3.53712">
        <ele>355</ele>
        <time>2023-05-14T06:31:52.000Z</time>
      </trkpt>
      <trkpt lat="43.7191" lon="3.53708">
        <ele>355</ele>
        <time>2023-05-14T06:31:54.000Z</time>
      </trkpt>
      <trkpt lat="43.7192" lon="3.53706">
        <ele>355</ele>
        <time>2023-05-14T06:31:56.000Z</time>
      </trkpt>
      <trkpt lat="43.7193" lon="3.53704">
        <ele>354.9</ele>
        <time>2023-05-14T06:31:58.000Z</time>
      </trkpt>
      <trkpt lat="43.7194" lon="3.53702">
        <ele>354.8</ele>
        <time>2023-05-14T06:32:00.000Z</time>
      </trkpt>
      <trkpt lat="43.71949" lon="3.53699">
        <ele>354.8</ele>
        <time>2023-05-14T06:32:02.000Z</time>
      </trkpt>
      <trkpt lat="43.71962" lon="3.53697">
        <ele>354.8</ele>
        <time>2023-05-14T06:32:05.000Z</time>
      </trkpt>
      <trkpt lat="43.71974" lon="3.53696">
        <ele>354.8</ele>
        <time>2023-05-14T06:32:08.000Z</time>
      </trkpt>
      <trkpt lat="43.71987" lon="3.53692">
        <ele>354.9</ele>
        <time>2023-05-14T06:32:11.000Z</time>
      </trkpt>
      <trkpt lat="43.71995" lon="3.5369">
        <ele>354.9</ele>
        <time>2023-05-14T06:32:13.000Z</time>
      </trkpt>
      <trkpt lat="43.72008" lon="3.53687">
        <ele>354.9</ele>
        <time>2023-05-14T06:32:16.000Z</time>
      </trkpt>
      <trkpt lat="43.72017" lon="3.53684">
        <ele>354.9</ele>
        <time>2023-05-14T06:32:18.000Z</time>
      </trkpt>
      <trkpt lat="43.72026" lon="3.53682">
        <ele>354.8</ele>
        <time>2023-05-14T06:32:20.000Z</time>
      </trkpt>
      <trkpt lat="43.72036" lon="3.5368">
        <ele>354.8</ele>
        <time>2023-05-14T06:32:22.000Z</time>
      </trkpt>
      <trkpt lat="43.72045" lon="3.53677">
        <ele>354.7</ele>
        <time>2023-05-14T06:32:24.000Z</time>
      </trkpt>
      <trkpt lat="43.72055" lon="3.53674">
        <ele>354.7</ele>
        <time>2023-05-14T06:32:26.000Z</time>
      </trkpt>
      <trkpt lat="43.72067" lon="3.53671">
        <ele>354.7</ele>
        <time>2023-05-14T06:32:29.000Z</time>
      </trkpt>
      <trkpt lat="43.72079" lon="3.53666">
        <ele>354.7</ele>
        <time>2023-05-14T06:32:32.000Z</time>
      </trkpt>
      <trkpt lat="43.72086" lon="3.53652">
        <ele>354.6</ele>
        <time>2023-05-14T06:32:35.000Z</time>
      </trkpt>
      <trkpt lat="43.72088" lon="3.53635">
        <ele>354.5</ele>
        <time>2023-05-14T06:32:38.000Z</time>
      </trkpt>
      <trkpt lat="43.72091" lon="3.53617">
        <ele>354.5</ele>
        <time>2023-05-14T06:32:41.000Z</time>
      </trkpt>
      <trkpt lat="43.72098" lon="3.53601">
        <ele>354.4</ele>
        <time>2023-05-14T06:32:44.000Z</time>
      </trkpt>
      <trkpt lat="43.72106" lon="3.53591">
        <ele>354.3</ele>
        <time>2023-05-14T06:32:47.000Z</time>
      </trkpt>
      <trkpt lat="43.72116" lon="3.53581">
        <ele>354.3</ele>
        <time>2023-05-14T06:32:51.000Z</time>
      </trkpt>
      <trkpt lat="43.72124" lon="3.53572">
        <ele>354.3</ele>
        <time>2023-05-14T06:32:54.000Z</time>
      </trkpt>
      <trkpt lat="43.72131" lon="3.53564">
        <ele>354.3</ele>
        <time>2023-05-14T06:32:57.000Z</time>
      </trkpt>
      <trkpt lat="43.7214" lon="3.53555">
        <ele>354.4</ele>
        <time>2023-05-14T06:33:00.000Z</time>
      </trkpt>
      <trkpt lat="43.72149" lon="3.53546">
        <ele>354.5</ele>
        <time>2023-05-14T06:33:03.000Z</time>
      </trkpt>
      <trkpt lat="43.72159" lon="3.53538">
        <ele>354.7</ele>
        <time>2023-05-14T06:33:06.000Z</time>
      </trkpt>
      <trkpt lat="43.72169" lon="3.53533">
        <ele>355.1</ele>
        <time>2023-05-14T06:33:09.000Z</time>
      </trkpt>
      <trkpt lat="43.72178" lon="3.53527">
        <ele>355.5</ele>
        <time>2023-05-14T06:33:12.000Z</time>
      </trkpt>
      <trkpt lat="43.72187" lon="3.53519">
        <ele>356.4</ele>
        <time>2023-05-14T06:33:15.000Z</time>
      </trkpt>
      <trkpt lat="43.72195" lon="3.53509">
        <ele>357.2</ele>
        <time>2023-05-14T06:33:18.000Z</time>
      </trkpt>
      <trkpt lat="43.72203" lon="3.535">
        <ele>358.3</ele>
        <time>2023-05-14T06:33:21.000Z</time>
      </trkpt>
      <trkpt lat="43.7221" lon="3.53491">
        <ele>359.4</ele>
        <time>2023-05-14T06:33:24.000Z</time>
      </trkpt>
      <trkpt lat="43.72216" lon="3.53483">
        <ele>360.3</ele>
        <time>2023-05-14T06:33:27.000Z</time>
      </trkpt>
      <trkpt lat="43.72223" lon="3.53474">
        <ele>361.2</ele>
        <time>2023-05-14T06:33:30.000Z</time>
      </trkpt>
      <trkpt lat="43.7223" lon="3.53465">
        <ele>362.5</ele>
        <time>2023-05-14T06:33:33.000Z</time>
      </trkpt>
      <trkpt lat="43.72237" lon="3.53456">
        <ele>363.1</ele>
        <time>2023-05-14T06:33:36.000Z</time>
      </trkpt>
      <trkpt lat="43.72242" lon="3.53445">
        <ele>364</ele>
        <time>2023-05-14T06:33:39.000Z</time>
      </trkpt>
      <trkpt lat="43.72244" lon="3.53433">
        <ele>364.8</ele>
        <time>2023-05-14T06:33:42.000Z</time>
      </trkpt>
      <trkpt lat="43.72243" lon="3.53419">
        <ele>365.9</ele>
        <time>2023-05-14T06:33:45.000Z</time>
      </trkpt>
      <trkpt lat="43.72241" lon="3.53406">
        <ele>366.4</ele>
        <time>2023-05-14T06:33:48.000Z</time>
      </trkpt>
      <trkpt lat="43.72238" lon="3.53393">
        <ele>367.1</ele>
        <time>2023-05-14T06:33:51.000Z</time>
      </trkpt>
      <trkpt lat="43.72235" lon="3.5338">
        <ele>367.7</ele>
        <time>2023-05-14T06:33:54.000Z</time>
      </trkpt>
      <trkpt lat="43.72234" lon="3.53368">
        <ele>368.4</ele>
        <time>2023-05-14T06:33:57.000Z</time>
      </trkpt>
      <trkpt lat="43.72231" lon="3.53355">
        <ele>369.2</ele>
        <time>2023-05-14T06:34:00.000Z</time>
      </trkpt>
      <trkpt lat="43.7223" lon="3.53342">
        <ele>369.9</ele>
        <time>2023-05-14T06:34:03.000Z</time>
      </trkpt>
      <trkpt lat="43.72229" lon="3.53326">
        <ele>370.7</ele>
        <time>2023-05-14T06:34:07.000Z</time>
      </trkpt>
      <trkpt lat="43.7223" lon="3.53309">
        <ele>371.7</ele>
        <time>2023-05-14T06:34:11.000Z</time>
      </trkpt>
      <trkpt lat="43.72231" lon="3.53296">
        <ele>372.3</ele>
        <time>2023-05-14T06:34:14.000Z</time>
      </trkpt>
      <trkpt lat="43.72233" lon="3.53284">
        <ele>372.9</ele>
        <time>2023-05-14T06:34:17.000Z</time>
      </trkpt>
      <trkpt lat="43.72231" lon="3.53271">
        <ele>373.6</ele>
        <time>2023-05-14T06:34:20.000Z</time>
      </trkpt>
      <trkpt lat="43.72228" lon="3.5326">
        <ele>374.2</ele>
        <time>2023-05-14T06:34:23.000Z</time>
      </trkpt>
      <trkpt lat="43.72222" lon="3.53245">
        <ele>375.1</ele>
        <time>2023-05-14T06:34:27.000Z</time>
      </trkpt>
      <trkpt lat="43.72222" lon="3.5323">
        <ele>375.7</ele>
        <time>2023-05-14T06:34:31.000Z</time>
      </trkpt>
      <trkpt lat="43.72233" lon="3.53237">
        <ele>376.4</ele>
        <time>2023-05-14T06:34:36.000Z</time>
      </trkpt>
      <trkpt lat="43.7224" lon="3.53245">
        <ele>389.5</ele>
        <time>2023-05-14T06:34:39.000Z</time>
      </trkpt>
      <trkpt lat="43.72248" lon="3.53251">
        <ele>381.8</ele>
        <time>2023-05-14T06:34:42.000Z</time>
      </trkpt>
      <trkpt lat="43.72256" lon="3.53256">
        <ele>380.7</ele>
        <time>2023-05-14T06:34:45.000Z</time>
      </trkpt>
      <trkpt lat="43.72264" lon="3.53264">
        <ele>380.7</ele>
        <time>2023-05-14T06:34:48.000Z</time>
      </trkpt>
      <trkpt lat="43.72271" lon="3.53276">
        <ele>381.2</ele>
        <time>2023-05-14T06:34:52.000Z</time>
      </trkpt>
      <trkpt lat="43.72277" lon="3.53286">
        <ele>381.6</ele>
        <time>2023-05-14T06:34:55.000Z</time>
      </trkpt>
      <trkpt lat="43.72284" lon="3.533">
        <ele>382.2</ele>
        <time>2023-05-14T06:34:59.000Z</time>
      </trkpt>
      <trkpt lat="43.7229" lon="3.5331">
        <ele>382.5</ele>
        <time>2023-05-14T06:35:02.000Z</time>
      </trkpt>
      <trkpt lat="43.72297" lon="3.53318">
        <ele>383</ele>
        <time>2023-05-14T06:35:05.000Z</time>
      </trkpt>
      <trkpt lat="43.72305" lon="3.53324">
        <ele>383.6</ele>
        <time>2023-05-14T06:35:08.000Z</time>
      </trkpt>
      <trkpt lat="43.72314" lon="3.53328">
        <ele>384.2</ele>
        <time>2023-05-14T06:35:11.000Z</time>
      </trkpt>
      <trkpt lat="43.72323" lon="3.53329">
        <ele>384.9</ele>
        <time>2023-05-14T06:35:14.000Z</time>
      </trkpt>
      <trkpt lat="43.72333" lon="3.53327">
        <ele>385.7</ele>
        <time>2023-05-14T06:35:17.000Z</time>
      </trkpt>
      <trkpt lat="43.72342" lon="3.53322">
        <ele>386.6</ele>
        <time>2023-05-14T06:35:20.000Z</time>
      </trkpt>
      <trkpt lat="43.7235" lon="3.53318">
        <ele>387.5</ele>
        <time>2023-05-14T06:35:23.000Z</time>
      </trkpt>
      <trkpt lat="43.7236" lon="3.53316">
        <ele>388.3</ele>
        <time>2023-05-14T06:35:26.000Z</time>
      </trkpt>
      <trkpt lat="43.72372" lon="3.53315">
        <ele>389.3</ele>
        <time>2023-05-14T06:35:30.000Z</time>
      </trkpt>
      <trkpt lat="43.72381" lon="3.53314">
        <ele>390.1</ele>
        <time>2023-05-14T06:35:33.000Z</time>
      </trkpt>
      <trkpt lat="43.7239" lon="3.53313">
        <ele>390.7</ele>
        <time>2023-05-14T06:35:36.000Z</time>
      </trkpt>
      <trkpt lat="43.72397" lon="3.53303">
        <ele>391.3</ele>
        <time>2023-05-14T06:35:40.000Z</time>
      </trkpt>
      <trkpt lat="43.72388" lon="3.53299">
        <ele>392</ele>
        <time>2023-05-14T06:35:43.000Z</time>
      </trkpt>
      <trkpt lat="43.72378" lon="3.53298">
        <ele>392.6</ele>
        <time>2023-05-14T06:35:46.000Z</time>
      </trkpt>
      <trkpt lat="43.72369" lon="3.53293">
        <ele>393.3</ele>
        <time>2023-05-14T06:35:49.000Z</time>
      </trkpt>
      <trkpt lat="43.72362" lon="3.53286">
        <ele>394.2</ele>
        <time>2023-05-14T06:35:52.000Z</time>
      </trkpt>
      <trkpt lat="43.72355" lon="3.53276">
        <ele>394.9</ele>
        <time>2023-05-14T06:35:55.000Z</time>
      </trkpt>
      <trkpt lat="43.72349" lon="3.53265">
        <ele>395.7</ele>
        <time>2023-05-14T06:35:58.000Z</time>
      </trkpt>
      <trkpt lat="43.72344" lon="3.53254">
        <ele>396.4</ele>
        <time>2023-05-14T06:36:01.000Z</time>
      </trkpt>
      <trkpt lat="43.72339" lon="3.53242">
        <ele>397.1</ele>
        <time>2023-05-14T06:36:04.000Z</time>
      </trkpt>
      <trkpt lat="43.72336" lon="3.53229">
        <ele>397.8</ele>
        <time>2023-05-14T06:36:07.000Z</time>
      </trkpt>
      <trkpt lat="43.72335" lon="3.53215">
        <ele>398.3</ele>
        <time>2023-05-14T06:36:10.000Z</time>
      </trkpt>
      <trkpt lat="43.72333" lon="3.53203">
        <ele>398.9</ele>
        <time>2023-05-14T06:36:13.000Z</time>
      </trkpt>
      <trkpt lat="43.72332" lon="3.5319">
        <ele>399.8</ele>
        <time>2023-05-14T06:36:16.000Z</time>
      </trkpt>
      <trkpt lat="43.7233" lon="3.53177">
        <ele>400.5</ele>
        <time>2023-05-14T06:36:19.000Z</time>
      </trkpt>
      <trkpt lat="43.72329" lon="3.53164">
        <ele>401</ele>
        <time>2023-05-14T06:36:22.000Z</time>
      </trkpt>
      <trkpt lat="43.72327" lon="3.53151">
        <ele>401.7</ele>
        <time>2023-05-14T06:36:25.000Z</time>
      </trkpt>
      <trkpt lat="43.72326" lon="3.53138">
        <ele>402.5</ele>
        <time>2023-05-14T06:36:28.000Z</time>
      </trkpt>
      <trkpt lat="43.72326" lon="3.53125">
        <ele>403.5</ele>
        <time>2023-05-14T06:36:31.000Z</time>
      </trkpt>
      <trkpt lat="43.72328" lon="3.53112">
        <ele>404.6</ele>
        <time>2023-05-14T06:36:34.000Z</time>
      </trkpt>
      <trkpt lat="43.72331" lon="3.531">
        <ele>405.3</ele>
        <time>2023-05-14T06:36:37.000Z</time>
      </trkpt>
      <trkpt lat="43.72334" lon="3.53087">
        <ele>405.8</ele>
        <time>2023-05-14T06:36:40.000Z</time>
      </trkpt>
      <trkpt lat="43.72336" lon="3.53074">
        <ele>406.3</ele>
        <time>2023-05-14T06:36:43.000Z</time>
      </trkpt>
      <trkpt lat="43.72338" lon="3.53061">
        <ele>407.1</ele>
        <time>2023-05-14T06:36:46.000Z</time>
      </trkpt>
      <trkpt lat="43.7234" lon="3.53048">
        <ele>407.8</ele>
        <time>2023-05-14T06:36:49.000Z</time>
      </trkpt>
      <trkpt lat="43.72343" lon="3.53036">
        <ele>408.4</ele>
        <time>2023-05-14T06:36:52.000Z</time>
      </trkpt>
      <trkpt lat="43.72348" lon="3.53025">
        <ele>409.2</ele>
        <time>2023-05-14T06:36:55.000Z</time>
      </trkpt>
      <trkpt lat="43.72354" lon="3.53015">
        <ele>409.9</ele>
        <time>2023-05-14T06:36:58.000Z</time>
      </trkpt>
      <trkpt lat="43.72359" lon="3.53005">
        <ele>410.7</ele>
        <time>2023-05-14T06:37:01.000Z</time>
      </trkpt>
      <trkpt lat="43.72366" lon="3.52992">
        <ele>411.7</ele>
        <time>2023-05-14T06:37:05.000Z</time>
      </trkpt>
      <trkpt lat="43.72374" lon="3.52979">
        <ele>413</ele>
        <time>2023-05-14T06:37:09.000Z</time>
      </trkpt>
      <trkpt lat="43.7238" lon="3.5297">
        <ele>413.8</ele>
        <time>2023-05-14T06:37:12.000Z</time>
      </trkpt>
      <trkpt lat="43.72385" lon="3.52959">
        <ele>414.6</ele>
        <time>2023-05-14T06:37:15.000Z</time>
      </trkpt>
      <trkpt lat="43.72388" lon="3.52947">
        <ele>415.4</ele>
        <time>2023-05-14T06:37:18.000Z</time>
      </trkpt>
      <trkpt lat="43.72391" lon="3.52935">
        <ele>416</ele>
        <time>2023-05-14T06:37:21.000Z</time>
      </trkpt>
      <trkpt lat="43.724" lon="3.52924">
        <ele>416.7</ele>
        <time>2023-05-14T06:37:25.000Z</time>
      </trkpt>
      <trkpt lat="43.72408" lon="3.52933">
        <ele>417.5</ele>
        <time>2023-05-14T06:37:29.000Z</time>
      </trkpt>
      <trkpt lat="43.72405" lon="3.52949">
        <ele>418.1</ele>
        <time>2023-05-14T06:37:33.000Z</time>
      </trkpt>
      <trkpt lat="43.72399" lon="3.5296">
        <ele>418.4</ele>
        <time>2023-05-14T06:37:36.000Z</time>
      </trkpt>
      <trkpt lat="43.72394" lon="3.52972">
        <ele>418.8</ele>
        <time>2023-05-14T06:37:39.000Z</time>
      </trkpt>
      <trkpt lat="43.72389" lon="3.52985">
        <ele>419.3</ele>
        <time>2023-05-14T06:37:42.000Z</time>
      </trkpt>
      <trkpt lat="43.72387" lon="3.52999">
        <ele>419.7</ele>
        <time>2023-05-14T06:37:45.000Z</time>
      </trkpt>
      <trkpt lat="43.72387" lon="3.53012">
        <ele>420.1</ele>
        <time>2023-05-14T06:37:48.000Z</time>
      </trkpt>
      <trkpt lat="43.72386" lon="3.53026">
        <ele>420.6</ele>
        <time>2023-05-14T06:37:51.000Z</time>
      </trkpt>
      <trkpt lat="43.72386" lon="3.53039">
        <ele>421</ele>
        <time>2023-05-14T06:37:54.000Z</time>
      </trkpt>
      <trkpt lat="43.72388" lon="3.53053">
        <ele>421.6</ele>
        <time>2023-05-14T06:37:57.000Z</time>
      </trkpt>
      <trkpt lat="43.72394" lon="3.53064">
        <ele>422.3</ele>
        <time>2023-05-14T06:38:00.000Z</time>
      </trkpt>
      <trkpt lat="43.72401" lon="3.53072">
        <ele>423</ele>
        <time>2023-05-14T06:38:03.000Z</time>
      </trkpt>
      <trkpt lat="43.72409" lon="3.53078">
        <ele>423.9</ele>
        <time>2023-05-14T06:38:06.000Z</time>
      </trkpt>
      <trkpt lat="43.72417" lon="3.53083">
        <ele>424.6</ele>
        <time>2023-05-14T06:38:09.000Z</time>
      </trkpt>
      <trkpt lat="43.72426" lon="3.53088">
        <ele>425.5</ele>
        <time>2023-05-14T06:38:12.000Z</time>
      </trkpt>
      <trkpt lat="43.72434" lon="3.53092">
        <ele>426.4</ele>
        <time>2023-05-14T06:38:15.000Z</time>
      </trkpt>
      <trkpt lat="43.72444" lon="3.53093">
        <ele>427.2</ele>
        <time>2023-05-14T06:38:18.000Z</time>
      </trkpt>
      <trkpt lat="43.72449" lon="3.5308">
        <ele>428.2</ele>
        <time>2023-05-14T06:38:22.000Z</time>
      </trkpt>
      <trkpt lat="43.72443" lon="3.5307">
        <ele>429</ele>
        <time>2023-05-14T06:38:25.000Z</time>
      </trkpt>
      <trkpt lat="43.72437" lon="3.5306">
        <ele>429.6</ele>
        <time>2023-05-14T06:38:28.000Z</time>
      </trkpt>
      <trkpt lat="43.72433" lon="3.53048">
        <ele>430.1</ele>
        <time>2023-05-14T06:38:31.000Z</time>
      </trkpt>
      <trkpt lat="43.72433" lon="3.53035">
        <ele>430.8</ele>
        <time>2023-05-14T06:38:34.000Z</time>
      </trkpt>
      <trkpt lat="43.72436" lon="3.53022">
        <ele>431.3</ele>
        <time>2023-05-14T06:38:37.000Z</time>
      </trkpt>
      <trkpt lat="43.72441" lon="3.53011">
        <ele>431.8</ele>
        <time>2023-05-14T06:38:40.000Z</time>
      </trkpt>
      <trkpt lat="43.72448" lon="3.53003">
        <ele>432.6</ele>
        <time>2023-05-14T06:38:43.000Z</time>
      </trkpt>
      <trkpt lat="43.72455" lon="3.52995">
        <ele>433.6</ele>
        <time>2023-05-14T06:38:46.000Z</time>
      </trkpt>
      <trkpt lat="43.72461" lon="3.52986">
        <ele>434.6</ele>
        <time>2023-05-14T06:38:49.000Z</time>
      </trkpt>
      <trkpt lat="43.72466" lon="3.52975">
        <ele>435.5</ele>
        <time>2023-05-14T06:38:52.000Z</time>
      </trkpt>
      <trkpt lat="43.7247" lon="3.52963">
        <ele>436.5</ele>
        <time>2023-05-14T06:38:55.000Z</time>
      </trkpt>
      <trkpt lat="43.72472" lon="3.52949">
        <ele>437.7</ele>
        <time>2023-05-14T06:38:59.000Z</time>
      </trkpt>
      <trkpt lat="43.72481" lon="3.52954">
        <ele>439.9</ele>
        <time>2023-05-14T06:39:06.000Z</time>
      </trkpt>
      <trkpt lat="43.72484" lon="3.52969">
        <ele>441.4</ele>
        <time>2023-05-14T06:39:10.000Z</time>
      </trkpt>
      <trkpt lat="43.72488" lon="3.52983">
        <ele>442.3</ele>
        <time>2023-05-14T06:39:14.000Z</time>
      </trkpt>
      <trkpt lat="43.72494" lon="3.52993">
        <ele>443.4</ele>
        <time>2023-05-14T06:39:18.000Z</time>
      </trkpt>
      <trkpt lat="43.72499" lon="3.52982">
        <ele>444.4</ele>
        <time>2023-05-14T06:39:22.000Z</time>
      </trkpt>
      <trkpt lat="43.72498" lon="3.52966">
        <ele>445.3</ele>
        <time>2023-05-14T06:39:26.000Z</time>
      </trkpt>
      <trkpt lat="43.725" lon="3.52953">
        <ele>445.8</ele>
        <time>2023-05-14T06:39:29.000Z</time>
      </trkpt>
      <trkpt lat="43.72502" lon="3.52941">
        <ele>446.5</ele>
        <time>2023-05-14T06:39:32.000Z</time>
      </trkpt>
      <trkpt lat="43.72505" lon="3.52929">
        <ele>447.1</ele>
        <time>2023-05-14T06:39:35.000Z</time>
      </trkpt>
      <trkpt lat="43.72508" lon="3.52913">
        <ele>448</ele>
        <time>2023-05-14T06:39:39.000Z</time>
      </trkpt>
      <trkpt lat="43.7251" lon="3.52901">
        <ele>448.7</ele>
        <time>2023-05-14T06:39:42.000Z</time>
      </trkpt>
      <trkpt lat="43.72511" lon="3.52888">
        <ele>449.3</ele>
        <time>2023-05-14T06:39:45.000Z</time>
      </trkpt>
      <trkpt lat="43.72513" lon="3.52876">
        <ele>450.1</ele>
        <time>2023-05-14T06:39:48.000Z</time>
      </trkpt>
      <trkpt lat="43.72513" lon="3.5286">
        <ele>451</ele>
        <time>2023-05-14T06:39:52.000Z</time>
      </trkpt>
      <trkpt lat="43.72514" lon="3.52844">
        <ele>451.9</ele>
        <time>2023-05-14T06:39:56.000Z</time>
      </trkpt>
      <trkpt lat="43.72516" lon="3.52827">
        <ele>452.9</ele>
        <time>2023-05-14T06:40:00.000Z</time>
      </trkpt>
      <trkpt lat="43.72518" lon="3.52811">
        <ele>454.1</ele>
        <time>2023-05-14T06:40:04.000Z</time>
      </trkpt>
      <trkpt lat="43.72521" lon="3.528">
        <ele>455</ele>
        <time>2023-05-14T06:40:07.000Z</time>
      </trkpt>
      <trkpt lat="43.72528" lon="3.52787">
        <ele>455.9</ele>
        <time>2023-05-14T06:40:11.000Z</time>
      </trkpt>
      <trkpt lat="43.72534" lon="3.52774">
        <ele>456.8</ele>
        <time>2023-05-14T06:40:15.000Z</time>
      </trkpt>
      <trkpt lat="43.72535" lon="3.52761">
        <ele>457.5</ele>
        <time>2023-05-14T06:40:18.000Z</time>
      </trkpt>
      <trkpt lat="43.72532" lon="3.52749">
        <ele>458.2</ele>
        <time>2023-05-14T06:40:21.000Z</time>
      </trkpt>
      <trkpt lat="43.72527" lon="3.52737">
        <ele>459.2</ele>
        <time>2023-05-14T06:40:24.000Z</time>
      </trkpt>
      <trkpt lat="43.72523" lon="3.52725">
        <ele>460.2</ele>
        <time>2023-05-14T06:40:27.000Z</time>
      </trkpt>
      <trkpt lat="43.72523" lon="3.52712">
        <ele>460.7</ele>
        <time>2023-05-14T06:40:30.000Z</time>
      </trkpt>
      <trkpt lat="43.72527" lon="3.52697">
        <ele>461.9</ele>
        <time>2023-05-14T06:40:34.000Z</time>
      </trkpt>
      <trkpt lat="43.72531" lon="3.52682">
        <ele>462.5</ele>
        <time>2023-05-14T06:40:38.000Z</time>
      </trkpt>
      <trkpt lat="43.72534" lon="3.5267">
        <ele>463.5</ele>
        <time>2023-05-14T06:40:41.000Z</time>
      </trkpt>
      <trkpt lat="43.7254" lon="3.52655">
        <ele>464.9</ele>
        <time>2023-05-14T06:40:45.000Z</time>
      </trkpt>
      <trkpt lat="43.72547" lon="3.52643">
        <ele>466.3</ele>
        <time>2023-05-14T06:40:49.000Z</time>
      </trkpt>
      <trkpt lat="43.72554" lon="3.52634">
        <ele>467.4</ele>
        <time>2023-05-14T06:40:52.000Z</time>
      </trkpt>
      <trkpt lat="43.7256" lon="3.52626">
        <ele>468.2</ele>
        <time>2023-05-14T06:40:55.000Z</time>
      </trkpt>
      <trkpt lat="43.72568" lon="3.52618">
        <ele>469.2</ele>
        <time>2023-05-14T06:40:58.000Z</time>
      </trkpt>
      <trkpt lat="43.72578" lon="3.52611">
        <ele>470.9</ele>
        <time>2023-05-14T06:41:02.000Z</time>
      </trkpt>
      <trkpt lat="43.72585" lon="3.52603">
        <ele>471.9</ele>
        <time>2023-05-14T06:41:05.000Z</time>
      </trkpt>
      <trkpt lat="43.72593" lon="3.52592">
        <ele>473</ele>
        <time>2023-05-14T06:41:09.000Z</time>
      </trkpt>
      <trkpt lat="43.72601" lon="3.52581">
        <ele>474.1</ele>
        <time>2023-05-14T06:41:13.000Z</time>
      </trkpt>
      <trkpt lat="43.72609" lon="3.52569">
        <ele>475.2</ele>
        <time>2023-05-14T06:41:17.000Z</time>
      </trkpt>
      <trkpt lat="43.72618" lon="3.52559">
        <ele>476.4</ele>
        <time>2023-05-14T06:41:21.000Z</time>
      </trkpt>
      <trkpt lat="43.72627" lon="3.5255">
        <ele>477.7</ele>
        <time>2023-05-14T06:41:25.000Z</time>
      </trkpt>
      <trkpt lat="43.72637" lon="3.5254">
        <ele>479</ele>
        <time>2023-05-14T06:41:29.000Z</time>
      </trkpt>
      <trkpt lat="43.72644" lon="3.52528">
        <ele>480.1</ele>
        <time>2023-05-14T06:41:33.000Z</time>
      </trkpt>
      <trkpt lat="43.72649" lon="3.52517">
        <ele>480.9</ele>
        <time>2023-05-14T06:41:36.000Z</time>
      </trkpt>
      <trkpt lat="43.72655" lon="3.52503">
        <ele>481.9</ele>
        <time>2023-05-14T06:41:40.000Z</time>
      </trkpt>
      <trkpt lat="43.7266" lon="3.52492">
        <ele>482.7</ele>
        <time>2023-05-14T06:41:43.000Z</time>
      </trkpt>
      <trkpt lat="43.72664" lon="3.52482">
        <ele>483.5</ele>
        <time>2023-05-14T06:41:46.000Z</time>
      </trkpt>
      <trkpt lat="43.72671" lon="3.52469">
        <ele>484.9</ele>
        <time>2023-05-14T06:41:50.000Z</time>
      </trkpt>
      <trkpt lat="43.72677" lon="3.52456">
        <ele>485.6</ele>
        <time>2023-05-14T06:41:54.000Z</time>
      </trkpt>
      <trkpt lat="43.72684" lon="3.52444">
        <ele>486.3</ele>
        <time>2023-05-14T06:41:58.000Z</time>
      </trkpt>
      <trkpt lat="43.72692" lon="3.52434">
        <ele>486.9</ele>
        <time>2023-05-14T06:42:02.000Z</time>
      </trkpt>
      <trkpt lat="43.72702" lon="3.52426">
        <ele>487.9</ele>
        <time>2023-05-14T06:42:06.000Z</time>
      </trkpt>
      <trkpt lat="43.72712" lon="3.52419">
        <ele>488.9</ele>
        <time>2023-05-14T06:42:10.000Z</time>
      </trkpt>
      <trkpt lat="43.72722" lon="3.52414">
        <ele>489.9</ele>
        <time>2023-05-14T06:42:14.000Z</time>
      </trkpt>
      <trkpt lat="43.72733" lon="3.52409">
        <ele>490.7</ele>
        <time>2023-05-14T06:42:18.000Z</time>
      </trkpt>
      <trkpt lat="43.72743" lon="3.52401">
        <ele>491.4</ele>
        <time>2023-05-14T06:42:22.000Z</time>
      </trkpt>
      <trkpt lat="43.72753" lon="3.52393">
        <ele>492.2</ele>
        <time>2023-05-14T06:42:26.000Z</time>
      </trkpt>
      <trkpt lat="43.7276" lon="3.52386">
        <ele>492.7</ele>
        <time>2023-05-14T06:42:29.000Z</time>
      </trkpt>
      <trkpt lat="43.72767" lon="3.52377">
        <ele>493.2</ele>
        <time>2023-05-14T06:42:32.000Z</time>
      </trkpt>
      <trkpt lat="43.72772" lon="3.52367">
        <ele>493.6</ele>
        <time>2023-05-14T06:42:35.000Z</time>
      </trkpt>
      <trkpt lat="43.72779" lon="3.52357">
        <ele>494</ele>
        <time>2023-05-14T06:42:38.000Z</time>
      </trkpt>
      <trkpt lat="43.72785" lon="3.52347">
        <ele>494.6</ele>
        <time>2023-05-14T06:42:41.000Z</time>
      </trkpt>
      <trkpt lat="43.72791" lon="3.52337">
        <ele>495.2</ele>
        <time>2023-05-14T06:42:44.000Z</time>
      </trkpt>
      <trkpt lat="43.72797" lon="3.52327">
        <ele>495.6</ele>
        <time>2023-05-14T06:42:47.000Z</time>
      </trkpt>
      <trkpt lat="43.72804" lon="3.52317">
        <ele>496.1</ele>
        <time>2023-05-14T06:42:50.000Z</time>
      </trkpt>
      <trkpt lat="43.7281" lon="3.52307">
        <ele>496.5</ele>
        <time>2023-05-14T06:42:53.000Z</time>
      </trkpt>
      <trkpt lat="43.72816" lon="3.52297">
        <ele>496.8</ele>
        <time>2023-05-14T06:42:56.000Z</time>
      </trkpt>
      <trkpt lat="43.72822" lon="3.52288">
        <ele>497.2</ele>
        <time>2023-05-14T06:42:59.000Z</time>
      </trkpt>
      <trkpt lat="43.72828" lon="3.52277">
        <ele>497.6</ele>
        <time>2023-05-14T06:43:03.000Z</time>
      </trkpt>
      <trkpt lat="43.72835" lon="3.52265">
        <ele>497.9</ele>
        <time>2023-05-14T06:43:07.000Z</time>
      </trkpt>
      <trkpt lat="43.72842" lon="3.52256">
        <ele>498.4</ele>
        <time>2023-05-14T06:43:11.000Z</time>
      </trkpt>
      <trkpt lat="43.72849" lon="3.52248">
        <ele>498.8</ele>
        <time>2023-05-14T06:43:15.000Z</time>
      </trkpt>
      <trkpt lat="43.72857" lon="3.5224">
        <ele>499.5</ele>
        <time>2023-05-14T06:43:20.000Z</time>
      </trkpt>
      <trkpt lat="43.72865" lon="3.5223">
        <ele>500.1</ele>
        <time>2023-05-14T06:43:25.000Z</time>
      </trkpt>
      <trkpt lat="43.72872" lon="3.52222">
        <ele>500.7</ele>
        <time>2023-05-14T06:43:29.000Z</time>
      </trkpt>
      <trkpt lat="43.72882" lon="3.52214">
        <ele>501.5</ele>
        <time>2023-05-14T06:43:34.000Z</time>
      </trkpt>
      <trkpt lat="43.7289" lon="3.52209">
        <ele>501.9</ele>
        <time>2023-05-14T06:43:38.000Z</time>
      </trkpt>
      <trkpt lat="43.72899" lon="3.52203">
        <ele>502.5</ele>
        <time>2023-05-14T06:43:42.000Z</time>
      </trkpt>
      <trkpt lat="43.72909" lon="3.52201">
        <ele>503.3</ele>
        <time>2023-05-14T06:43:46.000Z</time>
      </trkpt>
      <trkpt lat="43.72918" lon="3.52201">
        <ele>504.1</ele>
        <time>2023-05-14T06:43:50.000Z</time>
      </trkpt>
      <trkpt lat="43.72928" lon="3.52198">
        <ele>504.8</ele>
        <time>2023-05-14T06:43:54.000Z</time>
      </trkpt>
      <trkpt lat="43.7294" lon="3.52195">
        <ele>505.2</ele>
        <time>2023-05-14T06:43:58.000Z</time>
      </trkpt>
      <trkpt lat="43.72949" lon="3.52188">
        <ele>505.6</ele>
        <time>2023-05-14T06:44:02.000Z</time>
      </trkpt>
      <trkpt lat="43.72958" lon="3.52179">
        <ele>506</ele>
        <time>2023-05-14T06:44:06.000Z</time>
      </trkpt>
      <trkpt lat="43.72966" lon="3.52173">
        <ele>506.5</ele>
        <time>2023-05-14T06:44:10.000Z</time>
      </trkpt>
      <trkpt lat="43.72977" lon="3.52169">
        <ele>506.9</ele>
        <time>2023-05-14T06:44:15.000Z</time>
      </trkpt>
      <trkpt lat="43.72985" lon="3.52162">
        <ele>507.3</ele>
        <time>2023-05-14T06:44:19.000Z</time>
      </trkpt>
      <trkpt lat="43.72996" lon="3.52157">
        <ele>507.7</ele>
        <time>2023-05-14T06:44:22.000Z</time>
      </trkpt>
      <trkpt lat="43.73004" lon="3.52152">
        <ele>508.1</ele>
        <time>2023-05-14T06:44:25.000Z</time>
      </trkpt>
      <trkpt lat="43.73014" lon="3.52147">
        <ele>508.8</ele>
        <time>2023-05-14T06:44:29.000Z</time>
      </trkpt>
      <trkpt lat="43.73024" lon="3.52145">
        <ele>509.5</ele>
        <time>2023-05-14T06:44:33.000Z</time>
      </trkpt>
      <trkpt lat="43.73035" lon="3.52143">
        <ele>510.3</ele>
        <time>2023-05-14T06:44:37.000Z</time>
      </trkpt>
      <trkpt lat="43.73044" lon="3.52143">
        <ele>511.1</ele>
        <time>2023-05-14T06:44:41.000Z</time>
      </trkpt>
      <trkpt lat="43.73054" lon="3.52145">
        <ele>512.4</ele>
        <time>2023-05-14T06:44:46.000Z</time>
      </trkpt>
      <trkpt lat="43.73065" lon="3.52144">
        <ele>513.9</ele>
        <time>2023-05-14T06:44:52.000Z</time>
      </trkpt>
      <trkpt lat="43.73068" lon="3.52132">
        <ele>515.3</ele>
        <time>2023-05-14T06:44:57.000Z</time>
      </trkpt>
      <trkpt lat="43.73078" lon="3.52127">
        <ele>517.4</ele>
        <time>2023-05-14T06:45:05.000Z</time>
      </trkpt>
      <trkpt lat="43.73085" lon="3.52119">
        <ele>518.8</ele>
        <time>2023-05-14T06:45:11.000Z</time>
      </trkpt>
      <trkpt lat="43.73091" lon="3.52107">
        <ele>520</ele>
        <time>2023-05-14T06:45:17.000Z</time>
      </trkpt>
      <trkpt lat="43.73097" lon="3.52096">
        <ele>521.1</ele>
        <time>2023-05-14T06:45:23.000Z</time>
      </trkpt>
      <trkpt lat="43.73105" lon="3.52089">
        <ele>522.1</ele>
        <time>2023-05-14T06:45:29.000Z</time>
      </trkpt>
      <trkpt lat="43.73114" lon="3.52082">
        <ele>523</ele>
        <time>2023-05-14T06:45:36.000Z</time>
      </trkpt>
      <trkpt lat="43.73124" lon="3.52075">
        <ele>524</ele>
        <time>2023-05-14T06:45:43.000Z</time>
      </trkpt>
      <trkpt lat="43.73131" lon="3.52069">
        <ele>524.9</ele>
        <time>2023-05-14T06:45:49.000Z</time>
      </trkpt>
      <trkpt lat="43.7314" lon="3.52062">
        <ele>525.7</ele>
        <time>2023-05-14T06:45:55.000Z</time>
      </trkpt>
      <trkpt lat="43.73149" lon="3.52054">
        <ele>527.1</ele>
        <time>2023-05-14T06:46:02.000Z</time>
      </trkpt>
      <trkpt lat="43.73157" lon="3.52046">
        <ele>528.2</ele>
        <time>2023-05-14T06:46:09.000Z</time>
      </trkpt>
      <trkpt lat="43.73163" lon="3.52034">
        <ele>529.3</ele>
        <time>2023-05-14T06:46:16.000Z</time>
      </trkpt>
      <trkpt lat="43.73169" lon="3.52024">
        <ele>530.5</ele>
        <time>2023-05-14T06:46:22.000Z</time>
      </trkpt>
      <trkpt lat="43.73172" lon="3.52012">
        <ele>531.6</ele>
        <time>2023-05-14T06:46:28.000Z</time>
      </trkpt>
      <trkpt lat="43.73179" lon="3.51999">
        <ele>532.3</ele>
        <time>2023-05-14T06:46:33.000Z</time>
      </trkpt>
      <trkpt lat="43.73186" lon="3.5199">
        <ele>532.7</ele>
        <time>2023-05-14T06:46:36.000Z</time>
      </trkpt>
      <trkpt lat="43.73193" lon="3.51982">
        <ele>533.8</ele>
        <time>2023-05-14T06:46:42.000Z</time>
      </trkpt>
      <trkpt lat="43.73202" lon="3.51977">
        <ele>535.5</ele>
        <time>2023-05-14T06:46:50.000Z</time>
      </trkpt>
      <trkpt lat="43.73211" lon="3.51968">
        <ele>537</ele>
        <time>2023-05-14T06:46:58.000Z</time>
      </trkpt>
      <trkpt lat="43.73219" lon="3.51963">
        <ele>538.1</ele>
        <time>2023-05-14T06:47:04.000Z</time>
      </trkpt>
      <trkpt lat="43.73228" lon="3.51959">
        <ele>539.2</ele>
        <time>2023-05-14T06:47:11.000Z</time>
      </trkpt>
      <trkpt lat="43.73237" lon="3.51955">
        <ele>540.3</ele>
        <time>2023-05-14T06:47:17.000Z</time>
      </trkpt>
      <trkpt lat="43.73229" lon="3.51947">
        <ele>541.9</ele>
        <time>2023-05-14T06:47:25.000Z</time>
      </trkpt>
      <trkpt lat="43.73219" lon="3.51944">
        <ele>542.8</ele>
        <time>2023-05-14T06:47:31.000Z</time>
      </trkpt>
      <trkpt lat="43.73227" lon="3.51937">
        <ele>544.2</ele>
        <time>2023-05-14T06:47:40.000Z</time>
      </trkpt>
      <trkpt lat="43.73237" lon="3.51937">
        <ele>544.7</ele>
        <time>2023-05-14T06:47:44.000Z</time>
      </trkpt>
      <trkpt lat="43.73246" lon="3.51934">
        <ele>545.2</ele>
        <time>2023-05-14T06:47:48.000Z</time>
      </trkpt>
      <trkpt lat="43.73255" lon="3.51931">
        <ele>545.8</ele>
        <time>2023-05-14T06:47:52.000Z</time>
      </trkpt>
      <trkpt lat="43.73264" lon="3.51929">
        <ele>546.7</ele>
        <time>2023-05-14T06:47:57.000Z</time>
      </trkpt>
      <trkpt lat="43.73272" lon="3.51938">
        <ele>549</ele>
        <time>2023-05-14T06:48:07.000Z</time>
      </trkpt>
      <trkpt lat="43.73275" lon="3.5195">
        <ele>550</ele>
        <time>2023-05-14T06:48:12.000Z</time>
      </trkpt>
      <trkpt lat="43.73279" lon="3.51963">
        <ele>551</ele>
        <time>2023-05-14T06:48:17.000Z</time>
      </trkpt>
      <trkpt lat="43.73285" lon="3.51954">
        <ele>552.3</ele>
        <time>2023-05-14T06:48:24.000Z</time>
      </trkpt>
      <trkpt lat="43.73292" lon="3.51944">
        <ele>553.8</ele>
        <time>2023-05-14T06:48:31.000Z</time>
      </trkpt>
      <trkpt lat="43.73298" lon="3.51941">
        <ele>555.3</ele>
        <time>2023-05-14T06:48:39.000Z</time>
      </trkpt>
      <trkpt lat="43.73298" lon="3.51942">
        <ele>556</ele>
        <time>2023-05-14T06:48:45.000Z</time>
      </trkpt>
      <trkpt lat="43.73302" lon="3.51955">
        <ele>556.7</ele>
        <time>2023-05-14T06:48:51.000Z</time>
      </trkpt>
      <trkpt lat="43.73307" lon="3.51966">
        <ele>557.3</ele>
        <time>2023-05-14T06:48:56.000Z</time>
      </trkpt>
      <trkpt lat="43.73313" lon="3.51977">
        <ele>558.2</ele>
        <time>2023-05-14T06:49:01.000Z</time>
      </trkpt>
      <trkpt lat="43.73318" lon="3.51988">
        <ele>559.5</ele>
        <time>2023-05-14T06:49:06.000Z</time>
      </trkpt>
      <trkpt lat="43.73326" lon="3.5198">
        <ele>562</ele>
        <time>2023-05-14T06:49:16.000Z</time>
      </trkpt>
      <trkpt lat="43.73328" lon="3.51966">
        <ele>563.1</ele>
        <time>2023-05-14T06:49:22.000Z</time>
      </trkpt>
      <trkpt lat="43.73334" lon="3.51955">
        <ele>564.1</ele>
        <time>2023-05-14T06:49:28.000Z</time>
      </trkpt>
      <trkpt lat="43.73342" lon="3.51948">
        <ele>565.3</ele>
        <time>2023-05-14T06:49:34.000Z</time>
      </trkpt>
      <trkpt lat="43.7335" lon="3.5194">
        <ele>566.2</ele>
        <time>2023-05-14T06:49:39.000Z</time>
      </trkpt>
      <trkpt lat="43.73357" lon="3.51931">
        <ele>567</ele>
        <time>2023-05-14T06:49:44.000Z</time>
      </trkpt>
      <trkpt lat="43.73368" lon="3.51926">
        <ele>567.4</ele>
        <time>2023-05-14T06:49:49.000Z</time>
      </trkpt>
      <trkpt lat="43.73377" lon="3.51922">
        <ele>567.9</ele>
        <time>2023-05-14T06:49:54.000Z</time>
      </trkpt>
      <trkpt lat="43.73386" lon="3.51916">
        <ele>568.4</ele>
        <time>2023-05-14T06:49:59.000Z</time>
      </trkpt>
      <trkpt lat="43.73396" lon="3.51913">
        <ele>569</ele>
        <time>2023-05-14T06:50:04.000Z</time>
      </trkpt>
      <trkpt lat="43.73406" lon="3.51911">
        <ele>569.1</ele>
        <time>2023-05-14T06:50:08.000Z</time>
      </trkpt>
      <trkpt lat="43.73415" lon="3.51917">
        <ele>568.9</ele>
        <time>2023-05-14T06:50:12.000Z</time>
      </trkpt>
      <trkpt lat="43.73423" lon="3.51908">
        <ele>568</ele>
        <time>2023-05-14T06:50:17.000Z</time>
      </trkpt>
      <trkpt lat="43.73427" lon="3.51896">
        <ele>566.8</ele>
        <time>2023-05-14T06:50:21.000Z</time>
      </trkpt>
      <trkpt lat="43.73433" lon="3.51885">
        <ele>565.1</ele>
        <time>2023-05-14T06:50:25.000Z</time>
      </trkpt>
      <trkpt lat="43.73439" lon="3.51876">
        <ele>563.2</ele>
        <time>2023-05-14T06:50:29.000Z</time>
      </trkpt>
      <trkpt lat="43.73446" lon="3.51867">
        <ele>562</ele>
        <time>2023-05-14T06:50:32.000Z</time>
      </trkpt>
      <trkpt lat="43.73455" lon="3.51859">
        <ele>561.2</ele>
        <time>2023-05-14T06:50:35.000Z</time>
      </trkpt>
      <trkpt lat="43.73464" lon="3.51854">
        <ele>559.7</ele>
        <time>2023-05-14T06:50:39.000Z</time>
      </trkpt>
      <trkpt lat="43.73475" lon="3.51852">
        <ele>558.7</ele>
        <time>2023-05-14T06:50:43.000Z</time>
      </trkpt>
      <trkpt lat="43.73482" lon="3.5186">
        <ele>557</ele>
        <time>2023-05-14T06:50:47.000Z</time>
      </trkpt>
      <trkpt lat="43.7349" lon="3.5187">
        <ele>555.2</ele>
        <time>2023-05-14T06:50:51.000Z</time>
      </trkpt>
      <trkpt lat="43.73498" lon="3.51879">
        <ele>553.4</ele>
        <time>2023-05-14T06:50:54.000Z</time>
      </trkpt>
      <trkpt lat="43.73504" lon="3.51891">
        <ele>551.4</ele>
        <time>2023-05-14T06:50:57.000Z</time>
      </trkpt>
      <trkpt lat="43.73508" lon="3.51904">
        <ele>549.6</ele>
        <time>2023-05-14T06:51:01.000Z</time>
      </trkpt>
      <trkpt lat="43.73512" lon="3.51889">
        <ele>546</ele>
        <time>2023-05-14T06:51:10.000Z</time>
      </trkpt>
      <trkpt lat="43.73511" lon="3.51875">
        <ele>544.7</ele>
        <time>2023-05-14T06:51:13.000Z</time>
      </trkpt>
      <trkpt lat="43.73511" lon="3.51859">
        <ele>542.6</ele>
        <time>2023-05-14T06:51:16.000Z</time>
      </trkpt>
      <trkpt lat="43.73509" lon="3.51846">
        <ele>541</ele>
        <time>2023-05-14T06:51:19.000Z</time>
      </trkpt>
      <trkpt lat="43.73506" lon="3.51832">
        <ele>539.2</ele>
        <time>2023-05-14T06:51:23.000Z</time>
      </trkpt>
      <trkpt lat="43.73501" lon="3.51821">
        <ele>538.2</ele>
        <time>2023-05-14T06:51:26.000Z</time>
      </trkpt>
      <trkpt lat="43.73508" lon="3.5181">
        <ele>535.9</ele>
        <time>2023-05-14T06:51:30.000Z</time>
      </trkpt>
      <trkpt lat="43.73517" lon="3.51804">
        <ele>533.9</ele>
        <time>2023-05-14T06:51:33.000Z</time>
      </trkpt>
      <trkpt lat="43.73524" lon="3.51794">
        <ele>532</ele>
        <time>2023-05-14T06:51:36.000Z</time>
      </trkpt>
      <trkpt lat="43.7353" lon="3.51781">
        <ele>529</ele>
        <time>2023-05-14T06:51:40.000Z</time>
      </trkpt>
      <trkpt lat="43.73531" lon="3.51767">
        <ele>526.7</ele>
        <time>2023-05-14T06:51:44.000Z</time>
      </trkpt>
      <trkpt lat="43.73532" lon="3.51752">
        <ele>525.1</ele>
        <time>2023-05-14T06:51:48.000Z</time>
      </trkpt>
      <trkpt lat="43.73533" lon="3.51739">
        <ele>523.4</ele>
        <time>2023-05-14T06:51:52.000Z</time>
      </trkpt>
      <trkpt lat="43.73535" lon="3.51726">
        <ele>521.2</ele>
        <time>2023-05-14T06:51:56.000Z</time>
      </trkpt>
      <trkpt lat="43.73533" lon="3.51721">
        <ele>518.8</ele>
        <time>2023-05-14T06:52:03.000Z</time>
      </trkpt>
      <trkpt lat="43.73533" lon="3.51721">
        <ele>518.1</ele>
        <time>2023-05-14T06:52:10.000Z</time>
      </trkpt>
      <trkpt lat="43.73533" lon="3.51721">
        <ele>518.1</ele>
        <time>2023-05-14T06:52:11.000Z</time>
      </trkpt>
      <trkpt lat="43.73533" lon="3.51721">
        <ele>518</ele>
        <time>2023-05-14T06:52:14.000Z</time>
      </trkpt>
      <trkpt lat="43.73533" lon="3.51721">
        <ele>518</ele>
        <time>2023-05-14T06:52:15.000Z</time>
      </trkpt>
      <trkpt lat="43.73533" lon="3.5172">
        <ele>518</ele>
        <time>2023-05-14T06:52:18.000Z</time>
      </trkpt>
      <trkpt lat="43.73531" lon="3.51707">
        <ele>517.8</ele>
        <time>2023-05-14T06:52:22.000Z</time>
      </trkpt>
      <trkpt lat="43.73528" lon="3.51693">
        <ele>517.4</ele>
        <time>2023-05-14T06:52:25.000Z</time>
      </trkpt>
      <trkpt lat="43.73526" lon="3.51679">
        <ele>517</ele>
        <time>2023-05-14T06:52:27.000Z</time>
      </trkpt>
      <trkpt lat="43.73523" lon="3.51662">
        <ele>516.5</ele>
        <time>2023-05-14T06:52:29.000Z</time>
      </trkpt>
      <trkpt lat="43.73514" lon="3.51648">
        <ele>515.7</ele>
        <time>2023-05-14T06:52:31.000Z</time>
      </trkpt>
      <trkpt lat="43.73501" lon="3.51636">
        <ele>514.5</ele>
        <time>2023-05-14T06:52:33.000Z</time>
      </trkpt>
      <trkpt lat="43.73496" lon="3.51619">
        <ele>512.9</ele>
        <time>2023-05-14T06:52:35.000Z</time>
      </trkpt>
      <trkpt lat="43.73499" lon="3.51603">
        <ele>511.1</ele>
        <time>2023-05-14T06:52:37.000Z</time>
      </trkpt>
      <trkpt lat="43.73507" lon="3.51592">
        <ele>509.5</ele>
        <time>2023-05-14T06:52:39.000Z</time>
      </trkpt>
      <trkpt lat="43.73517" lon="3.5158">
        <ele>508.1</ele>
        <time>2023-05-14T06:52:41.000Z</time>
      </trkpt>
      <trkpt lat="43.73527" lon="3.51566">
        <ele>506.5</ele>
        <time>2023-05-14T06:52:43.000Z</time>
      </trkpt>
      <trkpt lat="43.73534" lon="3.51545">
        <ele>504.3</ele>
        <time>2023-05-14T06:52:45.000Z</time>
      </trkpt>
      <trkpt lat="43.73538" lon="3.51533">
        <ele>503.1</ele>
        <time>2023-05-14T06:52:46.000Z</time>
      </trkpt>
      <trkpt lat="43.73543" lon="3.51522">
        <ele>502.1</ele>
        <time>2023-05-14T06:52:47.000Z</time>
      </trkpt>
      <trkpt lat="43.7355" lon="3.51503">
        <ele>499.7</ele>
        <time>2023-05-14T06:52:49.000Z</time>
      </trkpt>
      <trkpt lat="43.73559" lon="3.51489">
        <ele>497.6</ele>
        <time>2023-05-14T06:52:51.000Z</time>
      </trkpt>
      <trkpt lat="43.73565" lon="3.51476">
        <ele>495.8</ele>
        <time>2023-05-14T06:52:53.000Z</time>
      </trkpt>
      <trkpt lat="43.73567" lon="3.51458">
        <ele>494</ele>
        <time>2023-05-14T06:52:55.000Z</time>
      </trkpt>
      <trkpt lat="43.73576" lon="3.51447">
        <ele>492.6</ele>
        <time>2023-05-14T06:52:57.000Z</time>
      </trkpt>
      <trkpt lat="43.73586" lon="3.51433">
        <ele>490.9</ele>
        <time>2023-05-14T06:52:59.000Z</time>
      </trkpt>
      <trkpt lat="43.73594" lon="3.51417">
        <ele>489.1</ele>
        <time>2023-05-14T06:53:01.000Z</time>
      </trkpt>
      <trkpt lat="43.73602" lon="3.51406">
        <ele>487.2</ele>
        <time>2023-05-14T06:53:03.000Z</time>
      </trkpt>
      <trkpt lat="43.73608" lon="3.51393">
        <ele>484.3</ele>
        <time>2023-05-14T06:53:06.000Z</time>
      </trkpt>
      <trkpt lat="43.73609" lon="3.51378">
        <ele>482.7</ele>
        <time>2023-05-14T06:53:08.000Z</time>
      </trkpt>
      <trkpt lat="43.73605" lon="3.51357">
        <ele>479.8</ele>
        <time>2023-05-14T06:53:10.000Z</time>
      </trkpt>
      <trkpt lat="43.73602" lon="3.51334">
        <ele>476.8</ele>
        <time>2023-05-14T06:53:12.000Z</time>
      </trkpt>
      <trkpt lat="43.73603" lon="3.51312">
        <ele>474.3</ele>
        <time>2023-05-14T06:53:14.000Z</time>
      </trkpt>
      <trkpt lat="43.7361" lon="3.51291">
        <ele>472.4</ele>
        <time>2023-05-14T06:53:16.000Z</time>
      </trkpt>
      <trkpt lat="43.73623" lon="3.51275">
        <ele>470.5</ele>
        <time>2023-05-14T06:53:18.000Z</time>
      </trkpt>
      <trkpt lat="43.73638" lon="3.51261">
        <ele>468.4</ele>
        <time>2023-05-14T06:53:20.000Z</time>
      </trkpt>
      <trkpt lat="43.73649" lon="3.51246">
        <ele>467.6</ele>
        <time>2023-05-14T06:53:22.000Z</time>
      </trkpt>
      <trkpt lat="43.73656" lon="3.51228">
        <ele>467.1</ele>
        <time>2023-05-14T06:53:24.000Z</time>
      </trkpt>
      <trkpt lat="43.7366" lon="3.51209">
        <ele>466.5</ele>
        <time>2023-05-14T06:53:26.000Z</time>
      </trkpt>
      <trkpt lat="43.73666" lon="3.51194">
        <ele>466.1</ele>
        <time>2023-05-14T06:53:28.000Z</time>
      </trkpt>
      <trkpt lat="43.73671" lon="3.51183">
        <ele>466</ele>
        <time>2023-05-14T06:53:30.000Z</time>
      </trkpt>
      <trkpt lat="43.73675" lon="3.5117">
        <ele>466</ele>
        <time>2023-05-14T06:53:33.000Z</time>
      </trkpt>
      <trkpt lat="43.73681" lon="3.5116">
        <ele>466.1</ele>
        <time>2023-05-14T06:53:36.000Z</time>
      </trkpt>
      <trkpt lat="43.7369" lon="3.51152">
        <ele>465.9</ele>
        <time>2023-05-14T06:53:39.000Z</time>
      </trkpt>
      <trkpt lat="43.73699" lon="3.51145">
        <ele>465.6</ele>
        <time>2023-05-14T06:53:42.000Z</time>
      </trkpt>
      <trkpt lat="43.73701" lon="3.51128">
        <ele>465.3</ele>
        <time>2023-05-14T06:53:45.000Z</time>
      </trkpt>
      <trkpt lat="43.73697" lon="3.51114">
        <ele>464.9</ele>
        <time>2023-05-14T06:53:47.000Z</time>
      </trkpt>
      <trkpt lat="43.73701" lon="3.51098">
        <ele>464.4</ele>
        <time>2023-05-14T06:53:49.000Z</time>
      </trkpt>
      <trkpt lat="43.73708" lon="3.51082">
        <ele>463.8</ele>
        <time>2023-05-14T06:53:51.000Z</time>
      </trkpt>
      <trkpt lat="43.73714" lon="3.51065">
        <ele>463</ele>
        <time>2023-05-14T06:53:53.000Z</time>
      </trkpt>
      <trkpt lat="43.7372" lon="3.51047">
        <ele>462.1</ele>
        <time>2023-05-14T06:53:55.000Z</time>
      </trkpt>
      <trkpt lat="43.73729" lon="3.51029">
        <ele>461.2</ele>
        <time>2023-05-14T06:53:57.000Z</time>
      </trkpt>
      <trkpt lat="43.73736" lon="3.51012">
        <ele>459.9</ele>
        <time>2023-05-14T06:53:59.000Z</time>
      </trkpt>
      <trkpt lat="43.73743" lon="3.50996">
        <ele>458.8</ele>
        <time>2023-05-14T06:54:01.000Z</time>
      </trkpt>
      <trkpt lat="43.73752" lon="3.5098">
        <ele>457.2</ele>
        <time>2023-05-14T06:54:03.000Z</time>
      </trkpt>
      <trkpt lat="43.73758" lon="3.50964">
        <ele>454.8</ele>
        <time>2023-05-14T06:54:05.000Z</time>
      </trkpt>
      <trkpt lat="43.73766" lon="3.50954">
        <ele>452.8</ele>
        <time>2023-05-14T06:54:07.000Z</time>
      </trkpt>
      <trkpt lat="43.73778" lon="3.50952">
        <ele>450.7</ele>
        <time>2023-05-14T06:54:09.000Z</time>
      </trkpt>
      <trkpt lat="43.7379" lon="3.50945">
        <ele>448.6</ele>
        <time>2023-05-14T06:54:11.000Z</time>
      </trkpt>
      <trkpt lat="43.73801" lon="3.5093">
        <ele>446.6</ele>
        <time>2023-05-14T06:54:13.000Z</time>
      </trkpt>
      <trkpt lat="43.73813" lon="3.50916">
        <ele>445</ele>
        <time>2023-05-14T06:54:15.000Z</time>
      </trkpt>
      <trkpt lat="43.73826" lon="3.50904">
        <ele>443.9</ele>
        <time>2023-05-14T06:54:17.000Z</time>
      </trkpt>
      <trkpt lat="43.73837" lon="3.50893">
        <ele>442.8</ele>
        <time>2023-05-14T06:54:19.000Z</time>
      </trkpt>
      <trkpt lat="43.73845" lon="3.50877">
        <ele>441.6</ele>
        <time>2023-05-14T06:54:21.000Z</time>
      </trkpt>
      <trkpt lat="43.73853" lon="3.50863">
        <ele>440.1</ele>
        <time>2023-05-14T06:54:23.000Z</time>
      </trkpt>
      <trkpt lat="43.73864" lon="3.50857">
        <ele>438.9</ele>
        <time>2023-05-14T06:54:25.000Z</time>
      </trkpt>
      <trkpt lat="43.73876" lon="3.50861">
        <ele>438.1</ele>
        <time>2023-05-14T06:54:27.000Z</time>
      </trkpt>
      <trkpt lat="43.73888" lon="3.50866">
        <ele>437.6</ele>
        <time>2023-05-14T06:54:29.000Z</time>
      </trkpt>
      <trkpt lat="43.73897" lon="3.50866">
        <ele>437.2</ele>
        <time>2023-05-14T06:54:31.000Z</time>
      </trkpt>
      <trkpt lat="43.73908" lon="3.50862">
        <ele>436.8</ele>
        <time>2023-05-14T06:54:34.000Z</time>
      </trkpt>
      <trkpt lat="43.73917" lon="3.50855">
        <ele>436.7</ele>
        <time>2023-05-14T06:54:37.000Z</time>
      </trkpt>
      <trkpt lat="43.73926" lon="3.5085">
        <ele>437.2</ele>
        <time>2023-05-14T06:54:40.000Z</time>
      </trkpt>
      <trkpt lat="43.73935" lon="3.50846">
        <ele>437.6</ele>
        <time>2023-05-14T06:54:43.000Z</time>
      </trkpt>
      <trkpt lat="43.73945" lon="3.50844">
        <ele>438</ele>
        <time>2023-05-14T06:54:46.000Z</time>
      </trkpt>
      <trkpt lat="43.73955" lon="3.50843">
        <ele>438.1</ele>
        <time>2023-05-14T06:54:49.000Z</time>
      </trkpt>
      <trkpt lat="43.73964" lon="3.50841">
        <ele>438.1</ele>
        <time>2023-05-14T06:54:52.000Z</time>
      </trkpt>
      <trkpt lat="43.73975" lon="3.50835">
        <ele>438</ele>
        <time>2023-05-14T06:54:56.000Z</time>
      </trkpt>
      <trkpt lat="43.73985" lon="3.50828">
        <ele>437.8</ele>
        <time>2023-05-14T06:54:59.000Z</time>
      </trkpt>
      <trkpt lat="43.73995" lon="3.50818">
        <ele>437.7</ele>
        <time>2023-05-14T06:55:02.000Z</time>
      </trkpt>
      <trkpt lat="43.74005" lon="3.50806">
        <ele>437.6</ele>
        <time>2023-05-14T06:55:05.000Z</time>
      </trkpt>
      <trkpt lat="43.74014" lon="3.50794">
        <ele>437.6</ele>
        <time>2023-05-14T06:55:08.000Z</time>
      </trkpt>
      <trkpt lat="43.7402" lon="3.50779">
        <ele>437.7</ele>
        <time>2023-05-14T06:55:11.000Z</time>
      </trkpt>
      <trkpt lat="43.74026" lon="3.50764">
        <ele>437.7</ele>
        <time>2023-05-14T06:55:14.000Z</time>
      </trkpt>
      <trkpt lat="43.74034" lon="3.5075">
        <ele>437.8</ele>
        <time>2023-05-14T06:55:17.000Z</time>
      </trkpt>
      <trkpt lat="43.74041" lon="3.50738">
        <ele>437.8</ele>
        <time>2023-05-14T06:55:20.000Z</time>
      </trkpt>
      <trkpt lat="43.7405" lon="3.50738">
        <ele>437.5</ele>
        <time>2023-05-14T06:55:26.000Z</time>
      </trkpt>
      <trkpt lat="43.74053" lon="3.50752">
        <ele>437</ele>
        <time>2023-05-14T06:55:30.000Z</time>
      </trkpt>
      <trkpt lat="43.7405" lon="3.50765">
        <ele>436.5</ele>
        <time>2023-05-14T06:55:32.000Z</time>
      </trkpt>
      <trkpt lat="43.74047" lon="3.50778">
        <ele>435.9</ele>
        <time>2023-05-14T06:55:34.000Z</time>
      </trkpt>
      <trkpt lat="43.74042" lon="3.50792">
        <ele>435.2</ele>
        <time>2023-05-14T06:55:36.000Z</time>
      </trkpt>
      <trkpt lat="43.74035" lon="3.50805">
        <ele>434.3</ele>
        <time>2023-05-14T06:55:38.000Z</time>
      </trkpt>
      <trkpt lat="43.7403" lon="3.5082">
        <ele>433.4</ele>
        <time>2023-05-14T06:55:40.000Z</time>
      </trkpt>
      <trkpt lat="43.74025" lon="3.50835">
        <ele>432.6</ele>
        <time>2023-05-14T06:55:42.000Z</time>
      </trkpt>
      <trkpt lat="43.74021" lon="3.50851">
        <ele>432</ele>
        <time>2023-05-14T06:55:44.000Z</time>
      </trkpt>
      <trkpt lat="43.74015" lon="3.50867">
        <ele>431.5</ele>
        <time>2023-05-14T06:55:46.000Z</time>
      </trkpt>
      <trkpt lat="43.74009" lon="3.5088">
        <ele>431.2</ele>
        <time>2023-05-14T06:55:48.000Z</time>
      </trkpt>
      <trkpt lat="43.74001" lon="3.50891">
        <ele>430.8</ele>
        <time>2023-05-14T06:55:50.000Z</time>
      </trkpt>
      <trkpt lat="43.73991" lon="3.50901">
        <ele>430.3</ele>
        <time>2023-05-14T06:55:52.000Z</time>
      </trkpt>
      <trkpt lat="43.73982" lon="3.50911">
        <ele>429.6</ele>
        <time>2023-05-14T06:55:54.000Z</time>
      </trkpt>
      <trkpt lat="43.73976" lon="3.50929">
        <ele>429.1</ele>
        <time>2023-05-14T06:55:56.000Z</time>
      </trkpt>
      <trkpt lat="43.73972" lon="3.5095">
        <ele>428.1</ele>
        <time>2023-05-14T06:55:58.000Z</time>
      </trkpt>
      <trkpt lat="43.73964" lon="3.50969">
        <ele>427.2</ele>
        <time>2023-05-14T06:56:00.000Z</time>
      </trkpt>
      <trkpt lat="43.7395" lon="3.50979">
        <ele>426.2</ele>
        <time>2023-05-14T06:56:02.000Z</time>
      </trkpt>
      <trkpt lat="43.73936" lon="3.50988">
        <ele>425.6</ele>
        <time>2023-05-14T06:56:04.000Z</time>
      </trkpt>
      <trkpt lat="43.73925" lon="3.51002">
        <ele>424.8</ele>
        <time>2023-05-14T06:56:06.000Z</time>
      </trkpt>
      <trkpt lat="43.73914" lon="3.51016">
        <ele>423.9</ele>
        <time>2023-05-14T06:56:08.000Z</time>
      </trkpt>
      <trkpt lat="43.73906" lon="3.51031">
        <ele>423.2</ele>
        <time>2023-05-14T06:56:10.000Z</time>
      </trkpt>
      <trkpt lat="43.739" lon="3.51048">
        <ele>422.6</ele>
        <time>2023-05-14T06:56:12.000Z</time>
      </trkpt>
      <trkpt lat="43.739" lon="3.51067">
        <ele>422</ele>
        <time>2023-05-14T06:56:14.000Z</time>
      </trkpt>
      <trkpt lat="43.73909" lon="3.51081">
        <ele>421.4</ele>
        <time>2023-05-14T06:56:16.000Z</time>
      </trkpt>
      <trkpt lat="43.73919" lon="3.51094">
        <ele>420.7</ele>
        <time>2023-05-14T06:56:18.000Z</time>
      </trkpt>
      <trkpt lat="43.7393" lon="3.51105">
        <ele>420.2</ele>
        <time>2023-05-14T06:56:20.000Z</time>
      </trkpt>
      <trkpt lat="43.73943" lon="3.51111">
        <ele>419.6</ele>
        <time>2023-05-14T06:56:22.000Z</time>
      </trkpt>
      <trkpt lat="43.73958" lon="3.51116">
        <ele>418.8</ele>
        <time>2023-05-14T06:56:24.000Z</time>
      </trkpt>
      <trkpt lat="43.73971" lon="3.51123">
        <ele>417.9</ele>
        <time>2023-05-14T06:56:26.000Z</time>
      </trkpt>
      <trkpt lat="43.73983" lon="3.5113">
        <ele>417</ele>
        <time>2023-05-14T06:56:28.000Z</time>
      </trkpt>
      <trkpt lat="43.73992" lon="3.51131">
        <ele>415.8</ele>
        <time>2023-05-14T06:56:30.000Z</time>
      </trkpt>
      <trkpt lat="43.74" lon="3.51122">
        <ele>414.6</ele>
        <time>2023-05-14T06:56:32.000Z</time>
      </trkpt>
      <trkpt lat="43.74006" lon="3.51108">
        <ele>413.6</ele>
        <time>2023-05-14T06:56:34.000Z</time>
      </trkpt>
      <trkpt lat="43.74016" lon="3.51102">
        <ele>412.5</ele>
        <time>2023-05-14T06:56:36.000Z</time>
      </trkpt>
      <trkpt lat="43.74028" lon="3.51107">
        <ele>411.6</ele>
        <time>2023-05-14T06:56:38.000Z</time>
      </trkpt>
      <trkpt lat="43.74038" lon="3.51121">
        <ele>410.6</ele>
        <time>2023-05-14T06:56:40.000Z</time>
      </trkpt>
      <trkpt lat="43.74046" lon="3.51141">
        <ele>409.5</ele>
        <time>2023-05-14T06:56:42.000Z</time>
      </trkpt>
      <trkpt lat="43.74054" lon="3.51157">
        <ele>408.4</ele>
        <time>2023-05-14T06:56:44.000Z</time>
      </trkpt>
      <trkpt lat="43.74065" lon="3.51161">
        <ele>407.3</ele>
        <time>2023-05-14T06:56:46.000Z</time>
      </trkpt>
      <trkpt lat="43.74077" lon="3.51155">
        <ele>406.4</ele>
        <time>2023-05-14T06:56:48.000Z</time>
      </trkpt>
      <trkpt lat="43.74089" lon="3.51149">
        <ele>405.5</ele>
        <time>2023-05-14T06:56:50.000Z</time>
      </trkpt>
      <trkpt lat="43.74103" lon="3.51149">
        <ele>404.7</ele>
        <time>2023-05-14T06:56:52.000Z</time>
      </trkpt>
      <trkpt lat="43.74117" lon="3.51155">
        <ele>404</ele>
        <time>2023-05-14T06:56:54.000Z</time>
      </trkpt>
      <trkpt lat="43.74128" lon="3.51169">
        <ele>403.4</ele>
        <time>2023-05-14T06:56:56.000Z</time>
      </trkpt>
      <trkpt lat="43.74139" lon="3.51182">
        <ele>402.9</ele>
        <time>2023-05-14T06:56:58.000Z</time>
      </trkpt>
      <trkpt lat="43.74151" lon="3.51188">
        <ele>402.2</ele>
        <time>2023-05-14T06:57:00.000Z</time>
      </trkpt>
      <trkpt lat="43.74163" lon="3.51188">
        <ele>401.3</ele>
        <time>2023-05-14T06:57:02.000Z</time>
      </trkpt>
      <trkpt lat="43.74177" lon="3.51189">
        <ele>400.3</ele>
        <time>2023-05-14T06:57:04.000Z</time>
      </trkpt>
      <trkpt lat="43.74188" lon="3.51194">
        <ele>399</ele>
        <time>2023-05-14T06:57:06.000Z</time>
      </trkpt>
      <trkpt lat="43.74199" lon="3.51201">
        <ele>397.5</ele>
        <time>2023-05-14T06:57:08.000Z</time>
      </trkpt>
      <trkpt lat="43.74209" lon="3.51198">
        <ele>396.2</ele>
        <time>2023-05-14T06:57:10.000Z</time>
      </trkpt>
      <trkpt lat="43.74215" lon="3.51188">
        <ele>395</ele>
        <time>2023-05-14T06:57:12.000Z</time>
      </trkpt>
      <trkpt lat="43.74225" lon="3.51181">
        <ele>394.2</ele>
        <time>2023-05-14T06:57:14.000Z</time>
      </trkpt>
      <trkpt lat="43.74235" lon="3.51174">
        <ele>393.5</ele>
        <time>2023-05-14T06:57:16.000Z</time>
      </trkpt>
      <trkpt lat="43.74247" lon="3.51165">
        <ele>392.4</ele>
        <time>2023-05-14T06:57:18.000Z</time>
      </trkpt>
      <trkpt lat="43.74258" lon="3.51159">
        <ele>390.9</ele>
        <time>2023-05-14T06:57:20.000Z</time>
      </trkpt>
      <trkpt lat="43.74265" lon="3.51148">
        <ele>389.3</ele>
        <time>2023-05-14T06:57:22.000Z</time>
      </trkpt>
      <trkpt lat="43.74268" lon="3.51133">
        <ele>387.7</ele>
        <time>2023-05-14T06:57:24.000Z</time>
      </trkpt>
      <trkpt lat="43.74271" lon="3.51115">
        <ele>386.1</ele>
        <time>2023-05-14T06:57:26.000Z</time>
      </trkpt>
      <trkpt lat="43.74276" lon="3.51097">
        <ele>384.6</ele>
        <time>2023-05-14T06:57:28.000Z</time>
      </trkpt>
      <trkpt lat="43.7428" lon="3.5108">
        <ele>383.3</ele>
        <time>2023-05-14T06:57:30.000Z</time>
      </trkpt>
      <trkpt lat="43.74286" lon="3.51064">
        <ele>382.4</ele>
        <time>2023-05-14T06:57:32.000Z</time>
      </trkpt>
      <trkpt lat="43.74294" lon="3.51049">
        <ele>381.7</ele>
        <time>2023-05-14T06:57:34.000Z</time>
      </trkpt>
      <trkpt lat="43.74302" lon="3.51033">
        <ele>380.7</ele>
        <time>2023-05-14T06:57:36.000Z</time>
      </trkpt>
      <trkpt lat="43.7431" lon="3.51021">
        <ele>379.4</ele>
        <time>2023-05-14T06:57:38.000Z</time>
      </trkpt>
      <trkpt lat="43.74312" lon="3.51036">
        <ele>378.3</ele>
        <time>2023-05-14T06:57:41.000Z</time>
      </trkpt>
      <trkpt lat="43.74311" lon="3.51051">
        <ele>377.6</ele>
        <time>2023-05-14T06:57:43.000Z</time>
      </trkpt>
      <trkpt lat="43.74315" lon="3.51064">
        <ele>376.9</ele>
        <time>2023-05-14T06:57:45.000Z</time>
      </trkpt>
      <trkpt lat="43.7432" lon="3.51078">
        <ele>376.3</ele>
        <time>2023-05-14T06:57:47.000Z</time>
      </trkpt>
      <trkpt lat="43.74325" lon="3.51092">
        <ele>375.8</ele>
        <time>2023-05-14T06:57:49.000Z</time>
      </trkpt>
      <trkpt lat="43.74328" lon="3.51108">
        <ele>375.2</ele>
        <time>2023-05-14T06:57:51.000Z</time>
      </trkpt>
      <trkpt lat="43.74323" lon="3.51124">
        <ele>374.8</ele>
        <time>2023-05-14T06:57:53.000Z</time>
      </trkpt>
      <trkpt lat="43.74314" lon="3.51137">
        <ele>374.3</ele>
        <time>2023-05-14T06:57:55.000Z</time>
      </trkpt>
      <trkpt lat="43.74308" lon="3.51155">
        <ele>373.7</ele>
        <time>2023-05-14T06:57:57.000Z</time>
      </trkpt>
      <trkpt lat="43.74301" lon="3.51173">
        <ele>373.2</ele>
        <time>2023-05-14T06:57:59.000Z</time>
      </trkpt>
      <trkpt lat="43.74293" lon="3.51191">
        <ele>372.5</ele>
        <time>2023-05-14T06:58:01.000Z</time>
      </trkpt>
      <trkpt lat="43.74285" lon="3.51209">
        <ele>372.1</ele>
        <time>2023-05-14T06:58:03.000Z</time>
      </trkpt>
      <trkpt lat="43.74278" lon="3.51227">
        <ele>371.6</ele>
        <time>2023-05-14T06:58:05.000Z</time>
      </trkpt>
      <trkpt lat="43.74267" lon="3.51241">
        <ele>370.9</ele>
        <time>2023-05-14T06:58:07.000Z</time>
      </trkpt>
      <trkpt lat="43.74254" lon="3.5125">
        <ele>370.1</ele>
        <time>2023-05-14T06:58:09.000Z</time>
      </trkpt>
      <trkpt lat="43.74244" lon="3.51258">
        <ele>369</ele>
        <time>2023-05-14T06:58:11.000Z</time>
      </trkpt>
      <trkpt lat="43.7424" lon="3.51273">
        <ele>367.8</ele>
        <time>2023-05-14T06:58:13.000Z</time>
      </trkpt>
      <trkpt lat="43.74233" lon="3.51288">
        <ele>366.8</ele>
        <time>2023-05-14T06:58:15.000Z</time>
      </trkpt>
      <trkpt lat="43.74224" lon="3.51301">
        <ele>365.5</ele>
        <time>2023-05-14T06:58:17.000Z</time>
      </trkpt>
      <trkpt lat="43.74214" lon="3.51317">
        <ele>363.6</ele>
        <time>2023-05-14T06:58:19.000Z</time>
      </trkpt>
      <trkpt lat="43.74206" lon="3.51336">
        <ele>361.4</ele>
        <time>2023-05-14T06:58:21.000Z</time>
      </trkpt>
      <trkpt lat="43.74202" lon="3.51359">
        <ele>358</ele>
        <time>2023-05-14T06:58:23.000Z</time>
      </trkpt>
      <trkpt lat="43.74202" lon="3.51383">
        <ele>355.9</ele>
        <time>2023-05-14T06:58:25.000Z</time>
      </trkpt>
      <trkpt lat="43.74204" lon="3.51406">
        <ele>354.2</ele>
        <time>2023-05-14T06:58:27.000Z</time>
      </trkpt>
      <trkpt lat="43.74208" lon="3.51425">
        <ele>353.5</ele>
        <time>2023-05-14T06:58:29.000Z</time>
      </trkpt>
      <trkpt lat="43.7421" lon="3.51446">
        <ele>353</ele>
        <time>2023-05-14T06:58:31.000Z</time>
      </trkpt>
      <trkpt lat="43.74206" lon="3.51465">
        <ele>351.8</ele>
        <time>2023-05-14T06:58:33.000Z</time>
      </trkpt>
      <trkpt lat="43.74197" lon="3.51482">
        <ele>350.4</ele>
        <time>2023-05-14T06:58:35.000Z</time>
      </trkpt>
      <trkpt lat="43.74187" lon="3.515">
        <ele>348.2</ele>
        <time>2023-05-14T06:58:37.000Z</time>
      </trkpt>
      <trkpt lat="43.74181" lon="3.51521">
        <ele>345.7</ele>
        <time>2023-05-14T06:58:39.000Z</time>
      </trkpt>
      <trkpt lat="43.74182" lon="3.51545">
        <ele>343.3</ele>
        <time>2023-05-14T06:58:41.000Z</time>
      </trkpt>
      <trkpt lat="43.74191" lon="3.51563">
        <ele>340.4</ele>
        <time>2023-05-14T06:58:43.000Z</time>
      </trkpt>
      <trkpt lat="43.74208" lon="3.51573">
        <ele>338</ele>
        <time>2023-05-14T06:58:45.000Z</time>
      </trkpt>
      <trkpt lat="43.74218" lon="3.51576">
        <ele>337.1</ele>
        <time>2023-05-14T06:58:46.000Z</time>
      </trkpt>
      <trkpt lat="43.74227" lon="3.51578">
        <ele>336.1</ele>
        <time>2023-05-14T06:58:47.000Z</time>
      </trkpt>
      <trkpt lat="43.74243" lon="3.51582">
        <ele>335.7</ele>
        <time>2023-05-14T06:58:49.000Z</time>
      </trkpt>
      <trkpt lat="43.74255" lon="3.51586">
        <ele>335.7</ele>
        <time>2023-05-14T06:58:51.000Z</time>
      </trkpt>
      <trkpt lat="43.74264" lon="3.51591">
        <ele>335.5</ele>
        <time>2023-05-14T06:58:53.000Z</time>
      </trkpt>
      <trkpt lat="43.74272" lon="3.51598">
        <ele>335.4</ele>
        <time>2023-05-14T06:58:56.000Z</time>
      </trkpt>
      <trkpt lat="43.74282" lon="3.51604">
        <ele>335.5</ele>
        <time>2023-05-14T06:58:59.000Z</time>
      </trkpt>
      <trkpt lat="43.74292" lon="3.51611">
        <ele>335.6</ele>
        <time>2023-05-14T06:59:02.000Z</time>
      </trkpt>
      <trkpt lat="43.74302" lon="3.51616">
        <ele>335.8</ele>
        <time>2023-05-14T06:59:05.000Z</time>
      </trkpt>
      <trkpt lat="43.74311" lon="3.51618">
        <ele>336</ele>
        <time>2023-05-14T06:59:08.000Z</time>
      </trkpt>
      <trkpt lat="43.74321" lon="3.51619">
        <ele>336.3</ele>
        <time>2023-05-14T06:59:11.000Z</time>
      </trkpt>
      <trkpt lat="43.7433" lon="3.51625">
        <ele>336.9</ele>
        <time>2023-05-14T06:59:15.000Z</time>
      </trkpt>
      <trkpt lat="43.74338" lon="3.51636">
        <ele>338.1</ele>
        <time>2023-05-14T06:59:19.000Z</time>
      </trkpt>
      <trkpt lat="43.74346" lon="3.51645">
        <ele>340</ele>
        <time>2023-05-14T06:59:23.000Z</time>
      </trkpt>
      <trkpt lat="43.74355" lon="3.51653">
        <ele>342.2</ele>
        <time>2023-05-14T06:59:27.000Z</time>
      </trkpt>
      <trkpt lat="43.74364" lon="3.51658">
        <ele>344</ele>
        <time>2023-05-14T06:59:31.000Z</time>
      </trkpt>
      <trkpt lat="43.74374" lon="3.51661">
        <ele>345.3</ele>
        <time>2023-05-14T06:59:35.000Z</time>
      </trkpt>
      <trkpt lat="43.74383" lon="3.51663">
        <ele>346.2</ele>
        <time>2023-05-14T06:59:38.000Z</time>
      </trkpt>
      <trkpt lat="43.74393" lon="3.51665">
        <ele>347.2</ele>
        <time>2023-05-14T06:59:42.000Z</time>
      </trkpt>
      <trkpt lat="43.74403" lon="3.51668">
        <ele>348</ele>
        <time>2023-05-14T06:59:46.000Z</time>
      </trkpt>
      <trkpt lat="43.74413" lon="3.51671">
        <ele>348.5</ele>
        <time>2023-05-14T06:59:49.000Z</time>
      </trkpt>
      <trkpt lat="43.74423" lon="3.51677">
        <ele>348.9</ele>
        <time>2023-05-14T06:59:53.000Z</time>
      </trkpt>
      <trkpt lat="43.74432" lon="3.5168">
        <ele>349</ele>
        <time>2023-05-14T06:59:56.000Z</time>
      </trkpt>
      <trkpt lat="43.74442" lon="3.51682">
        <ele>349.1</ele>
        <time>2023-05-14T06:59:59.000Z</time>
      </trkpt>
      <trkpt lat="43.74453" lon="3.51681">
        <ele>349.2</ele>
        <time>2023-05-14T07:00:02.000Z</time>
      </trkpt>
      <trkpt lat="43.74462" lon="3.51679">
        <ele>349.5</ele>
        <time>2023-05-14T07:00:05.000Z</time>
      </trkpt>
      <trkpt lat="43.74472" lon="3.51682">
        <ele>350.2</ele>
        <time>2023-05-14T07:00:09.000Z</time>
      </trkpt>
      <trkpt lat="43.7448" lon="3.5169">
        <ele>351</ele>
        <time>2023-05-14T07:00:13.000Z</time>
      </trkpt>
      <trkpt lat="43.74489" lon="3.51695">
        <ele>351.8</ele>
        <time>2023-05-14T07:00:16.000Z</time>
      </trkpt>
      <trkpt lat="43.745" lon="3.51698">
        <ele>353</ele>
        <time>2023-05-14T07:00:20.000Z</time>
      </trkpt>
      <trkpt lat="43.7451" lon="3.51699">
        <ele>354.5</ele>
        <time>2023-05-14T07:00:23.000Z</time>
      </trkpt>
      <trkpt lat="43.74521" lon="3.51702">
        <ele>356.3</ele>
        <time>2023-05-14T07:00:27.000Z</time>
      </trkpt>
      <trkpt lat="43.7453" lon="3.51702">
        <ele>357.3</ele>
        <time>2023-05-14T07:00:30.000Z</time>
      </trkpt>
      <trkpt lat="43.74541" lon="3.51701">
        <ele>358.3</ele>
        <time>2023-05-14T07:00:34.000Z</time>
      </trkpt>
      <trkpt lat="43.74552" lon="3.51699">
        <ele>359.1</ele>
        <time>2023-05-14T07:00:38.000Z</time>
      </trkpt>
      <trkpt lat="43.74563" lon="3.51699">
        <ele>359.8</ele>
        <time>2023-05-14T07:00:42.000Z</time>
      </trkpt>
      <trkpt lat="43.74572" lon="3.51694">
        <ele>360</ele>
        <time>2023-05-14T07:00:45.000Z</time>
      </trkpt>
      <trkpt lat="43.74583" lon="3.51688">
        <ele>360.5</ele>
        <time>2023-05-14T07:00:49.000Z</time>
      </trkpt>
      <trkpt lat="43.74594" lon="3.5169">
        <ele>361.1</ele>
        <time>2023-05-14T07:00:53.000Z</time>
      </trkpt>
      <trkpt lat="43.74603" lon="3.51697">
        <ele>361.8</ele>
        <time>2023-05-14T07:00:57.000Z</time>
      </trkpt>
      <trkpt lat="43.74611" lon="3.51703">
        <ele>362.3</ele>
        <time>2023-05-14T07:01:00.000Z</time>
      </trkpt>
      <trkpt lat="43.74621" lon="3.51713">
        <ele>363</ele>
        <time>2023-05-14T07:01:04.000Z</time>
      </trkpt>
      <trkpt lat="43.74627" lon="3.51722">
        <ele>363.4</ele>
        <time>2023-05-14T07:01:07.000Z</time>
      </trkpt>
      <trkpt lat="43.74635" lon="3.51728">
        <ele>364.1</ele>
        <time>2023-05-14T07:01:10.000Z</time>
      </trkpt>
      <trkpt lat="43.74644" lon="3.51732">
        <ele>364.8</ele>
        <time>2023-05-14T07:01:13.000Z</time>
      </trkpt>
      <trkpt lat="43.74653" lon="3.51736">
        <ele>365.6</ele>
        <time>2023-05-14T07:01:16.000Z</time>
      </trkpt>
      <trkpt lat="43.7466" lon="3.51744">
        <ele>366.2</ele>
        <time>2023-05-14T07:01:19.000Z</time>
      </trkpt>
      <trkpt lat="43.74669" lon="3.51751">
        <ele>366.7</ele>
        <time>2023-05-14T07:01:22.000Z</time>
      </trkpt>
      <trkpt lat="43.74678" lon="3.51759">
        <ele>367.3</ele>
        <time>2023-05-14T07:01:25.000Z</time>
      </trkpt>
      <trkpt lat="43.74687" lon="3.51767">
        <ele>367.7</ele>
        <time>2023-05-14T07:01:28.000Z</time>
      </trkpt>
      <trkpt lat="43.74696" lon="3.51774">
        <ele>368</ele>
        <time>2023-05-14T07:01:31.000Z</time>
      </trkpt>
      <trkpt lat="43.74705" lon="3.51782">
        <ele>368.3</ele>
        <time>2023-05-14T07:01:34.000Z</time>
      </trkpt>
      <trkpt lat="43.74713" lon="3.51791">
        <ele>368.6</ele>
        <time>2023-05-14T07:01:37.000Z</time>
      </trkpt>
      <trkpt lat="43.74722" lon="3.518">
        <ele>368.9</ele>
        <time>2023-05-14T07:01:40.000Z</time>
      </trkpt>
      <trkpt lat="43.74731" lon="3.51808">
        <ele>369.2</ele>
        <time>2023-05-14T07:01:43.000Z</time>
      </trkpt>
      <trkpt lat="43.74739" lon="3.51817">
        <ele>369.6</ele>
        <time>2023-05-14T07:01:46.000Z</time>
      </trkpt>
      <trkpt lat="43.74746" lon="3.51827">
        <ele>370.2</ele>
        <time>2023-05-14T07:01:49.000Z</time>
      </trkpt>
      <trkpt lat="43.74754" lon="3.51836">
        <ele>370.6</ele>
        <time>2023-05-14T07:01:52.000Z</time>
      </trkpt>
      <trkpt lat="43.74764" lon="3.51845">
        <ele>371</ele>
        <time>2023-05-14T07:01:55.000Z</time>
      </trkpt>
      <trkpt lat="43.74774" lon="3.51851">
        <ele>371.5</ele>
        <time>2023-05-14T07:01:58.000Z</time>
      </trkpt>
      <trkpt lat="43.74784" lon="3.51855">
        <ele>372</ele>
        <time>2023-05-14T07:02:01.000Z</time>
      </trkpt>
      <trkpt lat="43.74795" lon="3.5186">
        <ele>372.6</ele>
        <time>2023-05-14T07:02:04.000Z</time>
      </trkpt>
      <trkpt lat="43.74804" lon="3.51866">
        <ele>373.1</ele>
        <time>2023-05-14T07:02:07.000Z</time>
      </trkpt>
      <trkpt lat="43.74813" lon="3.51875">
        <ele>373.7</ele>
        <time>2023-05-14T07:02:10.000Z</time>
      </trkpt>
      <trkpt lat="43.74821" lon="3.51885">
        <ele>374.3</ele>
        <time>2023-05-14T07:02:13.000Z</time>
      </trkpt>
      <trkpt lat="43.74827" lon="3.51896">
        <ele>374.8</ele>
        <time>2023-05-14T07:02:16.000Z</time>
      </trkpt>
      <trkpt lat="43.74834" lon="3.51907">
        <ele>375.4</ele>
        <time>2023-05-14T07:02:19.000Z</time>
      </trkpt>
      <trkpt lat="43.7484" lon="3.51919">
        <ele>376.1</ele>
        <time>2023-05-14T07:02:22.000Z</time>
      </trkpt>
      <trkpt lat="43.74847" lon="3.51931">
        <ele>376.8</ele>
        <time>2023-05-14T07:02:25.000Z</time>
      </trkpt>
      <trkpt lat="43.74853" lon="3.51942">
        <ele>377.6</ele>
        <time>2023-05-14T07:02:28.000Z</time>
      </trkpt>
      <trkpt lat="43.74859" lon="3.51956">
        <ele>378.6</ele>
        <time>2023-05-14T07:02:32.000Z</time>
      </trkpt>
      <trkpt lat="43.74865" lon="3.51967">
        <ele>379.4</ele>
        <time>2023-05-14T07:02:35.000Z</time>
      </trkpt>
      <trkpt lat="43.74866" lon="3.51982">
        <ele>380.8</ele>
        <time>2023-05-14T07:02:39.000Z</time>
      </trkpt>
      <trkpt lat="43.74863" lon="3.51998">
        <ele>382.3</ele>
        <time>2023-05-14T07:02:43.000Z</time>
      </trkpt>
      <trkpt lat="43.7486" lon="3.52012">
        <ele>384.1</ele>
        <time>2023-05-14T07:02:47.000Z</time>
      </trkpt>
      <trkpt lat="43.74859" lon="3.52027">
        <ele>385.9</ele>
        <time>2023-05-14T07:02:51.000Z</time>
      </trkpt>
      <trkpt lat="43.74862" lon="3.52042">
        <ele>387.2</ele>
        <time>2023-05-14T07:02:55.000Z</time>
      </trkpt>
      <trkpt lat="43.74866" lon="3.52057">
        <ele>388.4</ele>
        <time>2023-05-14T07:02:59.000Z</time>
      </trkpt>
      <trkpt lat="43.74862" lon="3.5207">
        <ele>389.4</ele>
        <time>2023-05-14T07:03:03.000Z</time>
      </trkpt>
      <trkpt lat="43.74854" lon="3.52079">
        <ele>390.4</ele>
        <time>2023-05-14T07:03:07.000Z</time>
      </trkpt>
      <trkpt lat="43.74844" lon="3.52088">
        <ele>391</ele>
        <time>2023-05-14T07:03:11.000Z</time>
      </trkpt>
      <trkpt lat="43.74837" lon="3.52098">
        <ele>391.7</ele>
        <time>2023-05-14T07:03:15.000Z</time>
      </trkpt>
      <trkpt lat="43.74838" lon="3.52113">
        <ele>392.5</ele>
        <time>2023-05-14T07:03:19.000Z</time>
      </trkpt>
      <trkpt lat="43.74841" lon="3.52125">
        <ele>393.2</ele>
        <time>2023-05-14T07:03:22.000Z</time>
      </trkpt>
      <trkpt lat="43.74842" lon="3.52137">
        <ele>393.8</ele>
        <time>2023-05-14T07:03:25.000Z</time>
      </trkpt>
      <trkpt lat="43.74844" lon="3.52152">
        <ele>394.4</ele>
        <time>2023-05-14T07:03:28.000Z</time>
      </trkpt>
      <trkpt lat="43.74844" lon="3.52167">
        <ele>394.9</ele>
        <time>2023-05-14T07:03:31.000Z</time>
      </trkpt>
      <trkpt lat="43.74845" lon="3.52181">
        <ele>395.4</ele>
        <time>2023-05-14T07:03:34.000Z</time>
      </trkpt>
      <trkpt lat="43.74846" lon="3.52197">
        <ele>395.9</ele>
        <time>2023-05-14T07:03:37.000Z</time>
      </trkpt>
      <trkpt lat="43.74846" lon="3.52211">
        <ele>396.6</ele>
        <time>2023-05-14T07:03:40.000Z</time>
      </trkpt>
      <trkpt lat="43.74853" lon="3.5222">
        <ele>397.2</ele>
        <time>2023-05-14T07:03:43.000Z</time>
      </trkpt>
      <trkpt lat="43.74865" lon="3.52226">
        <ele>397.9</ele>
        <time>2023-05-14T07:03:46.000Z</time>
      </trkpt>
      <trkpt lat="43.74872" lon="3.5224">
        <ele>398.4</ele>
        <time>2023-05-14T07:03:49.000Z</time>
      </trkpt>
      <trkpt lat="43.74873" lon="3.52255">
        <ele>399.2</ele>
        <time>2023-05-14T07:03:52.000Z</time>
      </trkpt>
      <trkpt lat="43.74872" lon="3.52269">
        <ele>399.9</ele>
        <time>2023-05-14T07:03:55.000Z</time>
      </trkpt>
      <trkpt lat="43.7487" lon="3.52284">
        <ele>400.6</ele>
        <time>2023-05-14T07:03:58.000Z</time>
      </trkpt>
      <trkpt lat="43.74866" lon="3.52297">
        <ele>401.1</ele>
        <time>2023-05-14T07:04:01.000Z</time>
      </trkpt>
      <trkpt lat="43.7486" lon="3.5231">
        <ele>401.5</ele>
        <time>2023-05-14T07:04:04.000Z</time>
      </trkpt>
      <trkpt lat="43.74854" lon="3.52321">
        <ele>401.8</ele>
        <time>2023-05-14T07:04:07.000Z</time>
      </trkpt>
      <trkpt lat="43.74847" lon="3.52333">
        <ele>402.1</ele>
        <time>2023-05-14T07:04:10.000Z</time>
      </trkpt>
      <trkpt lat="43.74843" lon="3.52347">
        <ele>402.7</ele>
        <time>2023-05-14T07:04:13.000Z</time>
      </trkpt>
      <trkpt lat="43.7484" lon="3.52361">
        <ele>403.1</ele>
        <time>2023-05-14T07:04:16.000Z</time>
      </trkpt>
      <trkpt lat="43.74837" lon="3.52375">
        <ele>403.7</ele>
        <time>2023-05-14T07:04:19.000Z</time>
      </trkpt>
      <trkpt lat="43.74834" lon="3.52391">
        <ele>403.9</ele>
        <time>2023-05-14T07:04:22.000Z</time>
      </trkpt>
      <trkpt lat="43.74832" lon="3.52406">
        <ele>404.3</ele>
        <time>2023-05-14T07:04:25.000Z</time>
      </trkpt>
      <trkpt lat="43.74836" lon="3.5242">
        <ele>404.5</ele>
        <time>2023-05-14T07:04:28.000Z</time>
      </trkpt>
      <trkpt lat="43.74846" lon="3.52427">
        <ele>404.9</ele>
        <time>2023-05-14T07:04:31.000Z</time>
      </trkpt>
      <trkpt lat="43.74858" lon="3.52429">
        <ele>405.4</ele>
        <time>2023-05-14T07:04:34.000Z</time>
      </trkpt>
      <trkpt lat="43.74871" lon="3.52431">
        <ele>405.7</ele>
        <time>2023-05-14T07:04:37.000Z</time>
      </trkpt>
      <trkpt lat="43.74882" lon="3.52435">
        <ele>406.1</ele>
        <time>2023-05-14T07:04:40.000Z</time>
      </trkpt>
      <trkpt lat="43.74893" lon="3.52443">
        <ele>406.6</ele>
        <time>2023-05-14T07:04:43.000Z</time>
      </trkpt>
      <trkpt lat="43.74905" lon="3.5245">
        <ele>407.1</ele>
        <time>2023-05-14T07:04:46.000Z</time>
      </trkpt>
      <trkpt lat="43.74916" lon="3.52458">
        <ele>407.7</ele>
        <time>2023-05-14T07:04:49.000Z</time>
      </trkpt>
      <trkpt lat="43.74925" lon="3.52469">
        <ele>408.1</ele>
        <time>2023-05-14T07:04:52.000Z</time>
      </trkpt>
      <trkpt lat="43.74934" lon="3.52481">
        <ele>408.4</ele>
        <time>2023-05-14T07:04:55.000Z</time>
      </trkpt>
      <trkpt lat="43.74943" lon="3.52494">
        <ele>408.8</ele>
        <time>2023-05-14T07:04:58.000Z</time>
      </trkpt>
      <trkpt lat="43.74953" lon="3.52502">
        <ele>409.1</ele>
        <time>2023-05-14T07:05:01.000Z</time>
      </trkpt>
      <trkpt lat="43.74961" lon="3.52516">
        <ele>409.4</ele>
        <time>2023-05-14T07:05:04.000Z</time>
      </trkpt>
      <trkpt lat="43.74962" lon="3.52533">
        <ele>409.7</ele>
        <time>2023-05-14T07:05:07.000Z</time>
      </trkpt>
      <trkpt lat="43.74968" lon="3.52546">
        <ele>410.4</ele>
        <time>2023-05-14T07:05:10.000Z</time>
      </trkpt>
      <trkpt lat="43.74974" lon="3.52562">
        <ele>410.9</ele>
        <time>2023-05-14T07:05:13.000Z</time>
      </trkpt>
      <trkpt lat="43.74979" lon="3.52579">
        <ele>411.1</ele>
        <time>2023-05-14T07:05:16.000Z</time>
      </trkpt>
      <trkpt lat="43.74985" lon="3.52594">
        <ele>411.4</ele>
        <time>2023-05-14T07:05:19.000Z</time>
      </trkpt>
      <trkpt lat="43.74993" lon="3.52607">
        <ele>411.8</ele>
        <time>2023-05-14T07:05:22.000Z</time>
      </trkpt>
      <trkpt lat="43.75001" lon="3.5262">
        <ele>412.1</ele>
        <time>2023-05-14T07:05:25.000Z</time>
      </trkpt>
      <trkpt lat="43.75009" lon="3.52633">
        <ele>412.5</ele>
        <time>2023-05-14T07:05:28.000Z</time>
      </trkpt>
      <trkpt lat="43.75019" lon="3.52643">
        <ele>413</ele>
        <time>2023-05-14T07:05:31.000Z</time>
      </trkpt>
      <trkpt lat="43.75029" lon="3.5265">
        <ele>413.5</ele>
        <time>2023-05-14T07:05:34.000Z</time>
      </trkpt>
      <trkpt lat="43.75039" lon="3.52653">
        <ele>414.1</ele>
        <time>2023-05-14T07:05:37.000Z</time>
      </trkpt>
      <trkpt lat="43.75048" lon="3.52655">
        <ele>414.7</ele>
        <time>2023-05-14T07:05:40.000Z</time>
      </trkpt>
      <trkpt lat="43.75057" lon="3.52658">
        <ele>415.3</ele>
        <time>2023-05-14T07:05:43.000Z</time>
      </trkpt>
      <trkpt lat="43.75069" lon="3.52654">
        <ele>416</ele>
        <time>2023-05-14T07:05:47.000Z</time>
      </trkpt>
      <trkpt lat="43.75078" lon="3.52642">
        <ele>416.4</ele>
        <time>2023-05-14T07:05:50.000Z</time>
      </trkpt>
      <trkpt lat="43.75083" lon="3.52631">
        <ele>417</ele>
        <time>2023-05-14T07:05:53.000Z</time>
      </trkpt>
      <trkpt lat="43.75088" lon="3.52621">
        <ele>418</ele>
        <time>2023-05-14T07:05:56.000Z</time>
      </trkpt>
      <trkpt lat="43.75098" lon="3.52614">
        <ele>419.2</ele>
        <time>2023-05-14T07:06:00.000Z</time>
      </trkpt>
      <trkpt lat="43.75109" lon="3.52615">
        <ele>420.5</ele>
        <time>2023-05-14T07:06:04.000Z</time>
      </trkpt>
      <trkpt lat="43.7512" lon="3.52616">
        <ele>421.6</ele>
        <time>2023-05-14T07:06:08.000Z</time>
      </trkpt>
      <trkpt lat="43.75131" lon="3.52612">
        <ele>422.7</ele>
        <time>2023-05-14T07:06:12.000Z</time>
      </trkpt>
      <trkpt lat="43.7514" lon="3.52605">
        <ele>424.1</ele>
        <time>2023-05-14T07:06:16.000Z</time>
      </trkpt>
      <trkpt lat="43.75148" lon="3.52596">
        <ele>425.3</ele>
        <time>2023-05-14T07:06:20.000Z</time>
      </trkpt>
      <trkpt lat="43.75155" lon="3.52586">
        <ele>426.4</ele>
        <time>2023-05-14T07:06:24.000Z</time>
      </trkpt>
      <trkpt lat="43.7516" lon="3.52574">
        <ele>427.7</ele>
        <time>2023-05-14T07:06:29.000Z</time>
      </trkpt>
      <trkpt lat="43.75164" lon="3.52562">
        <ele>428.8</ele>
        <time>2023-05-14T07:06:34.000Z</time>
      </trkpt>
      <trkpt lat="43.75172" lon="3.52555">
        <ele>429.7</ele>
        <time>2023-05-14T07:06:38.000Z</time>
      </trkpt>
      <trkpt lat="43.75178" lon="3.52543">
        <ele>431</ele>
        <time>2023-05-14T07:06:42.000Z</time>
      </trkpt>
      <trkpt lat="43.75183" lon="3.52529">
        <ele>432.4</ele>
        <time>2023-05-14T07:06:46.000Z</time>
      </trkpt>
      <trkpt lat="43.75192" lon="3.52521">
        <ele>433.5</ele>
        <time>2023-05-14T07:06:50.000Z</time>
      </trkpt>
      <trkpt lat="43.752" lon="3.5253">
        <ele>435</ele>
        <time>2023-05-14T07:06:54.000Z</time>
      </trkpt>
      <trkpt lat="43.75208" lon="3.52539">
        <ele>436.4</ele>
        <time>2023-05-14T07:06:58.000Z</time>
      </trkpt>
      <trkpt lat="43.75218" lon="3.52544">
        <ele>437.8</ele>
        <time>2023-05-14T07:07:02.000Z</time>
      </trkpt>
      <trkpt lat="43.75229" lon="3.52539">
        <ele>438.7</ele>
        <time>2023-05-14T07:07:06.000Z</time>
      </trkpt>
      <trkpt lat="43.75239" lon="3.52533">
        <ele>439.5</ele>
        <time>2023-05-14T07:07:10.000Z</time>
      </trkpt>
      <trkpt lat="43.75245" lon="3.5252">
        <ele>440.6</ele>
        <time>2023-05-14T07:07:14.000Z</time>
      </trkpt>
      <trkpt lat="43.75248" lon="3.52504">
        <ele>441.6</ele>
        <time>2023-05-14T07:07:18.000Z</time>
      </trkpt>
      <trkpt lat="43.75256" lon="3.52494">
        <ele>441.9</ele>
        <time>2023-05-14T07:07:21.000Z</time>
      </trkpt>
      <trkpt lat="43.75266" lon="3.52488">
        <ele>441.9</ele>
        <time>2023-05-14T07:07:23.000Z</time>
      </trkpt>
      <trkpt lat="43.75277" lon="3.52483">
        <ele>441.2</ele>
        <time>2023-05-14T07:07:25.000Z</time>
      </trkpt>
      <trkpt lat="43.7529" lon="3.5248">
        <ele>440.7</ele>
        <time>2023-05-14T07:07:27.000Z</time>
      </trkpt>
      <trkpt lat="43.75304" lon="3.52476">
        <ele>440.2</ele>
        <time>2023-05-14T07:07:29.000Z</time>
      </trkpt>
      <trkpt lat="43.75317" lon="3.52467">
        <ele>439.5</ele>
        <time>2023-05-14T07:07:31.000Z</time>
      </trkpt>
      <trkpt lat="43.7533" lon="3.52458">
        <ele>438.8</ele>
        <time>2023-05-14T07:07:33.000Z</time>
      </trkpt>
      <trkpt lat="43.75344" lon="3.5245">
        <ele>437.8</ele>
        <time>2023-05-14T07:07:35.000Z</time>
      </trkpt>
      <trkpt lat="43.75352" lon="3.52433">
        <ele>436.8</ele>
        <time>2023-05-14T07:07:37.000Z</time>
      </trkpt>
      <trkpt lat="43.75353" lon="3.52411">
        <ele>435.7</ele>
        <time>2023-05-14T07:07:39.000Z</time>
      </trkpt>
      <trkpt lat="43.75354" lon="3.52392">
        <ele>434.3</ele>
        <time>2023-05-14T07:07:41.000Z</time>
      </trkpt>
      <trkpt lat="43.75361" lon="3.52379">
        <ele>432.5</ele>
        <time>2023-05-14T07:07:43.000Z</time>
      </trkpt>
      <trkpt lat="43.75371" lon="3.52369">
        <ele>431.2</ele>
        <time>2023-05-14T07:07:45.000Z</time>
      </trkpt>
      <trkpt lat="43.75379" lon="3.52359">
        <ele>430</ele>
        <time>2023-05-14T07:07:47.000Z</time>
      </trkpt>
      <trkpt lat="43.75389" lon="3.52355">
        <ele>428.6</ele>
        <time>2023-05-14T07:07:49.000Z</time>
      </trkpt>
      <trkpt lat="43.75398" lon="3.52364">
        <ele>427.7</ele>
        <time>2023-05-14T07:07:51.000Z</time>
      </trkpt>
      <trkpt lat="43.75405" lon="3.52378">
        <ele>426.7</ele>
        <time>2023-05-14T07:07:53.000Z</time>
      </trkpt>
      <trkpt lat="43.75415" lon="3.52391">
        <ele>425.7</ele>
        <time>2023-05-14T07:07:55.000Z</time>
      </trkpt>
      <trkpt lat="43.75428" lon="3.52402">
        <ele>424.6</ele>
        <time>2023-05-14T07:07:57.000Z</time>
      </trkpt>
      <trkpt lat="43.75443" lon="3.52409">
        <ele>423.3</ele>
        <time>2023-05-14T07:07:59.000Z</time>
      </trkpt>
      <trkpt lat="43.75458" lon="3.52408">
        <ele>421.9</ele>
        <time>2023-05-14T07:08:01.000Z</time>
      </trkpt>
      <trkpt lat="43.75473" lon="3.52401">
        <ele>420.8</ele>
        <time>2023-05-14T07:08:03.000Z</time>
      </trkpt>
      <trkpt lat="43.75487" lon="3.52394">
        <ele>419.8</ele>
        <time>2023-05-14T07:08:05.000Z</time>
      </trkpt>
      <trkpt lat="43.75498" lon="3.52389">
        <ele>419.4</ele>
        <time>2023-05-14T07:08:07.000Z</time>
      </trkpt>
      <trkpt lat="43.75509" lon="3.52386">
        <ele>419.6</ele>
        <time>2023-05-14T07:08:10.000Z</time>
      </trkpt>
      <trkpt lat="43.75519" lon="3.52387">
        <ele>419.8</ele>
        <time>2023-05-14T07:08:13.000Z</time>
      </trkpt>
      <trkpt lat="43.75527" lon="3.52391">
        <ele>420.3</ele>
        <time>2023-05-14T07:08:16.000Z</time>
      </trkpt>
      <trkpt lat="43.75537" lon="3.52396">
        <ele>420.8</ele>
        <time>2023-05-14T07:08:19.000Z</time>
      </trkpt>
      <trkpt lat="43.75546" lon="3.524">
        <ele>421.3</ele>
        <time>2023-05-14T07:08:22.000Z</time>
      </trkpt>
      <trkpt lat="43.75557" lon="3.52403">
        <ele>421.5</ele>
        <time>2023-05-14T07:08:25.000Z</time>
      </trkpt>
      <trkpt lat="43.75569" lon="3.52405">
        <ele>421.7</ele>
        <time>2023-05-14T07:08:28.000Z</time>
      </trkpt>
      <trkpt lat="43.75582" lon="3.52406">
        <ele>421.9</ele>
        <time>2023-05-14T07:08:31.000Z</time>
      </trkpt>
      <trkpt lat="43.75594" lon="3.52408">
        <ele>421.9</ele>
        <time>2023-05-14T07:08:34.000Z</time>
      </trkpt>
      <trkpt lat="43.75606" lon="3.52409">
        <ele>422</ele>
        <time>2023-05-14T07:08:37.000Z</time>
      </trkpt>
      <trkpt lat="43.75619" lon="3.52411">
        <ele>422</ele>
        <time>2023-05-14T07:08:40.000Z</time>
      </trkpt>
      <trkpt lat="43.75628" lon="3.52412">
        <ele>422.1</ele>
        <time>2023-05-14T07:08:42.000Z</time>
      </trkpt>
      <trkpt lat="43.75641" lon="3.52414">
        <ele>422.2</ele>
        <time>2023-05-14T07:08:45.000Z</time>
      </trkpt>
      <trkpt lat="43.75654" lon="3.52415">
        <ele>422.2</ele>
        <time>2023-05-14T07:08:48.000Z</time>
      </trkpt>
      <trkpt lat="43.75667" lon="3.52416">
        <ele>422.1</ele>
        <time>2023-05-14T07:08:51.000Z</time>
      </trkpt>
      <trkpt lat="43.75678" lon="3.52418">
        <ele>422.1</ele>
        <time>2023-05-14T07:08:54.000Z</time>
      </trkpt>
      <trkpt lat="43.75688" lon="3.52422">
        <ele>422</ele>
        <time>2023-05-14T07:08:57.000Z</time>
      </trkpt>
      <trkpt lat="43.75698" lon="3.52428">
        <ele>422.1</ele>
        <time>2023-05-14T07:09:00.000Z</time>
      </trkpt>
      <trkpt lat="43.75707" lon="3.52439">
        <ele>422.2</ele>
        <time>2023-05-14T07:09:03.000Z</time>
      </trkpt>
      <trkpt lat="43.75714" lon="3.5245">
        <ele>422.3</ele>
        <time>2023-05-14T07:09:06.000Z</time>
      </trkpt>
      <trkpt lat="43.75721" lon="3.52463">
        <ele>422.4</ele>
        <time>2023-05-14T07:09:09.000Z</time>
      </trkpt>
      <trkpt lat="43.75725" lon="3.52479">
        <ele>422.6</ele>
        <time>2023-05-14T07:09:12.000Z</time>
      </trkpt>
      <trkpt lat="43.75724" lon="3.52492">
        <ele>422.7</ele>
        <time>2023-05-14T07:09:14.000Z</time>
      </trkpt>
      <trkpt lat="43.75722" lon="3.52505">
        <ele>422.8</ele>
        <time>2023-05-14T07:09:16.000Z</time>
      </trkpt>
      <trkpt lat="43.75718" lon="3.52517">
        <ele>422.9</ele>
        <time>2023-05-14T07:09:18.000Z</time>
      </trkpt>
      <trkpt lat="43.75715" lon="3.52529">
        <ele>422.9</ele>
        <time>2023-05-14T07:09:20.000Z</time>
      </trkpt>
      <trkpt lat="43.75711" lon="3.52541">
        <ele>423</ele>
        <time>2023-05-14T07:09:22.000Z</time>
      </trkpt>
      <trkpt lat="43.75708" lon="3.52552">
        <ele>423.1</ele>
        <time>2023-05-14T07:09:24.000Z</time>
      </trkpt>
      <trkpt lat="43.75705" lon="3.52565">
        <ele>423.2</ele>
        <time>2023-05-14T07:09:26.000Z</time>
      </trkpt>
      <trkpt lat="43.75704" lon="3.52578">
        <ele>423.3</ele>
        <time>2023-05-14T07:09:28.000Z</time>
      </trkpt>
      <trkpt lat="43.75702" lon="3.52591">
        <ele>423.4</ele>
        <time>2023-05-14T07:09:30.000Z</time>
      </trkpt>
      <trkpt lat="43.75702" lon="3.52604">
        <ele>423.5</ele>
        <time>2023-05-14T07:09:32.000Z</time>
      </trkpt>
      <trkpt lat="43.75703" lon="3.52616">
        <ele>423.6</ele>
        <time>2023-05-14T07:09:34.000Z</time>
      </trkpt>
      <trkpt lat="43.75707" lon="3.52629">
        <ele>423.7</ele>
        <time>2023-05-14T07:09:36.000Z</time>
      </trkpt>
      <trkpt lat="43.75713" lon="3.52639">
        <ele>423.9</ele>
        <time>2023-05-14T07:09:38.000Z</time>
      </trkpt>
      <trkpt lat="43.75721" lon="3.52647">
        <ele>424.3</ele>
        <time>2023-05-14T07:09:40.000Z</time>
      </trkpt>
      <trkpt lat="43.75729" lon="3.52654">
        <ele>424.6</ele>
        <time>2023-05-14T07:09:42.000Z</time>
      </trkpt>
      <trkpt lat="43.7574" lon="3.52663">
        <ele>425</ele>
        <time>2023-05-14T07:09:45.000Z</time>
      </trkpt>
      <trkpt lat="43.75752" lon="3.52669">
        <ele>425.4</ele>
        <time>2023-05-14T07:09:48.000Z</time>
      </trkpt>
      <trkpt lat="43.75765" lon="3.52674">
        <ele>425.8</ele>
        <time>2023-05-14T07:09:51.000Z</time>
      </trkpt>
      <trkpt lat="43.75778" lon="3.5268">
        <ele>426.3</ele>
        <time>2023-05-14T07:09:54.000Z</time>
      </trkpt>
      <trkpt lat="43.75785" lon="3.52686">
        <ele>426.7</ele>
        <time>2023-05-14T07:09:56.000Z</time>
      </trkpt>
      <trkpt lat="43.75793" lon="3.52694">
        <ele>427</ele>
        <time>2023-05-14T07:09:58.000Z</time>
      </trkpt>
      <trkpt lat="43.758" lon="3.52701">
        <ele>427.3</ele>
        <time>2023-05-14T07:10:00.000Z</time>
      </trkpt>
      <trkpt lat="43.75807" lon="3.52709">
        <ele>427.5</ele>
        <time>2023-05-14T07:10:02.000Z</time>
      </trkpt>
      <trkpt lat="43.75814" lon="3.52717">
        <ele>427.8</ele>
        <time>2023-05-14T07:10:04.000Z</time>
      </trkpt>
      <trkpt lat="43.75821" lon="3.52726">
        <ele>428</ele>
        <time>2023-05-14T07:10:06.000Z</time>
      </trkpt>
      <trkpt lat="43.75827" lon="3.52735">
        <ele>428.2</ele>
        <time>2023-05-14T07:10:08.000Z</time>
      </trkpt>
      <trkpt lat="43.75835" lon="3.5275">
        <ele>428.3</ele>
        <time>2023-05-14T07:10:11.000Z</time>
      </trkpt>
      <trkpt lat="43.7584" lon="3.52761">
        <ele>428.5</ele>
        <time>2023-05-14T07:10:13.000Z</time>
      </trkpt>
      <trkpt lat="43.75842" lon="3.52778">
        <ele>428.7</ele>
        <time>2023-05-14T07:10:16.000Z</time>
      </trkpt>
      <trkpt lat="43.75844" lon="3.52793">
        <ele>429</ele>
        <time>2023-05-14T07:10:19.000Z</time>
      </trkpt>
      <trkpt lat="43.75845" lon="3.52809">
        <ele>429.5</ele>
        <time>2023-05-14T07:10:22.000Z</time>
      </trkpt>
      <trkpt lat="43.75843" lon="3.52824">
        <ele>430</ele>
        <time>2023-05-14T07:10:25.000Z</time>
      </trkpt>
      <trkpt lat="43.75839" lon="3.52839">
        <ele>430.6</ele>
        <time>2023-05-14T07:10:28.000Z</time>
      </trkpt>
      <trkpt lat="43.75838" lon="3.52854">
        <ele>430.9</ele>
        <time>2023-05-14T07:10:31.000Z</time>
      </trkpt>
      <trkpt lat="43.75838" lon="3.5287">
        <ele>431.5</ele>
        <time>2023-05-14T07:10:34.000Z</time>
      </trkpt>
      <trkpt lat="43.75839" lon="3.52885">
        <ele>432</ele>
        <time>2023-05-14T07:10:37.000Z</time>
      </trkpt>
      <trkpt lat="43.75845" lon="3.52896">
        <ele>432.5</ele>
        <time>2023-05-14T07:10:40.000Z</time>
      </trkpt>
      <trkpt lat="43.75856" lon="3.52899">
        <ele>433</ele>
        <time>2023-05-14T07:10:43.000Z</time>
      </trkpt>
      <trkpt lat="43.75863" lon="3.5291">
        <ele>433.6</ele>
        <time>2023-05-14T07:10:46.000Z</time>
      </trkpt>
      <trkpt lat="43.7586" lon="3.52925">
        <ele>434.5</ele>
        <time>2023-05-14T07:10:50.000Z</time>
      </trkpt>
      <trkpt lat="43.75855" lon="3.52935">
        <ele>435.4</ele>
        <time>2023-05-14T07:10:54.000Z</time>
      </trkpt>
      <trkpt lat="43.7585" lon="3.52946">
        <ele>435.9</ele>
        <time>2023-05-14T07:10:57.000Z</time>
      </trkpt>
      <trkpt lat="43.75844" lon="3.5296">
        <ele>436.7</ele>
        <time>2023-05-14T07:11:01.000Z</time>
      </trkpt>
      <trkpt lat="43.75844" lon="3.52973">
        <ele>437.5</ele>
        <time>2023-05-14T07:11:05.000Z</time>
      </trkpt>
      <trkpt lat="43.75855" lon="3.52965">
        <ele>439.1</ele>
        <time>2023-05-14T07:11:11.000Z</time>
      </trkpt>
      <trkpt lat="43.75863" lon="3.52956">
        <ele>440.8</ele>
        <time>2023-05-14T07:11:15.000Z</time>
      </trkpt>
      <trkpt lat="43.75871" lon="3.52948">
        <ele>442.5</ele>
        <time>2023-05-14T07:11:19.000Z</time>
      </trkpt>
      <trkpt lat="43.75881" lon="3.52943">
        <ele>444</ele>
        <time>2023-05-14T07:11:23.000Z</time>
      </trkpt>
      <trkpt lat="43.75891" lon="3.52937">
        <ele>444.9</ele>
        <time>2023-05-14T07:11:27.000Z</time>
      </trkpt>
      <trkpt lat="43.75898" lon="3.52927">
        <ele>446</ele>
        <time>2023-05-14T07:11:31.000Z</time>
      </trkpt>
      <trkpt lat="43.75902" lon="3.52915">
        <ele>447.3</ele>
        <time>2023-05-14T07:11:35.000Z</time>
      </trkpt>
      <trkpt lat="43.75905" lon="3.52901">
        <ele>448.9</ele>
        <time>2023-05-14T07:11:40.000Z</time>
      </trkpt>
      <trkpt lat="43.7591" lon="3.52888">
        <ele>451.1</ele>
        <time>2023-05-14T07:11:45.000Z</time>
      </trkpt>
      <trkpt lat="43.75919" lon="3.52884">
        <ele>452.5</ele>
        <time>2023-05-14T07:11:49.000Z</time>
      </trkpt>
      <trkpt lat="43.75929" lon="3.52885">
        <ele>453.7</ele>
        <time>2023-05-14T07:11:53.000Z</time>
      </trkpt>
      <trkpt lat="43.75938" lon="3.52891">
        <ele>454.7</ele>
        <time>2023-05-14T07:11:58.000Z</time>
      </trkpt>
      <trkpt lat="43.75942" lon="3.52902">
        <ele>455.8</ele>
        <time>2023-05-14T07:12:02.000Z</time>
      </trkpt>
      <trkpt lat="43.75944" lon="3.52916">
        <ele>456.9</ele>
        <time>2023-05-14T07:12:06.000Z</time>
      </trkpt>
      <trkpt lat="43.75947" lon="3.52931">
        <ele>458.4</ele>
        <time>2023-05-14T07:12:10.000Z</time>
      </trkpt>
      <trkpt lat="43.75949" lon="3.52944">
        <ele>460.6</ele>
        <time>2023-05-14T07:12:14.000Z</time>
      </trkpt>
      <trkpt lat="43.75946" lon="3.52959">
        <ele>462.8</ele>
        <time>2023-05-14T07:12:18.000Z</time>
      </trkpt>
      <trkpt lat="43.75938" lon="3.5297">
        <ele>464.7</ele>
        <time>2023-05-14T07:12:22.000Z</time>
      </trkpt>
      <trkpt lat="43.75928" lon="3.52975">
        <ele>466.2</ele>
        <time>2023-05-14T07:12:26.000Z</time>
      </trkpt>
      <trkpt lat="43.75917" lon="3.52978">
        <ele>467.1</ele>
        <time>2023-05-14T07:12:30.000Z</time>
      </trkpt>
      <trkpt lat="43.75913" lon="3.52992">
        <ele>467.7</ele>
        <time>2023-05-14T07:12:34.000Z</time>
      </trkpt>
      <trkpt lat="43.75919" lon="3.53005">
        <ele>468.5</ele>
        <time>2023-05-14T07:12:38.000Z</time>
      </trkpt>
      <trkpt lat="43.75929" lon="3.5301">
        <ele>469.8</ele>
        <time>2023-05-14T07:12:42.000Z</time>
      </trkpt>
      <trkpt lat="43.75937" lon="3.53019">
        <ele>470.8</ele>
        <time>2023-05-14T07:12:46.000Z</time>
      </trkpt>
      <trkpt lat="43.75943" lon="3.53033">
        <ele>472</ele>
        <time>2023-05-14T07:12:50.000Z</time>
      </trkpt>
      <trkpt lat="43.75947" lon="3.53046">
        <ele>473</ele>
        <time>2023-05-14T07:12:54.000Z</time>
      </trkpt>
      <trkpt lat="43.75951" lon="3.53059">
        <ele>474.4</ele>
        <time>2023-05-14T07:12:58.000Z</time>
      </trkpt>
      <trkpt lat="43.75956" lon="3.53072">
        <ele>475.7</ele>
        <time>2023-05-14T07:13:02.000Z</time>
      </trkpt>
      <trkpt lat="43.75959" lon="3.53086">
        <ele>477.4</ele>
        <time>2023-05-14T07:13:06.000Z</time>
      </trkpt>
      <trkpt lat="43.75963" lon="3.53099">
        <ele>479.4</ele>
        <time>2023-05-14T07:13:10.000Z</time>
      </trkpt>
      <trkpt lat="43.75965" lon="3.53111">
        <ele>481</ele>
        <time>2023-05-14T07:13:14.000Z</time>
      </trkpt>
      <trkpt lat="43.75968" lon="3.53125">
        <ele>482.1</ele>
        <time>2023-05-14T07:13:18.000Z</time>
      </trkpt>
      <trkpt lat="43.75974" lon="3.53139">
        <ele>483.1</ele>
        <time>2023-05-14T07:13:22.000Z</time>
      </trkpt>
      <trkpt lat="43.75978" lon="3.53152">
        <ele>483.7</ele>
        <time>2023-05-14T07:13:25.000Z</time>
      </trkpt>
      <trkpt lat="43.75982" lon="3.53165">
        <ele>484.1</ele>
        <time>2023-05-14T07:13:28.000Z</time>
      </trkpt>
      <trkpt lat="43.75986" lon="3.53177">
        <ele>484.7</ele>
        <time>2023-05-14T07:13:31.000Z</time>
      </trkpt>
      <trkpt lat="43.75992" lon="3.53188">
        <ele>485.4</ele>
        <time>2023-05-14T07:13:34.000Z</time>
      </trkpt>
      <trkpt lat="43.75998" lon="3.53198">
        <ele>486.1</ele>
        <time>2023-05-14T07:13:37.000Z</time>
      </trkpt>
      <trkpt lat="43.76006" lon="3.53207">
        <ele>487.1</ele>
        <time>2023-05-14T07:13:40.000Z</time>
      </trkpt>
      <trkpt lat="43.76013" lon="3.53216">
        <ele>488.1</ele>
        <time>2023-05-14T07:13:43.000Z</time>
      </trkpt>
      <trkpt lat="43.7602" lon="3.53224">
        <ele>489.5</ele>
        <time>2023-05-14T07:13:46.000Z</time>
      </trkpt>
      <trkpt lat="43.76027" lon="3.53235">
        <ele>491.5</ele>
        <time>2023-05-14T07:13:50.000Z</time>
      </trkpt>
      <trkpt lat="43.76034" lon="3.53243">
        <ele>493.4</ele>
        <time>2023-05-14T07:13:54.000Z</time>
      </trkpt>
      <trkpt lat="43.76043" lon="3.53249">
        <ele>495.4</ele>
        <time>2023-05-14T07:13:58.000Z</time>
      </trkpt>
      <trkpt lat="43.76051" lon="3.53256">
        <ele>496.8</ele>
        <time>2023-05-14T07:14:02.000Z</time>
      </trkpt>
      <trkpt lat="43.7606" lon="3.53261">
        <ele>497.9</ele>
        <time>2023-05-14T07:14:06.000Z</time>
      </trkpt>
      <trkpt lat="43.76069" lon="3.53268">
        <ele>498.9</ele>
        <time>2023-05-14T07:14:11.000Z</time>
      </trkpt>
      <trkpt lat="43.7608" lon="3.53272">
        <ele>500.7</ele>
        <time>2023-05-14T07:14:16.000Z</time>
      </trkpt>
      <trkpt lat="43.76089" lon="3.5328">
        <ele>503.2</ele>
        <time>2023-05-14T07:14:21.000Z</time>
      </trkpt>
      <trkpt lat="43.76098" lon="3.53288">
        <ele>505.3</ele>
        <time>2023-05-14T07:14:25.000Z</time>
      </trkpt>
      <trkpt lat="43.76104" lon="3.53299">
        <ele>507.1</ele>
        <time>2023-05-14T07:14:29.000Z</time>
      </trkpt>
      <trkpt lat="43.76107" lon="3.53311">
        <ele>508.5</ele>
        <time>2023-05-14T07:14:33.000Z</time>
      </trkpt>
      <trkpt lat="43.76111" lon="3.53325">
        <ele>509.9</ele>
        <time>2023-05-14T07:14:37.000Z</time>
      </trkpt>
      <trkpt lat="43.76116" lon="3.53337">
        <ele>511.2</ele>
        <time>2023-05-14T07:14:41.000Z</time>
      </trkpt>
      <trkpt lat="43.76125" lon="3.53348">
        <ele>512.3</ele>
        <time>2023-05-14T07:14:45.000Z</time>
      </trkpt>
      <trkpt lat="43.76132" lon="3.53357">
        <ele>512.9</ele>
        <time>2023-05-14T07:14:49.000Z</time>
      </trkpt>
      <trkpt lat="43.76141" lon="3.53367">
        <ele>513.4</ele>
        <time>2023-05-14T07:14:53.000Z</time>
      </trkpt>
      <trkpt lat="43.76149" lon="3.5338">
        <ele>513.4</ele>
        <time>2023-05-14T07:14:56.000Z</time>
      </trkpt>
      <trkpt lat="43.76154" lon="3.53391">
        <ele>513.3</ele>
        <time>2023-05-14T07:14:58.000Z</time>
      </trkpt>
      <trkpt lat="43.76157" lon="3.53404">
        <ele>513.1</ele>
        <time>2023-05-14T07:15:00.000Z</time>
      </trkpt>
      <trkpt lat="43.76154" lon="3.53417">
        <ele>512.7</ele>
        <time>2023-05-14T07:15:02.000Z</time>
      </trkpt>
      <trkpt lat="43.76147" lon="3.53427">
        <ele>512.1</ele>
        <time>2023-05-14T07:15:04.000Z</time>
      </trkpt>
      <trkpt lat="43.76157" lon="3.5343">
        <ele>509.1</ele>
        <time>2023-05-14T07:15:12.000Z</time>
      </trkpt>
      <trkpt lat="43.76167" lon="3.53427">
        <ele>508.2</ele>
        <time>2023-05-14T07:15:14.000Z</time>
      </trkpt>
      <trkpt lat="43.76179" lon="3.53427">
        <ele>507.4</ele>
        <time>2023-05-14T07:15:16.000Z</time>
      </trkpt>
      <trkpt lat="43.76192" lon="3.53428">
        <ele>506.7</ele>
        <time>2023-05-14T07:15:18.000Z</time>
      </trkpt>
      <trkpt lat="43.76206" lon="3.53429">
        <ele>505.4</ele>
        <time>2023-05-14T07:15:20.000Z</time>
      </trkpt>
      <trkpt lat="43.76221" lon="3.53428">
        <ele>504.2</ele>
        <time>2023-05-14T07:15:22.000Z</time>
      </trkpt>
      <trkpt lat="43.76237" lon="3.53427">
        <ele>502.6</ele>
        <time>2023-05-14T07:15:24.000Z</time>
      </trkpt>
      <trkpt lat="43.7625" lon="3.53427">
        <ele>501.1</ele>
        <time>2023-05-14T07:15:26.000Z</time>
      </trkpt>
      <trkpt lat="43.76262" lon="3.53437">
        <ele>499.4</ele>
        <time>2023-05-14T07:15:28.000Z</time>
      </trkpt>
      <trkpt lat="43.76269" lon="3.53457">
        <ele>498.3</ele>
        <time>2023-05-14T07:15:30.000Z</time>
      </trkpt>
      <trkpt lat="43.76274" lon="3.53481">
        <ele>497.2</ele>
        <time>2023-05-14T07:15:32.000Z</time>
      </trkpt>
      <trkpt lat="43.76276" lon="3.53493">
        <ele>496.4</ele>
        <time>2023-05-14T07:15:33.000Z</time>
      </trkpt>
      <trkpt lat="43.76281" lon="3.53516">
        <ele>494.8</ele>
        <time>2023-05-14T07:15:35.000Z</time>
      </trkpt>
      <trkpt lat="43.76281" lon="3.53537">
        <ele>493.2</ele>
        <time>2023-05-14T07:15:37.000Z</time>
      </trkpt>
      <trkpt lat="43.76273" lon="3.53553">
        <ele>491.6</ele>
        <time>2023-05-14T07:15:39.000Z</time>
      </trkpt>
      <trkpt lat="43.76263" lon="3.53564">
        <ele>490.1</ele>
        <time>2023-05-14T07:15:41.000Z</time>
      </trkpt>
      <trkpt lat="43.76266" lon="3.53578">
        <ele>487.9</ele>
        <time>2023-05-14T07:15:44.000Z</time>
      </trkpt>
      <trkpt lat="43.76279" lon="3.53575">
        <ele>486.7</ele>
        <time>2023-05-14T07:15:46.000Z</time>
      </trkpt>
      <trkpt lat="43.76292" lon="3.53568">
        <ele>485.9</ele>
        <time>2023-05-14T07:15:48.000Z</time>
      </trkpt>
      <trkpt lat="43.76305" lon="3.53553">
        <ele>484.5</ele>
        <time>2023-05-14T07:15:50.000Z</time>
      </trkpt>
      <trkpt lat="43.76316" lon="3.53534">
        <ele>482.4</ele>
        <time>2023-05-14T07:15:52.000Z</time>
      </trkpt>
      <trkpt lat="43.7633" lon="3.53523">
        <ele>480.8</ele>
        <time>2023-05-14T07:15:54.000Z</time>
      </trkpt>
      <trkpt lat="43.76345" lon="3.53517">
        <ele>479.6</ele>
        <time>2023-05-14T07:15:56.000Z</time>
      </trkpt>
      <trkpt lat="43.76362" lon="3.53513">
        <ele>478.2</ele>
        <time>2023-05-14T07:15:58.000Z</time>
      </trkpt>
      <trkpt lat="43.76377" lon="3.53509">
        <ele>476.9</ele>
        <time>2023-05-14T07:16:00.000Z</time>
      </trkpt>
      <trkpt lat="43.76392" lon="3.53507">
        <ele>475.9</ele>
        <time>2023-05-14T07:16:02.000Z</time>
      </trkpt>
      <trkpt lat="43.76406" lon="3.53506">
        <ele>475.2</ele>
        <time>2023-05-14T07:16:04.000Z</time>
      </trkpt>
      <trkpt lat="43.7642" lon="3.535">
        <ele>474.5</ele>
        <time>2023-05-14T07:16:06.000Z</time>
      </trkpt>
      <trkpt lat="43.76431" lon="3.5349">
        <ele>474</ele>
        <time>2023-05-14T07:16:08.000Z</time>
      </trkpt>
      <trkpt lat="43.76441" lon="3.53478">
        <ele>473.6</ele>
        <time>2023-05-14T07:16:10.000Z</time>
      </trkpt>
      <trkpt lat="43.76448" lon="3.53464">
        <ele>473.5</ele>
        <time>2023-05-14T07:16:12.000Z</time>
      </trkpt>
      <trkpt lat="43.76451" lon="3.53452">
        <ele>473.3</ele>
        <time>2023-05-14T07:16:14.000Z</time>
      </trkpt>
      <trkpt lat="43.76455" lon="3.53437">
        <ele>473.3</ele>
        <time>2023-05-14T07:16:17.000Z</time>
      </trkpt>
      <trkpt lat="43.76462" lon="3.53424">
        <ele>473.5</ele>
        <time>2023-05-14T07:16:20.000Z</time>
      </trkpt>
      <trkpt lat="43.76465" lon="3.53409">
        <ele>473.7</ele>
        <time>2023-05-14T07:16:23.000Z</time>
      </trkpt>
      <trkpt lat="43.76469" lon="3.53395">
        <ele>474</ele>
        <time>2023-05-14T07:16:26.000Z</time>
      </trkpt>
      <trkpt lat="43.76478" lon="3.53389">
        <ele>474.3</ele>
        <time>2023-05-14T07:16:29.000Z</time>
      </trkpt>
      <trkpt lat="43.76486" lon="3.53384">
        <ele>474.6</ele>
        <time>2023-05-14T07:16:32.000Z</time>
      </trkpt>
      <trkpt lat="43.76497" lon="3.53381">
        <ele>475</ele>
        <time>2023-05-14T07:16:36.000Z</time>
      </trkpt>
      <trkpt lat="43.76507" lon="3.53379">
        <ele>475.3</ele>
        <time>2023-05-14T07:16:39.000Z</time>
      </trkpt>
      <trkpt lat="43.76517" lon="3.53376">
        <ele>475.5</ele>
        <time>2023-05-14T07:16:42.000Z</time>
      </trkpt>
      <trkpt lat="43.76526" lon="3.53367">
        <ele>475.6</ele>
        <time>2023-05-14T07:16:45.000Z</time>
      </trkpt>
      <trkpt lat="43.76536" lon="3.5336">
        <ele>475.7</ele>
        <time>2023-05-14T07:16:48.000Z</time>
      </trkpt>
      <trkpt lat="43.76545" lon="3.53352">
        <ele>475.8</ele>
        <time>2023-05-14T07:16:52.000Z</time>
      </trkpt>
      <trkpt lat="43.76554" lon="3.53348">
        <ele>476</ele>
        <time>2023-05-14T07:16:55.000Z</time>
      </trkpt>
      <trkpt lat="43.76564" lon="3.53346">
        <ele>476.3</ele>
        <time>2023-05-14T07:16:59.000Z</time>
      </trkpt>
      <trkpt lat="43.76574" lon="3.5334">
        <ele>476.7</ele>
        <time>2023-05-14T07:17:04.000Z</time>
      </trkpt>
      <trkpt lat="43.76583" lon="3.53335">
        <ele>477</ele>
        <time>2023-05-14T07:17:07.000Z</time>
      </trkpt>
      <trkpt lat="43.76591" lon="3.53329">
        <ele>477.4</ele>
        <time>2023-05-14T07:17:11.000Z</time>
      </trkpt>
      <trkpt lat="43.76601" lon="3.53321">
        <ele>477.6</ele>
        <time>2023-05-14T07:17:15.000Z</time>
      </trkpt>
      <trkpt lat="43.7661" lon="3.53311">
        <ele>477.7</ele>
        <time>2023-05-14T07:17:18.000Z</time>
      </trkpt>
      <trkpt lat="43.7662" lon="3.53302">
        <ele>477.8</ele>
        <time>2023-05-14T07:17:21.000Z</time>
      </trkpt>
      <trkpt lat="43.76629" lon="3.53293">
        <ele>478</ele>
        <time>2023-05-14T07:17:24.000Z</time>
      </trkpt>
      <trkpt lat="43.76638" lon="3.53285">
        <ele>478.3</ele>
        <time>2023-05-14T07:17:27.000Z</time>
      </trkpt>
      <trkpt lat="43.76647" lon="3.53277">
        <ele>478.7</ele>
        <time>2023-05-14T07:17:30.000Z</time>
      </trkpt>
      <trkpt lat="43.76655" lon="3.53269">
        <ele>479.1</ele>
        <time>2023-05-14T07:17:33.000Z</time>
      </trkpt>
      <trkpt lat="43.76664" lon="3.53261">
        <ele>479.7</ele>
        <time>2023-05-14T07:17:37.000Z</time>
      </trkpt>
      <trkpt lat="43.76672" lon="3.53254">
        <ele>480.7</ele>
        <time>2023-05-14T07:17:42.000Z</time>
      </trkpt>
      <trkpt lat="43.7668" lon="3.53247">
        <ele>481.7</ele>
        <time>2023-05-14T07:17:47.000Z</time>
      </trkpt>
      <trkpt lat="43.76688" lon="3.53239">
        <ele>482.6</ele>
        <time>2023-05-14T07:17:52.000Z</time>
      </trkpt>
      <trkpt lat="43.76696" lon="3.53229">
        <ele>483.2</ele>
        <time>2023-05-14T07:17:57.000Z</time>
      </trkpt>
      <trkpt lat="43.76704" lon="3.53219">
        <ele>483.6</ele>
        <time>2023-05-14T07:18:02.000Z</time>
      </trkpt>
      <trkpt lat="43.76712" lon="3.53208">
        <ele>484.2</ele>
        <time>2023-05-14T07:18:07.000Z</time>
      </trkpt>
      <trkpt lat="43.76723" lon="3.53201">
        <ele>484.4</ele>
        <time>2023-05-14T07:18:11.000Z</time>
      </trkpt>
      <trkpt lat="43.76733" lon="3.53198">
        <ele>484.6</ele>
        <time>2023-05-14T07:18:15.000Z</time>
      </trkpt>
      <trkpt lat="43.76744" lon="3.53199">
        <ele>484.7</ele>
        <time>2023-05-14T07:18:19.000Z</time>
      </trkpt>
      <trkpt lat="43.76754" lon="3.53199">
        <ele>484.9</ele>
        <time>2023-05-14T07:18:23.000Z</time>
      </trkpt>
      <trkpt lat="43.76764" lon="3.53205">
        <ele>485.3</ele>
        <time>2023-05-14T07:18:28.000Z</time>
      </trkpt>
      <trkpt lat="43.76771" lon="3.53214">
        <ele>485.5</ele>
        <time>2023-05-14T07:18:32.000Z</time>
      </trkpt>
      <trkpt lat="43.7678" lon="3.53215">
        <ele>485.6</ele>
        <time>2023-05-14T07:18:36.000Z</time>
      </trkpt>
      <trkpt lat="43.7679" lon="3.53214">
        <ele>485.7</ele>
        <time>2023-05-14T07:18:39.000Z</time>
      </trkpt>
      <trkpt lat="43.768" lon="3.53215">
        <ele>485.9</ele>
        <time>2023-05-14T07:18:43.000Z</time>
      </trkpt>
      <trkpt lat="43.76811" lon="3.53212">
        <ele>485.9</ele>
        <time>2023-05-14T07:18:48.000Z</time>
      </trkpt>
      <trkpt lat="43.76814" lon="3.53198">
        <ele>486</ele>
        <time>2023-05-14T07:18:52.000Z</time>
      </trkpt>
      <trkpt lat="43.76813" lon="3.53185">
        <ele>486</ele>
        <time>2023-05-14T07:18:56.000Z</time>
      </trkpt>
      <trkpt lat="43.76821" lon="3.53174">
        <ele>486.1</ele>
        <time>2023-05-14T07:19:01.000Z</time>
      </trkpt>
      <trkpt lat="43.76828" lon="3.53166">
        <ele>486.3</ele>
        <time>2023-05-14T07:19:05.000Z</time>
      </trkpt>
      <trkpt lat="43.76837" lon="3.53162">
        <ele>486.6</ele>
        <time>2023-05-14T07:19:09.000Z</time>
      </trkpt>
      <trkpt lat="43.76847" lon="3.53166">
        <ele>487.3</ele>
        <time>2023-05-14T07:19:14.000Z</time>
      </trkpt>
      <trkpt lat="43.76857" lon="3.53162">
        <ele>488</ele>
        <time>2023-05-14T07:19:19.000Z</time>
      </trkpt>
      <trkpt lat="43.76865" lon="3.53153">
        <ele>488.4</ele>
        <time>2023-05-14T07:19:23.000Z</time>
      </trkpt>
      <trkpt lat="43.76875" lon="3.53148">
        <ele>488.8</ele>
        <time>2023-05-14T07:19:27.000Z</time>
      </trkpt>
      <trkpt lat="43.76883" lon="3.53142">
        <ele>489.2</ele>
        <time>2023-05-14T07:19:31.000Z</time>
      </trkpt>
      <trkpt lat="43.76893" lon="3.53137">
        <ele>489.6</ele>
        <time>2023-05-14T07:19:36.000Z</time>
      </trkpt>
      <trkpt lat="43.769" lon="3.53129">
        <ele>489.9</ele>
        <time>2023-05-14T07:19:40.000Z</time>
      </trkpt>
      <trkpt lat="43.76908" lon="3.53121">
        <ele>490.2</ele>
        <time>2023-05-14T07:19:44.000Z</time>
      </trkpt>
      <trkpt lat="43.76918" lon="3.5312">
        <ele>490.8</ele>
        <time>2023-05-14T07:19:49.000Z</time>
      </trkpt>
      <trkpt lat="43.76928" lon="3.53119">
        <ele>491.3</ele>
        <time>2023-05-14T07:19:53.000Z</time>
      </trkpt>
      <trkpt lat="43.76937" lon="3.53117">
        <ele>491.8</ele>
        <time>2023-05-14T07:19:57.000Z</time>
      </trkpt>
      <trkpt lat="43.76946" lon="3.53115">
        <ele>492.4</ele>
        <time>2023-05-14T07:20:01.000Z</time>
      </trkpt>
      <trkpt lat="43.76956" lon="3.53109">
        <ele>493.2</ele>
        <time>2023-05-14T07:20:06.000Z</time>
      </trkpt>
      <trkpt lat="43.7696" lon="3.53095">
        <ele>494.1</ele>
        <time>2023-05-14T07:20:12.000Z</time>
      </trkpt>
      <trkpt lat="43.76961" lon="3.53081">
        <ele>495.1</ele>
        <time>2023-05-14T07:20:18.000Z</time>
      </trkpt>
      <trkpt lat="43.76967" lon="3.53069">
        <ele>496</ele>
        <time>2023-05-14T07:20:24.000Z</time>
      </trkpt>
      <trkpt lat="43.76976" lon="3.53075">
        <ele>496.6</ele>
        <time>2023-05-14T07:20:30.000Z</time>
      </trkpt>
      <trkpt lat="43.76984" lon="3.53083">
        <ele>496.8</ele>
        <time>2023-05-14T07:20:33.000Z</time>
      </trkpt>
      <trkpt lat="43.76992" lon="3.5309">
        <ele>496.8</ele>
        <time>2023-05-14T07:20:36.000Z</time>
      </trkpt>
      <trkpt lat="43.77002" lon="3.53098">
        <ele>496.9</ele>
        <time>2023-05-14T07:20:39.000Z</time>
      </trkpt>
      <trkpt lat="43.77011" lon="3.53104">
        <ele>497</ele>
        <time>2023-05-14T07:20:42.000Z</time>
      </trkpt>
      <trkpt lat="43.7702" lon="3.53115">
        <ele>497</ele>
        <time>2023-05-14T07:20:46.000Z</time>
      </trkpt>
      <trkpt lat="43.77025" lon="3.5313">
        <ele>497</ele>
        <time>2023-05-14T07:20:50.000Z</time>
      </trkpt>
      <trkpt lat="43.77029" lon="3.53141">
        <ele>497.1</ele>
        <time>2023-05-14T07:20:53.000Z</time>
      </trkpt>
      <trkpt lat="43.77035" lon="3.53154">
        <ele>497.3</ele>
        <time>2023-05-14T07:20:57.000Z</time>
      </trkpt>
      <trkpt lat="43.77046" lon="3.53155">
        <ele>497.6</ele>
        <time>2023-05-14T07:21:02.000Z</time>
      </trkpt>
      <trkpt lat="43.77055" lon="3.5315">
        <ele>497.9</ele>
        <time>2023-05-14T07:21:06.000Z</time>
      </trkpt>
      <trkpt lat="43.77065" lon="3.53145">
        <ele>498.4</ele>
        <time>2023-05-14T07:21:10.000Z</time>
      </trkpt>
      <trkpt lat="43.77076" lon="3.53144">
        <ele>499.1</ele>
        <time>2023-05-14T07:21:15.000Z</time>
      </trkpt>
      <trkpt lat="43.77085" lon="3.5314">
        <ele>500.2</ele>
        <time>2023-05-14T07:21:20.000Z</time>
      </trkpt>
      <trkpt lat="43.77096" lon="3.53138">
        <ele>501.5</ele>
        <time>2023-05-14T07:21:25.000Z</time>
      </trkpt>
      <trkpt lat="43.77106" lon="3.53142">
        <ele>502.3</ele>
        <time>2023-05-14T07:21:30.000Z</time>
      </trkpt>
      <trkpt lat="43.77116" lon="3.53145">
        <ele>503.3</ele>
        <time>2023-05-14T07:21:35.000Z</time>
      </trkpt>
      <trkpt lat="43.77125" lon="3.53146">
        <ele>504</ele>
        <time>2023-05-14T07:21:39.000Z</time>
      </trkpt>
      <trkpt lat="43.77134" lon="3.53149">
        <ele>504.9</ele>
        <time>2023-05-14T07:21:43.000Z</time>
      </trkpt>
      <trkpt lat="43.77145" lon="3.5315">
        <ele>505.6</ele>
        <time>2023-05-14T07:21:48.000Z</time>
      </trkpt>
      <trkpt lat="43.77153" lon="3.53157">
        <ele>506.3</ele>
        <time>2023-05-14T07:21:53.000Z</time>
      </trkpt>
      <trkpt lat="43.77159" lon="3.5317">
        <ele>507.1</ele>
        <time>2023-05-14T07:21:57.000Z</time>
      </trkpt>
      <trkpt lat="43.77166" lon="3.53184">
        <ele>507.4</ele>
        <time>2023-05-14T07:22:01.000Z</time>
      </trkpt>
      <trkpt lat="43.77174" lon="3.53191">
        <ele>508</ele>
        <time>2023-05-14T07:22:04.000Z</time>
      </trkpt>
      <trkpt lat="43.77183" lon="3.53191">
        <ele>508.6</ele>
        <time>2023-05-14T07:22:07.000Z</time>
      </trkpt>
      <trkpt lat="43.77192" lon="3.53188">
        <ele>509.2</ele>
        <time>2023-05-14T07:22:10.000Z</time>
      </trkpt>
      <trkpt lat="43.77203" lon="3.53186">
        <ele>510.2</ele>
        <time>2023-05-14T07:22:14.000Z</time>
      </trkpt>
      <trkpt lat="43.77212" lon="3.53191">
        <ele>511.4</ele>
        <time>2023-05-14T07:22:18.000Z</time>
      </trkpt>
      <trkpt lat="43.77221" lon="3.53185">
        <ele>512.5</ele>
        <time>2023-05-14T07:22:22.000Z</time>
      </trkpt>
      <trkpt lat="43.77231" lon="3.53183">
        <ele>514</ele>
        <time>2023-05-14T07:22:29.000Z</time>
      </trkpt>
      <trkpt lat="43.77239" lon="3.53191">
        <ele>514.9</ele>
        <time>2023-05-14T07:22:34.000Z</time>
      </trkpt>
      <trkpt lat="43.77244" lon="3.53202">
        <ele>515.7</ele>
        <time>2023-05-14T07:22:38.000Z</time>
      </trkpt>
      <trkpt lat="43.77245" lon="3.53215">
        <ele>516.2</ele>
        <time>2023-05-14T07:22:42.000Z</time>
      </trkpt>
      <trkpt lat="43.77241" lon="3.53221">
        <ele>516.5</ele>
        <time>2023-05-14T07:22:46.000Z</time>
      </trkpt>
      <trkpt lat="43.77241" lon="3.53222">
        <ele>516.7</ele>
        <time>2023-05-14T07:22:54.000Z</time>
      </trkpt>
      <trkpt lat="43.77239" lon="3.53224">
        <ele>516.8</ele>
        <time>2023-05-14T07:23:00.000Z</time>
      </trkpt>
      <trkpt lat="43.77239" lon="3.53224">
        <ele>516.5</ele>
        <time>2023-05-14T07:24:11.000Z</time>
      </trkpt>
      <trkpt lat="43.77239" lon="3.53224">
        <ele>516.5</ele>
        <time>2023-05-14T07:24:12.000Z</time>
      </trkpt>
      <trkpt lat="43.77239" lon="3.53224">
        <ele>516.4</ele>
        <time>2023-05-14T07:24:49.000Z</time>
      </trkpt>
      <trkpt lat="43.77239" lon="3.53224">
        <ele>516.4</ele>
        <time>2023-05-14T07:24:50.000Z</time>
      </trkpt>
      <trkpt lat="43.77239" lon="3.53224">
        <ele>516.4</ele>
        <time>2023-05-14T07:24:58.000Z</time>
      </trkpt>
      <trkpt lat="43.77239" lon="3.53224">
        <ele>516.4</ele>
        <time>2023-05-14T07:24:59.000Z</time>
      </trkpt>
      <trkpt lat="43.77239" lon="3.53224">
        <ele>516.4</ele>
        <time>2023-05-14T07:25:01.000Z</time>
      </trkpt>
      <trkpt lat="43.77239" lon="3.53224">
        <ele>516.5</ele>
        <time>2023-05-14T07:25:02.000Z</time>
      </trkpt>
      <trkpt lat="43.77239" lon="3.53225">
        <ele>516.6</ele>
        <time>2023-05-14T07:25:40.000Z</time>
      </trkpt>
      <trkpt lat="43.77239" lon="3.53225">
        <ele>516.6</ele>
        <time>2023-05-14T07:25:41.000Z</time>
      </trkpt>
      <trkpt lat="43.77239" lon="3.53225">
        <ele>516.8</ele>
        <time>2023-05-14T07:27:05.000Z</time>
      </trkpt>
      <trkpt lat="43.77239" lon="3.53225">
        <ele>516.8</ele>
        <time>2023-05-14T07:27:06.000Z</time>
      </trkpt>
      <trkpt lat="43.77239" lon="3.53225">
        <ele>517</ele>
        <time>2023-05-14T07:28:52.000Z</time>
      </trkpt>
      <trkpt lat="43.77242" lon="3.53224">
        <ele>517</ele>
        <time>2023-05-14T07:28:59.000Z</time>
      </trkpt>
      <trkpt lat="43.77242" lon="3.53224">
        <ele>517</ele>
        <time>2023-05-14T07:29:16.000Z</time>
      </trkpt>
      <trkpt lat="43.7725" lon="3.53216">
        <ele>517</ele>
        <time>2023-05-14T07:29:22.000Z</time>
      </trkpt>
      <trkpt lat="43.77259" lon="3.53209">
        <ele>517.1</ele>
        <time>2023-05-14T07:29:28.000Z</time>
      </trkpt>
      <trkpt lat="43.77265" lon="3.53199">
        <ele>517.3</ele>
        <time>2023-05-14T07:29:33.000Z</time>
      </trkpt>
      <trkpt lat="43.77273" lon="3.53192">
        <ele>517.6</ele>
        <time>2023-05-14T07:29:37.000Z</time>
      </trkpt>
      <trkpt lat="43.77282" lon="3.53189">
        <ele>518.2</ele>
        <time>2023-05-14T07:29:42.000Z</time>
      </trkpt>
      <trkpt lat="43.77293" lon="3.53188">
        <ele>519</ele>
        <time>2023-05-14T07:29:47.000Z</time>
      </trkpt>
      <trkpt lat="43.77302" lon="3.53188">
        <ele>519.9</ele>
        <time>2023-05-14T07:29:51.000Z</time>
      </trkpt>
      <trkpt lat="43.77312" lon="3.53187">
        <ele>521.6</ele>
        <time>2023-05-14T07:29:56.000Z</time>
      </trkpt>
      <trkpt lat="43.77321" lon="3.53182">
        <ele>523.7</ele>
        <time>2023-05-14T07:30:01.000Z</time>
      </trkpt>
      <trkpt lat="43.7733" lon="3.53175">
        <ele>525.5</ele>
        <time>2023-05-14T07:30:06.000Z</time>
      </trkpt>
      <trkpt lat="43.7734" lon="3.53171">
        <ele>527.1</ele>
        <time>2023-05-14T07:30:11.000Z</time>
      </trkpt>
      <trkpt lat="43.77351" lon="3.5317">
        <ele>529.1</ele>
        <time>2023-05-14T07:30:16.000Z</time>
      </trkpt>
      <trkpt lat="43.77361" lon="3.53172">
        <ele>531.5</ele>
        <time>2023-05-14T07:30:21.000Z</time>
      </trkpt>
      <trkpt lat="43.77372" lon="3.53173">
        <ele>533.6</ele>
        <time>2023-05-14T07:30:26.000Z</time>
      </trkpt>
      <trkpt lat="43.77383" lon="3.53173">
        <ele>534.7</ele>
        <time>2023-05-14T07:30:31.000Z</time>
      </trkpt>
      <trkpt lat="43.77392" lon="3.53171">
        <ele>535.6</ele>
        <time>2023-05-14T07:30:35.000Z</time>
      </trkpt>
      <trkpt lat="43.77401" lon="3.53169">
        <ele>536.6</ele>
        <time>2023-05-14T07:30:39.000Z</time>
      </trkpt>
      <trkpt lat="43.77411" lon="3.53164">
        <ele>538</ele>
        <time>2023-05-14T07:30:44.000Z</time>
      </trkpt>
      <trkpt lat="43.77421" lon="3.53158">
        <ele>539.5</ele>
        <time>2023-05-14T07:30:49.000Z</time>
      </trkpt>
      <trkpt lat="43.77431" lon="3.53154">
        <ele>541.1</ele>
        <time>2023-05-14T07:30:54.000Z</time>
      </trkpt>
      <trkpt lat="43.77442" lon="3.53151">
        <ele>542.3</ele>
        <time>2023-05-14T07:30:59.000Z</time>
      </trkpt>
      <trkpt lat="43.77452" lon="3.53145">
        <ele>543.8</ele>
        <time>2023-05-14T07:31:04.000Z</time>
      </trkpt>
      <trkpt lat="43.77461" lon="3.53135">
        <ele>545.3</ele>
        <time>2023-05-14T07:31:09.000Z</time>
      </trkpt>
      <trkpt lat="43.77467" lon="3.53125">
        <ele>546.6</ele>
        <time>2023-05-14T07:31:13.000Z</time>
      </trkpt>
      <trkpt lat="43.77471" lon="3.53114">
        <ele>547.8</ele>
        <time>2023-05-14T07:31:17.000Z</time>
      </trkpt>
      <trkpt lat="43.77473" lon="3.53101">
        <ele>549.1</ele>
        <time>2023-05-14T07:31:21.000Z</time>
      </trkpt>
      <trkpt lat="43.7748" lon="3.53093">
        <ele>550.4</ele>
        <time>2023-05-14T07:31:25.000Z</time>
      </trkpt>
      <trkpt lat="43.77489" lon="3.53088">
        <ele>552</ele>
        <time>2023-05-14T07:31:29.000Z</time>
      </trkpt>
      <trkpt lat="43.77498" lon="3.53085">
        <ele>553.6</ele>
        <time>2023-05-14T07:31:33.000Z</time>
      </trkpt>
      <trkpt lat="43.77508" lon="3.53082">
        <ele>555.9</ele>
        <time>2023-05-14T07:31:37.000Z</time>
      </trkpt>
      <trkpt lat="43.77517" lon="3.53078">
        <ele>557.9</ele>
        <time>2023-05-14T07:31:41.000Z</time>
      </trkpt>
      <trkpt lat="43.77527" lon="3.53075">
        <ele>560.6</ele>
        <time>2023-05-14T07:31:46.000Z</time>
      </trkpt>
      <trkpt lat="43.77537" lon="3.53074">
        <ele>562.7</ele>
        <time>2023-05-14T07:31:51.000Z</time>
      </trkpt>
      <trkpt lat="43.77546" lon="3.53068">
        <ele>564.6</ele>
        <time>2023-05-14T07:31:56.000Z</time>
      </trkpt>
      <trkpt lat="43.77543" lon="3.53053">
        <ele>566.2</ele>
        <time>2023-05-14T07:32:01.000Z</time>
      </trkpt>
      <trkpt lat="43.77539" lon="3.5304">
        <ele>567.2</ele>
        <time>2023-05-14T07:32:05.000Z</time>
      </trkpt>
      <trkpt lat="43.77532" lon="3.53028">
        <ele>567.9</ele>
        <time>2023-05-14T07:32:09.000Z</time>
      </trkpt>
      <trkpt lat="43.77525" lon="3.53016">
        <ele>568.4</ele>
        <time>2023-05-14T07:32:13.000Z</time>
      </trkpt>
      <trkpt lat="43.77517" lon="3.53004">
        <ele>568.9</ele>
        <time>2023-05-14T07:32:17.000Z</time>
      </trkpt>
      <trkpt lat="43.77509" lon="3.52995">
        <ele>569.5</ele>
        <time>2023-05-14T07:32:21.000Z</time>
      </trkpt>
      <trkpt lat="43.77501" lon="3.52988">
        <ele>570.1</ele>
        <time>2023-05-14T07:32:24.000Z</time>
      </trkpt>
      <trkpt lat="43.77492" lon="3.52977">
        <ele>570.8</ele>
        <time>2023-05-14T07:32:28.000Z</time>
      </trkpt>
      <trkpt lat="43.77483" lon="3.52966">
        <ele>571.4</ele>
        <time>2023-05-14T07:32:32.000Z</time>
      </trkpt>
      <trkpt lat="43.77475" lon="3.52955">
        <ele>572.1</ele>
        <time>2023-05-14T07:32:36.000Z</time>
      </trkpt>
      <trkpt lat="43.77466" lon="3.52945">
        <ele>573</ele>
        <time>2023-05-14T07:32:40.000Z</time>
      </trkpt>
      <trkpt lat="43.77459" lon="3.52936">
        <ele>574</ele>
        <time>2023-05-14T07:32:44.000Z</time>
      </trkpt>
      <trkpt lat="43.77451" lon="3.52927">
        <ele>575.2</ele>
        <time>2023-05-14T07:32:48.000Z</time>
      </trkpt>
      <trkpt lat="43.77443" lon="3.52919">
        <ele>576.3</ele>
        <time>2023-05-14T07:32:52.000Z</time>
      </trkpt>
      <trkpt lat="43.77435" lon="3.52911">
        <ele>577.3</ele>
        <time>2023-05-14T07:32:56.000Z</time>
      </trkpt>
      <trkpt lat="43.77427" lon="3.52903">
        <ele>578.2</ele>
        <time>2023-05-14T07:33:00.000Z</time>
      </trkpt>
      <trkpt lat="43.7742" lon="3.52894">
        <ele>579</ele>
        <time>2023-05-14T07:33:04.000Z</time>
      </trkpt>
      <trkpt lat="43.77413" lon="3.52885">
        <ele>579.9</ele>
        <time>2023-05-14T07:33:08.000Z</time>
      </trkpt>
      <trkpt lat="43.77406" lon="3.52874">
        <ele>580.8</ele>
        <time>2023-05-14T07:33:12.000Z</time>
      </trkpt>
      <trkpt lat="43.774" lon="3.52862">
        <ele>581.6</ele>
        <time>2023-05-14T07:33:16.000Z</time>
      </trkpt>
      <trkpt lat="43.77399" lon="3.52849">
        <ele>582.8</ele>
        <time>2023-05-14T07:33:20.000Z</time>
      </trkpt>
      <trkpt lat="43.774" lon="3.52836">
        <ele>584.5</ele>
        <time>2023-05-14T07:33:24.000Z</time>
      </trkpt>
      <trkpt lat="43.77396" lon="3.52824">
        <ele>586.3</ele>
        <time>2023-05-14T07:33:28.000Z</time>
      </trkpt>
      <trkpt lat="43.77387" lon="3.52818">
        <ele>588.2</ele>
        <time>2023-05-14T07:33:32.000Z</time>
      </trkpt>
      <trkpt lat="43.77377" lon="3.52814">
        <ele>589.5</ele>
        <time>2023-05-14T07:33:36.000Z</time>
      </trkpt>
      <trkpt lat="43.77367" lon="3.5281">
        <ele>590.5</ele>
        <time>2023-05-14T07:33:40.000Z</time>
      </trkpt>
      <trkpt lat="43.77357" lon="3.52805">
        <ele>591.1</ele>
        <time>2023-05-14T07:33:44.000Z</time>
      </trkpt>
      <trkpt lat="43.77347" lon="3.52799">
        <ele>591.8</ele>
        <time>2023-05-14T07:33:48.000Z</time>
      </trkpt>
      <trkpt lat="43.77338" lon="3.52792">
        <ele>592.8</ele>
        <time>2023-05-14T07:33:52.000Z</time>
      </trkpt>
      <trkpt lat="43.77328" lon="3.52786">
        <ele>593.9</ele>
        <time>2023-05-14T07:33:56.000Z</time>
      </trkpt>
      <trkpt lat="43.77319" lon="3.52779">
        <ele>594.8</ele>
        <time>2023-05-14T07:34:00.000Z</time>
      </trkpt>
      <trkpt lat="43.77309" lon="3.52772">
        <ele>595.9</ele>
        <time>2023-05-14T07:34:04.000Z</time>
      </trkpt>
      <trkpt lat="43.77299" lon="3.52763">
        <ele>596.6</ele>
        <time>2023-05-14T07:34:08.000Z</time>
      </trkpt>
      <trkpt lat="43.7729" lon="3.52755">
        <ele>597.2</ele>
        <time>2023-05-14T07:34:12.000Z</time>
      </trkpt>
      <trkpt lat="43.77282" lon="3.52745">
        <ele>597.9</ele>
        <time>2023-05-14T07:34:16.000Z</time>
      </trkpt>
      <trkpt lat="43.77276" lon="3.52734">
        <ele>598.8</ele>
        <time>2023-05-14T07:34:20.000Z</time>
      </trkpt>
      <trkpt lat="43.77269" lon="3.52722">
        <ele>600.1</ele>
        <time>2023-05-14T07:34:24.000Z</time>
      </trkpt>
      <trkpt lat="43.77263" lon="3.5271">
        <ele>601.1</ele>
        <time>2023-05-14T07:34:28.000Z</time>
      </trkpt>
      <trkpt lat="43.77257" lon="3.52698">
        <ele>602.4</ele>
        <time>2023-05-14T07:34:32.000Z</time>
      </trkpt>
      <trkpt lat="43.77249" lon="3.52688">
        <ele>603.4</ele>
        <time>2023-05-14T07:34:36.000Z</time>
      </trkpt>
      <trkpt lat="43.77243" lon="3.52676">
        <ele>604.5</ele>
        <time>2023-05-14T07:34:40.000Z</time>
      </trkpt>
      <trkpt lat="43.77241" lon="3.52662">
        <ele>605.7</ele>
        <time>2023-05-14T07:34:44.000Z</time>
      </trkpt>
      <trkpt lat="43.77237" lon="3.52649">
        <ele>606.7</ele>
        <time>2023-05-14T07:34:48.000Z</time>
      </trkpt>
      <trkpt lat="43.77234" lon="3.52634">
        <ele>607.3</ele>
        <time>2023-05-14T07:34:52.000Z</time>
      </trkpt>
      <trkpt lat="43.77235" lon="3.52619">
        <ele>607.9</ele>
        <time>2023-05-14T07:34:56.000Z</time>
      </trkpt>
      <trkpt lat="43.77238" lon="3.52605">
        <ele>608.7</ele>
        <time>2023-05-14T07:35:00.000Z</time>
      </trkpt>
      <trkpt lat="43.77238" lon="3.52593">
        <ele>609</ele>
        <time>2023-05-14T07:35:03.000Z</time>
      </trkpt>
      <trkpt lat="43.77238" lon="3.52579">
        <ele>609.1</ele>
        <time>2023-05-14T07:35:06.000Z</time>
      </trkpt>
      <trkpt lat="43.7724" lon="3.52564">
        <ele>609.4</ele>
        <time>2023-05-14T07:35:09.000Z</time>
      </trkpt>
      <trkpt lat="43.7724" lon="3.5255">
        <ele>609.9</ele>
        <time>2023-05-14T07:35:12.000Z</time>
      </trkpt>
      <trkpt lat="43.77233" lon="3.5254">
        <ele>610.6</ele>
        <time>2023-05-14T07:35:15.000Z</time>
      </trkpt>
      <trkpt lat="43.77222" lon="3.52534">
        <ele>611.5</ele>
        <time>2023-05-14T07:35:19.000Z</time>
      </trkpt>
      <trkpt lat="43.77213" lon="3.52527">
        <ele>612.8</ele>
        <time>2023-05-14T07:35:23.000Z</time>
      </trkpt>
      <trkpt lat="43.77204" lon="3.52517">
        <ele>614.4</ele>
        <time>2023-05-14T07:35:27.000Z</time>
      </trkpt>
      <trkpt lat="43.77199" lon="3.52503">
        <ele>615.5</ele>
        <time>2023-05-14T07:35:31.000Z</time>
      </trkpt>
      <trkpt lat="43.77197" lon="3.52489">
        <ele>616.5</ele>
        <time>2023-05-14T07:35:35.000Z</time>
      </trkpt>
      <trkpt lat="43.77197" lon="3.52475">
        <ele>617.4</ele>
        <time>2023-05-14T07:35:39.000Z</time>
      </trkpt>
      <trkpt lat="43.77196" lon="3.5246">
        <ele>618.2</ele>
        <time>2023-05-14T07:35:43.000Z</time>
      </trkpt>
      <trkpt lat="43.77191" lon="3.52448">
        <ele>619</ele>
        <time>2023-05-14T07:35:47.000Z</time>
      </trkpt>
      <trkpt lat="43.77184" lon="3.52439">
        <ele>619.9</ele>
        <time>2023-05-14T07:35:51.000Z</time>
      </trkpt>
      <trkpt lat="43.77175" lon="3.52434">
        <ele>621.1</ele>
        <time>2023-05-14T07:35:55.000Z</time>
      </trkpt>
      <trkpt lat="43.77166" lon="3.52431">
        <ele>622.5</ele>
        <time>2023-05-14T07:36:00.000Z</time>
      </trkpt>
      <trkpt lat="43.77156" lon="3.52426">
        <ele>623.8</ele>
        <time>2023-05-14T07:36:06.000Z</time>
      </trkpt>
      <trkpt lat="43.77146" lon="3.5242">
        <ele>624.6</ele>
        <time>2023-05-14T07:36:10.000Z</time>
      </trkpt>
      <trkpt lat="43.77137" lon="3.52415">
        <ele>625.6</ele>
        <time>2023-05-14T07:36:14.000Z</time>
      </trkpt>
      <trkpt lat="43.77129" lon="3.52409">
        <ele>627.1</ele>
        <time>2023-05-14T07:36:18.000Z</time>
      </trkpt>
      <trkpt lat="43.77119" lon="3.52404">
        <ele>628.7</ele>
        <time>2023-05-14T07:36:22.000Z</time>
      </trkpt>
      <trkpt lat="43.7711" lon="3.52397">
        <ele>630.2</ele>
        <time>2023-05-14T07:36:26.000Z</time>
      </trkpt>
      <trkpt lat="43.77101" lon="3.52388">
        <ele>631.6</ele>
        <time>2023-05-14T07:36:30.000Z</time>
      </trkpt>
      <trkpt lat="43.77093" lon="3.52379">
        <ele>632.5</ele>
        <time>2023-05-14T07:36:34.000Z</time>
      </trkpt>
      <trkpt lat="43.77085" lon="3.5237">
        <ele>633.5</ele>
        <time>2023-05-14T07:36:38.000Z</time>
      </trkpt>
      <trkpt lat="43.77078" lon="3.52361">
        <ele>634.6</ele>
        <time>2023-05-14T07:36:42.000Z</time>
      </trkpt>
      <trkpt lat="43.77069" lon="3.52351">
        <ele>635.7</ele>
        <time>2023-05-14T07:36:46.000Z</time>
      </trkpt>
      <trkpt lat="43.77061" lon="3.5234">
        <ele>637</ele>
        <time>2023-05-14T07:36:50.000Z</time>
      </trkpt>
      <trkpt lat="43.77054" lon="3.52327">
        <ele>637.8</ele>
        <time>2023-05-14T07:36:54.000Z</time>
      </trkpt>
      <trkpt lat="43.77049" lon="3.52314">
        <ele>638.2</ele>
        <time>2023-05-14T07:36:57.000Z</time>
      </trkpt>
      <trkpt lat="43.77047" lon="3.52302">
        <ele>638.6</ele>
        <time>2023-05-14T07:37:00.000Z</time>
      </trkpt>
      <trkpt lat="43.77046" lon="3.52289">
        <ele>639</ele>
        <time>2023-05-14T07:37:03.000Z</time>
      </trkpt>
      <trkpt lat="43.77043" lon="3.52273">
        <ele>639.1</ele>
        <time>2023-05-14T07:37:06.000Z</time>
      </trkpt>
      <trkpt lat="43.77042" lon="3.5226">
        <ele>639.1</ele>
        <time>2023-05-14T07:37:08.000Z</time>
      </trkpt>
      <trkpt lat="43.77042" lon="3.52246">
        <ele>639.1</ele>
        <time>2023-05-14T07:37:10.000Z</time>
      </trkpt>
      <trkpt lat="43.77044" lon="3.52234">
        <ele>639</ele>
        <time>2023-05-14T07:37:12.000Z</time>
      </trkpt>
      <trkpt lat="43.77047" lon="3.52219">
        <ele>639.1</ele>
        <time>2023-05-14T07:37:15.000Z</time>
      </trkpt>
      <trkpt lat="43.77044" lon="3.52203">
        <ele>639.1</ele>
        <time>2023-05-14T07:37:18.000Z</time>
      </trkpt>
      <trkpt lat="43.77035" lon="3.52196">
        <ele>639</ele>
        <time>2023-05-14T07:37:21.000Z</time>
      </trkpt>
      <trkpt lat="43.77025" lon="3.52191">
        <ele>639</ele>
        <time>2023-05-14T07:37:24.000Z</time>
      </trkpt>
      <trkpt lat="43.77015" lon="3.52186">
        <ele>639</ele>
        <time>2023-05-14T07:37:27.000Z</time>
      </trkpt>
      <trkpt lat="43.77006" lon="3.5218">
        <ele>639.1</ele>
        <time>2023-05-14T07:37:30.000Z</time>
      </trkpt>
      <trkpt lat="43.76997" lon="3.52174">
        <ele>639.4</ele>
        <time>2023-05-14T07:37:33.000Z</time>
      </trkpt>
      <trkpt lat="43.76988" lon="3.52169">
        <ele>639.9</ele>
        <time>2023-05-14T07:37:36.000Z</time>
      </trkpt>
      <trkpt lat="43.7698" lon="3.52164">
        <ele>640.5</ele>
        <time>2023-05-14T07:37:39.000Z</time>
      </trkpt>
      <trkpt lat="43.76971" lon="3.5216">
        <ele>641.4</ele>
        <time>2023-05-14T07:37:42.000Z</time>
      </trkpt>
      <trkpt lat="43.76962" lon="3.52156">
        <ele>642.5</ele>
        <time>2023-05-14T07:37:45.000Z</time>
      </trkpt>
      <trkpt lat="43.76954" lon="3.52152">
        <ele>643.7</ele>
        <time>2023-05-14T07:37:48.000Z</time>
      </trkpt>
      <trkpt lat="43.76944" lon="3.52143">
        <ele>645.1</ele>
        <time>2023-05-14T07:37:52.000Z</time>
      </trkpt>
      <trkpt lat="43.76936" lon="3.52132">
        <ele>646.5</ele>
        <time>2023-05-14T07:37:56.000Z</time>
      </trkpt>
      <trkpt lat="43.7693" lon="3.5212">
        <ele>647.9</ele>
        <time>2023-05-14T07:38:00.000Z</time>
      </trkpt>
      <trkpt lat="43.76922" lon="3.52108">
        <ele>649</ele>
        <time>2023-05-14T07:38:04.000Z</time>
      </trkpt>
      <trkpt lat="43.76916" lon="3.52096">
        <ele>649.7</ele>
        <time>2023-05-14T07:38:08.000Z</time>
      </trkpt>
      <trkpt lat="43.76909" lon="3.52082">
        <ele>650.4</ele>
        <time>2023-05-14T07:38:12.000Z</time>
      </trkpt>
      <trkpt lat="43.76904" lon="3.52068">
        <ele>651.3</ele>
        <time>2023-05-14T07:38:16.000Z</time>
      </trkpt>
      <trkpt lat="43.76901" lon="3.52054">
        <ele>652.4</ele>
        <time>2023-05-14T07:38:20.000Z</time>
      </trkpt>
      <trkpt lat="43.76898" lon="3.52042">
        <ele>653.6</ele>
        <time>2023-05-14T07:38:24.000Z</time>
      </trkpt>
      <trkpt lat="43.76891" lon="3.52032">
        <ele>655</ele>
        <time>2023-05-14T07:38:28.000Z</time>
      </trkpt>
      <trkpt lat="43.76884" lon="3.52023">
        <ele>657.5</ele>
        <time>2023-05-14T07:38:32.000Z</time>
      </trkpt>
      <trkpt lat="43.76874" lon="3.52021">
        <ele>659.5</ele>
        <time>2023-05-14T07:38:36.000Z</time>
      </trkpt>
      <trkpt lat="43.76864" lon="3.52022">
        <ele>660.6</ele>
        <time>2023-05-14T07:38:40.000Z</time>
      </trkpt>
      <trkpt lat="43.76854" lon="3.52022">
        <ele>661.5</ele>
        <time>2023-05-14T07:38:44.000Z</time>
      </trkpt>
      <trkpt lat="43.76845" lon="3.52019">
        <ele>662.8</ele>
        <time>2023-05-14T07:38:48.000Z</time>
      </trkpt>
      <trkpt lat="43.76835" lon="3.52015">
        <ele>664.4</ele>
        <time>2023-05-14T07:38:53.000Z</time>
      </trkpt>
      <trkpt lat="43.76824" lon="3.52009">
        <ele>666.5</ele>
        <time>2023-05-14T07:38:58.000Z</time>
      </trkpt>
      <trkpt lat="43.76816" lon="3.52002">
        <ele>668.1</ele>
        <time>2023-05-14T07:39:02.000Z</time>
      </trkpt>
      <trkpt lat="43.76808" lon="3.51995">
        <ele>669.2</ele>
        <time>2023-05-14T07:39:06.000Z</time>
      </trkpt>
      <trkpt lat="43.76798" lon="3.5199">
        <ele>671</ele>
        <time>2023-05-14T07:39:10.000Z</time>
      </trkpt>
      <trkpt lat="43.76787" lon="3.51985">
        <ele>672.1</ele>
        <time>2023-05-14T07:39:14.000Z</time>
      </trkpt>
      <trkpt lat="43.76778" lon="3.5198">
        <ele>672.7</ele>
        <time>2023-05-14T07:39:17.000Z</time>
      </trkpt>
      <trkpt lat="43.76765" lon="3.51974">
        <ele>672.6</ele>
        <time>2023-05-14T07:39:20.000Z</time>
      </trkpt>
      <trkpt lat="43.76755" lon="3.51967">
        <ele>672.7</ele>
        <time>2023-05-14T07:39:22.000Z</time>
      </trkpt>
      <trkpt lat="43.76744" lon="3.5196">
        <ele>672.7</ele>
        <time>2023-05-14T07:39:25.000Z</time>
      </trkpt>
      <trkpt lat="43.76735" lon="3.51951">
        <ele>673</ele>
        <time>2023-05-14T07:39:29.000Z</time>
      </trkpt>
      <trkpt lat="43.76726" lon="3.51942">
        <ele>673.5</ele>
        <time>2023-05-14T07:39:33.000Z</time>
      </trkpt>
      <trkpt lat="43.76717" lon="3.51934">
        <ele>674.4</ele>
        <time>2023-05-14T07:39:37.000Z</time>
      </trkpt>
      <trkpt lat="43.76707" lon="3.51928">
        <ele>675.4</ele>
        <time>2023-05-14T07:39:41.000Z</time>
      </trkpt>
      <trkpt lat="43.76696" lon="3.51922">
        <ele>676</ele>
        <time>2023-05-14T07:39:45.000Z</time>
      </trkpt>
      <trkpt lat="43.76687" lon="3.51918">
        <ele>676.2</ele>
        <time>2023-05-14T07:39:48.000Z</time>
      </trkpt>
      <trkpt lat="43.76676" lon="3.51911">
        <ele>676.5</ele>
        <time>2023-05-14T07:39:52.000Z</time>
      </trkpt>
      <trkpt lat="43.76668" lon="3.51905">
        <ele>676.8</ele>
        <time>2023-05-14T07:39:55.000Z</time>
      </trkpt>
      <trkpt lat="43.76659" lon="3.51899">
        <ele>676.9</ele>
        <time>2023-05-14T07:39:58.000Z</time>
      </trkpt>
      <trkpt lat="43.76651" lon="3.51892">
        <ele>677</ele>
        <time>2023-05-14T07:40:01.000Z</time>
      </trkpt>
      <trkpt lat="43.76644" lon="3.51883">
        <ele>677.2</ele>
        <time>2023-05-14T07:40:04.000Z</time>
      </trkpt>
      <trkpt lat="43.76636" lon="3.51871">
        <ele>677.5</ele>
        <time>2023-05-14T07:40:08.000Z</time>
      </trkpt>
      <trkpt lat="43.76628" lon="3.51862">
        <ele>677.8</ele>
        <time>2023-05-14T07:40:11.000Z</time>
      </trkpt>
      <trkpt lat="43.7662" lon="3.51856">
        <ele>677.8</ele>
        <time>2023-05-14T07:40:13.000Z</time>
      </trkpt>
      <trkpt lat="43.76613" lon="3.51847">
        <ele>677.7</ele>
        <time>2023-05-14T07:40:15.000Z</time>
      </trkpt>
      <trkpt lat="43.76605" lon="3.51837">
        <ele>677.7</ele>
        <time>2023-05-14T07:40:17.000Z</time>
      </trkpt>
      <trkpt lat="43.76597" lon="3.51826">
        <ele>677.5</ele>
        <time>2023-05-14T07:40:19.000Z</time>
      </trkpt>
      <trkpt lat="43.76588" lon="3.51814">
        <ele>677.3</ele>
        <time>2023-05-14T07:40:21.000Z</time>
      </trkpt>
      <trkpt lat="43.76582" lon="3.51798">
        <ele>676.9</ele>
        <time>2023-05-14T07:40:23.000Z</time>
      </trkpt>
      <trkpt lat="43.7658" lon="3.51781">
        <ele>676.6</ele>
        <time>2023-05-14T07:40:25.000Z</time>
      </trkpt>
      <trkpt lat="43.76578" lon="3.51766">
        <ele>676.4</ele>
        <time>2023-05-14T07:40:27.000Z</time>
      </trkpt>
      <trkpt lat="43.76574" lon="3.51755">
        <ele>676</ele>
        <time>2023-05-14T07:40:29.000Z</time>
      </trkpt>
      <trkpt lat="43.76564" lon="3.51743">
        <ele>675.4</ele>
        <time>2023-05-14T07:40:32.000Z</time>
      </trkpt>
      <trkpt lat="43.76555" lon="3.51734">
        <ele>675.3</ele>
        <time>2023-05-14T07:40:35.000Z</time>
      </trkpt>
      <trkpt lat="43.76547" lon="3.51726">
        <ele>675.3</ele>
        <time>2023-05-14T07:40:38.000Z</time>
      </trkpt>
      <trkpt lat="43.76539" lon="3.51716">
        <ele>675.5</ele>
        <time>2023-05-14T07:40:41.000Z</time>
      </trkpt>
      <trkpt lat="43.76532" lon="3.51706">
        <ele>675.7</ele>
        <time>2023-05-14T07:40:44.000Z</time>
      </trkpt>
      <trkpt lat="43.76526" lon="3.51695">
        <ele>675.8</ele>
        <time>2023-05-14T07:40:47.000Z</time>
      </trkpt>
      <trkpt lat="43.76517" lon="3.51682">
        <ele>675.8</ele>
        <time>2023-05-14T07:40:50.000Z</time>
      </trkpt>
      <trkpt lat="43.7651" lon="3.51673">
        <ele>675.8</ele>
        <time>2023-05-14T07:40:52.000Z</time>
      </trkpt>
      <trkpt lat="43.76503" lon="3.51664">
        <ele>675.7</ele>
        <time>2023-05-14T07:40:54.000Z</time>
      </trkpt>
      <trkpt lat="43.76495" lon="3.51655">
        <ele>675.7</ele>
        <time>2023-05-14T07:40:56.000Z</time>
      </trkpt>
      <trkpt lat="43.76488" lon="3.51646">
        <ele>675.6</ele>
        <time>2023-05-14T07:40:58.000Z</time>
      </trkpt>
      <trkpt lat="43.7648" lon="3.51632">
        <ele>675.5</ele>
        <time>2023-05-14T07:41:01.000Z</time>
      </trkpt>
      <trkpt lat="43.76474" lon="3.51618">
        <ele>675.4</ele>
        <time>2023-05-14T07:41:04.000Z</time>
      </trkpt>
      <trkpt lat="43.76471" lon="3.51605">
        <ele>675.4</ele>
        <time>2023-05-14T07:41:07.000Z</time>
      </trkpt>
      <trkpt lat="43.76468" lon="3.51592">
        <ele>675.5</ele>
        <time>2023-05-14T07:41:10.000Z</time>
      </trkpt>
      <trkpt lat="43.76466" lon="3.51578">
        <ele>675.7</ele>
        <time>2023-05-14T07:41:13.000Z</time>
      </trkpt>
      <trkpt lat="43.76466" lon="3.51565">
        <ele>676.1</ele>
        <time>2023-05-14T07:41:16.000Z</time>
      </trkpt>
      <trkpt lat="43.76465" lon="3.51552">
        <ele>676.6</ele>
        <time>2023-05-14T07:41:19.000Z</time>
      </trkpt>
      <trkpt lat="43.76467" lon="3.51539">
        <ele>677.2</ele>
        <time>2023-05-14T07:41:22.000Z</time>
      </trkpt>
      <trkpt lat="43.76471" lon="3.51527">
        <ele>677.8</ele>
        <time>2023-05-14T07:41:25.000Z</time>
      </trkpt>
      <trkpt lat="43.76476" lon="3.51516">
        <ele>678.6</ele>
        <time>2023-05-14T07:41:28.000Z</time>
      </trkpt>
      <trkpt lat="43.7648" lon="3.51505">
        <ele>679.9</ele>
        <time>2023-05-14T07:41:31.000Z</time>
      </trkpt>
      <trkpt lat="43.76477" lon="3.51491">
        <ele>680.9</ele>
        <time>2023-05-14T07:41:35.000Z</time>
      </trkpt>
      <trkpt lat="43.7647" lon="3.51484">
        <ele>682</ele>
        <time>2023-05-14T07:41:40.000Z</time>
      </trkpt>
      <trkpt lat="43.76462" lon="3.51474">
        <ele>683.7</ele>
        <time>2023-05-14T07:41:45.000Z</time>
      </trkpt>
      <trkpt lat="43.76454" lon="3.51466">
        <ele>685.1</ele>
        <time>2023-05-14T07:41:49.000Z</time>
      </trkpt>
      <trkpt lat="43.76448" lon="3.51456">
        <ele>686.4</ele>
        <time>2023-05-14T07:41:53.000Z</time>
      </trkpt>
      <trkpt lat="43.76443" lon="3.51443">
        <ele>688</ele>
        <time>2023-05-14T07:41:57.000Z</time>
      </trkpt>
      <trkpt lat="43.7644" lon="3.5143">
        <ele>689.3</ele>
        <time>2023-05-14T07:42:01.000Z</time>
      </trkpt>
      <trkpt lat="43.76438" lon="3.51415">
        <ele>690.2</ele>
        <time>2023-05-14T07:42:05.000Z</time>
      </trkpt>
      <trkpt lat="43.76436" lon="3.51402">
        <ele>690.5</ele>
        <time>2023-05-14T07:42:08.000Z</time>
      </trkpt>
      <trkpt lat="43.76434" lon="3.51387">
        <ele>690.7</ele>
        <time>2023-05-14T07:42:11.000Z</time>
      </trkpt>
      <trkpt lat="43.76431" lon="3.51371">
        <ele>690.7</ele>
        <time>2023-05-14T07:42:14.000Z</time>
      </trkpt>
      <trkpt lat="43.76427" lon="3.51358">
        <ele>691</ele>
        <time>2023-05-14T07:42:18.000Z</time>
      </trkpt>
      <trkpt lat="43.76422" lon="3.51346">
        <ele>691.8</ele>
        <time>2023-05-14T07:42:23.000Z</time>
      </trkpt>
      <trkpt lat="43.76419" lon="3.5133">
        <ele>693.1</ele>
        <time>2023-05-14T07:42:28.000Z</time>
      </trkpt>
      <trkpt lat="43.76415" lon="3.51317">
        <ele>694.3</ele>
        <time>2023-05-14T07:42:32.000Z</time>
      </trkpt>
      <trkpt lat="43.76412" lon="3.51304">
        <ele>695.5</ele>
        <time>2023-05-14T07:42:36.000Z</time>
      </trkpt>
      <trkpt lat="43.76406" lon="3.5129">
        <ele>696.4</ele>
        <time>2023-05-14T07:42:40.000Z</time>
      </trkpt>
      <trkpt lat="43.76398" lon="3.51277">
        <ele>697.3</ele>
        <time>2023-05-14T07:42:44.000Z</time>
      </trkpt>
      <trkpt lat="43.76393" lon="3.51267">
        <ele>698</ele>
        <time>2023-05-14T07:42:47.000Z</time>
      </trkpt>
      <trkpt lat="43.76388" lon="3.51252">
        <ele>699</ele>
        <time>2023-05-14T07:42:51.000Z</time>
      </trkpt>
      <trkpt lat="43.76383" lon="3.51238">
        <ele>699.7</ele>
        <time>2023-05-14T07:42:55.000Z</time>
      </trkpt>
      <trkpt lat="43.76376" lon="3.5123">
        <ele>701.3</ele>
        <time>2023-05-14T07:42:59.000Z</time>
      </trkpt>
      <trkpt lat="43.76368" lon="3.51223">
        <ele>702.9</ele>
        <time>2023-05-14T07:43:03.000Z</time>
      </trkpt>
      <trkpt lat="43.76359" lon="3.51215">
        <ele>705.7</ele>
        <time>2023-05-14T07:43:08.000Z</time>
      </trkpt>
      <trkpt lat="43.76349" lon="3.51208">
        <ele>708.1</ele>
        <time>2023-05-14T07:43:13.000Z</time>
      </trkpt>
      <trkpt lat="43.76339" lon="3.51205">
        <ele>709.5</ele>
        <time>2023-05-14T07:43:17.000Z</time>
      </trkpt>
      <trkpt lat="43.76327" lon="3.51202">
        <ele>710.7</ele>
        <time>2023-05-14T07:43:21.000Z</time>
      </trkpt>
      <trkpt lat="43.76318" lon="3.51199">
        <ele>711.2</ele>
        <time>2023-05-14T07:43:24.000Z</time>
      </trkpt>
      <trkpt lat="43.76309" lon="3.51197">
        <ele>711.6</ele>
        <time>2023-05-14T07:43:27.000Z</time>
      </trkpt>
      <trkpt lat="43.763" lon="3.51195">
        <ele>712</ele>
        <time>2023-05-14T07:43:30.000Z</time>
      </trkpt>
      <trkpt lat="43.7629" lon="3.51193">
        <ele>712.4</ele>
        <time>2023-05-14T07:43:33.000Z</time>
      </trkpt>
      <trkpt lat="43.76281" lon="3.51192">
        <ele>712.9</ele>
        <time>2023-05-14T07:43:36.000Z</time>
      </trkpt>
      <trkpt lat="43.76271" lon="3.5119">
        <ele>713.5</ele>
        <time>2023-05-14T07:43:39.000Z</time>
      </trkpt>
      <trkpt lat="43.76262" lon="3.51188">
        <ele>713.9</ele>
        <time>2023-05-14T07:43:42.000Z</time>
      </trkpt>
      <trkpt lat="43.76253" lon="3.51185">
        <ele>714.2</ele>
        <time>2023-05-14T07:43:45.000Z</time>
      </trkpt>
      <trkpt lat="43.76245" lon="3.51179">
        <ele>714.5</ele>
        <time>2023-05-14T07:43:48.000Z</time>
      </trkpt>
      <trkpt lat="43.76237" lon="3.51172">
        <ele>714.9</ele>
        <time>2023-05-14T07:43:51.000Z</time>
      </trkpt>
      <trkpt lat="43.76231" lon="3.51163">
        <ele>715.2</ele>
        <time>2023-05-14T07:43:54.000Z</time>
      </trkpt>
      <trkpt lat="43.76227" lon="3.51152">
        <ele>715.5</ele>
        <time>2023-05-14T07:43:57.000Z</time>
      </trkpt>
      <trkpt lat="43.76225" lon="3.51139">
        <ele>716</ele>
        <time>2023-05-14T07:44:00.000Z</time>
      </trkpt>
      <trkpt lat="43.76224" lon="3.51127">
        <ele>716.4</ele>
        <time>2023-05-14T07:44:03.000Z</time>
      </trkpt>
      <trkpt lat="43.76224" lon="3.51112">
        <ele>716.8</ele>
        <time>2023-05-14T07:44:06.000Z</time>
      </trkpt>
      <trkpt lat="43.76225" lon="3.51097">
        <ele>716.8</ele>
        <time>2023-05-14T07:44:09.000Z</time>
      </trkpt>
      <trkpt lat="43.76226" lon="3.51084">
        <ele>716.8</ele>
        <time>2023-05-14T07:44:12.000Z</time>
      </trkpt>
      <trkpt lat="43.76228" lon="3.51071">
        <ele>716.9</ele>
        <time>2023-05-14T07:44:15.000Z</time>
      </trkpt>
      <trkpt lat="43.7623" lon="3.51058">
        <ele>716.9</ele>
        <time>2023-05-14T07:44:18.000Z</time>
      </trkpt>
      <trkpt lat="43.76229" lon="3.51043">
        <ele>717.2</ele>
        <time>2023-05-14T07:44:22.000Z</time>
      </trkpt>
      <trkpt lat="43.76226" lon="3.51028">
        <ele>718.3</ele>
        <time>2023-05-14T07:44:27.000Z</time>
      </trkpt>
      <trkpt lat="43.76223" lon="3.51016">
        <ele>719.7</ele>
        <time>2023-05-14T07:44:31.000Z</time>
      </trkpt>
      <trkpt lat="43.7622" lon="3.51003">
        <ele>721</ele>
        <time>2023-05-14T07:44:35.000Z</time>
      </trkpt>
      <trkpt lat="43.76217" lon="3.50991">
        <ele>722.5</ele>
        <time>2023-05-14T07:44:39.000Z</time>
      </trkpt>
      <trkpt lat="43.76215" lon="3.50979">
        <ele>724</ele>
        <time>2023-05-14T07:44:43.000Z</time>
      </trkpt>
      <trkpt lat="43.76213" lon="3.50964">
        <ele>726</ele>
        <time>2023-05-14T07:44:48.000Z</time>
      </trkpt>
      <trkpt lat="43.76212" lon="3.5095">
        <ele>727.8</ele>
        <time>2023-05-14T07:44:53.000Z</time>
      </trkpt>
      <trkpt lat="43.76211" lon="3.50934">
        <ele>729.1</ele>
        <time>2023-05-14T07:44:58.000Z</time>
      </trkpt>
      <trkpt lat="43.76209" lon="3.50922">
        <ele>730.1</ele>
        <time>2023-05-14T07:45:02.000Z</time>
      </trkpt>
      <trkpt lat="43.76203" lon="3.5091">
        <ele>731.2</ele>
        <time>2023-05-14T07:45:06.000Z</time>
      </trkpt>
      <trkpt lat="43.76196" lon="3.50899">
        <ele>732.5</ele>
        <time>2023-05-14T07:45:10.000Z</time>
      </trkpt>
      <trkpt lat="43.7619" lon="3.50888">
        <ele>733.6</ele>
        <time>2023-05-14T07:45:14.000Z</time>
      </trkpt>
      <trkpt lat="43.76187" lon="3.50875">
        <ele>734.7</ele>
        <time>2023-05-14T07:45:18.000Z</time>
      </trkpt>
      <trkpt lat="43.76185" lon="3.50862">
        <ele>735.7</ele>
        <time>2023-05-14T07:45:22.000Z</time>
      </trkpt>
      <trkpt lat="43.76185" lon="3.50848">
        <ele>736.5</ele>
        <time>2023-05-14T07:45:26.000Z</time>
      </trkpt>
      <trkpt lat="43.76184" lon="3.50834">
        <ele>737.4</ele>
        <time>2023-05-14T07:45:30.000Z</time>
      </trkpt>
      <trkpt lat="43.76184" lon="3.5082">
        <ele>737.8</ele>
        <time>2023-05-14T07:45:34.000Z</time>
      </trkpt>
      <trkpt lat="43.76183" lon="3.50806">
        <ele>738.2</ele>
        <time>2023-05-14T07:45:38.000Z</time>
      </trkpt>
      <trkpt lat="43.76181" lon="3.50792">
        <ele>738.4</ele>
        <time>2023-05-14T07:45:42.000Z</time>
      </trkpt>
      <trkpt lat="43.76177" lon="3.50779">
        <ele>738.9</ele>
        <time>2023-05-14T07:45:46.000Z</time>
      </trkpt>
      <trkpt lat="43.76173" lon="3.50765">
        <ele>739.1</ele>
        <time>2023-05-14T07:45:50.000Z</time>
      </trkpt>
      <trkpt lat="43.76169" lon="3.50751">
        <ele>739.6</ele>
        <time>2023-05-14T07:45:54.000Z</time>
      </trkpt>
      <trkpt lat="43.76165" lon="3.50738">
        <ele>740.5</ele>
        <time>2023-05-14T07:45:58.000Z</time>
      </trkpt>
      <trkpt lat="43.76161" lon="3.50724">
        <ele>741.5</ele>
        <time>2023-05-14T07:46:02.000Z</time>
      </trkpt>
      <trkpt lat="43.76156" lon="3.50711">
        <ele>742.9</ele>
        <time>2023-05-14T07:46:06.000Z</time>
      </trkpt>
      <trkpt lat="43.76151" lon="3.50699">
        <ele>744.3</ele>
        <time>2023-05-14T07:46:10.000Z</time>
      </trkpt>
      <trkpt lat="43.76145" lon="3.50686">
        <ele>745.5</ele>
        <time>2023-05-14T07:46:14.000Z</time>
      </trkpt>
      <trkpt lat="43.76139" lon="3.50675">
        <ele>746.7</ele>
        <time>2023-05-14T07:46:18.000Z</time>
      </trkpt>
      <trkpt lat="43.7613" lon="3.50667">
        <ele>747.8</ele>
        <time>2023-05-14T07:46:22.000Z</time>
      </trkpt>
      <trkpt lat="43.76122" lon="3.50657">
        <ele>749.2</ele>
        <time>2023-05-14T07:46:26.000Z</time>
      </trkpt>
      <trkpt lat="43.76114" lon="3.50647">
        <ele>751</ele>
        <time>2023-05-14T07:46:30.000Z</time>
      </trkpt>
      <trkpt lat="43.76106" lon="3.50639">
        <ele>752.3</ele>
        <time>2023-05-14T07:46:34.000Z</time>
      </trkpt>
      <trkpt lat="43.76097" lon="3.50632">
        <ele>753.5</ele>
        <time>2023-05-14T07:46:38.000Z</time>
      </trkpt>
      <trkpt lat="43.76089" lon="3.50623">
        <ele>754.5</ele>
        <time>2023-05-14T07:46:42.000Z</time>
      </trkpt>
      <trkpt lat="43.7608" lon="3.50615">
        <ele>755.7</ele>
        <time>2023-05-14T07:46:46.000Z</time>
      </trkpt>
      <trkpt lat="43.76072" lon="3.50608">
        <ele>756.6</ele>
        <time>2023-05-14T07:46:49.000Z</time>
      </trkpt>
      <trkpt lat="43.76065" lon="3.50599">
        <ele>757.4</ele>
        <time>2023-05-14T07:46:52.000Z</time>
      </trkpt>
      <trkpt lat="43.76058" lon="3.50591">
        <ele>758.1</ele>
        <time>2023-05-14T07:46:55.000Z</time>
      </trkpt>
      <trkpt lat="43.76051" lon="3.50582">
        <ele>758.9</ele>
        <time>2023-05-14T07:46:58.000Z</time>
      </trkpt>
      <trkpt lat="43.76045" lon="3.50573">
        <ele>759.5</ele>
        <time>2023-05-14T07:47:01.000Z</time>
      </trkpt>
      <trkpt lat="43.76038" lon="3.5056">
        <ele>760.5</ele>
        <time>2023-05-14T07:47:05.000Z</time>
      </trkpt>
      <trkpt lat="43.76032" lon="3.50549">
        <ele>761.5</ele>
        <time>2023-05-14T07:47:09.000Z</time>
      </trkpt>
      <trkpt lat="43.76028" lon="3.50535">
        <ele>762.8</ele>
        <time>2023-05-14T07:47:14.000Z</time>
      </trkpt>
      <trkpt lat="43.76023" lon="3.50522">
        <ele>763.8</ele>
        <time>2023-05-14T07:47:18.000Z</time>
      </trkpt>
      <trkpt lat="43.76019" lon="3.5051">
        <ele>764.8</ele>
        <time>2023-05-14T07:47:22.000Z</time>
      </trkpt>
      <trkpt lat="43.76015" lon="3.50496">
        <ele>766.3</ele>
        <time>2023-05-14T07:47:26.000Z</time>
      </trkpt>
      <trkpt lat="43.76011" lon="3.50483">
        <ele>767.5</ele>
        <time>2023-05-14T07:47:30.000Z</time>
      </trkpt>
      <trkpt lat="43.76008" lon="3.50469">
        <ele>768.7</ele>
        <time>2023-05-14T07:47:34.000Z</time>
      </trkpt>
      <trkpt lat="43.76006" lon="3.50455">
        <ele>769.7</ele>
        <time>2023-05-14T07:47:38.000Z</time>
      </trkpt>
      <trkpt lat="43.76002" lon="3.5044">
        <ele>770.7</ele>
        <time>2023-05-14T07:47:42.000Z</time>
      </trkpt>
      <trkpt lat="43.75996" lon="3.5043">
        <ele>771.2</ele>
        <time>2023-05-14T07:47:45.000Z</time>
      </trkpt>
      <trkpt lat="43.75985" lon="3.5042">
        <ele>771.2</ele>
        <time>2023-05-14T07:47:48.000Z</time>
      </trkpt>
      <trkpt lat="43.75976" lon="3.5041">
        <ele>771.1</ele>
        <time>2023-05-14T07:47:50.000Z</time>
      </trkpt>
      <trkpt lat="43.75967" lon="3.504">
        <ele>770.9</ele>
        <time>2023-05-14T07:47:52.000Z</time>
      </trkpt>
      <trkpt lat="43.75956" lon="3.50393">
        <ele>770.6</ele>
        <time>2023-05-14T07:47:54.000Z</time>
      </trkpt>
      <trkpt lat="43.75946" lon="3.50384">
        <ele>770.3</ele>
        <time>2023-05-14T07:47:56.000Z</time>
      </trkpt>
      <trkpt lat="43.7594" lon="3.50375">
        <ele>770</ele>
        <time>2023-05-14T07:47:58.000Z</time>
      </trkpt>
      <trkpt lat="43.75934" lon="3.50363">
        <ele>769.7</ele>
        <time>2023-05-14T07:48:01.000Z</time>
      </trkpt>
      <trkpt lat="43.75929" lon="3.50352">
        <ele>769.8</ele>
        <time>2023-05-14T07:48:04.000Z</time>
      </trkpt>
      <trkpt lat="43.75928" lon="3.50339">
        <ele>770</ele>
        <time>2023-05-14T07:48:07.000Z</time>
      </trkpt>
      <trkpt lat="43.75929" lon="3.50323">
        <ele>770.5</ele>
        <time>2023-05-14T07:48:11.000Z</time>
      </trkpt>
      <trkpt lat="43.75922" lon="3.5031">
        <ele>771.3</ele>
        <time>2023-05-14T07:48:15.000Z</time>
      </trkpt>
      <trkpt lat="43.75916" lon="3.503">
        <ele>772.2</ele>
        <time>2023-05-14T07:48:18.000Z</time>
      </trkpt>
      <trkpt lat="43.75911" lon="3.50289">
        <ele>772.7</ele>
        <time>2023-05-14T07:48:21.000Z</time>
      </trkpt>
      <trkpt lat="43.75905" lon="3.50277">
        <ele>773.1</ele>
        <time>2023-05-14T07:48:24.000Z</time>
      </trkpt>
      <trkpt lat="43.75895" lon="3.50267">
        <ele>773.2</ele>
        <time>2023-05-14T07:48:27.000Z</time>
      </trkpt>
      <trkpt lat="43.75887" lon="3.50261">
        <ele>773.2</ele>
        <time>2023-05-14T07:48:29.000Z</time>
      </trkpt>
      <trkpt lat="43.75876" lon="3.50262">
        <ele>773</ele>
        <time>2023-05-14T07:48:31.000Z</time>
      </trkpt>
      <trkpt lat="43.75864" lon="3.50259">
        <ele>772.7</ele>
        <time>2023-05-14T07:48:33.000Z</time>
      </trkpt>
      <trkpt lat="43.75853" lon="3.50251">
        <ele>772.2</ele>
        <time>2023-05-14T07:48:35.000Z</time>
      </trkpt>
      <trkpt lat="43.75844" lon="3.50245">
        <ele>771.5</ele>
        <time>2023-05-14T07:48:37.000Z</time>
      </trkpt>
      <trkpt lat="43.75836" lon="3.50238">
        <ele>770.4</ele>
        <time>2023-05-14T07:48:39.000Z</time>
      </trkpt>
      <trkpt lat="43.7583" lon="3.50229">
        <ele>768.9</ele>
        <time>2023-05-14T07:48:41.000Z</time>
      </trkpt>
      <trkpt lat="43.75816" lon="3.50229">
        <ele>766.9</ele>
        <time>2023-05-14T07:48:44.000Z</time>
      </trkpt>
      <trkpt lat="43.75807" lon="3.50225">
        <ele>765.7</ele>
        <time>2023-05-14T07:48:46.000Z</time>
      </trkpt>
      <trkpt lat="43.75796" lon="3.5022">
        <ele>764.6</ele>
        <time>2023-05-14T07:48:48.000Z</time>
      </trkpt>
      <trkpt lat="43.75785" lon="3.50221">
        <ele>763.4</ele>
        <time>2023-05-14T07:48:50.000Z</time>
      </trkpt>
      <trkpt lat="43.75775" lon="3.5022">
        <ele>762.4</ele>
        <time>2023-05-14T07:48:52.000Z</time>
      </trkpt>
      <trkpt lat="43.75769" lon="3.50205">
        <ele>760.6</ele>
        <time>2023-05-14T07:48:55.000Z</time>
      </trkpt>
      <trkpt lat="43.75762" lon="3.50193">
        <ele>759.2</ele>
        <time>2023-05-14T07:48:57.000Z</time>
      </trkpt>
      <trkpt lat="43.75751" lon="3.50189">
        <ele>758</ele>
        <time>2023-05-14T07:48:59.000Z</time>
      </trkpt>
      <trkpt lat="43.75738" lon="3.50185">
        <ele>756.9</ele>
        <time>2023-05-14T07:49:01.000Z</time>
      </trkpt>
      <trkpt lat="43.75725" lon="3.50182">
        <ele>755.9</ele>
        <time>2023-05-14T07:49:03.000Z</time>
      </trkpt>
      <trkpt lat="43.75713" lon="3.50183">
        <ele>755.4</ele>
        <time>2023-05-14T07:49:05.000Z</time>
      </trkpt>
      <trkpt lat="43.75704" lon="3.50183">
        <ele>755.3</ele>
        <time>2023-05-14T07:49:07.000Z</time>
      </trkpt>
      <trkpt lat="43.75692" lon="3.50185">
        <ele>755.3</ele>
        <time>2023-05-14T07:49:10.000Z</time>
      </trkpt>
      <trkpt lat="43.7568" lon="3.50185">
        <ele>755.4</ele>
        <time>2023-05-14T07:49:13.000Z</time>
      </trkpt>
      <trkpt lat="43.75668" lon="3.50185">
        <ele>755.5</ele>
        <time>2023-05-14T07:49:16.000Z</time>
      </trkpt>
      <trkpt lat="43.75657" lon="3.50187">
        <ele>755.5</ele>
        <time>2023-05-14T07:49:19.000Z</time>
      </trkpt>
      <trkpt lat="43.75645" lon="3.50193">
        <ele>755.4</ele>
        <time>2023-05-14T07:49:22.000Z</time>
      </trkpt>
      <trkpt lat="43.75638" lon="3.5018">
        <ele>755.2</ele>
        <time>2023-05-14T07:49:25.000Z</time>
      </trkpt>
      <trkpt lat="43.75641" lon="3.50165">
        <ele>755.1</ele>
        <time>2023-05-14T07:49:27.000Z</time>
      </trkpt>
      <trkpt lat="43.75641" lon="3.50149">
        <ele>755</ele>
        <time>2023-05-14T07:49:29.000Z</time>
      </trkpt>
      <trkpt lat="43.75641" lon="3.50133">
        <ele>754.7</ele>
        <time>2023-05-14T07:49:31.000Z</time>
      </trkpt>
      <trkpt lat="43.75642" lon="3.50118">
        <ele>754.4</ele>
        <time>2023-05-14T07:49:33.000Z</time>
      </trkpt>
      <trkpt lat="43.75644" lon="3.50104">
        <ele>754.1</ele>
        <time>2023-05-14T07:49:35.000Z</time>
      </trkpt>
      <trkpt lat="43.75648" lon="3.50093">
        <ele>753.8</ele>
        <time>2023-05-14T07:49:37.000Z</time>
      </trkpt>
      <trkpt lat="43.75651" lon="3.5008">
        <ele>753.3</ele>
        <time>2023-05-14T07:49:39.000Z</time>
      </trkpt>
      <trkpt lat="43.75646" lon="3.50067">
        <ele>752.1</ele>
        <time>2023-05-14T07:49:42.000Z</time>
      </trkpt>
      <trkpt lat="43.75634" lon="3.50071">
        <ele>750.8</ele>
        <time>2023-05-14T07:49:45.000Z</time>
      </trkpt>
      <trkpt lat="43.75625" lon="3.50074">
        <ele>750.1</ele>
        <time>2023-05-14T07:49:47.000Z</time>
      </trkpt>
      <trkpt lat="43.75616" lon="3.50076">
        <ele>749.3</ele>
        <time>2023-05-14T07:49:49.000Z</time>
      </trkpt>
      <trkpt lat="43.75605" lon="3.50078">
        <ele>748.3</ele>
        <time>2023-05-14T07:49:51.000Z</time>
      </trkpt>
      <trkpt lat="43.75593" lon="3.50078">
        <ele>747.5</ele>
        <time>2023-05-14T07:49:53.000Z</time>
      </trkpt>
      <trkpt lat="43.7558" lon="3.5008">
        <ele>746.5</ele>
        <time>2023-05-14T07:49:55.000Z</time>
      </trkpt>
      <trkpt lat="43.75569" lon="3.50082">
        <ele>745.3</ele>
        <time>2023-05-14T07:49:57.000Z</time>
      </trkpt>
      <trkpt lat="43.75559" lon="3.50078">
        <ele>743.7</ele>
        <time>2023-05-14T07:49:59.000Z</time>
      </trkpt>
      <trkpt lat="43.75546" lon="3.50068">
        <ele>742.1</ele>
        <time>2023-05-14T07:50:01.000Z</time>
      </trkpt>
      <trkpt lat="43.75534" lon="3.50055">
        <ele>740.7</ele>
        <time>2023-05-14T07:50:03.000Z</time>
      </trkpt>
      <trkpt lat="43.75522" lon="3.50043">
        <ele>739.8</ele>
        <time>2023-05-14T07:50:05.000Z</time>
      </trkpt>
      <trkpt lat="43.75511" lon="3.50037">
        <ele>739.2</ele>
        <time>2023-05-14T07:50:07.000Z</time>
      </trkpt>
      <trkpt lat="43.75501" lon="3.5003">
        <ele>738.7</ele>
        <time>2023-05-14T07:50:09.000Z</time>
      </trkpt>
      <trkpt lat="43.75493" lon="3.50021">
        <ele>738.4</ele>
        <time>2023-05-14T07:50:11.000Z</time>
      </trkpt>
      <trkpt lat="43.75483" lon="3.5001">
        <ele>738.2</ele>
        <time>2023-05-14T07:50:14.000Z</time>
      </trkpt>
      <trkpt lat="43.75472" lon="3.50003">
        <ele>738.1</ele>
        <time>2023-05-14T07:50:17.000Z</time>
      </trkpt>
      <trkpt lat="43.75461" lon="3.49996">
        <ele>738.2</ele>
        <time>2023-05-14T07:50:20.000Z</time>
      </trkpt>
      <trkpt lat="43.75451" lon="3.49989">
        <ele>738.4</ele>
        <time>2023-05-14T07:50:23.000Z</time>
      </trkpt>
      <trkpt lat="43.75441" lon="3.49986">
        <ele>738.4</ele>
        <time>2023-05-14T07:50:26.000Z</time>
      </trkpt>
      <trkpt lat="43.75431" lon="3.49991">
        <ele>738.7</ele>
        <time>2023-05-14T07:50:29.000Z</time>
      </trkpt>
      <trkpt lat="43.7542" lon="3.49992">
        <ele>739.2</ele>
        <time>2023-05-14T07:50:32.000Z</time>
      </trkpt>
      <trkpt lat="43.75412" lon="3.49988">
        <ele>739.8</ele>
        <time>2023-05-14T07:50:35.000Z</time>
      </trkpt>
      <trkpt lat="43.75403" lon="3.49984">
        <ele>740.7</ele>
        <time>2023-05-14T07:50:38.000Z</time>
      </trkpt>
      <trkpt lat="43.75392" lon="3.49977">
        <ele>742</ele>
        <time>2023-05-14T07:50:42.000Z</time>
      </trkpt>
      <trkpt lat="43.75385" lon="3.4997">
        <ele>743</ele>
        <time>2023-05-14T07:50:45.000Z</time>
      </trkpt>
      <trkpt lat="43.75377" lon="3.4996">
        <ele>744</ele>
        <time>2023-05-14T07:50:48.000Z</time>
      </trkpt>
      <trkpt lat="43.75368" lon="3.49955">
        <ele>745.2</ele>
        <time>2023-05-14T07:50:51.000Z</time>
      </trkpt>
      <trkpt lat="43.75358" lon="3.49957">
        <ele>745.9</ele>
        <time>2023-05-14T07:50:54.000Z</time>
      </trkpt>
      <trkpt lat="43.75348" lon="3.49954">
        <ele>746.7</ele>
        <time>2023-05-14T07:50:57.000Z</time>
      </trkpt>
      <trkpt lat="43.7534" lon="3.49949">
        <ele>747.5</ele>
        <time>2023-05-14T07:51:00.000Z</time>
      </trkpt>
      <trkpt lat="43.75329" lon="3.49952">
        <ele>748.8</ele>
        <time>2023-05-14T07:51:04.000Z</time>
      </trkpt>
      <trkpt lat="43.75323" lon="3.49963">
        <ele>749.9</ele>
        <time>2023-05-14T07:51:07.000Z</time>
      </trkpt>
      <trkpt lat="43.75317" lon="3.49971">
        <ele>750.5</ele>
        <time>2023-05-14T07:51:10.000Z</time>
      </trkpt>
      <trkpt lat="43.75306" lon="3.49975">
        <ele>751.5</ele>
        <time>2023-05-14T07:51:14.000Z</time>
      </trkpt>
      <trkpt lat="43.75296" lon="3.49979">
        <ele>752.4</ele>
        <time>2023-05-14T07:51:18.000Z</time>
      </trkpt>
      <trkpt lat="43.75285" lon="3.49977">
        <ele>753.3</ele>
        <time>2023-05-14T07:51:22.000Z</time>
      </trkpt>
      <trkpt lat="43.75274" lon="3.49975">
        <ele>755.2</ele>
        <time>2023-05-14T07:51:26.000Z</time>
      </trkpt>
      <trkpt lat="43.75265" lon="3.49982">
        <ele>757</ele>
        <time>2023-05-14T07:51:30.000Z</time>
      </trkpt>
      <trkpt lat="43.75258" lon="3.49995">
        <ele>758.5</ele>
        <time>2023-05-14T07:51:34.000Z</time>
      </trkpt>
      <trkpt lat="43.75253" lon="3.50007">
        <ele>759</ele>
        <time>2023-05-14T07:51:37.000Z</time>
      </trkpt>
      <trkpt lat="43.75242" lon="3.5001">
        <ele>759.1</ele>
        <time>2023-05-14T07:51:41.000Z</time>
      </trkpt>
      <trkpt lat="43.75234" lon="3.50003">
        <ele>759.3</ele>
        <time>2023-05-14T07:51:44.000Z</time>
      </trkpt>
      <trkpt lat="43.75226" lon="3.49996">
        <ele>759.4</ele>
        <time>2023-05-14T07:51:47.000Z</time>
      </trkpt>
      <trkpt lat="43.75218" lon="3.49991">
        <ele>759.7</ele>
        <time>2023-05-14T07:51:50.000Z</time>
      </trkpt>
      <trkpt lat="43.75207" lon="3.49986">
        <ele>760.1</ele>
        <time>2023-05-14T07:51:54.000Z</time>
      </trkpt>
      <trkpt lat="43.75198" lon="3.49983">
        <ele>760.4</ele>
        <time>2023-05-14T07:51:57.000Z</time>
      </trkpt>
      <trkpt lat="43.75189" lon="3.49977">
        <ele>760.8</ele>
        <time>2023-05-14T07:52:00.000Z</time>
      </trkpt>
      <trkpt lat="43.75181" lon="3.49971">
        <ele>761.3</ele>
        <time>2023-05-14T07:52:03.000Z</time>
      </trkpt>
      <trkpt lat="43.75172" lon="3.49965">
        <ele>761.9</ele>
        <time>2023-05-14T07:52:06.000Z</time>
      </trkpt>
      <trkpt lat="43.75164" lon="3.49958">
        <ele>762.8</ele>
        <time>2023-05-14T07:52:09.000Z</time>
      </trkpt>
      <trkpt lat="43.75155" lon="3.49954">
        <ele>763.4</ele>
        <time>2023-05-14T07:52:12.000Z</time>
      </trkpt>
      <trkpt lat="43.75144" lon="3.49954">
        <ele>763.8</ele>
        <time>2023-05-14T07:52:15.000Z</time>
      </trkpt>
      <trkpt lat="43.75134" lon="3.49951">
        <ele>764.3</ele>
        <time>2023-05-14T07:52:18.000Z</time>
      </trkpt>
      <trkpt lat="43.75126" lon="3.49943">
        <ele>764.6</ele>
        <time>2023-05-14T07:52:21.000Z</time>
      </trkpt>
      <trkpt lat="43.75116" lon="3.49937">
        <ele>764.9</ele>
        <time>2023-05-14T07:52:24.000Z</time>
      </trkpt>
      <trkpt lat="43.75106" lon="3.49942">
        <ele>765.1</ele>
        <time>2023-05-14T07:52:27.000Z</time>
      </trkpt>
      <trkpt lat="43.75096" lon="3.49949">
        <ele>765.4</ele>
        <time>2023-05-14T07:52:30.000Z</time>
      </trkpt>
      <trkpt lat="43.75086" lon="3.49944">
        <ele>765.7</ele>
        <time>2023-05-14T07:52:33.000Z</time>
      </trkpt>
      <trkpt lat="43.75075" lon="3.49944">
        <ele>765.9</ele>
        <time>2023-05-14T07:52:36.000Z</time>
      </trkpt>
      <trkpt lat="43.75068" lon="3.49954">
        <ele>766.3</ele>
        <time>2023-05-14T07:52:39.000Z</time>
      </trkpt>
      <trkpt lat="43.75061" lon="3.49967">
        <ele>766.8</ele>
        <time>2023-05-14T07:52:42.000Z</time>
      </trkpt>
      <trkpt lat="43.75053" lon="3.49976">
        <ele>767.3</ele>
        <time>2023-05-14T07:52:45.000Z</time>
      </trkpt>
      <trkpt lat="43.75043" lon="3.49978">
        <ele>767.8</ele>
        <time>2023-05-14T07:52:48.000Z</time>
      </trkpt>
      <trkpt lat="43.75032" lon="3.49976">
        <ele>768.2</ele>
        <time>2023-05-14T07:52:51.000Z</time>
      </trkpt>
      <trkpt lat="43.75022" lon="3.49972">
        <ele>768.6</ele>
        <time>2023-05-14T07:52:54.000Z</time>
      </trkpt>
      <trkpt lat="43.75013" lon="3.49968">
        <ele>769.2</ele>
        <time>2023-05-14T07:52:57.000Z</time>
      </trkpt>
      <trkpt lat="43.75003" lon="3.49963">
        <ele>769.5</ele>
        <time>2023-05-14T07:53:00.000Z</time>
      </trkpt>
      <trkpt lat="43.74995" lon="3.49953">
        <ele>770.1</ele>
        <time>2023-05-14T07:53:03.000Z</time>
      </trkpt>
      <trkpt lat="43.74988" lon="3.49942">
        <ele>770.6</ele>
        <time>2023-05-14T07:53:06.000Z</time>
      </trkpt>
      <trkpt lat="43.7498" lon="3.49933">
        <ele>771.2</ele>
        <time>2023-05-14T07:53:09.000Z</time>
      </trkpt>
      <trkpt lat="43.74974" lon="3.49921">
        <ele>771.8</ele>
        <time>2023-05-14T07:53:12.000Z</time>
      </trkpt>
      <trkpt lat="43.74967" lon="3.49909">
        <ele>772.6</ele>
        <time>2023-05-14T07:53:15.000Z</time>
      </trkpt>
      <trkpt lat="43.74959" lon="3.49901">
        <ele>773.4</ele>
        <time>2023-05-14T07:53:18.000Z</time>
      </trkpt>
      <trkpt lat="43.7495" lon="3.49893">
        <ele>773.9</ele>
        <time>2023-05-14T07:53:21.000Z</time>
      </trkpt>
      <trkpt lat="43.74942" lon="3.49886">
        <ele>774.6</ele>
        <time>2023-05-14T07:53:24.000Z</time>
      </trkpt>
      <trkpt lat="43.74936" lon="3.49876">
        <ele>775.3</ele>
        <time>2023-05-14T07:53:27.000Z</time>
      </trkpt>
      <trkpt lat="43.7493" lon="3.49862">
        <ele>776.1</ele>
        <time>2023-05-14T07:53:31.000Z</time>
      </trkpt>
      <trkpt lat="43.74924" lon="3.49853">
        <ele>777.4</ele>
        <time>2023-05-14T07:53:34.000Z</time>
      </trkpt>
      <trkpt lat="43.74917" lon="3.49845">
        <ele>779.2</ele>
        <time>2023-05-14T07:53:37.000Z</time>
      </trkpt>
      <trkpt lat="43.7491" lon="3.49832">
        <ele>781.2</ele>
        <time>2023-05-14T07:53:41.000Z</time>
      </trkpt>
      <trkpt lat="43.74904" lon="3.49818">
        <ele>782.3</ele>
        <time>2023-05-14T07:53:45.000Z</time>
      </trkpt>
      <trkpt lat="43.74899" lon="3.49803">
        <ele>783.9</ele>
        <time>2023-05-14T07:53:49.000Z</time>
      </trkpt>
      <trkpt lat="43.74892" lon="3.49793">
        <ele>785.7</ele>
        <time>2023-05-14T07:53:53.000Z</time>
      </trkpt>
      <trkpt lat="43.74884" lon="3.49783">
        <ele>787.2</ele>
        <time>2023-05-14T07:53:57.000Z</time>
      </trkpt>
      <trkpt lat="43.74879" lon="3.4977">
        <ele>788.2</ele>
        <time>2023-05-14T07:54:01.000Z</time>
      </trkpt>
      <trkpt lat="43.74875" lon="3.49758">
        <ele>789.3</ele>
        <time>2023-05-14T07:54:05.000Z</time>
      </trkpt>
      <trkpt lat="43.74869" lon="3.49745">
        <ele>790.5</ele>
        <time>2023-05-14T07:54:09.000Z</time>
      </trkpt>
      <trkpt lat="43.74863" lon="3.49731">
        <ele>791</ele>
        <time>2023-05-14T07:54:13.000Z</time>
      </trkpt>
      <trkpt lat="43.74858" lon="3.49719">
        <ele>791.2</ele>
        <time>2023-05-14T07:54:16.000Z</time>
      </trkpt>
      <trkpt lat="43.74852" lon="3.49707">
        <ele>791.5</ele>
        <time>2023-05-14T07:54:19.000Z</time>
      </trkpt>
      <trkpt lat="43.74845" lon="3.49692">
        <ele>791.4</ele>
        <time>2023-05-14T07:54:22.000Z</time>
      </trkpt>
      <trkpt lat="43.7484" lon="3.49681">
        <ele>791.2</ele>
        <time>2023-05-14T07:54:24.000Z</time>
      </trkpt>
      <trkpt lat="43.74834" lon="3.49671">
        <ele>791</ele>
        <time>2023-05-14T07:54:26.000Z</time>
      </trkpt>
      <trkpt lat="43.74827" lon="3.49663">
        <ele>790.7</ele>
        <time>2023-05-14T07:54:28.000Z</time>
      </trkpt>
      <trkpt lat="43.74819" lon="3.49654">
        <ele>790.5</ele>
        <time>2023-05-14T07:54:30.000Z</time>
      </trkpt>
      <trkpt lat="43.74813" lon="3.49646">
        <ele>790.3</ele>
        <time>2023-05-14T07:54:32.000Z</time>
      </trkpt>
      <trkpt lat="43.74806" lon="3.4963">
        <ele>790</ele>
        <time>2023-05-14T07:54:35.000Z</time>
      </trkpt>
      <trkpt lat="43.74803" lon="3.49613">
        <ele>789.7</ele>
        <time>2023-05-14T07:54:38.000Z</time>
      </trkpt>
      <trkpt lat="43.74801" lon="3.49597">
        <ele>789.5</ele>
        <time>2023-05-14T07:54:41.000Z</time>
      </trkpt>
      <trkpt lat="43.74798" lon="3.49582">
        <ele>789.2</ele>
        <time>2023-05-14T07:54:44.000Z</time>
      </trkpt>
      <trkpt lat="43.74795" lon="3.49567">
        <ele>789.1</ele>
        <time>2023-05-14T07:54:47.000Z</time>
      </trkpt>
      <trkpt lat="43.74793" lon="3.49553">
        <ele>789.1</ele>
        <time>2023-05-14T07:54:50.000Z</time>
      </trkpt>
      <trkpt lat="43.74793" lon="3.49538">
        <ele>789.1</ele>
        <time>2023-05-14T07:54:53.000Z</time>
      </trkpt>
      <trkpt lat="43.74796" lon="3.49524">
        <ele>789.2</ele>
        <time>2023-05-14T07:54:56.000Z</time>
      </trkpt>
      <trkpt lat="43.74802" lon="3.49512">
        <ele>789.6</ele>
        <time>2023-05-14T07:54:59.000Z</time>
      </trkpt>
      <trkpt lat="43.74805" lon="3.49499">
        <ele>790.1</ele>
        <time>2023-05-14T07:55:02.000Z</time>
      </trkpt>
      <trkpt lat="43.74804" lon="3.49486">
        <ele>790.5</ele>
        <time>2023-05-14T07:55:05.000Z</time>
      </trkpt>
      <trkpt lat="43.74798" lon="3.49475">
        <ele>790.7</ele>
        <time>2023-05-14T07:55:08.000Z</time>
      </trkpt>
      <trkpt lat="43.74791" lon="3.49465">
        <ele>791</ele>
        <time>2023-05-14T07:55:11.000Z</time>
      </trkpt>
      <trkpt lat="43.74783" lon="3.49455">
        <ele>791.4</ele>
        <time>2023-05-14T07:55:14.000Z</time>
      </trkpt>
      <trkpt lat="43.74776" lon="3.49444">
        <ele>791.9</ele>
        <time>2023-05-14T07:55:17.000Z</time>
      </trkpt>
      <trkpt lat="43.74771" lon="3.49432">
        <ele>792.3</ele>
        <time>2023-05-14T07:55:20.000Z</time>
      </trkpt>
      <trkpt lat="43.74765" lon="3.49421">
        <ele>792.6</ele>
        <time>2023-05-14T07:55:23.000Z</time>
      </trkpt>
      <trkpt lat="43.74757" lon="3.49411">
        <ele>792.9</ele>
        <time>2023-05-14T07:55:26.000Z</time>
      </trkpt>
      <trkpt lat="43.7475" lon="3.49401">
        <ele>793.2</ele>
        <time>2023-05-14T07:55:29.000Z</time>
      </trkpt>
      <trkpt lat="43.74746" lon="3.49387">
        <ele>793.6</ele>
        <time>2023-05-14T07:55:32.000Z</time>
      </trkpt>
      <trkpt lat="43.7474" lon="3.49375">
        <ele>794</ele>
        <time>2023-05-14T07:55:35.000Z</time>
      </trkpt>
      <trkpt lat="43.74731" lon="3.49366">
        <ele>794.3</ele>
        <time>2023-05-14T07:55:38.000Z</time>
      </trkpt>
      <trkpt lat="43.74723" lon="3.49358">
        <ele>794.8</ele>
        <time>2023-05-14T07:55:41.000Z</time>
      </trkpt>
      <trkpt lat="43.74716" lon="3.49349">
        <ele>795.4</ele>
        <time>2023-05-14T07:55:44.000Z</time>
      </trkpt>
      <trkpt lat="43.7471" lon="3.49338">
        <ele>796.4</ele>
        <time>2023-05-14T07:55:47.000Z</time>
      </trkpt>
      <trkpt lat="43.74707" lon="3.49327">
        <ele>797.7</ele>
        <time>2023-05-14T07:55:50.000Z</time>
      </trkpt>
      <trkpt lat="43.74706" lon="3.49314">
        <ele>798.8</ele>
        <time>2023-05-14T07:55:53.000Z</time>
      </trkpt>
      <trkpt lat="43.74706" lon="3.49301">
        <ele>799.4</ele>
        <time>2023-05-14T07:55:56.000Z</time>
      </trkpt>
      <trkpt lat="43.74706" lon="3.49288">
        <ele>799.9</ele>
        <time>2023-05-14T07:55:59.000Z</time>
      </trkpt>
      <trkpt lat="43.74704" lon="3.49275">
        <ele>800.3</ele>
        <time>2023-05-14T07:56:02.000Z</time>
      </trkpt>
      <trkpt lat="43.74698" lon="3.49257">
        <ele>800.1</ele>
        <time>2023-05-14T07:56:05.000Z</time>
      </trkpt>
      <trkpt lat="43.74688" lon="3.49245">
        <ele>799.6</ele>
        <time>2023-05-14T07:56:07.000Z</time>
      </trkpt>
      <trkpt lat="43.74677" lon="3.49235">
        <ele>798.9</ele>
        <time>2023-05-14T07:56:09.000Z</time>
      </trkpt>
      <trkpt lat="43.74665" lon="3.49226">
        <ele>798.1</ele>
        <time>2023-05-14T07:56:11.000Z</time>
      </trkpt>
      <trkpt lat="43.74654" lon="3.49215">
        <ele>797.6</ele>
        <time>2023-05-14T07:56:13.000Z</time>
      </trkpt>
      <trkpt lat="43.74643" lon="3.49204">
        <ele>796.9</ele>
        <time>2023-05-14T07:56:15.000Z</time>
      </trkpt>
      <trkpt lat="43.74631" lon="3.49193">
        <ele>796.1</ele>
        <time>2023-05-14T07:56:17.000Z</time>
      </trkpt>
      <trkpt lat="43.7462" lon="3.49182">
        <ele>795.4</ele>
        <time>2023-05-14T07:56:19.000Z</time>
      </trkpt>
      <trkpt lat="43.74609" lon="3.49169">
        <ele>794.6</ele>
        <time>2023-05-14T07:56:21.000Z</time>
      </trkpt>
      <trkpt lat="43.74599" lon="3.49154">
        <ele>793.7</ele>
        <time>2023-05-14T07:56:23.000Z</time>
      </trkpt>
      <trkpt lat="43.74587" lon="3.49145">
        <ele>793.4</ele>
        <time>2023-05-14T07:56:25.000Z</time>
      </trkpt>
      <trkpt lat="43.74577" lon="3.49146">
        <ele>793.1</ele>
        <time>2023-05-14T07:56:27.000Z</time>
      </trkpt>
      <trkpt lat="43.74567" lon="3.49148">
        <ele>792.8</ele>
        <time>2023-05-14T07:56:30.000Z</time>
      </trkpt>
      <trkpt lat="43.74556" lon="3.49148">
        <ele>792.8</ele>
        <time>2023-05-14T07:56:33.000Z</time>
      </trkpt>
      <trkpt lat="43.74546" lon="3.49145">
        <ele>793.1</ele>
        <time>2023-05-14T07:56:36.000Z</time>
      </trkpt>
      <trkpt lat="43.74537" lon="3.4914">
        <ele>793.3</ele>
        <time>2023-05-14T07:56:39.000Z</time>
      </trkpt>
      <trkpt lat="43.74527" lon="3.49136">
        <ele>793.6</ele>
        <time>2023-05-14T07:56:42.000Z</time>
      </trkpt>
      <trkpt lat="43.74517" lon="3.49132">
        <ele>794.3</ele>
        <time>2023-05-14T07:56:45.000Z</time>
      </trkpt>
      <trkpt lat="43.74508" lon="3.49129">
        <ele>794.9</ele>
        <time>2023-05-14T07:56:48.000Z</time>
      </trkpt>
      <trkpt lat="43.74498" lon="3.49127">
        <ele>795.5</ele>
        <time>2023-05-14T07:56:51.000Z</time>
      </trkpt>
      <trkpt lat="43.74488" lon="3.49121">
        <ele>795.9</ele>
        <time>2023-05-14T07:56:54.000Z</time>
      </trkpt>
      <trkpt lat="43.74481" lon="3.49111">
        <ele>796.3</ele>
        <time>2023-05-14T07:56:57.000Z</time>
      </trkpt>
      <trkpt lat="43.74476" lon="3.49098">
        <ele>796.9</ele>
        <time>2023-05-14T07:57:00.000Z</time>
      </trkpt>
      <trkpt lat="43.74472" lon="3.49085">
        <ele>797.3</ele>
        <time>2023-05-14T07:57:03.000Z</time>
      </trkpt>
      <trkpt lat="43.74467" lon="3.49073">
        <ele>797.7</ele>
        <time>2023-05-14T07:57:06.000Z</time>
      </trkpt>
      <trkpt lat="43.74462" lon="3.49062">
        <ele>797.9</ele>
        <time>2023-05-14T07:57:09.000Z</time>
      </trkpt>
      <trkpt lat="43.74458" lon="3.49051">
        <ele>798.4</ele>
        <time>2023-05-14T07:57:12.000Z</time>
      </trkpt>
      <trkpt lat="43.74454" lon="3.49039">
        <ele>798.9</ele>
        <time>2023-05-14T07:57:15.000Z</time>
      </trkpt>
      <trkpt lat="43.74449" lon="3.49029">
        <ele>799.5</ele>
        <time>2023-05-14T07:57:18.000Z</time>
      </trkpt>
      <trkpt lat="43.74443" lon="3.49018">
        <ele>800.3</ele>
        <time>2023-05-14T07:57:21.000Z</time>
      </trkpt>
      <trkpt lat="43.74439" lon="3.49006">
        <ele>800.9</ele>
        <time>2023-05-14T07:57:24.000Z</time>
      </trkpt>
      <trkpt lat="43.74434" lon="3.48996">
        <ele>801.7</ele>
        <time>2023-05-14T07:57:27.000Z</time>
      </trkpt>
      <trkpt lat="43.74426" lon="3.48988">
        <ele>802.5</ele>
        <time>2023-05-14T07:57:30.000Z</time>
      </trkpt>
      <trkpt lat="43.74418" lon="3.48978">
        <ele>803.8</ele>
        <time>2023-05-14T07:57:34.000Z</time>
      </trkpt>
      <trkpt lat="43.74411" lon="3.48967">
        <ele>805.5</ele>
        <time>2023-05-14T07:57:38.000Z</time>
      </trkpt>
      <trkpt lat="43.74405" lon="3.48955">
        <ele>807.8</ele>
        <time>2023-05-14T07:57:42.000Z</time>
      </trkpt>
      <trkpt lat="43.74401" lon="3.48941">
        <ele>810.1</ele>
        <time>2023-05-14T07:57:46.000Z</time>
      </trkpt>
      <trkpt lat="43.74394" lon="3.48928">
        <ele>811.5</ele>
        <time>2023-05-14T07:57:50.000Z</time>
      </trkpt>
      <trkpt lat="43.74387" lon="3.48917">
        <ele>813</ele>
        <time>2023-05-14T07:57:54.000Z</time>
      </trkpt>
      <trkpt lat="43.74379" lon="3.48907">
        <ele>814.9</ele>
        <time>2023-05-14T07:57:58.000Z</time>
      </trkpt>
      <trkpt lat="43.74372" lon="3.48896">
        <ele>816.5</ele>
        <time>2023-05-14T07:58:02.000Z</time>
      </trkpt>
      <trkpt lat="43.74366" lon="3.48884">
        <ele>818.7</ele>
        <time>2023-05-14T07:58:07.000Z</time>
      </trkpt>
      <trkpt lat="43.7436" lon="3.48871">
        <ele>820</ele>
        <time>2023-05-14T07:58:12.000Z</time>
      </trkpt>
      <trkpt lat="43.74357" lon="3.48857">
        <ele>820.3</ele>
        <time>2023-05-14T07:58:15.000Z</time>
      </trkpt>
      <trkpt lat="43.7436" lon="3.48843">
        <ele>820.6</ele>
        <time>2023-05-14T07:58:18.000Z</time>
      </trkpt>
      <trkpt lat="43.74366" lon="3.48834">
        <ele>820.6</ele>
        <time>2023-05-14T07:58:20.000Z</time>
      </trkpt>
      <trkpt lat="43.74374" lon="3.48825">
        <ele>820.4</ele>
        <time>2023-05-14T07:58:22.000Z</time>
      </trkpt>
      <trkpt lat="43.74385" lon="3.48821">
        <ele>820</ele>
        <time>2023-05-14T07:58:24.000Z</time>
      </trkpt>
      <trkpt lat="43.74394" lon="3.48817">
        <ele>819.7</ele>
        <time>2023-05-14T07:58:26.000Z</time>
      </trkpt>
      <trkpt lat="43.74406" lon="3.48813">
        <ele>819.4</ele>
        <time>2023-05-14T07:58:29.000Z</time>
      </trkpt>
      <trkpt lat="43.74416" lon="3.48808">
        <ele>819.3</ele>
        <time>2023-05-14T07:58:32.000Z</time>
      </trkpt>
      <trkpt lat="43.74425" lon="3.48801">
        <ele>819.4</ele>
        <time>2023-05-14T07:58:35.000Z</time>
      </trkpt>
      <trkpt lat="43.74433" lon="3.48792">
        <ele>819.5</ele>
        <time>2023-05-14T07:58:38.000Z</time>
      </trkpt>
      <trkpt lat="43.74442" lon="3.48785">
        <ele>819.8</ele>
        <time>2023-05-14T07:58:41.000Z</time>
      </trkpt>
      <trkpt lat="43.74452" lon="3.48782">
        <ele>820.1</ele>
        <time>2023-05-14T07:58:44.000Z</time>
      </trkpt>
      <trkpt lat="43.74462" lon="3.48782">
        <ele>820.6</ele>
        <time>2023-05-14T07:58:47.000Z</time>
      </trkpt>
      <trkpt lat="43.74472" lon="3.4878">
        <ele>821.1</ele>
        <time>2023-05-14T07:58:50.000Z</time>
      </trkpt>
      <trkpt lat="43.74482" lon="3.48779">
        <ele>821.6</ele>
        <time>2023-05-14T07:58:53.000Z</time>
      </trkpt>
      <trkpt lat="43.74492" lon="3.48778">
        <ele>822.1</ele>
        <time>2023-05-14T07:58:56.000Z</time>
      </trkpt>
      <trkpt lat="43.74502" lon="3.48775">
        <ele>822.8</ele>
        <time>2023-05-14T07:58:59.000Z</time>
      </trkpt>
      <trkpt lat="43.74508" lon="3.48764">
        <ele>823.1</ele>
        <time>2023-05-14T07:59:02.000Z</time>
      </trkpt>
      <trkpt lat="43.74513" lon="3.48749">
        <ele>823.4</ele>
        <time>2023-05-14T07:59:05.000Z</time>
      </trkpt>
      <trkpt lat="43.74518" lon="3.48734">
        <ele>823.5</ele>
        <time>2023-05-14T07:59:08.000Z</time>
      </trkpt>
      <trkpt lat="43.7452" lon="3.48716">
        <ele>823.6</ele>
        <time>2023-05-14T07:59:11.000Z</time>
      </trkpt>
      <trkpt lat="43.74518" lon="3.48703">
        <ele>823.6</ele>
        <time>2023-05-14T07:59:13.000Z</time>
      </trkpt>
      <trkpt lat="43.74515" lon="3.48686">
        <ele>823.6</ele>
        <time>2023-05-14T07:59:16.000Z</time>
      </trkpt>
      <trkpt lat="43.74509" lon="3.48673">
        <ele>823.7</ele>
        <time>2023-05-14T07:59:19.000Z</time>
      </trkpt>
      <trkpt lat="43.74502" lon="3.48662">
        <ele>824</ele>
        <time>2023-05-14T07:59:22.000Z</time>
      </trkpt>
      <trkpt lat="43.74496" lon="3.48652">
        <ele>824.4</ele>
        <time>2023-05-14T07:59:25.000Z</time>
      </trkpt>
      <trkpt lat="43.74488" lon="3.48646">
        <ele>824.9</ele>
        <time>2023-05-14T07:59:28.000Z</time>
      </trkpt>
      <trkpt lat="43.74479" lon="3.48641">
        <ele>825.8</ele>
        <time>2023-05-14T07:59:32.000Z</time>
      </trkpt>
      <trkpt lat="43.74467" lon="3.48638">
        <ele>826.4</ele>
        <time>2023-05-14T07:59:36.000Z</time>
      </trkpt>
      <trkpt lat="43.74459" lon="3.48634">
        <ele>826.8</ele>
        <time>2023-05-14T07:59:39.000Z</time>
      </trkpt>
      <trkpt lat="43.74452" lon="3.48622">
        <ele>827.5</ele>
        <time>2023-05-14T07:59:43.000Z</time>
      </trkpt>
      <trkpt lat="43.7445" lon="3.48607">
        <ele>828</ele>
        <time>2023-05-14T07:59:47.000Z</time>
      </trkpt>
      <trkpt lat="43.74449" lon="3.4859">
        <ele>828.1</ele>
        <time>2023-05-14T07:59:51.000Z</time>
      </trkpt>
      <trkpt lat="43.74446" lon="3.48577">
        <ele>828</ele>
        <time>2023-05-14T07:59:54.000Z</time>
      </trkpt>
      <trkpt lat="43.74437" lon="3.48572">
        <ele>827.6</ele>
        <time>2023-05-14T07:59:59.000Z</time>
      </trkpt>
      <trkpt lat="43.74425" lon="3.48574">
        <ele>827.6</ele>
        <time>2023-05-14T08:00:04.000Z</time>
      </trkpt>
      <trkpt lat="43.74416" lon="3.48574">
        <ele>827.9</ele>
        <time>2023-05-14T08:00:08.000Z</time>
      </trkpt>
      <trkpt lat="43.74407" lon="3.48573">
        <ele>828.6</ele>
        <time>2023-05-14T08:00:12.000Z</time>
      </trkpt>
      <trkpt lat="43.74398" lon="3.4857">
        <ele>829.5</ele>
        <time>2023-05-14T08:00:16.000Z</time>
      </trkpt>
      <trkpt lat="43.74388" lon="3.4857">
        <ele>830.9</ele>
        <time>2023-05-14T08:00:20.000Z</time>
      </trkpt>
      <trkpt lat="43.74379" lon="3.48572">
        <ele>832.5</ele>
        <time>2023-05-14T08:00:24.000Z</time>
      </trkpt>
      <trkpt lat="43.74371" lon="3.48577">
        <ele>834</ele>
        <time>2023-05-14T08:00:28.000Z</time>
      </trkpt>
      <trkpt lat="43.74362" lon="3.48585">
        <ele>835.6</ele>
        <time>2023-05-14T08:00:32.000Z</time>
      </trkpt>
      <trkpt lat="43.74354" lon="3.48591">
        <ele>837.1</ele>
        <time>2023-05-14T08:00:36.000Z</time>
      </trkpt>
      <trkpt lat="43.74344" lon="3.48595">
        <ele>838.4</ele>
        <time>2023-05-14T08:00:40.000Z</time>
      </trkpt>
      <trkpt lat="43.74334" lon="3.48599">
        <ele>840.1</ele>
        <time>2023-05-14T08:00:44.000Z</time>
      </trkpt>
      <trkpt lat="43.74323" lon="3.48601">
        <ele>841.9</ele>
        <time>2023-05-14T08:00:48.000Z</time>
      </trkpt>
      <trkpt lat="43.74314" lon="3.48607">
        <ele>843.4</ele>
        <time>2023-05-14T08:00:52.000Z</time>
      </trkpt>
      <trkpt lat="43.74305" lon="3.48614">
        <ele>845.2</ele>
        <time>2023-05-14T08:00:56.000Z</time>
      </trkpt>
      <trkpt lat="43.74296" lon="3.48616">
        <ele>846.5</ele>
        <time>2023-05-14T08:01:00.000Z</time>
      </trkpt>
      <trkpt lat="43.7429" lon="3.48627">
        <ele>848.3</ele>
        <time>2023-05-14T08:01:05.000Z</time>
      </trkpt>
      <trkpt lat="43.74288" lon="3.48629">
        <ele>849.2</ele>
        <time>2023-05-14T08:01:08.000Z</time>
      </trkpt>
      <trkpt lat="43.74288" lon="3.48629">
        <ele>849.6</ele>
        <time>2023-05-14T08:01:10.000Z</time>
      </trkpt>
      <trkpt lat="43.74281" lon="3.48622">
        <ele>850</ele>
        <time>2023-05-14T08:01:21.000Z</time>
      </trkpt>
      <trkpt lat="43.74281" lon="3.48622">
        <ele>850.1</ele>
        <time>2023-05-14T08:01:22.000Z</time>
      </trkpt>
      <trkpt lat="43.74281" lon="3.48622">
        <ele>850.2</ele>
        <time>2023-05-14T08:03:02.000Z</time>
      </trkpt>
      <trkpt lat="43.74281" lon="3.48622">
        <ele>850.3</ele>
        <time>2023-05-14T08:03:03.000Z</time>
      </trkpt>
      <trkpt lat="43.74281" lon="3.48622">
        <ele>851.4</ele>
        <time>2023-05-14T08:11:48.000Z</time>
      </trkpt>
      <trkpt lat="43.74281" lon="3.48622">
        <ele>851.4</ele>
        <time>2023-05-14T08:11:49.000Z</time>
      </trkpt>
      <trkpt lat="43.74281" lon="3.48622">
        <ele>850.7</ele>
        <time>2023-05-14T08:14:46.000Z</time>
      </trkpt>
      <trkpt lat="43.74281" lon="3.48622">
        <ele>850.7</ele>
        <time>2023-05-14T08:14:47.000Z</time>
      </trkpt>
      <trkpt lat="43.74281" lon="3.48622">
        <ele>850.6</ele>
        <time>2023-05-14T08:15:00.000Z</time>
      </trkpt>
      <trkpt lat="43.74281" lon="3.48622">
        <ele>850.6</ele>
        <time>2023-05-14T08:15:01.000Z</time>
      </trkpt>
      <trkpt lat="43.74281" lon="3.48622">
        <ele>850.7</ele>
        <time>2023-05-14T08:15:11.000Z</time>
      </trkpt>
      <trkpt lat="43.74281" lon="3.48622">
        <ele>850.7</ele>
        <time>2023-05-14T08:15:12.000Z</time>
      </trkpt>
      <trkpt lat="43.74281" lon="3.48622">
        <ele>850.5</ele>
        <time>2023-05-14T08:16:11.000Z</time>
      </trkpt>
      <trkpt lat="43.74281" lon="3.48622">
        <ele>850.5</ele>
        <time>2023-05-14T08:16:12.000Z</time>
      </trkpt>
      <trkpt lat="43.74281" lon="3.48622">
        <ele>849.3</ele>
        <time>2023-05-14T08:18:42.000Z</time>
      </trkpt>
      <trkpt lat="43.74281" lon="3.48622">
        <ele>849.3</ele>
        <time>2023-05-14T08:18:43.000Z</time>
      </trkpt>
      <trkpt lat="43.74281" lon="3.48622">
        <ele>849.3</ele>
        <time>2023-05-14T08:18:45.000Z</time>
      </trkpt>
      <trkpt lat="43.74282" lon="3.4862">
        <ele>849.3</ele>
        <time>2023-05-14T08:18:53.000Z</time>
      </trkpt>
      <trkpt lat="43.74282" lon="3.4862">
        <ele>849.4</ele>
        <time>2023-05-14T08:19:09.000Z</time>
      </trkpt>
      <trkpt lat="43.74282" lon="3.48621">
        <ele>849.4</ele>
        <time>2023-05-14T08:19:12.000Z</time>
      </trkpt>
      <trkpt lat="43.74281" lon="3.48621">
        <ele>849.4</ele>
        <time>2023-05-14T08:19:16.000Z</time>
      </trkpt>
      <trkpt lat="43.74281" lon="3.48621">
        <ele>849.4</ele>
        <time>2023-05-14T08:19:17.000Z</time>
      </trkpt>
      <trkpt lat="43.74281" lon="3.48621">
        <ele>849.5</ele>
        <time>2023-05-14T08:20:10.000Z</time>
      </trkpt>
      <trkpt lat="43.74289" lon="3.48629">
        <ele>849.6</ele>
        <time>2023-05-14T08:20:21.000Z</time>
      </trkpt>
      <trkpt lat="43.74296" lon="3.48618">
        <ele>849.7</ele>
        <time>2023-05-14T08:20:28.000Z</time>
      </trkpt>
      <trkpt lat="43.74306" lon="3.48613">
        <ele>849.7</ele>
        <time>2023-05-14T08:20:33.000Z</time>
      </trkpt>
      <trkpt lat="43.74317" lon="3.48607">
        <ele>849.5</ele>
        <time>2023-05-14T08:20:37.000Z</time>
      </trkpt>
      <trkpt lat="43.74327" lon="3.48601">
        <ele>849.1</ele>
        <time>2023-05-14T08:20:40.000Z</time>
      </trkpt>
      <trkpt lat="43.74338" lon="3.48599">
        <ele>848.6</ele>
        <time>2023-05-14T08:20:42.000Z</time>
      </trkpt>
      <trkpt lat="43.74349" lon="3.48596">
        <ele>847.9</ele>
        <time>2023-05-14T08:20:44.000Z</time>
      </trkpt>
      <trkpt lat="43.74361" lon="3.4859">
        <ele>846.6</ele>
        <time>2023-05-14T08:20:46.000Z</time>
      </trkpt>
      <trkpt lat="43.74373" lon="3.48581">
        <ele>844.8</ele>
        <time>2023-05-14T08:20:48.000Z</time>
      </trkpt>
      <trkpt lat="43.74386" lon="3.48573">
        <ele>842</ele>
        <time>2023-05-14T08:20:50.000Z</time>
      </trkpt>
      <trkpt lat="43.74399" lon="3.48573">
        <ele>838.8</ele>
        <time>2023-05-14T08:20:52.000Z</time>
      </trkpt>
      <trkpt lat="43.74413" lon="3.48575">
        <ele>835.7</ele>
        <time>2023-05-14T08:20:54.000Z</time>
      </trkpt>
      <trkpt lat="43.74426" lon="3.48575">
        <ele>833.3</ele>
        <time>2023-05-14T08:20:56.000Z</time>
      </trkpt>
      <trkpt lat="43.74437" lon="3.48571">
        <ele>831.1</ele>
        <time>2023-05-14T08:20:58.000Z</time>
      </trkpt>
      <trkpt lat="43.74448" lon="3.48565">
        <ele>829.1</ele>
        <time>2023-05-14T08:21:00.000Z</time>
      </trkpt>
      <trkpt lat="43.74456" lon="3.48555">
        <ele>827.7</ele>
        <time>2023-05-14T08:21:02.000Z</time>
      </trkpt>
      <trkpt lat="43.74463" lon="3.48541">
        <ele>826.5</ele>
        <time>2023-05-14T08:21:05.000Z</time>
      </trkpt>
      <trkpt lat="43.74471" lon="3.48529">
        <ele>825.6</ele>
        <time>2023-05-14T08:21:08.000Z</time>
      </trkpt>
      <trkpt lat="43.74481" lon="3.48523">
        <ele>824.8</ele>
        <time>2023-05-14T08:21:12.000Z</time>
      </trkpt>
      <trkpt lat="43.74491" lon="3.48525">
        <ele>823.9</ele>
        <time>2023-05-14T08:21:16.000Z</time>
      </trkpt>
      <trkpt lat="43.74503" lon="3.48531">
        <ele>822.9</ele>
        <time>2023-05-14T08:21:20.000Z</time>
      </trkpt>
      <trkpt lat="43.74514" lon="3.48539">
        <ele>822</ele>
        <time>2023-05-14T08:21:23.000Z</time>
      </trkpt>
      <trkpt lat="43.74523" lon="3.48546">
        <ele>820.8</ele>
        <time>2023-05-14T08:21:26.000Z</time>
      </trkpt>
      <trkpt lat="43.7453" lon="3.48534">
        <ele>817.5</ele>
        <time>2023-05-14T08:21:34.000Z</time>
      </trkpt>
      <trkpt lat="43.74538" lon="3.48527">
        <ele>813.4</ele>
        <time>2023-05-14T08:21:40.000Z</time>
      </trkpt>
      <trkpt lat="43.74539" lon="3.48527">
        <ele>812.2</ele>
        <time>2023-05-14T08:21:42.000Z</time>
      </trkpt>
      <trkpt lat="43.74539" lon="3.48527">
        <ele>810.6</ele>
        <time>2023-05-14T08:21:48.000Z</time>
      </trkpt>
      <trkpt lat="43.74539" lon="3.48528">
        <ele>810.4</ele>
        <time>2023-05-14T08:21:50.000Z</time>
      </trkpt>
      <trkpt lat="43.7454" lon="3.48529">
        <ele>810.3</ele>
        <time>2023-05-14T08:21:56.000Z</time>
      </trkpt>
      <trkpt lat="43.7455" lon="3.48526">
        <ele>810.1</ele>
        <time>2023-05-14T08:22:04.000Z</time>
      </trkpt>
      <trkpt lat="43.7456" lon="3.48523">
        <ele>809.6</ele>
        <time>2023-05-14T08:22:08.000Z</time>
      </trkpt>
      <trkpt lat="43.74572" lon="3.48521">
        <ele>808.5</ele>
        <time>2023-05-14T08:22:12.000Z</time>
      </trkpt>
      <trkpt lat="43.74583" lon="3.48522">
        <ele>806.9</ele>
        <time>2023-05-14T08:22:15.000Z</time>
      </trkpt>
      <trkpt lat="43.74593" lon="3.48529">
        <ele>804.4</ele>
        <time>2023-05-14T08:22:18.000Z</time>
      </trkpt>
      <trkpt lat="43.74603" lon="3.48536">
        <ele>802.3</ele>
        <time>2023-05-14T08:22:21.000Z</time>
      </trkpt>
      <trkpt lat="43.74615" lon="3.48541">
        <ele>800.7</ele>
        <time>2023-05-14T08:22:24.000Z</time>
      </trkpt>
      <trkpt lat="43.74624" lon="3.48543">
        <ele>799.8</ele>
        <time>2023-05-14T08:22:26.000Z</time>
      </trkpt>
      <trkpt lat="43.74635" lon="3.48544">
        <ele>798</ele>
        <time>2023-05-14T08:22:28.000Z</time>
      </trkpt>
      <trkpt lat="43.74646" lon="3.48545">
        <ele>795.5</ele>
        <time>2023-05-14T08:22:30.000Z</time>
      </trkpt>
      <trkpt lat="43.74655" lon="3.48548">
        <ele>792.9</ele>
        <time>2023-05-14T08:22:33.000Z</time>
      </trkpt>
      <trkpt lat="43.74655" lon="3.48533">
        <ele>789.9</ele>
        <time>2023-05-14T08:22:39.000Z</time>
      </trkpt>
      <trkpt lat="43.74649" lon="3.48521">
        <ele>788.5</ele>
        <time>2023-05-14T08:22:42.000Z</time>
      </trkpt>
      <trkpt lat="43.7465" lon="3.48508">
        <ele>785.4</ele>
        <time>2023-05-14T08:22:49.000Z</time>
      </trkpt>
      <trkpt lat="43.74658" lon="3.485">
        <ele>782.8</ele>
        <time>2023-05-14T08:22:54.000Z</time>
      </trkpt>
      <trkpt lat="43.74664" lon="3.48488">
        <ele>779.1</ele>
        <time>2023-05-14T08:22:59.000Z</time>
      </trkpt>
      <trkpt lat="43.74662" lon="3.48474">
        <ele>775.3</ele>
        <time>2023-05-14T08:23:04.000Z</time>
      </trkpt>
      <trkpt lat="43.74659" lon="3.48461">
        <ele>772.1</ele>
        <time>2023-05-14T08:23:10.000Z</time>
      </trkpt>
      <trkpt lat="43.74669" lon="3.48462">
        <ele>770.3</ele>
        <time>2023-05-14T08:23:14.000Z</time>
      </trkpt>
      <trkpt lat="43.74678" lon="3.48464">
        <ele>768.9</ele>
        <time>2023-05-14T08:23:18.000Z</time>
      </trkpt>
      <trkpt lat="43.74686" lon="3.48455">
        <ele>767</ele>
        <time>2023-05-14T08:23:23.000Z</time>
      </trkpt>
      <trkpt lat="43.74693" lon="3.48445">
        <ele>764.1</ele>
        <time>2023-05-14T08:23:27.000Z</time>
      </trkpt>
      <trkpt lat="43.74702" lon="3.48436">
        <ele>760.6</ele>
        <time>2023-05-14T08:23:31.000Z</time>
      </trkpt>
      <trkpt lat="43.74712" lon="3.48428">
        <ele>758.2</ele>
        <time>2023-05-14T08:23:35.000Z</time>
      </trkpt>
      <trkpt lat="43.74721" lon="3.48421">
        <ele>755.9</ele>
        <time>2023-05-14T08:23:38.000Z</time>
      </trkpt>
      <trkpt lat="43.74732" lon="3.48412">
        <ele>752.8</ele>
        <time>2023-05-14T08:23:42.000Z</time>
      </trkpt>
      <trkpt lat="43.74743" lon="3.48409">
        <ele>750.8</ele>
        <time>2023-05-14T08:23:45.000Z</time>
      </trkpt>
      <trkpt lat="43.74752" lon="3.48407">
        <ele>749.5</ele>
        <time>2023-05-14T08:23:47.000Z</time>
      </trkpt>
      <trkpt lat="43.74762" lon="3.48406">
        <ele>748.3</ele>
        <time>2023-05-14T08:23:49.000Z</time>
      </trkpt>
      <trkpt lat="43.74772" lon="3.48407">
        <ele>747.5</ele>
        <time>2023-05-14T08:23:51.000Z</time>
      </trkpt>
      <trkpt lat="43.74785" lon="3.48411">
        <ele>746.3</ele>
        <time>2023-05-14T08:23:54.000Z</time>
      </trkpt>
      <trkpt lat="43.74797" lon="3.4841">
        <ele>744.3</ele>
        <time>2023-05-14T08:23:57.000Z</time>
      </trkpt>
      <trkpt lat="43.74807" lon="3.48406">
        <ele>742.3</ele>
        <time>2023-05-14T08:23:59.000Z</time>
      </trkpt>
      <trkpt lat="43.74818" lon="3.48399">
        <ele>738.5</ele>
        <time>2023-05-14T08:24:02.000Z</time>
      </trkpt>
      <trkpt lat="43.74826" lon="3.4839">
        <ele>735.5</ele>
        <time>2023-05-14T08:24:05.000Z</time>
      </trkpt>
      <trkpt lat="43.74835" lon="3.48388">
        <ele>733.2</ele>
        <time>2023-05-14T08:24:08.000Z</time>
      </trkpt>
      <trkpt lat="43.74845" lon="3.48378">
        <ele>729.9</ele>
        <time>2023-05-14T08:24:12.000Z</time>
      </trkpt>
      <trkpt lat="43.74855" lon="3.48368">
        <ele>728.5</ele>
        <time>2023-05-14T08:24:15.000Z</time>
      </trkpt>
      <trkpt lat="43.74862" lon="3.48359">
        <ele>727.8</ele>
        <time>2023-05-14T08:24:17.000Z</time>
      </trkpt>
      <trkpt lat="43.7487" lon="3.48348">
        <ele>726.2</ele>
        <time>2023-05-14T08:24:20.000Z</time>
      </trkpt>
      <trkpt lat="43.74879" lon="3.48338">
        <ele>724.6</ele>
        <time>2023-05-14T08:24:23.000Z</time>
      </trkpt>
      <trkpt lat="43.74889" lon="3.4833">
        <ele>722.6</ele>
        <time>2023-05-14T08:24:26.000Z</time>
      </trkpt>
      <trkpt lat="43.74897" lon="3.48319">
        <ele>720.5</ele>
        <time>2023-05-14T08:24:29.000Z</time>
      </trkpt>
      <trkpt lat="43.74904" lon="3.48309">
        <ele>719.2</ele>
        <time>2023-05-14T08:24:31.000Z</time>
      </trkpt>
      <trkpt lat="43.74913" lon="3.48301">
        <ele>717.8</ele>
        <time>2023-05-14T08:24:33.000Z</time>
      </trkpt>
      <trkpt lat="43.74922" lon="3.48292">
        <ele>716.7</ele>
        <time>2023-05-14T08:24:35.000Z</time>
      </trkpt>
      <trkpt lat="43.7493" lon="3.48285">
        <ele>715.4</ele>
        <time>2023-05-14T08:24:37.000Z</time>
      </trkpt>
      <trkpt lat="43.74938" lon="3.48277">
        <ele>713.5</ele>
        <time>2023-05-14T08:24:39.000Z</time>
      </trkpt>
      <trkpt lat="43.74945" lon="3.48266">
        <ele>712.2</ele>
        <time>2023-05-14T08:24:41.000Z</time>
      </trkpt>
      <trkpt lat="43.74952" lon="3.48254">
        <ele>710.9</ele>
        <time>2023-05-14T08:24:43.000Z</time>
      </trkpt>
      <trkpt lat="43.7496" lon="3.48242">
        <ele>709.7</ele>
        <time>2023-05-14T08:24:45.000Z</time>
      </trkpt>
      <trkpt lat="43.74968" lon="3.48231">
        <ele>708.4</ele>
        <time>2023-05-14T08:24:47.000Z</time>
      </trkpt>
      <trkpt lat="43.74976" lon="3.48218">
        <ele>706.9</ele>
        <time>2023-05-14T08:24:49.000Z</time>
      </trkpt>
      <trkpt lat="43.74986" lon="3.48207">
        <ele>705.3</ele>
        <time>2023-05-14T08:24:51.000Z</time>
      </trkpt>
      <trkpt lat="43.74997" lon="3.48195">
        <ele>704.5</ele>
        <time>2023-05-14T08:24:53.000Z</time>
      </trkpt>
      <trkpt lat="43.7501" lon="3.48185">
        <ele>703.5</ele>
        <time>2023-05-14T08:24:55.000Z</time>
      </trkpt>
      <trkpt lat="43.75023" lon="3.48175">
        <ele>702.7</ele>
        <time>2023-05-14T08:24:57.000Z</time>
      </trkpt>
      <trkpt lat="43.75036" lon="3.48165">
        <ele>701.5</ele>
        <time>2023-05-14T08:24:59.000Z</time>
      </trkpt>
      <trkpt lat="43.75047" lon="3.48151">
        <ele>700.2</ele>
        <time>2023-05-14T08:25:01.000Z</time>
      </trkpt>
      <trkpt lat="43.75057" lon="3.48137">
        <ele>699.6</ele>
        <time>2023-05-14T08:25:03.000Z</time>
      </trkpt>
      <trkpt lat="43.75066" lon="3.48123">
        <ele>699.5</ele>
        <time>2023-05-14T08:25:05.000Z</time>
      </trkpt>
      <trkpt lat="43.75076" lon="3.48111">
        <ele>699</ele>
        <time>2023-05-14T08:25:07.000Z</time>
      </trkpt>
      <trkpt lat="43.75085" lon="3.481">
        <ele>698.3</ele>
        <time>2023-05-14T08:25:09.000Z</time>
      </trkpt>
      <trkpt lat="43.75094" lon="3.48088">
        <ele>697.7</ele>
        <time>2023-05-14T08:25:11.000Z</time>
      </trkpt>
      <trkpt lat="43.751" lon="3.48076">
        <ele>696.7</ele>
        <time>2023-05-14T08:25:13.000Z</time>
      </trkpt>
      <trkpt lat="43.75106" lon="3.48064">
        <ele>696.3</ele>
        <time>2023-05-14T08:25:15.000Z</time>
      </trkpt>
      <trkpt lat="43.75114" lon="3.48054">
        <ele>695.8</ele>
        <time>2023-05-14T08:25:17.000Z</time>
      </trkpt>
      <trkpt lat="43.75122" lon="3.48044">
        <ele>695.8</ele>
        <time>2023-05-14T08:25:19.000Z</time>
      </trkpt>
      <trkpt lat="43.75128" lon="3.48035">
        <ele>695.6</ele>
        <time>2023-05-14T08:25:21.000Z</time>
      </trkpt>
      <trkpt lat="43.75138" lon="3.48026">
        <ele>695.1</ele>
        <time>2023-05-14T08:25:24.000Z</time>
      </trkpt>
      <trkpt lat="43.75149" lon="3.48023">
        <ele>694.9</ele>
        <time>2023-05-14T08:25:27.000Z</time>
      </trkpt>
      <trkpt lat="43.75159" lon="3.48027">
        <ele>694.8</ele>
        <time>2023-05-14T08:25:30.000Z</time>
      </trkpt>
      <trkpt lat="43.7517" lon="3.48029">
        <ele>694.8</ele>
        <time>2023-05-14T08:25:33.000Z</time>
      </trkpt>
      <trkpt lat="43.75182" lon="3.48024">
        <ele>694.8</ele>
        <time>2023-05-14T08:25:36.000Z</time>
      </trkpt>
      <trkpt lat="43.75193" lon="3.48013">
        <ele>694.8</ele>
        <time>2023-05-14T08:25:39.000Z</time>
      </trkpt>
      <trkpt lat="43.75203" lon="3.48002">
        <ele>694.7</ele>
        <time>2023-05-14T08:25:42.000Z</time>
      </trkpt>
      <trkpt lat="43.75214" lon="3.47993">
        <ele>694.5</ele>
        <time>2023-05-14T08:25:45.000Z</time>
      </trkpt>
      <trkpt lat="43.75222" lon="3.47987">
        <ele>694.4</ele>
        <time>2023-05-14T08:25:47.000Z</time>
      </trkpt>
      <trkpt lat="43.75231" lon="3.47982">
        <ele>694.3</ele>
        <time>2023-05-14T08:25:49.000Z</time>
      </trkpt>
      <trkpt lat="43.75241" lon="3.47977">
        <ele>694</ele>
        <time>2023-05-14T08:25:51.000Z</time>
      </trkpt>
      <trkpt lat="43.75252" lon="3.47974">
        <ele>693.7</ele>
        <time>2023-05-14T08:25:53.000Z</time>
      </trkpt>
      <trkpt lat="43.75261" lon="3.47967">
        <ele>693.3</ele>
        <time>2023-05-14T08:25:55.000Z</time>
      </trkpt>
      <trkpt lat="43.75269" lon="3.47956">
        <ele>692.3</ele>
        <time>2023-05-14T08:25:57.000Z</time>
      </trkpt>
      <trkpt lat="43.75278" lon="3.47941">
        <ele>691.2</ele>
        <time>2023-05-14T08:25:59.000Z</time>
      </trkpt>
      <trkpt lat="43.75286" lon="3.47922">
        <ele>689.4</ele>
        <time>2023-05-14T08:26:01.000Z</time>
      </trkpt>
      <trkpt lat="43.75293" lon="3.47901">
        <ele>687.5</ele>
        <time>2023-05-14T08:26:03.000Z</time>
      </trkpt>
      <trkpt lat="43.75296" lon="3.47879">
        <ele>685.8</ele>
        <time>2023-05-14T08:26:05.000Z</time>
      </trkpt>
      <trkpt lat="43.753" lon="3.47859">
        <ele>684.3</ele>
        <time>2023-05-14T08:26:07.000Z</time>
      </trkpt>
      <trkpt lat="43.75303" lon="3.47839">
        <ele>682.8</ele>
        <time>2023-05-14T08:26:09.000Z</time>
      </trkpt>
      <trkpt lat="43.75301" lon="3.4782">
        <ele>681.9</ele>
        <time>2023-05-14T08:26:11.000Z</time>
      </trkpt>
      <trkpt lat="43.75296" lon="3.47804">
        <ele>681.7</ele>
        <time>2023-05-14T08:26:13.000Z</time>
      </trkpt>
      <trkpt lat="43.75292" lon="3.47789">
        <ele>681.6</ele>
        <time>2023-05-14T08:26:15.000Z</time>
      </trkpt>
      <trkpt lat="43.75289" lon="3.47773">
        <ele>681.5</ele>
        <time>2023-05-14T08:26:17.000Z</time>
      </trkpt>
      <trkpt lat="43.75287" lon="3.47759">
        <ele>681.6</ele>
        <time>2023-05-14T08:26:19.000Z</time>
      </trkpt>
      <trkpt lat="43.75285" lon="3.47745">
        <ele>681.7</ele>
        <time>2023-05-14T08:26:21.000Z</time>
      </trkpt>
      <trkpt lat="43.75283" lon="3.47731">
        <ele>681.8</ele>
        <time>2023-05-14T08:26:23.000Z</time>
      </trkpt>
      <trkpt lat="43.75281" lon="3.47718">
        <ele>681.8</ele>
        <time>2023-05-14T08:26:25.000Z</time>
      </trkpt>
      <trkpt lat="43.75279" lon="3.47704">
        <ele>681.9</ele>
        <time>2023-05-14T08:26:27.000Z</time>
      </trkpt>
      <trkpt lat="43.75277" lon="3.4769">
        <ele>681.8</ele>
        <time>2023-05-14T08:26:29.000Z</time>
      </trkpt>
      <trkpt lat="43.75275" lon="3.47677">
        <ele>681.7</ele>
        <time>2023-05-14T08:26:31.000Z</time>
      </trkpt>
      <trkpt lat="43.75273" lon="3.47664">
        <ele>681.8</ele>
        <time>2023-05-14T08:26:33.000Z</time>
      </trkpt>
      <trkpt lat="43.75271" lon="3.47651">
        <ele>681.8</ele>
        <time>2023-05-14T08:26:35.000Z</time>
      </trkpt>
      <trkpt lat="43.7527" lon="3.47637">
        <ele>681.7</ele>
        <time>2023-05-14T08:26:37.000Z</time>
      </trkpt>
      <trkpt lat="43.75269" lon="3.47623">
        <ele>681.7</ele>
        <time>2023-05-14T08:26:39.000Z</time>
      </trkpt>
      <trkpt lat="43.75269" lon="3.47609">
        <ele>681.7</ele>
        <time>2023-05-14T08:26:41.000Z</time>
      </trkpt>
      <trkpt lat="43.7527" lon="3.47594">
        <ele>681.8</ele>
        <time>2023-05-14T08:26:43.000Z</time>
      </trkpt>
      <trkpt lat="43.75271" lon="3.4758">
        <ele>682</ele>
        <time>2023-05-14T08:26:45.000Z</time>
      </trkpt>
      <trkpt lat="43.75271" lon="3.47567">
        <ele>682.2</ele>
        <time>2023-05-14T08:26:47.000Z</time>
      </trkpt>
      <trkpt lat="43.75271" lon="3.47549">
        <ele>682.5</ele>
        <time>2023-05-14T08:26:50.000Z</time>
      </trkpt>
      <trkpt lat="43.75271" lon="3.47532">
        <ele>682.9</ele>
        <time>2023-05-14T08:26:53.000Z</time>
      </trkpt>
      <trkpt lat="43.75269" lon="3.47517">
        <ele>683.1</ele>
        <time>2023-05-14T08:26:56.000Z</time>
      </trkpt>
      <trkpt lat="43.75268" lon="3.47502">
        <ele>683.3</ele>
        <time>2023-05-14T08:26:59.000Z</time>
      </trkpt>
      <trkpt lat="43.75266" lon="3.47488">
        <ele>683.4</ele>
        <time>2023-05-14T08:27:02.000Z</time>
      </trkpt>
      <trkpt lat="43.75265" lon="3.47473">
        <ele>683.7</ele>
        <time>2023-05-14T08:27:05.000Z</time>
      </trkpt>
      <trkpt lat="43.75264" lon="3.47459">
        <ele>684.2</ele>
        <time>2023-05-14T08:27:08.000Z</time>
      </trkpt>
      <trkpt lat="43.75263" lon="3.47442">
        <ele>684.7</ele>
        <time>2023-05-14T08:27:11.000Z</time>
      </trkpt>
      <trkpt lat="43.75262" lon="3.47426">
        <ele>685.2</ele>
        <time>2023-05-14T08:27:14.000Z</time>
      </trkpt>
      <trkpt lat="43.75262" lon="3.47409">
        <ele>685.7</ele>
        <time>2023-05-14T08:27:17.000Z</time>
      </trkpt>
      <trkpt lat="43.75261" lon="3.47394">
        <ele>686.1</ele>
        <time>2023-05-14T08:27:20.000Z</time>
      </trkpt>
      <trkpt lat="43.75261" lon="3.47378">
        <ele>686.5</ele>
        <time>2023-05-14T08:27:23.000Z</time>
      </trkpt>
      <trkpt lat="43.75261" lon="3.47361">
        <ele>686.6</ele>
        <time>2023-05-14T08:27:26.000Z</time>
      </trkpt>
      <trkpt lat="43.75262" lon="3.47345">
        <ele>686.8</ele>
        <time>2023-05-14T08:27:29.000Z</time>
      </trkpt>
      <trkpt lat="43.75264" lon="3.47328">
        <ele>687.1</ele>
        <time>2023-05-14T08:27:32.000Z</time>
      </trkpt>
      <trkpt lat="43.75265" lon="3.47311">
        <ele>687.1</ele>
        <time>2023-05-14T08:27:35.000Z</time>
      </trkpt>
      <trkpt lat="43.75265" lon="3.47294">
        <ele>687.1</ele>
        <time>2023-05-14T08:27:38.000Z</time>
      </trkpt>
      <trkpt lat="43.75263" lon="3.47277">
        <ele>687.2</ele>
        <time>2023-05-14T08:27:41.000Z</time>
      </trkpt>
      <trkpt lat="43.75262" lon="3.47259">
        <ele>687.2</ele>
        <time>2023-05-14T08:27:44.000Z</time>
      </trkpt>
      <trkpt lat="43.75262" lon="3.47241">
        <ele>687.4</ele>
        <time>2023-05-14T08:27:47.000Z</time>
      </trkpt>
      <trkpt lat="43.75263" lon="3.47223">
        <ele>687.6</ele>
        <time>2023-05-14T08:27:50.000Z</time>
      </trkpt>
      <trkpt lat="43.75264" lon="3.47206">
        <ele>687.8</ele>
        <time>2023-05-14T08:27:53.000Z</time>
      </trkpt>
      <trkpt lat="43.75266" lon="3.47189">
        <ele>688</ele>
        <time>2023-05-14T08:27:56.000Z</time>
      </trkpt>
      <trkpt lat="43.75267" lon="3.47172">
        <ele>688.1</ele>
        <time>2023-05-14T08:27:59.000Z</time>
      </trkpt>
      <trkpt lat="43.75268" lon="3.47157">
        <ele>688.2</ele>
        <time>2023-05-14T08:28:02.000Z</time>
      </trkpt>
      <trkpt lat="43.75269" lon="3.47141">
        <ele>688.4</ele>
        <time>2023-05-14T08:28:05.000Z</time>
      </trkpt>
      <trkpt lat="43.75271" lon="3.47127">
        <ele>688.6</ele>
        <time>2023-05-14T08:28:08.000Z</time>
      </trkpt>
      <trkpt lat="43.75273" lon="3.47112">
        <ele>689.1</ele>
        <time>2023-05-14T08:28:11.000Z</time>
      </trkpt>
      <trkpt lat="43.75275" lon="3.47098">
        <ele>689.4</ele>
        <time>2023-05-14T08:28:14.000Z</time>
      </trkpt>
      <trkpt lat="43.75279" lon="3.47083">
        <ele>689.9</ele>
        <time>2023-05-14T08:28:17.000Z</time>
      </trkpt>
      <trkpt lat="43.75282" lon="3.47068">
        <ele>690.4</ele>
        <time>2023-05-14T08:28:20.000Z</time>
      </trkpt>
      <trkpt lat="43.75284" lon="3.47053">
        <ele>690.5</ele>
        <time>2023-05-14T08:28:23.000Z</time>
      </trkpt>
      <trkpt lat="43.75287" lon="3.47038">
        <ele>690.6</ele>
        <time>2023-05-14T08:28:26.000Z</time>
      </trkpt>
      <trkpt lat="43.7529" lon="3.47023">
        <ele>690.9</ele>
        <time>2023-05-14T08:28:29.000Z</time>
      </trkpt>
      <trkpt lat="43.75293" lon="3.47008">
        <ele>691.4</ele>
        <time>2023-05-14T08:28:32.000Z</time>
      </trkpt>
      <trkpt lat="43.75296" lon="3.46993">
        <ele>692</ele>
        <time>2023-05-14T08:28:35.000Z</time>
      </trkpt>
      <trkpt lat="43.75298" lon="3.46978">
        <ele>692.3</ele>
        <time>2023-05-14T08:28:38.000Z</time>
      </trkpt>
      <trkpt lat="43.75299" lon="3.46963">
        <ele>692.6</ele>
        <time>2023-05-14T08:28:41.000Z</time>
      </trkpt>
      <trkpt lat="43.75297" lon="3.4695">
        <ele>692.9</ele>
        <time>2023-05-14T08:28:44.000Z</time>
      </trkpt>
      <trkpt lat="43.75296" lon="3.46937">
        <ele>693.1</ele>
        <time>2023-05-14T08:28:47.000Z</time>
      </trkpt>
      <trkpt lat="43.75296" lon="3.46923">
        <ele>693.4</ele>
        <time>2023-05-14T08:28:50.000Z</time>
      </trkpt>
      <trkpt lat="43.75295" lon="3.46908">
        <ele>693.8</ele>
        <time>2023-05-14T08:28:53.000Z</time>
      </trkpt>
      <trkpt lat="43.75295" lon="3.46895">
        <ele>694.2</ele>
        <time>2023-05-14T08:28:56.000Z</time>
      </trkpt>
      <trkpt lat="43.75296" lon="3.46881">
        <ele>694.7</ele>
        <time>2023-05-14T08:28:59.000Z</time>
      </trkpt>
      <trkpt lat="43.75296" lon="3.46868">
        <ele>695.1</ele>
        <time>2023-05-14T08:29:02.000Z</time>
      </trkpt>
      <trkpt lat="43.75296" lon="3.46855">
        <ele>695.5</ele>
        <time>2023-05-14T08:29:05.000Z</time>
      </trkpt>
      <trkpt lat="43.75294" lon="3.46839">
        <ele>696.1</ele>
        <time>2023-05-14T08:29:09.000Z</time>
      </trkpt>
      <trkpt lat="43.75293" lon="3.46825">
        <ele>696.7</ele>
        <time>2023-05-14T08:29:13.000Z</time>
      </trkpt>
      <trkpt lat="43.75291" lon="3.46811">
        <ele>697.6</ele>
        <time>2023-05-14T08:29:17.000Z</time>
      </trkpt>
      <trkpt lat="43.75289" lon="3.46797">
        <ele>698.3</ele>
        <time>2023-05-14T08:29:21.000Z</time>
      </trkpt>
      <trkpt lat="43.75288" lon="3.46783">
        <ele>699.1</ele>
        <time>2023-05-14T08:29:25.000Z</time>
      </trkpt>
      <trkpt lat="43.75291" lon="3.4677">
        <ele>700.1</ele>
        <time>2023-05-14T08:29:29.000Z</time>
      </trkpt>
      <trkpt lat="43.75296" lon="3.46757">
        <ele>701</ele>
        <time>2023-05-14T08:29:33.000Z</time>
      </trkpt>
      <trkpt lat="43.75299" lon="3.46743">
        <ele>701.4</ele>
        <time>2023-05-14T08:29:37.000Z</time>
      </trkpt>
      <trkpt lat="43.75295" lon="3.46728">
        <ele>701.9</ele>
        <time>2023-05-14T08:29:41.000Z</time>
      </trkpt>
      <trkpt lat="43.75288" lon="3.46716">
        <ele>702.1</ele>
        <time>2023-05-14T08:29:44.000Z</time>
      </trkpt>
      <trkpt lat="43.75279" lon="3.46709">
        <ele>702.3</ele>
        <time>2023-05-14T08:29:47.000Z</time>
      </trkpt>
      <trkpt lat="43.75269" lon="3.46705">
        <ele>702.5</ele>
        <time>2023-05-14T08:29:50.000Z</time>
      </trkpt>
      <trkpt lat="43.75258" lon="3.467">
        <ele>702.7</ele>
        <time>2023-05-14T08:29:53.000Z</time>
      </trkpt>
      <trkpt lat="43.7525" lon="3.4669">
        <ele>702.9</ele>
        <time>2023-05-14T08:29:56.000Z</time>
      </trkpt>
      <trkpt lat="43.75242" lon="3.46681">
        <ele>703.1</ele>
        <time>2023-05-14T08:29:59.000Z</time>
      </trkpt>
      <trkpt lat="43.75235" lon="3.4667">
        <ele>703.4</ele>
        <time>2023-05-14T08:30:02.000Z</time>
      </trkpt>
      <trkpt lat="43.75228" lon="3.46659">
        <ele>703.8</ele>
        <time>2023-05-14T08:30:05.000Z</time>
      </trkpt>
      <trkpt lat="43.75223" lon="3.46647">
        <ele>704.2</ele>
        <time>2023-05-14T08:30:08.000Z</time>
      </trkpt>
      <trkpt lat="43.75214" lon="3.46641">
        <ele>704.7</ele>
        <time>2023-05-14T08:30:12.000Z</time>
      </trkpt>
      <trkpt lat="43.75208" lon="3.46654">
        <ele>704.7</ele>
        <time>2023-05-14T08:30:15.000Z</time>
      </trkpt>
      <trkpt lat="43.752" lon="3.46664">
        <ele>704.8</ele>
        <time>2023-05-14T08:30:18.000Z</time>
      </trkpt>
      <trkpt lat="43.75188" lon="3.46668">
        <ele>704.8</ele>
        <time>2023-05-14T08:30:21.000Z</time>
      </trkpt>
      <trkpt lat="43.75176" lon="3.46671">
        <ele>704.7</ele>
        <time>2023-05-14T08:30:24.000Z</time>
      </trkpt>
      <trkpt lat="43.75166" lon="3.46674">
        <ele>704.5</ele>
        <time>2023-05-14T08:30:28.000Z</time>
      </trkpt>
      <trkpt lat="43.75153" lon="3.46671">
        <ele>704.1</ele>
        <time>2023-05-14T08:30:31.000Z</time>
      </trkpt>
      <trkpt lat="43.75143" lon="3.46673">
        <ele>703.4</ele>
        <time>2023-05-14T08:30:33.000Z</time>
      </trkpt>
      <trkpt lat="43.75133" lon="3.4668">
        <ele>702.5</ele>
        <time>2023-05-14T08:30:35.000Z</time>
      </trkpt>
      <trkpt lat="43.75122" lon="3.46685">
        <ele>701.4</ele>
        <time>2023-05-14T08:30:37.000Z</time>
      </trkpt>
      <trkpt lat="43.75112" lon="3.46685">
        <ele>700.1</ele>
        <time>2023-05-14T08:30:39.000Z</time>
      </trkpt>
      <trkpt lat="43.75104" lon="3.46682">
        <ele>698.9</ele>
        <time>2023-05-14T08:30:41.000Z</time>
      </trkpt>
      <trkpt lat="43.75095" lon="3.46678">
        <ele>697.7</ele>
        <time>2023-05-14T08:30:43.000Z</time>
      </trkpt>
      <trkpt lat="43.75086" lon="3.46674">
        <ele>696.9</ele>
        <time>2023-05-14T08:30:45.000Z</time>
      </trkpt>
      <trkpt lat="43.75075" lon="3.46666">
        <ele>695.9</ele>
        <time>2023-05-14T08:30:48.000Z</time>
      </trkpt>
      <trkpt lat="43.75062" lon="3.46666">
        <ele>694.3</ele>
        <time>2023-05-14T08:30:51.000Z</time>
      </trkpt>
      <trkpt lat="43.75052" lon="3.46663">
        <ele>693.3</ele>
        <time>2023-05-14T08:30:53.000Z</time>
      </trkpt>
      <trkpt lat="43.75044" lon="3.46653">
        <ele>692.9</ele>
        <time>2023-05-14T08:30:55.000Z</time>
      </trkpt>
      <trkpt lat="43.75037" lon="3.46642">
        <ele>692.3</ele>
        <time>2023-05-14T08:30:59.000Z</time>
      </trkpt>
      <trkpt lat="43.75029" lon="3.46634">
        <ele>691.6</ele>
        <time>2023-05-14T08:31:03.000Z</time>
      </trkpt>
      <trkpt lat="43.75029" lon="3.46621">
        <ele>690.8</ele>
        <time>2023-05-14T08:31:07.000Z</time>
      </trkpt>
      <trkpt lat="43.7502" lon="3.46611">
        <ele>689.3</ele>
        <time>2023-05-14T08:31:11.000Z</time>
      </trkpt>
      <trkpt lat="43.7501" lon="3.46614">
        <ele>687.9</ele>
        <time>2023-05-14T08:31:14.000Z</time>
      </trkpt>
      <trkpt lat="43.75001" lon="3.46618">
        <ele>686.8</ele>
        <time>2023-05-14T08:31:16.000Z</time>
      </trkpt>
      <trkpt lat="43.74992" lon="3.46625">
        <ele>686</ele>
        <time>2023-05-14T08:31:19.000Z</time>
      </trkpt>
      <trkpt lat="43.74983" lon="3.46629">
        <ele>685.9</ele>
        <time>2023-05-14T08:31:23.000Z</time>
      </trkpt>
      <trkpt lat="43.74973" lon="3.46634">
        <ele>686.4</ele>
        <time>2023-05-14T08:31:27.000Z</time>
      </trkpt>
      <trkpt lat="43.74963" lon="3.46637">
        <ele>687.1</ele>
        <time>2023-05-14T08:31:31.000Z</time>
      </trkpt>
      <trkpt lat="43.74953" lon="3.46641">
        <ele>688.2</ele>
        <time>2023-05-14T08:31:36.000Z</time>
      </trkpt>
      <trkpt lat="43.74946" lon="3.46649">
        <ele>688.8</ele>
        <time>2023-05-14T08:31:40.000Z</time>
      </trkpt>
      <trkpt lat="43.74938" lon="3.46659">
        <ele>689.1</ele>
        <time>2023-05-14T08:31:43.000Z</time>
      </trkpt>
      <trkpt lat="43.74929" lon="3.46666">
        <ele>689.1</ele>
        <time>2023-05-14T08:31:45.000Z</time>
      </trkpt>
      <trkpt lat="43.74921" lon="3.46676">
        <ele>689</ele>
        <time>2023-05-14T08:31:47.000Z</time>
      </trkpt>
      <trkpt lat="43.74912" lon="3.46682">
        <ele>688.8</ele>
        <time>2023-05-14T08:31:49.000Z</time>
      </trkpt>
      <trkpt lat="43.74902" lon="3.46686">
        <ele>688.6</ele>
        <time>2023-05-14T08:31:51.000Z</time>
      </trkpt>
      <trkpt lat="43.74892" lon="3.46689">
        <ele>688.4</ele>
        <time>2023-05-14T08:31:53.000Z</time>
      </trkpt>
      <trkpt lat="43.7488" lon="3.46689">
        <ele>688.2</ele>
        <time>2023-05-14T08:31:56.000Z</time>
      </trkpt>
      <trkpt lat="43.74869" lon="3.46685">
        <ele>688.1</ele>
        <time>2023-05-14T08:31:59.000Z</time>
      </trkpt>
      <trkpt lat="43.7486" lon="3.46675">
        <ele>688.2</ele>
        <time>2023-05-14T08:32:02.000Z</time>
      </trkpt>
      <trkpt lat="43.74856" lon="3.46661">
        <ele>688.3</ele>
        <time>2023-05-14T08:32:05.000Z</time>
      </trkpt>
      <trkpt lat="43.74854" lon="3.46646">
        <ele>688.4</ele>
        <time>2023-05-14T08:32:08.000Z</time>
      </trkpt>
      <trkpt lat="43.74857" lon="3.46632">
        <ele>688.7</ele>
        <time>2023-05-14T08:32:12.000Z</time>
      </trkpt>
      <trkpt lat="43.74865" lon="3.46625">
        <ele>689.7</ele>
        <time>2023-05-14T08:32:17.000Z</time>
      </trkpt>
      <trkpt lat="43.74874" lon="3.46619">
        <ele>691</ele>
        <time>2023-05-14T08:32:21.000Z</time>
      </trkpt>
      <trkpt lat="43.74878" lon="3.46607">
        <ele>692.8</ele>
        <time>2023-05-14T08:32:25.000Z</time>
      </trkpt>
      <trkpt lat="43.74879" lon="3.46595">
        <ele>694.9</ele>
        <time>2023-05-14T08:32:30.000Z</time>
      </trkpt>
      <trkpt lat="43.74885" lon="3.46583">
        <ele>696.3</ele>
        <time>2023-05-14T08:32:34.000Z</time>
      </trkpt>
      <trkpt lat="43.74893" lon="3.46574">
        <ele>697.9</ele>
        <time>2023-05-14T08:32:38.000Z</time>
      </trkpt>
      <trkpt lat="43.74903" lon="3.46568">
        <ele>699.5</ele>
        <time>2023-05-14T08:32:42.000Z</time>
      </trkpt>
      <trkpt lat="43.74912" lon="3.46564">
        <ele>700.5</ele>
        <time>2023-05-14T08:32:45.000Z</time>
      </trkpt>
      <trkpt lat="43.74924" lon="3.46558">
        <ele>701.3</ele>
        <time>2023-05-14T08:32:49.000Z</time>
      </trkpt>
      <trkpt lat="43.74933" lon="3.46552">
        <ele>701.8</ele>
        <time>2023-05-14T08:32:52.000Z</time>
      </trkpt>
      <trkpt lat="43.74942" lon="3.46548">
        <ele>702</ele>
        <time>2023-05-14T08:32:55.000Z</time>
      </trkpt>
      <trkpt lat="43.74949" lon="3.4654">
        <ele>702.2</ele>
        <time>2023-05-14T08:32:57.000Z</time>
      </trkpt>
      <trkpt lat="43.74955" lon="3.46525">
        <ele>702.3</ele>
        <time>2023-05-14T08:33:00.000Z</time>
      </trkpt>
      <trkpt lat="43.7496" lon="3.46513">
        <ele>702.5</ele>
        <time>2023-05-14T08:33:03.000Z</time>
      </trkpt>
      <trkpt lat="43.74966" lon="3.46503">
        <ele>702.9</ele>
        <time>2023-05-14T08:33:06.000Z</time>
      </trkpt>
      <trkpt lat="43.74974" lon="3.46493">
        <ele>703.4</ele>
        <time>2023-05-14T08:33:09.000Z</time>
      </trkpt>
      <trkpt lat="43.74976" lon="3.46478">
        <ele>703.8</ele>
        <time>2023-05-14T08:33:12.000Z</time>
      </trkpt>
      <trkpt lat="43.74981" lon="3.46463">
        <ele>704.2</ele>
        <time>2023-05-14T08:33:15.000Z</time>
      </trkpt>
      <trkpt lat="43.74987" lon="3.46453">
        <ele>704.4</ele>
        <time>2023-05-14T08:33:17.000Z</time>
      </trkpt>
      <trkpt lat="43.74993" lon="3.46437">
        <ele>704.8</ele>
        <time>2023-05-14T08:33:20.000Z</time>
      </trkpt>
      <trkpt lat="43.74993" lon="3.46424">
        <ele>704.9</ele>
        <time>2023-05-14T08:33:22.000Z</time>
      </trkpt>
      <trkpt lat="43.74995" lon="3.46409">
        <ele>705</ele>
        <time>2023-05-14T08:33:24.000Z</time>
      </trkpt>
      <trkpt lat="43.74992" lon="3.46395">
        <ele>705</ele>
        <time>2023-05-14T08:33:26.000Z</time>
      </trkpt>
      <trkpt lat="43.74985" lon="3.46384">
        <ele>704.9</ele>
        <time>2023-05-14T08:33:28.000Z</time>
      </trkpt>
      <trkpt lat="43.74976" lon="3.46377">
        <ele>704.8</ele>
        <time>2023-05-14T08:33:30.000Z</time>
      </trkpt>
      <trkpt lat="43.74964" lon="3.46376">
        <ele>704.6</ele>
        <time>2023-05-14T08:33:32.000Z</time>
      </trkpt>
      <trkpt lat="43.74954" lon="3.46373">
        <ele>704.3</ele>
        <time>2023-05-14T08:33:34.000Z</time>
      </trkpt>
      <trkpt lat="43.74946" lon="3.46359">
        <ele>704.1</ele>
        <time>2023-05-14T08:33:37.000Z</time>
      </trkpt>
      <trkpt lat="43.74939" lon="3.4635">
        <ele>703.9</ele>
        <time>2023-05-14T08:33:39.000Z</time>
      </trkpt>
      <trkpt lat="43.74929" lon="3.46345">
        <ele>703.8</ele>
        <time>2023-05-14T08:33:41.000Z</time>
      </trkpt>
      <trkpt lat="43.74918" lon="3.46342">
        <ele>703.6</ele>
        <time>2023-05-14T08:33:43.000Z</time>
      </trkpt>
      <trkpt lat="43.74907" lon="3.46336">
        <ele>703.4</ele>
        <time>2023-05-14T08:33:45.000Z</time>
      </trkpt>
      <trkpt lat="43.74899" lon="3.46343">
        <ele>702.8</ele>
        <time>2023-05-14T08:33:49.000Z</time>
      </trkpt>
      <trkpt lat="43.74891" lon="3.46357">
        <ele>701.8</ele>
        <time>2023-05-14T08:33:52.000Z</time>
      </trkpt>
      <trkpt lat="43.74882" lon="3.46365">
        <ele>700.8</ele>
        <time>2023-05-14T08:33:54.000Z</time>
      </trkpt>
      <trkpt lat="43.74871" lon="3.46363">
        <ele>699.5</ele>
        <time>2023-05-14T08:33:56.000Z</time>
      </trkpt>
      <trkpt lat="43.74859" lon="3.46363">
        <ele>698.2</ele>
        <time>2023-05-14T08:33:58.000Z</time>
      </trkpt>
      <trkpt lat="43.74848" lon="3.46369">
        <ele>696.5</ele>
        <time>2023-05-14T08:34:00.000Z</time>
      </trkpt>
      <trkpt lat="43.74837" lon="3.46377">
        <ele>694.6</ele>
        <time>2023-05-14T08:34:02.000Z</time>
      </trkpt>
      <trkpt lat="43.74826" lon="3.4638">
        <ele>692</ele>
        <time>2023-05-14T08:34:05.000Z</time>
      </trkpt>
      <trkpt lat="43.74815" lon="3.46377">
        <ele>690.6</ele>
        <time>2023-05-14T08:34:08.000Z</time>
      </trkpt>
      <trkpt lat="43.74805" lon="3.46374">
        <ele>689.7</ele>
        <time>2023-05-14T08:34:10.000Z</time>
      </trkpt>
      <trkpt lat="43.74794" lon="3.46375">
        <ele>688.7</ele>
        <time>2023-05-14T08:34:12.000Z</time>
      </trkpt>
      <trkpt lat="43.74783" lon="3.46375">
        <ele>687.8</ele>
        <time>2023-05-14T08:34:14.000Z</time>
      </trkpt>
      <trkpt lat="43.74772" lon="3.46379">
        <ele>687.2</ele>
        <time>2023-05-14T08:34:16.000Z</time>
      </trkpt>
      <trkpt lat="43.74763" lon="3.46383">
        <ele>686.8</ele>
        <time>2023-05-14T08:34:18.000Z</time>
      </trkpt>
      <trkpt lat="43.74752" lon="3.46384">
        <ele>686</ele>
        <time>2023-05-14T08:34:20.000Z</time>
      </trkpt>
      <trkpt lat="43.7474" lon="3.46381">
        <ele>685.1</ele>
        <time>2023-05-14T08:34:22.000Z</time>
      </trkpt>
      <trkpt lat="43.7473" lon="3.46381">
        <ele>684.4</ele>
        <time>2023-05-14T08:34:24.000Z</time>
      </trkpt>
      <trkpt lat="43.74722" lon="3.46371">
        <ele>683.9</ele>
        <time>2023-05-14T08:34:27.000Z</time>
      </trkpt>
      <trkpt lat="43.74713" lon="3.4636">
        <ele>683.3</ele>
        <time>2023-05-14T08:34:30.000Z</time>
      </trkpt>
      <trkpt lat="43.74702" lon="3.4636">
        <ele>682.8</ele>
        <time>2023-05-14T08:34:32.000Z</time>
      </trkpt>
      <trkpt lat="43.74691" lon="3.46358">
        <ele>682.5</ele>
        <time>2023-05-14T08:34:34.000Z</time>
      </trkpt>
      <trkpt lat="43.74681" lon="3.46356">
        <ele>682.3</ele>
        <time>2023-05-14T08:34:36.000Z</time>
      </trkpt>
      <trkpt lat="43.74672" lon="3.46353">
        <ele>682.2</ele>
        <time>2023-05-14T08:34:38.000Z</time>
      </trkpt>
      <trkpt lat="43.74663" lon="3.4635">
        <ele>682</ele>
        <time>2023-05-14T08:34:40.000Z</time>
      </trkpt>
      <trkpt lat="43.74653" lon="3.46347">
        <ele>681.8</ele>
        <time>2023-05-14T08:34:42.000Z</time>
      </trkpt>
      <trkpt lat="43.74642" lon="3.46344">
        <ele>681.7</ele>
        <time>2023-05-14T08:34:44.000Z</time>
      </trkpt>
      <trkpt lat="43.7463" lon="3.46344">
        <ele>681.5</ele>
        <time>2023-05-14T08:34:46.000Z</time>
      </trkpt>
      <trkpt lat="43.74618" lon="3.46346">
        <ele>681.1</ele>
        <time>2023-05-14T08:34:48.000Z</time>
      </trkpt>
      <trkpt lat="43.74608" lon="3.46346">
        <ele>680.7</ele>
        <time>2023-05-14T08:34:50.000Z</time>
      </trkpt>
      <trkpt lat="43.74595" lon="3.46343">
        <ele>680.3</ele>
        <time>2023-05-14T08:34:53.000Z</time>
      </trkpt>
      <trkpt lat="43.74586" lon="3.46343">
        <ele>680.4</ele>
        <time>2023-05-14T08:34:55.000Z</time>
      </trkpt>
      <trkpt lat="43.74573" lon="3.46341">
        <ele>680.7</ele>
        <time>2023-05-14T08:34:58.000Z</time>
      </trkpt>
      <trkpt lat="43.74564" lon="3.46331">
        <ele>681.2</ele>
        <time>2023-05-14T08:35:01.000Z</time>
      </trkpt>
      <trkpt lat="43.74558" lon="3.46318">
        <ele>681.9</ele>
        <time>2023-05-14T08:35:04.000Z</time>
      </trkpt>
      <trkpt lat="43.7455" lon="3.46307">
        <ele>682.5</ele>
        <time>2023-05-14T08:35:07.000Z</time>
      </trkpt>
      <trkpt lat="43.74543" lon="3.46293">
        <ele>683</ele>
        <time>2023-05-14T08:35:10.000Z</time>
      </trkpt>
      <trkpt lat="43.74536" lon="3.46284">
        <ele>683.3</ele>
        <time>2023-05-14T08:35:12.000Z</time>
      </trkpt>
      <trkpt lat="43.74529" lon="3.4627">
        <ele>683.9</ele>
        <time>2023-05-14T08:35:15.000Z</time>
      </trkpt>
      <trkpt lat="43.74523" lon="3.46255">
        <ele>684.5</ele>
        <time>2023-05-14T08:35:18.000Z</time>
      </trkpt>
      <trkpt lat="43.7452" lon="3.46241">
        <ele>685.1</ele>
        <time>2023-05-14T08:35:21.000Z</time>
      </trkpt>
      <trkpt lat="43.74518" lon="3.46226">
        <ele>686</ele>
        <time>2023-05-14T08:35:24.000Z</time>
      </trkpt>
      <trkpt lat="43.74518" lon="3.46213">
        <ele>687.8</ele>
        <time>2023-05-14T08:35:28.000Z</time>
      </trkpt>
      <trkpt lat="43.7452" lon="3.46201">
        <ele>690.1</ele>
        <time>2023-05-14T08:35:32.000Z</time>
      </trkpt>
      <trkpt lat="43.7452" lon="3.46188">
        <ele>692.3</ele>
        <time>2023-05-14T08:35:36.000Z</time>
      </trkpt>
      <trkpt lat="43.74518" lon="3.46174">
        <ele>694.1</ele>
        <time>2023-05-14T08:35:41.000Z</time>
      </trkpt>
      <trkpt lat="43.74512" lon="3.46164">
        <ele>695.2</ele>
        <time>2023-05-14T08:35:45.000Z</time>
      </trkpt>
      <trkpt lat="43.74509" lon="3.46151">
        <ele>696.5</ele>
        <time>2023-05-14T08:35:51.000Z</time>
      </trkpt>
      <trkpt lat="43.74506" lon="3.46134">
        <ele>697</ele>
        <time>2023-05-14T08:35:55.000Z</time>
      </trkpt>
      <trkpt lat="43.74502" lon="3.46121">
        <ele>697.3</ele>
        <time>2023-05-14T08:35:58.000Z</time>
      </trkpt>
      <trkpt lat="43.74499" lon="3.46109">
        <ele>697.6</ele>
        <time>2023-05-14T08:36:01.000Z</time>
      </trkpt>
      <trkpt lat="43.74495" lon="3.46097">
        <ele>698</ele>
        <time>2023-05-14T08:36:04.000Z</time>
      </trkpt>
      <trkpt lat="43.74492" lon="3.46083">
        <ele>698.5</ele>
        <time>2023-05-14T08:36:07.000Z</time>
      </trkpt>
      <trkpt lat="43.74492" lon="3.46069">
        <ele>699</ele>
        <time>2023-05-14T08:36:10.000Z</time>
      </trkpt>
      <trkpt lat="43.74491" lon="3.46055">
        <ele>699.5</ele>
        <time>2023-05-14T08:36:13.000Z</time>
      </trkpt>
      <trkpt lat="43.74492" lon="3.46041">
        <ele>700.6</ele>
        <time>2023-05-14T08:36:17.000Z</time>
      </trkpt>
      <trkpt lat="43.74487" lon="3.4603">
        <ele>701.5</ele>
        <time>2023-05-14T08:36:20.000Z</time>
      </trkpt>
      <trkpt lat="43.74485" lon="3.46017">
        <ele>702.3</ele>
        <time>2023-05-14T08:36:23.000Z</time>
      </trkpt>
      <trkpt lat="43.74484" lon="3.46004">
        <ele>703.3</ele>
        <time>2023-05-14T08:36:26.000Z</time>
      </trkpt>
      <trkpt lat="43.74482" lon="3.45988">
        <ele>704.5</ele>
        <time>2023-05-14T08:36:30.000Z</time>
      </trkpt>
      <trkpt lat="43.7448" lon="3.45973">
        <ele>706.1</ele>
        <time>2023-05-14T08:36:34.000Z</time>
      </trkpt>
      <trkpt lat="43.7448" lon="3.45959">
        <ele>707.9</ele>
        <time>2023-05-14T08:36:38.000Z</time>
      </trkpt>
      <trkpt lat="43.74476" lon="3.45947">
        <ele>709.3</ele>
        <time>2023-05-14T08:36:42.000Z</time>
      </trkpt>
      <trkpt lat="43.74469" lon="3.45938">
        <ele>710.8</ele>
        <time>2023-05-14T08:36:46.000Z</time>
      </trkpt>
      <trkpt lat="43.74459" lon="3.45934">
        <ele>712</ele>
        <time>2023-05-14T08:36:50.000Z</time>
      </trkpt>
      <trkpt lat="43.74451" lon="3.45928">
        <ele>713</ele>
        <time>2023-05-14T08:36:54.000Z</time>
      </trkpt>
      <trkpt lat="43.74442" lon="3.45921">
        <ele>713.9</ele>
        <time>2023-05-14T08:36:58.000Z</time>
      </trkpt>
      <trkpt lat="43.74433" lon="3.45913">
        <ele>715.3</ele>
        <time>2023-05-14T08:37:02.000Z</time>
      </trkpt>
      <trkpt lat="43.74424" lon="3.45905">
        <ele>716.3</ele>
        <time>2023-05-14T08:37:06.000Z</time>
      </trkpt>
      <trkpt lat="43.74414" lon="3.45899">
        <ele>716.7</ele>
        <time>2023-05-14T08:37:10.000Z</time>
      </trkpt>
      <trkpt lat="43.74403" lon="3.45896">
        <ele>716.9</ele>
        <time>2023-05-14T08:37:14.000Z</time>
      </trkpt>
      <trkpt lat="43.74392" lon="3.45893">
        <ele>717</ele>
        <time>2023-05-14T08:37:18.000Z</time>
      </trkpt>
      <trkpt lat="43.74382" lon="3.45887">
        <ele>717.3</ele>
        <time>2023-05-14T08:37:22.000Z</time>
      </trkpt>
      <trkpt lat="43.74372" lon="3.45885">
        <ele>717.8</ele>
        <time>2023-05-14T08:37:27.000Z</time>
      </trkpt>
      <trkpt lat="43.74362" lon="3.45884">
        <ele>718.4</ele>
        <time>2023-05-14T08:37:31.000Z</time>
      </trkpt>
      <trkpt lat="43.74351" lon="3.45881">
        <ele>719.3</ele>
        <time>2023-05-14T08:37:35.000Z</time>
      </trkpt>
      <trkpt lat="43.74341" lon="3.45879">
        <ele>720.5</ele>
        <time>2023-05-14T08:37:39.000Z</time>
      </trkpt>
      <trkpt lat="43.74332" lon="3.45874">
        <ele>722.1</ele>
        <time>2023-05-14T08:37:44.000Z</time>
      </trkpt>
      <trkpt lat="43.74322" lon="3.45865">
        <ele>724</ele>
        <time>2023-05-14T08:37:49.000Z</time>
      </trkpt>
      <trkpt lat="43.74313" lon="3.45861">
        <ele>725.3</ele>
        <time>2023-05-14T08:37:53.000Z</time>
      </trkpt>
      <trkpt lat="43.74304" lon="3.45855">
        <ele>727.2</ele>
        <time>2023-05-14T08:37:57.000Z</time>
      </trkpt>
      <trkpt lat="43.74294" lon="3.45849">
        <ele>729.3</ele>
        <time>2023-05-14T08:38:03.000Z</time>
      </trkpt>
      <trkpt lat="43.74284" lon="3.45851">
        <ele>731.6</ele>
        <time>2023-05-14T08:38:08.000Z</time>
      </trkpt>
      <trkpt lat="43.74275" lon="3.45857">
        <ele>733.8</ele>
        <time>2023-05-14T08:38:13.000Z</time>
      </trkpt>
      <trkpt lat="43.7427" lon="3.45872">
        <ele>735.5</ele>
        <time>2023-05-14T08:38:18.000Z</time>
      </trkpt>
      <trkpt lat="43.74265" lon="3.45885">
        <ele>737.6</ele>
        <time>2023-05-14T08:38:24.000Z</time>
      </trkpt>
      <trkpt lat="43.74255" lon="3.45882">
        <ele>739.7</ele>
        <time>2023-05-14T08:38:32.000Z</time>
      </trkpt>
      <trkpt lat="43.74245" lon="3.45882">
        <ele>740.4</ele>
        <time>2023-05-14T08:38:36.000Z</time>
      </trkpt>
      <trkpt lat="43.74235" lon="3.45881">
        <ele>740.8</ele>
        <time>2023-05-14T08:38:40.000Z</time>
      </trkpt>
      <trkpt lat="43.74225" lon="3.4588">
        <ele>741.3</ele>
        <time>2023-05-14T08:38:44.000Z</time>
      </trkpt>
      <trkpt lat="43.74215" lon="3.45877">
        <ele>741.7</ele>
        <time>2023-05-14T08:38:48.000Z</time>
      </trkpt>
      <trkpt lat="43.74206" lon="3.45877">
        <ele>742.3</ele>
        <time>2023-05-14T08:38:53.000Z</time>
      </trkpt>
      <trkpt lat="43.74195" lon="3.45873">
        <ele>742.8</ele>
        <time>2023-05-14T08:38:57.000Z</time>
      </trkpt>
      <trkpt lat="43.74184" lon="3.45872">
        <ele>743.5</ele>
        <time>2023-05-14T08:39:01.000Z</time>
      </trkpt>
      <trkpt lat="43.74174" lon="3.45867">
        <ele>744.8</ele>
        <time>2023-05-14T08:39:06.000Z</time>
      </trkpt>
      <trkpt lat="43.7417" lon="3.45856">
        <ele>746.5</ele>
        <time>2023-05-14T08:39:12.000Z</time>
      </trkpt>
      <trkpt lat="43.74161" lon="3.4585">
        <ele>747.8</ele>
        <time>2023-05-14T08:39:18.000Z</time>
      </trkpt>
      <trkpt lat="43.74153" lon="3.45842">
        <ele>749.9</ele>
        <time>2023-05-14T08:39:28.000Z</time>
      </trkpt>
      <trkpt lat="43.74146" lon="3.45834">
        <ele>752.4</ele>
        <time>2023-05-14T08:39:37.000Z</time>
      </trkpt>
      <trkpt lat="43.74137" lon="3.45828">
        <ele>754.8</ele>
        <time>2023-05-14T08:39:44.000Z</time>
      </trkpt>
      <trkpt lat="43.74128" lon="3.45823">
        <ele>756.8</ele>
        <time>2023-05-14T08:39:52.000Z</time>
      </trkpt>
      <trkpt lat="43.74118" lon="3.45818">
        <ele>757.8</ele>
        <time>2023-05-14T08:39:57.000Z</time>
      </trkpt>
      <trkpt lat="43.74108" lon="3.45815">
        <ele>758.4</ele>
        <time>2023-05-14T08:40:03.000Z</time>
      </trkpt>
      <trkpt lat="43.74097" lon="3.45815">
        <ele>758.5</ele>
        <time>2023-05-14T08:40:07.000Z</time>
      </trkpt>
      <trkpt lat="43.74087" lon="3.45816">
        <ele>758.3</ele>
        <time>2023-05-14T08:40:10.000Z</time>
      </trkpt>
      <trkpt lat="43.74075" lon="3.45822">
        <ele>758.1</ele>
        <time>2023-05-14T08:40:13.000Z</time>
      </trkpt>
      <trkpt lat="43.74066" lon="3.45825">
        <ele>757.8</ele>
        <time>2023-05-14T08:40:15.000Z</time>
      </trkpt>
      <trkpt lat="43.74056" lon="3.4583">
        <ele>757.5</ele>
        <time>2023-05-14T08:40:17.000Z</time>
      </trkpt>
      <trkpt lat="43.74047" lon="3.45835">
        <ele>757.2</ele>
        <time>2023-05-14T08:40:19.000Z</time>
      </trkpt>
      <trkpt lat="43.74038" lon="3.4584">
        <ele>756.9</ele>
        <time>2023-05-14T08:40:21.000Z</time>
      </trkpt>
      <trkpt lat="43.74028" lon="3.45845">
        <ele>756.5</ele>
        <time>2023-05-14T08:40:24.000Z</time>
      </trkpt>
      <trkpt lat="43.74019" lon="3.45848">
        <ele>756.3</ele>
        <time>2023-05-14T08:40:27.000Z</time>
      </trkpt>
      <trkpt lat="43.74011" lon="3.45857">
        <ele>756.3</ele>
        <time>2023-05-14T08:40:30.000Z</time>
      </trkpt>
      <trkpt lat="43.74004" lon="3.45869">
        <ele>756.1</ele>
        <time>2023-05-14T08:40:33.000Z</time>
      </trkpt>
      <trkpt lat="43.74" lon="3.45884">
        <ele>756</ele>
        <time>2023-05-14T08:40:36.000Z</time>
      </trkpt>
      <trkpt lat="43.73996" lon="3.45896">
        <ele>755.7</ele>
        <time>2023-05-14T08:40:38.000Z</time>
      </trkpt>
      <trkpt lat="43.73995" lon="3.45908">
        <ele>755.5</ele>
        <time>2023-05-14T08:40:40.000Z</time>
      </trkpt>
      <trkpt lat="43.7399" lon="3.45923">
        <ele>755.3</ele>
        <time>2023-05-14T08:40:43.000Z</time>
      </trkpt>
      <trkpt lat="43.73982" lon="3.45934">
        <ele>755.1</ele>
        <time>2023-05-14T08:40:46.000Z</time>
      </trkpt>
      <trkpt lat="43.73972" lon="3.45943">
        <ele>754.6</ele>
        <time>2023-05-14T08:40:49.000Z</time>
      </trkpt>
      <trkpt lat="43.73962" lon="3.45953">
        <ele>754.1</ele>
        <time>2023-05-14T08:40:52.000Z</time>
      </trkpt>
      <trkpt lat="43.73955" lon="3.45965">
        <ele>753.8</ele>
        <time>2023-05-14T08:40:55.000Z</time>
      </trkpt>
      <trkpt lat="43.73952" lon="3.45978">
        <ele>753.4</ele>
        <time>2023-05-14T08:40:58.000Z</time>
      </trkpt>
      <trkpt lat="43.7395" lon="3.45993">
        <ele>753.6</ele>
        <time>2023-05-14T08:41:02.000Z</time>
      </trkpt>
      <trkpt lat="43.7395" lon="3.46007">
        <ele>753.7</ele>
        <time>2023-05-14T08:41:06.000Z</time>
      </trkpt>
      <trkpt lat="43.73948" lon="3.4602">
        <ele>753.6</ele>
        <time>2023-05-14T08:41:10.000Z</time>
      </trkpt>
      <trkpt lat="43.73944" lon="3.46032">
        <ele>753.2</ele>
        <time>2023-05-14T08:41:14.000Z</time>
      </trkpt>
      <trkpt lat="43.73941" lon="3.46045">
        <ele>752.4</ele>
        <time>2023-05-14T08:41:18.000Z</time>
      </trkpt>
      <trkpt lat="43.7395" lon="3.46056">
        <ele>751.1</ele>
        <time>2023-05-14T08:41:22.000Z</time>
      </trkpt>
      <trkpt lat="43.73956" lon="3.46067">
        <ele>749.8</ele>
        <time>2023-05-14T08:41:25.000Z</time>
      </trkpt>
      <trkpt lat="43.73963" lon="3.46077">
        <ele>748.4</ele>
        <time>2023-05-14T08:41:28.000Z</time>
      </trkpt>
      <trkpt lat="43.73972" lon="3.46084">
        <ele>746.8</ele>
        <time>2023-05-14T08:41:32.000Z</time>
      </trkpt>
      <trkpt lat="43.73981" lon="3.46089">
        <ele>746</ele>
        <time>2023-05-14T08:41:36.000Z</time>
      </trkpt>
      <trkpt lat="43.7399" lon="3.46091">
        <ele>744.8</ele>
        <time>2023-05-14T08:41:40.000Z</time>
      </trkpt>
      <trkpt lat="43.74" lon="3.46095">
        <ele>743.8</ele>
        <time>2023-05-14T08:41:44.000Z</time>
      </trkpt>
      <trkpt lat="43.74009" lon="3.46104">
        <ele>742.7</ele>
        <time>2023-05-14T08:41:50.000Z</time>
      </trkpt>
      <trkpt lat="43.74017" lon="3.46107">
        <ele>742.1</ele>
        <time>2023-05-14T08:41:53.000Z</time>
      </trkpt>
      <trkpt lat="43.74027" lon="3.46108">
        <ele>741.2</ele>
        <time>2023-05-14T08:41:56.000Z</time>
      </trkpt>
      <trkpt lat="43.74036" lon="3.46106">
        <ele>740.6</ele>
        <time>2023-05-14T08:41:59.000Z</time>
      </trkpt>
      <trkpt lat="43.74046" lon="3.46097">
        <ele>740.2</ele>
        <time>2023-05-14T08:42:03.000Z</time>
      </trkpt>
      <trkpt lat="43.74057" lon="3.46095">
        <ele>740</ele>
        <time>2023-05-14T08:42:06.000Z</time>
      </trkpt>
      <trkpt lat="43.74068" lon="3.46097">
        <ele>739.9</ele>
        <time>2023-05-14T08:42:10.000Z</time>
      </trkpt>
      <trkpt lat="43.74078" lon="3.46102">
        <ele>740.3</ele>
        <time>2023-05-14T08:42:15.000Z</time>
      </trkpt>
      <trkpt lat="43.74088" lon="3.46103">
        <ele>740.5</ele>
        <time>2023-05-14T08:42:19.000Z</time>
      </trkpt>
      <trkpt lat="43.74097" lon="3.46108">
        <ele>740.5</ele>
        <time>2023-05-14T08:42:23.000Z</time>
      </trkpt>
      <trkpt lat="43.74101" lon="3.46122">
        <ele>740.6</ele>
        <time>2023-05-14T08:42:28.000Z</time>
      </trkpt>
      <trkpt lat="43.74106" lon="3.46133">
        <ele>740.8</ele>
        <time>2023-05-14T08:42:33.000Z</time>
      </trkpt>
      <trkpt lat="43.74112" lon="3.46145">
        <ele>741.2</ele>
        <time>2023-05-14T08:42:38.000Z</time>
      </trkpt>
      <trkpt lat="43.74119" lon="3.46155">
        <ele>741.9</ele>
        <time>2023-05-14T08:42:43.000Z</time>
      </trkpt>
      <trkpt lat="43.74123" lon="3.46167">
        <ele>742</ele>
        <time>2023-05-14T08:42:48.000Z</time>
      </trkpt>
      <trkpt lat="43.74119" lon="3.46181">
        <ele>741.7</ele>
        <time>2023-05-14T08:43:00.000Z</time>
      </trkpt>
      <trkpt lat="43.7412" lon="3.46194">
        <ele>740.7</ele>
        <time>2023-05-14T08:43:07.000Z</time>
      </trkpt>
      <trkpt lat="43.74118" lon="3.46206">
        <ele>739.5</ele>
        <time>2023-05-14T08:43:11.000Z</time>
      </trkpt>
      <trkpt lat="43.7411" lon="3.46212">
        <ele>737.6</ele>
        <time>2023-05-14T08:43:18.000Z</time>
      </trkpt>
      <trkpt lat="43.74105" lon="3.46224">
        <ele>736.1</ele>
        <time>2023-05-14T08:43:23.000Z</time>
      </trkpt>
      <trkpt lat="43.74098" lon="3.46238">
        <ele>734.9</ele>
        <time>2023-05-14T08:43:26.000Z</time>
      </trkpt>
      <trkpt lat="43.74093" lon="3.4625">
        <ele>733.8</ele>
        <time>2023-05-14T08:43:29.000Z</time>
      </trkpt>
      <trkpt lat="43.74091" lon="3.46267">
        <ele>732.9</ele>
        <time>2023-05-14T08:43:32.000Z</time>
      </trkpt>
      <trkpt lat="43.74099" lon="3.46278">
        <ele>731.7</ele>
        <time>2023-05-14T08:43:36.000Z</time>
      </trkpt>
      <trkpt lat="43.7411" lon="3.46283">
        <ele>730.4</ele>
        <time>2023-05-14T08:43:40.000Z</time>
      </trkpt>
      <trkpt lat="43.74119" lon="3.46289">
        <ele>729.7</ele>
        <time>2023-05-14T08:43:43.000Z</time>
      </trkpt>
      <trkpt lat="43.74128" lon="3.46294">
        <ele>728.2</ele>
        <time>2023-05-14T08:43:48.000Z</time>
      </trkpt>
      <trkpt lat="43.7414" lon="3.46293">
        <ele>726.7</ele>
        <time>2023-05-14T08:43:53.000Z</time>
      </trkpt>
      <trkpt lat="43.74151" lon="3.46295">
        <ele>725.9</ele>
        <time>2023-05-14T08:43:58.000Z</time>
      </trkpt>
      <trkpt lat="43.74159" lon="3.463">
        <ele>724.7</ele>
        <time>2023-05-14T08:44:02.000Z</time>
      </trkpt>
      <trkpt lat="43.7417" lon="3.46299">
        <ele>723.2</ele>
        <time>2023-05-14T08:44:08.000Z</time>
      </trkpt>
      <trkpt lat="43.7418" lon="3.46297">
        <ele>721.9</ele>
        <time>2023-05-14T08:44:12.000Z</time>
      </trkpt>
      <trkpt lat="43.74189" lon="3.46299">
        <ele>719.9</ele>
        <time>2023-05-14T08:44:17.000Z</time>
      </trkpt>
      <trkpt lat="43.74196" lon="3.46309">
        <ele>716.8</ele>
        <time>2023-05-14T08:44:23.000Z</time>
      </trkpt>
      <trkpt lat="43.74204" lon="3.46316">
        <ele>714.2</ele>
        <time>2023-05-14T08:44:28.000Z</time>
      </trkpt>
      <trkpt lat="43.74216" lon="3.46314">
        <ele>712.1</ele>
        <time>2023-05-14T08:44:32.000Z</time>
      </trkpt>
      <trkpt lat="43.74227" lon="3.46317">
        <ele>710.4</ele>
        <time>2023-05-14T08:44:36.000Z</time>
      </trkpt>
      <trkpt lat="43.74233" lon="3.46331">
        <ele>709.4</ele>
        <time>2023-05-14T08:44:39.000Z</time>
      </trkpt>
      <trkpt lat="43.74234" lon="3.46347">
        <ele>708.5</ele>
        <time>2023-05-14T08:44:42.000Z</time>
      </trkpt>
      <trkpt lat="43.74234" lon="3.4636">
        <ele>707.4</ele>
        <time>2023-05-14T08:44:45.000Z</time>
      </trkpt>
      <trkpt lat="43.74235" lon="3.46374">
        <ele>706</ele>
        <time>2023-05-14T08:44:49.000Z</time>
      </trkpt>
      <trkpt lat="43.74239" lon="3.46388">
        <ele>705.3</ele>
        <time>2023-05-14T08:44:52.000Z</time>
      </trkpt>
      <trkpt lat="43.74242" lon="3.46402">
        <ele>704.6</ele>
        <time>2023-05-14T08:44:55.000Z</time>
      </trkpt>
      <trkpt lat="43.74238" lon="3.46417">
        <ele>703.9</ele>
        <time>2023-05-14T08:44:59.000Z</time>
      </trkpt>
      <trkpt lat="43.74228" lon="3.46424">
        <ele>703.7</ele>
        <time>2023-05-14T08:45:02.000Z</time>
      </trkpt>
      <trkpt lat="43.74218" lon="3.46427">
        <ele>703.5</ele>
        <time>2023-05-14T08:45:05.000Z</time>
      </trkpt>
      <trkpt lat="43.74207" lon="3.46431">
        <ele>703</ele>
        <time>2023-05-14T08:45:09.000Z</time>
      </trkpt>
      <trkpt lat="43.74197" lon="3.46433">
        <ele>702.6</ele>
        <time>2023-05-14T08:45:14.000Z</time>
      </trkpt>
      <trkpt lat="43.7419" lon="3.46424">
        <ele>701.7</ele>
        <time>2023-05-14T08:45:18.000Z</time>
      </trkpt>
      <trkpt lat="43.74182" lon="3.46412">
        <ele>700.4</ele>
        <time>2023-05-14T08:45:21.000Z</time>
      </trkpt>
      <trkpt lat="43.74175" lon="3.46403">
        <ele>699.5</ele>
        <time>2023-05-14T08:45:23.000Z</time>
      </trkpt>
      <trkpt lat="43.74168" lon="3.46395">
        <ele>698.1</ele>
        <time>2023-05-14T08:45:26.000Z</time>
      </trkpt>
      <trkpt lat="43.74159" lon="3.46389">
        <ele>696.8</ele>
        <time>2023-05-14T08:45:30.000Z</time>
      </trkpt>
      <trkpt lat="43.74162" lon="3.46403">
        <ele>693.8</ele>
        <time>2023-05-14T08:45:37.000Z</time>
      </trkpt>
      <trkpt lat="43.74166" lon="3.46417">
        <ele>692.5</ele>
        <time>2023-05-14T08:45:40.000Z</time>
      </trkpt>
      <trkpt lat="43.74168" lon="3.46433">
        <ele>691</ele>
        <time>2023-05-14T08:45:43.000Z</time>
      </trkpt>
      <trkpt lat="43.74164" lon="3.46445">
        <ele>687.6</ele>
        <time>2023-05-14T08:45:52.000Z</time>
      </trkpt>
      <trkpt lat="43.74154" lon="3.46438">
        <ele>686.3</ele>
        <time>2023-05-14T08:45:56.000Z</time>
      </trkpt>
      <trkpt lat="43.74143" lon="3.46432">
        <ele>685.2</ele>
        <time>2023-05-14T08:45:59.000Z</time>
      </trkpt>
      <trkpt lat="43.74133" lon="3.4643">
        <ele>684.1</ele>
        <time>2023-05-14T08:46:01.000Z</time>
      </trkpt>
      <trkpt lat="43.74121" lon="3.4643">
        <ele>682.6</ele>
        <time>2023-05-14T08:46:04.000Z</time>
      </trkpt>
      <trkpt lat="43.7411" lon="3.4643">
        <ele>680.9</ele>
        <time>2023-05-14T08:46:07.000Z</time>
      </trkpt>
      <trkpt lat="43.74101" lon="3.46426">
        <ele>679.7</ele>
        <time>2023-05-14T08:46:10.000Z</time>
      </trkpt>
      <trkpt lat="43.74089" lon="3.46426">
        <ele>678.5</ele>
        <time>2023-05-14T08:46:14.000Z</time>
      </trkpt>
      <trkpt lat="43.74078" lon="3.46425">
        <ele>677.8</ele>
        <time>2023-05-14T08:46:17.000Z</time>
      </trkpt>
      <trkpt lat="43.74067" lon="3.46424">
        <ele>677</ele>
        <time>2023-05-14T08:46:20.000Z</time>
      </trkpt>
      <trkpt lat="43.74057" lon="3.46428">
        <ele>675.9</ele>
        <time>2023-05-14T08:46:24.000Z</time>
      </trkpt>
      <trkpt lat="43.74062" lon="3.46439">
        <ele>674.3</ele>
        <time>2023-05-14T08:46:28.000Z</time>
      </trkpt>
      <trkpt lat="43.7407" lon="3.46448">
        <ele>672.8</ele>
        <time>2023-05-14T08:46:31.000Z</time>
      </trkpt>
      <trkpt lat="43.74078" lon="3.46456">
        <ele>671.7</ele>
        <time>2023-05-14T08:46:33.000Z</time>
      </trkpt>
      <trkpt lat="43.74087" lon="3.46463">
        <ele>670.7</ele>
        <time>2023-05-14T08:46:35.000Z</time>
      </trkpt>
      <trkpt lat="43.74094" lon="3.46471">
        <ele>669.5</ele>
        <time>2023-05-14T08:46:37.000Z</time>
      </trkpt>
      <trkpt lat="43.74101" lon="3.46483">
        <ele>667.4</ele>
        <time>2023-05-14T08:46:40.000Z</time>
      </trkpt>
      <trkpt lat="43.74104" lon="3.46496">
        <ele>666.1</ele>
        <time>2023-05-14T08:46:43.000Z</time>
      </trkpt>
      <trkpt lat="43.74107" lon="3.46511">
        <ele>665.6</ele>
        <time>2023-05-14T08:46:47.000Z</time>
      </trkpt>
      <trkpt lat="43.74113" lon="3.4652">
        <ele>665</ele>
        <time>2023-05-14T08:46:51.000Z</time>
      </trkpt>
      <trkpt lat="43.74111" lon="3.46536">
        <ele>664.2</ele>
        <time>2023-05-14T08:46:55.000Z</time>
      </trkpt>
      <trkpt lat="43.74114" lon="3.46555">
        <ele>663.1</ele>
        <time>2023-05-14T08:46:58.000Z</time>
      </trkpt>
      <trkpt lat="43.7412" lon="3.4657">
        <ele>662.5</ele>
        <time>2023-05-14T08:47:00.000Z</time>
      </trkpt>
      <trkpt lat="43.74126" lon="3.4658">
        <ele>661.8</ele>
        <time>2023-05-14T08:47:02.000Z</time>
      </trkpt>
      <trkpt lat="43.74131" lon="3.46592">
        <ele>661.1</ele>
        <time>2023-05-14T08:47:05.000Z</time>
      </trkpt>
      <trkpt lat="43.74121" lon="3.46587">
        <ele>659.8</ele>
        <time>2023-05-14T08:47:11.000Z</time>
      </trkpt>
      <trkpt lat="43.74113" lon="3.46575">
        <ele>658.5</ele>
        <time>2023-05-14T08:47:15.000Z</time>
      </trkpt>
      <trkpt lat="43.74108" lon="3.46587">
        <ele>654.7</ele>
        <time>2023-05-14T08:47:25.000Z</time>
      </trkpt>
      <trkpt lat="43.74115" lon="3.46601">
        <ele>652.8</ele>
        <time>2023-05-14T08:47:29.000Z</time>
      </trkpt>
      <trkpt lat="43.7412" lon="3.46613">
        <ele>650.7</ele>
        <time>2023-05-14T08:47:33.000Z</time>
      </trkpt>
      <trkpt lat="43.74125" lon="3.46626">
        <ele>648.9</ele>
        <time>2023-05-14T08:47:37.000Z</time>
      </trkpt>
      <trkpt lat="43.74116" lon="3.46628">
        <ele>647.4</ele>
        <time>2023-05-14T08:47:43.000Z</time>
      </trkpt>
      <trkpt lat="43.74108" lon="3.46617">
        <ele>646</ele>
        <time>2023-05-14T08:47:46.000Z</time>
      </trkpt>
      <trkpt lat="43.74098" lon="3.46608">
        <ele>644.7</ele>
        <time>2023-05-14T08:47:49.000Z</time>
      </trkpt>
      <trkpt lat="43.74088" lon="3.46601">
        <ele>643.4</ele>
        <time>2023-05-14T08:47:52.000Z</time>
      </trkpt>
      <trkpt lat="43.74079" lon="3.46591">
        <ele>640.5</ele>
        <time>2023-05-14T08:47:56.000Z</time>
      </trkpt>
      <trkpt lat="43.7407" lon="3.4658">
        <ele>638.6</ele>
        <time>2023-05-14T08:47:59.000Z</time>
      </trkpt>
      <trkpt lat="43.74065" lon="3.46566">
        <ele>635.6</ele>
        <time>2023-05-14T08:48:03.000Z</time>
      </trkpt>
      <trkpt lat="43.74065" lon="3.46581">
        <ele>633</ele>
        <time>2023-05-14T08:48:09.000Z</time>
      </trkpt>
      <trkpt lat="43.74067" lon="3.46594">
        <ele>632</ele>
        <time>2023-05-14T08:48:12.000Z</time>
      </trkpt>
      <trkpt lat="43.74071" lon="3.46606">
        <ele>630.6</ele>
        <time>2023-05-14T08:48:17.000Z</time>
      </trkpt>
      <trkpt lat="43.7407" lon="3.4662">
        <ele>628.6</ele>
        <time>2023-05-14T08:48:22.000Z</time>
      </trkpt>
      <trkpt lat="43.74072" lon="3.46632">
        <ele>626.8</ele>
        <time>2023-05-14T08:48:25.000Z</time>
      </trkpt>
      <trkpt lat="43.74073" lon="3.46645">
        <ele>624.4</ele>
        <time>2023-05-14T08:48:29.000Z</time>
      </trkpt>
      <trkpt lat="43.74077" lon="3.46656">
        <ele>622.6</ele>
        <time>2023-05-14T08:48:33.000Z</time>
      </trkpt>
      <trkpt lat="43.74078" lon="3.46671">
        <ele>620.5</ele>
        <time>2023-05-14T08:48:39.000Z</time>
      </trkpt>
      <trkpt lat="43.74076" lon="3.46684">
        <ele>619.5</ele>
        <time>2023-05-14T08:48:43.000Z</time>
      </trkpt>
      <trkpt lat="43.74073" lon="3.46696">
        <ele>618.5</ele>
        <time>2023-05-14T08:48:48.000Z</time>
      </trkpt>
      <trkpt lat="43.74069" lon="3.4671">
        <ele>617.4</ele>
        <time>2023-05-14T08:48:52.000Z</time>
      </trkpt>
      <trkpt lat="43.7406" lon="3.4672">
        <ele>615.3</ele>
        <time>2023-05-14T08:48:58.000Z</time>
      </trkpt>
      <trkpt lat="43.74051" lon="3.46729">
        <ele>614.3</ele>
        <time>2023-05-14T08:49:02.000Z</time>
      </trkpt>
      <trkpt lat="43.74043" lon="3.46737">
        <ele>614</ele>
        <time>2023-05-14T08:49:06.000Z</time>
      </trkpt>
      <trkpt lat="43.74037" lon="3.4675">
        <ele>614</ele>
        <time>2023-05-14T08:49:11.000Z</time>
      </trkpt>
      <trkpt lat="43.74033" lon="3.46764">
        <ele>614.1</ele>
        <time>2023-05-14T08:49:16.000Z</time>
      </trkpt>
      <trkpt lat="43.74029" lon="3.46776">
        <ele>614.4</ele>
        <time>2023-05-14T08:49:20.000Z</time>
      </trkpt>
      <trkpt lat="43.74025" lon="3.4679">
        <ele>614.9</ele>
        <time>2023-05-14T08:49:25.000Z</time>
      </trkpt>
      <trkpt lat="43.74018" lon="3.46797">
        <ele>615.7</ele>
        <time>2023-05-14T08:49:29.000Z</time>
      </trkpt>
      <trkpt lat="43.74008" lon="3.46798">
        <ele>617.6</ele>
        <time>2023-05-14T08:49:35.000Z</time>
      </trkpt>
      <trkpt lat="43.73998" lon="3.46797">
        <ele>618.7</ele>
        <time>2023-05-14T08:49:40.000Z</time>
      </trkpt>
      <trkpt lat="43.73991" lon="3.4679">
        <ele>618.8</ele>
        <time>2023-05-14T08:49:45.000Z</time>
      </trkpt>
      <trkpt lat="43.73987" lon="3.46775">
        <ele>618.3</ele>
        <time>2023-05-14T08:49:50.000Z</time>
      </trkpt>
      <trkpt lat="43.73984" lon="3.4676">
        <ele>617.9</ele>
        <time>2023-05-14T08:49:54.000Z</time>
      </trkpt>
      <trkpt lat="43.73983" lon="3.46746">
        <ele>617.2</ele>
        <time>2023-05-14T08:49:58.000Z</time>
      </trkpt>
      <trkpt lat="43.73985" lon="3.46732">
        <ele>615.9</ele>
        <time>2023-05-14T08:50:02.000Z</time>
      </trkpt>
      <trkpt lat="43.73979" lon="3.46721">
        <ele>614.9</ele>
        <time>2023-05-14T08:50:05.000Z</time>
      </trkpt>
      <trkpt lat="43.73972" lon="3.46712">
        <ele>614.3</ele>
        <time>2023-05-14T08:50:08.000Z</time>
      </trkpt>
      <trkpt lat="43.73966" lon="3.46701">
        <ele>614.1</ele>
        <time>2023-05-14T08:50:11.000Z</time>
      </trkpt>
      <trkpt lat="43.73958" lon="3.46691">
        <ele>613.8</ele>
        <time>2023-05-14T08:50:15.000Z</time>
      </trkpt>
      <trkpt lat="43.73952" lon="3.46678">
        <ele>613.6</ele>
        <time>2023-05-14T08:50:19.000Z</time>
      </trkpt>
      <trkpt lat="43.73944" lon="3.46667">
        <ele>613.7</ele>
        <time>2023-05-14T08:50:24.000Z</time>
      </trkpt>
      <trkpt lat="43.73934" lon="3.4666">
        <ele>613.6</ele>
        <time>2023-05-14T08:50:28.000Z</time>
      </trkpt>
      <trkpt lat="43.73925" lon="3.46651">
        <ele>613.7</ele>
        <time>2023-05-14T08:50:33.000Z</time>
      </trkpt>
      <trkpt lat="43.73916" lon="3.46643">
        <ele>613.8</ele>
        <time>2023-05-14T08:50:37.000Z</time>
      </trkpt>
      <trkpt lat="43.73908" lon="3.46636">
        <ele>613.9</ele>
        <time>2023-05-14T08:50:41.000Z</time>
      </trkpt>
      <trkpt lat="43.739" lon="3.46628">
        <ele>614.2</ele>
        <time>2023-05-14T08:50:45.000Z</time>
      </trkpt>
      <trkpt lat="43.73893" lon="3.46617">
        <ele>614.7</ele>
        <time>2023-05-14T08:50:49.000Z</time>
      </trkpt>
      <trkpt lat="43.73884" lon="3.46608">
        <ele>615.3</ele>
        <time>2023-05-14T08:50:53.000Z</time>
      </trkpt>
      <trkpt lat="43.73876" lon="3.46601">
        <ele>616.1</ele>
        <time>2023-05-14T08:50:58.000Z</time>
      </trkpt>
      <trkpt lat="43.73866" lon="3.46594">
        <ele>617</ele>
        <time>2023-05-14T08:51:03.000Z</time>
      </trkpt>
      <trkpt lat="43.73857" lon="3.46589">
        <ele>617.4</ele>
        <time>2023-05-14T08:51:06.000Z</time>
      </trkpt>
      <trkpt lat="43.73851" lon="3.4658">
        <ele>617.5</ele>
        <time>2023-05-14T08:51:09.000Z</time>
      </trkpt>
      <trkpt lat="43.73844" lon="3.46567">
        <ele>617.5</ele>
        <time>2023-05-14T08:51:13.000Z</time>
      </trkpt>
      <trkpt lat="43.73841" lon="3.46554">
        <ele>617.6</ele>
        <time>2023-05-14T08:51:16.000Z</time>
      </trkpt>
      <trkpt lat="43.73839" lon="3.46539">
        <ele>617.6</ele>
        <time>2023-05-14T08:51:20.000Z</time>
      </trkpt>
      <trkpt lat="43.73836" lon="3.46527">
        <ele>617.7</ele>
        <time>2023-05-14T08:51:23.000Z</time>
      </trkpt>
      <trkpt lat="43.73832" lon="3.46513">
        <ele>618</ele>
        <time>2023-05-14T08:51:27.000Z</time>
      </trkpt>
      <trkpt lat="43.73828" lon="3.465">
        <ele>618.5</ele>
        <time>2023-05-14T08:51:31.000Z</time>
      </trkpt>
      <trkpt lat="43.73825" lon="3.46486">
        <ele>619.3</ele>
        <time>2023-05-14T08:51:35.000Z</time>
      </trkpt>
      <trkpt lat="43.73819" lon="3.46473">
        <ele>620.5</ele>
        <time>2023-05-14T08:51:39.000Z</time>
      </trkpt>
      <trkpt lat="43.7381" lon="3.46464">
        <ele>621.8</ele>
        <time>2023-05-14T08:51:43.000Z</time>
      </trkpt>
      <trkpt lat="43.73801" lon="3.46455">
        <ele>622.1</ele>
        <time>2023-05-14T08:51:46.000Z</time>
      </trkpt>
      <trkpt lat="43.73794" lon="3.46445">
        <ele>622.3</ele>
        <time>2023-05-14T08:51:49.000Z</time>
      </trkpt>
      <trkpt lat="43.73788" lon="3.46433">
        <ele>622.4</ele>
        <time>2023-05-14T08:51:53.000Z</time>
      </trkpt>
      <trkpt lat="43.73782" lon="3.46423">
        <ele>622.6</ele>
        <time>2023-05-14T08:51:57.000Z</time>
      </trkpt>
      <trkpt lat="43.73775" lon="3.46413">
        <ele>623</ele>
        <time>2023-05-14T08:52:01.000Z</time>
      </trkpt>
      <trkpt lat="43.73766" lon="3.46403">
        <ele>623.3</ele>
        <time>2023-05-14T08:52:05.000Z</time>
      </trkpt>
      <trkpt lat="43.73759" lon="3.46394">
        <ele>623.7</ele>
        <time>2023-05-14T08:52:09.000Z</time>
      </trkpt>
      <trkpt lat="43.7375" lon="3.46392">
        <ele>624.2</ele>
        <time>2023-05-14T08:52:13.000Z</time>
      </trkpt>
      <trkpt lat="43.73738" lon="3.46392">
        <ele>624.6</ele>
        <time>2023-05-14T08:52:17.000Z</time>
      </trkpt>
      <trkpt lat="43.73727" lon="3.46391">
        <ele>624.9</ele>
        <time>2023-05-14T08:52:21.000Z</time>
      </trkpt>
      <trkpt lat="43.73717" lon="3.46388">
        <ele>625.5</ele>
        <time>2023-05-14T08:52:25.000Z</time>
      </trkpt>
      <trkpt lat="43.73707" lon="3.46384">
        <ele>626.2</ele>
        <time>2023-05-14T08:52:29.000Z</time>
      </trkpt>
      <trkpt lat="43.73697" lon="3.4638">
        <ele>627</ele>
        <time>2023-05-14T08:52:34.000Z</time>
      </trkpt>
      <trkpt lat="43.73687" lon="3.4638">
        <ele>627.7</ele>
        <time>2023-05-14T08:52:39.000Z</time>
      </trkpt>
      <trkpt lat="43.73677" lon="3.46376">
        <ele>628.2</ele>
        <time>2023-05-14T08:52:44.000Z</time>
      </trkpt>
      <trkpt lat="43.73679" lon="3.46391">
        <ele>628.8</ele>
        <time>2023-05-14T08:52:52.000Z</time>
      </trkpt>
      <trkpt lat="43.73687" lon="3.46403">
        <ele>628.5</ele>
        <time>2023-05-14T08:52:55.000Z</time>
      </trkpt>
      <trkpt lat="43.73689" lon="3.46415">
        <ele>628.3</ele>
        <time>2023-05-14T08:52:57.000Z</time>
      </trkpt>
      <trkpt lat="43.73696" lon="3.46426">
        <ele>627.1</ele>
        <time>2023-05-14T08:53:00.000Z</time>
      </trkpt>
      <trkpt lat="43.73703" lon="3.46442">
        <ele>623.5</ele>
        <time>2023-05-14T08:53:04.000Z</time>
      </trkpt>
      <trkpt lat="43.73705" lon="3.46455">
        <ele>620.2</ele>
        <time>2023-05-14T08:53:06.000Z</time>
      </trkpt>
      <trkpt lat="43.737" lon="3.46468">
        <ele>616.3</ele>
        <time>2023-05-14T08:53:09.000Z</time>
      </trkpt>
      <trkpt lat="43.73694" lon="3.46478">
        <ele>614.9</ele>
        <time>2023-05-14T08:53:12.000Z</time>
      </trkpt>
      <trkpt lat="43.73688" lon="3.46491">
        <ele>614.7</ele>
        <time>2023-05-14T08:53:16.000Z</time>
      </trkpt>
      <trkpt lat="43.73684" lon="3.46503">
        <ele>614.3</ele>
        <time>2023-05-14T08:53:19.000Z</time>
      </trkpt>
      <trkpt lat="43.73679" lon="3.46515">
        <ele>614</ele>
        <time>2023-05-14T08:53:22.000Z</time>
      </trkpt>
      <trkpt lat="43.73673" lon="3.46525">
        <ele>613.9</ele>
        <time>2023-05-14T08:53:25.000Z</time>
      </trkpt>
      <trkpt lat="43.73666" lon="3.46536">
        <ele>613.9</ele>
        <time>2023-05-14T08:53:29.000Z</time>
      </trkpt>
      <trkpt lat="43.73659" lon="3.46547">
        <ele>614.1</ele>
        <time>2023-05-14T08:53:34.000Z</time>
      </trkpt>
      <trkpt lat="43.73653" lon="3.46558">
        <ele>614.1</ele>
        <time>2023-05-14T08:53:38.000Z</time>
      </trkpt>
      <trkpt lat="43.73644" lon="3.4657">
        <ele>614</ele>
        <time>2023-05-14T08:53:42.000Z</time>
      </trkpt>
      <trkpt lat="43.73636" lon="3.4658">
        <ele>614</ele>
        <time>2023-05-14T08:53:46.000Z</time>
      </trkpt>
      <trkpt lat="43.73626" lon="3.46589">
        <ele>614.1</ele>
        <time>2023-05-14T08:53:51.000Z</time>
      </trkpt>
      <trkpt lat="43.73617" lon="3.46597">
        <ele>614.4</ele>
        <time>2023-05-14T08:53:55.000Z</time>
      </trkpt>
      <trkpt lat="43.73608" lon="3.46603">
        <ele>614.8</ele>
        <time>2023-05-14T08:53:59.000Z</time>
      </trkpt>
      <trkpt lat="43.73598" lon="3.46607">
        <ele>615.1</ele>
        <time>2023-05-14T08:54:03.000Z</time>
      </trkpt>
      <trkpt lat="43.73587" lon="3.4661">
        <ele>615.7</ele>
        <time>2023-05-14T08:54:08.000Z</time>
      </trkpt>
      <trkpt lat="43.73577" lon="3.46606">
        <ele>615.9</ele>
        <time>2023-05-14T08:54:12.000Z</time>
      </trkpt>
      <trkpt lat="43.73568" lon="3.46599">
        <ele>616</ele>
        <time>2023-05-14T08:54:16.000Z</time>
      </trkpt>
      <trkpt lat="43.73559" lon="3.46602">
        <ele>615.8</ele>
        <time>2023-05-14T08:54:20.000Z</time>
      </trkpt>
      <trkpt lat="43.73549" lon="3.46601">
        <ele>614.7</ele>
        <time>2023-05-14T08:54:24.000Z</time>
      </trkpt>
      <trkpt lat="43.73538" lon="3.46603">
        <ele>611.6</ele>
        <time>2023-05-14T08:54:29.000Z</time>
      </trkpt>
      <trkpt lat="43.7353" lon="3.46608">
        <ele>606.4</ele>
        <time>2023-05-14T08:54:35.000Z</time>
      </trkpt>
      <trkpt lat="43.73523" lon="3.46616">
        <ele>603</ele>
        <time>2023-05-14T08:54:39.000Z</time>
      </trkpt>
      <trkpt lat="43.73516" lon="3.4663">
        <ele>600.4</ele>
        <time>2023-05-14T08:54:43.000Z</time>
      </trkpt>
      <trkpt lat="43.73506" lon="3.4664">
        <ele>598.3</ele>
        <time>2023-05-14T08:54:46.000Z</time>
      </trkpt>
      <trkpt lat="43.73495" lon="3.46648">
        <ele>595.8</ele>
        <time>2023-05-14T08:54:49.000Z</time>
      </trkpt>
      <trkpt lat="43.73486" lon="3.46655">
        <ele>593.8</ele>
        <time>2023-05-14T08:54:51.000Z</time>
      </trkpt>
      <trkpt lat="43.73475" lon="3.46661">
        <ele>591.4</ele>
        <time>2023-05-14T08:54:54.000Z</time>
      </trkpt>
      <trkpt lat="43.73464" lon="3.46666">
        <ele>589.5</ele>
        <time>2023-05-14T08:54:57.000Z</time>
      </trkpt>
      <trkpt lat="43.73453" lon="3.4667">
        <ele>587.3</ele>
        <time>2023-05-14T08:55:00.000Z</time>
      </trkpt>
      <trkpt lat="43.73442" lon="3.46674">
        <ele>585.3</ele>
        <time>2023-05-14T08:55:03.000Z</time>
      </trkpt>
      <trkpt lat="43.73433" lon="3.46677">
        <ele>583.6</ele>
        <time>2023-05-14T08:55:06.000Z</time>
      </trkpt>
      <trkpt lat="43.73422" lon="3.46681">
        <ele>582.5</ele>
        <time>2023-05-14T08:55:09.000Z</time>
      </trkpt>
      <trkpt lat="43.7341" lon="3.46683">
        <ele>581.2</ele>
        <time>2023-05-14T08:55:12.000Z</time>
      </trkpt>
      <trkpt lat="43.73397" lon="3.46687">
        <ele>579.1</ele>
        <time>2023-05-14T08:55:15.000Z</time>
      </trkpt>
      <trkpt lat="43.73386" lon="3.46689">
        <ele>577.3</ele>
        <time>2023-05-14T08:55:18.000Z</time>
      </trkpt>
      <trkpt lat="43.73377" lon="3.46689">
        <ele>576.2</ele>
        <time>2023-05-14T08:55:20.000Z</time>
      </trkpt>
      <trkpt lat="43.73367" lon="3.46694">
        <ele>574.3</ele>
        <time>2023-05-14T08:55:23.000Z</time>
      </trkpt>
      <trkpt lat="43.73357" lon="3.46693">
        <ele>573</ele>
        <time>2023-05-14T08:55:26.000Z</time>
      </trkpt>
      <trkpt lat="43.73346" lon="3.46699">
        <ele>571.9</ele>
        <time>2023-05-14T08:55:29.000Z</time>
      </trkpt>
      <trkpt lat="43.73337" lon="3.46703">
        <ele>571.3</ele>
        <time>2023-05-14T08:55:31.000Z</time>
      </trkpt>
      <trkpt lat="43.73326" lon="3.46701">
        <ele>570</ele>
        <time>2023-05-14T08:55:34.000Z</time>
      </trkpt>
      <trkpt lat="43.73331" lon="3.4669">
        <ele>567.9</ele>
        <time>2023-05-14T08:55:40.000Z</time>
      </trkpt>
      <trkpt lat="43.73331" lon="3.46677">
        <ele>566.6</ele>
        <time>2023-05-14T08:55:47.000Z</time>
      </trkpt>
      <trkpt lat="43.7334" lon="3.46672">
        <ele>565.6</ele>
        <time>2023-05-14T08:55:51.000Z</time>
      </trkpt>
      <trkpt lat="43.73349" lon="3.46664">
        <ele>563.9</ele>
        <time>2023-05-14T08:55:58.000Z</time>
      </trkpt>
      <trkpt lat="43.73359" lon="3.46656">
        <ele>563.1</ele>
        <time>2023-05-14T08:56:02.000Z</time>
      </trkpt>
      <trkpt lat="43.73368" lon="3.46648">
        <ele>562</ele>
        <time>2023-05-14T08:56:06.000Z</time>
      </trkpt>
      <trkpt lat="43.73377" lon="3.46642">
        <ele>560.6</ele>
        <time>2023-05-14T08:56:09.000Z</time>
      </trkpt>
      <trkpt lat="43.73389" lon="3.46637">
        <ele>559.1</ele>
        <time>2023-05-14T08:56:12.000Z</time>
      </trkpt>
      <trkpt lat="43.73398" lon="3.4663">
        <ele>557.3</ele>
        <time>2023-05-14T08:56:16.000Z</time>
      </trkpt>
      <trkpt lat="43.734" lon="3.46617">
        <ele>554.2</ele>
        <time>2023-05-14T08:56:23.000Z</time>
      </trkpt>
      <trkpt lat="43.73398" lon="3.46605">
        <ele>549.2</ele>
        <time>2023-05-14T08:56:31.000Z</time>
      </trkpt>
      <trkpt lat="43.73394" lon="3.46591">
        <ele>544.3</ele>
        <time>2023-05-14T08:56:38.000Z</time>
      </trkpt>
      <trkpt lat="43.73388" lon="3.4658">
        <ele>541.2</ele>
        <time>2023-05-14T08:56:42.000Z</time>
      </trkpt>
      <trkpt lat="43.73383" lon="3.4657">
        <ele>538.3</ele>
        <time>2023-05-14T08:56:47.000Z</time>
      </trkpt>
      <trkpt lat="43.73376" lon="3.46559">
        <ele>537</ele>
        <time>2023-05-14T08:56:51.000Z</time>
      </trkpt>
      <trkpt lat="43.73368" lon="3.4655">
        <ele>535.5</ele>
        <time>2023-05-14T08:56:55.000Z</time>
      </trkpt>
      <trkpt lat="43.7336" lon="3.46539">
        <ele>533.5</ele>
        <time>2023-05-14T08:56:59.000Z</time>
      </trkpt>
      <trkpt lat="43.73351" lon="3.46527">
        <ele>531.8</ele>
        <time>2023-05-14T08:57:03.000Z</time>
      </trkpt>
      <trkpt lat="43.73344" lon="3.46516">
        <ele>530.4</ele>
        <time>2023-05-14T08:57:06.000Z</time>
      </trkpt>
      <trkpt lat="43.73337" lon="3.46508">
        <ele>528.8</ele>
        <time>2023-05-14T08:57:09.000Z</time>
      </trkpt>
      <trkpt lat="43.73331" lon="3.46498">
        <ele>527.5</ele>
        <time>2023-05-14T08:57:12.000Z</time>
      </trkpt>
      <trkpt lat="43.73324" lon="3.46487">
        <ele>525.7</ele>
        <time>2023-05-14T08:57:15.000Z</time>
      </trkpt>
      <trkpt lat="43.73316" lon="3.46477">
        <ele>524.1</ele>
        <time>2023-05-14T08:57:18.000Z</time>
      </trkpt>
      <trkpt lat="43.73312" lon="3.46465">
        <ele>521.4</ele>
        <time>2023-05-14T08:57:22.000Z</time>
      </trkpt>
      <trkpt lat="43.73307" lon="3.46452">
        <ele>518.4</ele>
        <time>2023-05-14T08:57:27.000Z</time>
      </trkpt>
      <trkpt lat="43.73303" lon="3.46445">
        <ele>516</ele>
        <time>2023-05-14T08:57:32.000Z</time>
      </trkpt>
      <trkpt lat="43.73303" lon="3.46446">
        <ele>514.3</ele>
        <time>2023-05-14T08:57:46.000Z</time>
      </trkpt>
      <trkpt lat="43.73304" lon="3.46445">
        <ele>514.2</ele>
        <time>2023-05-14T08:57:51.000Z</time>
      </trkpt>
      <trkpt lat="43.73303" lon="3.46445">
        <ele>514.1</ele>
        <time>2023-05-14T08:58:15.000Z</time>
      </trkpt>
      <trkpt lat="43.73299" lon="3.46434">
        <ele>514</ele>
        <time>2023-05-14T08:58:20.000Z</time>
      </trkpt>
      <trkpt lat="43.73294" lon="3.46422">
        <ele>513.6</ele>
        <time>2023-05-14T08:58:25.000Z</time>
      </trkpt>
      <trkpt lat="43.73287" lon="3.46412">
        <ele>512.6</ele>
        <time>2023-05-14T08:58:30.000Z</time>
      </trkpt>
      <trkpt lat="43.73278" lon="3.46408">
        <ele>510.3</ele>
        <time>2023-05-14T08:58:35.000Z</time>
      </trkpt>
      <trkpt lat="43.73268" lon="3.46406">
        <ele>508.5</ele>
        <time>2023-05-14T08:58:38.000Z</time>
      </trkpt>
      <trkpt lat="43.73259" lon="3.46405">
        <ele>506.3</ele>
        <time>2023-05-14T08:58:41.000Z</time>
      </trkpt>
      <trkpt lat="43.73247" lon="3.464">
        <ele>502.8</ele>
        <time>2023-05-14T08:58:45.000Z</time>
      </trkpt>
      <trkpt lat="43.73243" lon="3.46401">
        <ele>500</ele>
        <time>2023-05-14T08:58:49.000Z</time>
      </trkpt>
      <trkpt lat="43.73243" lon="3.46402">
        <ele>499</ele>
        <time>2023-05-14T08:58:52.000Z</time>
      </trkpt>
      <trkpt lat="43.73245" lon="3.46404">
        <ele>498.7</ele>
        <time>2023-05-14T08:58:57.000Z</time>
      </trkpt>
      <trkpt lat="43.73245" lon="3.46403">
        <ele>498.5</ele>
        <time>2023-05-14T08:59:02.000Z</time>
      </trkpt>
      <trkpt lat="43.73245" lon="3.46401">
        <ele>498.4</ele>
        <time>2023-05-14T08:59:08.000Z</time>
      </trkpt>
      <trkpt lat="43.73245" lon="3.46401">
        <ele>498.3</ele>
        <time>2023-05-14T09:00:10.000Z</time>
      </trkpt>
      <trkpt lat="43.73245" lon="3.46401">
        <ele>498.3</ele>
        <time>2023-05-14T09:00:11.000Z</time>
      </trkpt>
      <trkpt lat="43.73245" lon="3.46401">
        <ele>498.2</ele>
        <time>2023-05-14T09:00:42.000Z</time>
      </trkpt>
      <trkpt lat="43.73245" lon="3.46399">
        <ele>498.2</ele>
        <time>2023-05-14T09:00:47.000Z</time>
      </trkpt>
      <trkpt lat="43.73245" lon="3.46398">
        <ele>498.5</ele>
        <time>2023-05-14T09:01:37.000Z</time>
      </trkpt>
      <trkpt lat="43.73246" lon="3.46397">
        <ele>498.5</ele>
        <time>2023-05-14T09:01:40.000Z</time>
      </trkpt>
      <trkpt lat="43.73246" lon="3.46397">
        <ele>498.4</ele>
        <time>2023-05-14T09:02:20.000Z</time>
      </trkpt>
      <trkpt lat="43.73246" lon="3.46397">
        <ele>498.4</ele>
        <time>2023-05-14T09:02:21.000Z</time>
      </trkpt>
      <trkpt lat="43.73246" lon="3.46397">
        <ele>498.5</ele>
        <time>2023-05-14T09:03:57.000Z</time>
      </trkpt>
      <trkpt lat="43.73246" lon="3.46397">
        <ele>498.5</ele>
        <time>2023-05-14T09:03:58.000Z</time>
      </trkpt>
      <trkpt lat="43.73246" lon="3.46397">
        <ele>498.6</ele>
        <time>2023-05-14T09:04:21.000Z</time>
      </trkpt>
      <trkpt lat="43.73245" lon="3.46397">
        <ele>498.6</ele>
        <time>2023-05-14T09:04:23.000Z</time>
      </trkpt>
      <trkpt lat="43.73246" lon="3.46397">
        <ele>498.6</ele>
        <time>2023-05-14T09:04:25.000Z</time>
      </trkpt>
      <trkpt lat="43.73246" lon="3.46397">
        <ele>498.6</ele>
        <time>2023-05-14T09:04:26.000Z</time>
      </trkpt>
      <trkpt lat="43.73246" lon="3.46397">
        <ele>498.6</ele>
        <time>2023-05-14T09:04:41.000Z</time>
      </trkpt>
      <trkpt lat="43.73246" lon="3.46397">
        <ele>498.6</ele>
        <time>2023-05-14T09:04:43.000Z</time>
      </trkpt>
      <trkpt lat="43.73246" lon="3.46396">
        <ele>498.7</ele>
        <time>2023-05-14T09:06:06.000Z</time>
      </trkpt>
      <trkpt lat="43.73246" lon="3.46396">
        <ele>498.7</ele>
        <time>2023-05-14T09:06:07.000Z</time>
      </trkpt>
      <trkpt lat="43.73246" lon="3.46396">
        <ele>498.7</ele>
        <time>2023-05-14T09:06:08.000Z</time>
      </trkpt>
      <trkpt lat="43.73246" lon="3.46396">
        <ele>498.7</ele>
        <time>2023-05-14T09:06:09.000Z</time>
      </trkpt>
      <trkpt lat="43.73246" lon="3.46396">
        <ele>498.1</ele>
        <time>2023-05-14T09:06:52.000Z</time>
      </trkpt>
      <trkpt lat="43.73246" lon="3.46396">
        <ele>498.1</ele>
        <time>2023-05-14T09:06:53.000Z</time>
      </trkpt>
      <trkpt lat="43.73246" lon="3.46396">
        <ele>499.1</ele>
        <time>2023-05-14T09:08:38.000Z</time>
      </trkpt>
      <trkpt lat="43.73246" lon="3.46396">
        <ele>499.1</ele>
        <time>2023-05-14T09:08:39.000Z</time>
      </trkpt>
      <trkpt lat="43.73246" lon="3.46397">
        <ele>499.2</ele>
        <time>2023-05-14T09:08:43.000Z</time>
      </trkpt>
      <trkpt lat="43.73251" lon="3.46407">
        <ele>499.2</ele>
        <time>2023-05-14T09:08:48.000Z</time>
      </trkpt>
      <trkpt lat="43.73258" lon="3.46417">
        <ele>499.1</ele>
        <time>2023-05-14T09:08:51.000Z</time>
      </trkpt>
      <trkpt lat="43.73262" lon="3.46431">
        <ele>498.9</ele>
        <time>2023-05-14T09:08:54.000Z</time>
      </trkpt>
      <trkpt lat="43.73264" lon="3.46446">
        <ele>498.6</ele>
        <time>2023-05-14T09:08:57.000Z</time>
      </trkpt>
      <trkpt lat="43.73266" lon="3.4646">
        <ele>497.8</ele>
        <time>2023-05-14T09:09:01.000Z</time>
      </trkpt>
      <trkpt lat="43.73269" lon="3.46474">
        <ele>496.5</ele>
        <time>2023-05-14T09:09:05.000Z</time>
      </trkpt>
      <trkpt lat="43.73271" lon="3.46488">
        <ele>495</ele>
        <time>2023-05-14T09:09:08.000Z</time>
      </trkpt>
      <trkpt lat="43.73271" lon="3.46501">
        <ele>494.1</ele>
        <time>2023-05-14T09:09:10.000Z</time>
      </trkpt>
      <trkpt lat="43.73269" lon="3.46517">
        <ele>492.5</ele>
        <time>2023-05-14T09:09:13.000Z</time>
      </trkpt>
      <trkpt lat="43.73265" lon="3.46531">
        <ele>490.9</ele>
        <time>2023-05-14T09:09:17.000Z</time>
      </trkpt>
      <trkpt lat="43.73255" lon="3.46536">
        <ele>489.1</ele>
        <time>2023-05-14T09:09:22.000Z</time>
      </trkpt>
      <trkpt lat="43.73243" lon="3.46539">
        <ele>487.7</ele>
        <time>2023-05-14T09:09:26.000Z</time>
      </trkpt>
      <trkpt lat="43.7323" lon="3.46543">
        <ele>486.4</ele>
        <time>2023-05-14T09:09:29.000Z</time>
      </trkpt>
      <trkpt lat="43.73221" lon="3.46544">
        <ele>485.4</ele>
        <time>2023-05-14T09:09:31.000Z</time>
      </trkpt>
      <trkpt lat="43.73212" lon="3.46547">
        <ele>484.1</ele>
        <time>2023-05-14T09:09:33.000Z</time>
      </trkpt>
      <trkpt lat="43.73201" lon="3.46553">
        <ele>482.8</ele>
        <time>2023-05-14T09:09:36.000Z</time>
      </trkpt>
      <trkpt lat="43.7319" lon="3.46559">
        <ele>481</ele>
        <time>2023-05-14T09:09:39.000Z</time>
      </trkpt>
      <trkpt lat="43.7318" lon="3.46566">
        <ele>478.9</ele>
        <time>2023-05-14T09:09:42.000Z</time>
      </trkpt>
      <trkpt lat="43.73169" lon="3.46575">
        <ele>477.6</ele>
        <time>2023-05-14T09:09:45.000Z</time>
      </trkpt>
      <trkpt lat="43.73157" lon="3.46578">
        <ele>475.7</ele>
        <time>2023-05-14T09:09:48.000Z</time>
      </trkpt>
      <trkpt lat="43.73151" lon="3.4658">
        <ele>473.3</ele>
        <time>2023-05-14T09:09:53.000Z</time>
      </trkpt>
      <trkpt lat="43.73151" lon="3.4658">
        <ele>471.3</ele>
        <time>2023-05-14T09:10:22.000Z</time>
      </trkpt>
      <trkpt lat="43.73149" lon="3.46582">
        <ele>471.2</ele>
        <time>2023-05-14T09:10:28.000Z</time>
      </trkpt>
      <trkpt lat="43.73149" lon="3.46582">
        <ele>470.9</ele>
        <time>2023-05-14T09:10:48.000Z</time>
      </trkpt>
      <trkpt lat="43.73142" lon="3.4659">
        <ele>470.8</ele>
        <time>2023-05-14T09:10:54.000Z</time>
      </trkpt>
      <trkpt lat="43.73133" lon="3.46597">
        <ele>470.7</ele>
        <time>2023-05-14T09:10:57.000Z</time>
      </trkpt>
      <trkpt lat="43.73125" lon="3.46604">
        <ele>470.4</ele>
        <time>2023-05-14T09:11:00.000Z</time>
      </trkpt>
      <trkpt lat="43.73124" lon="3.46605">
        <ele>470.1</ele>
        <time>2023-05-14T09:11:02.000Z</time>
      </trkpt>
      <trkpt lat="43.73124" lon="3.46605">
        <ele>468.1</ele>
        <time>2023-05-14T09:11:19.000Z</time>
      </trkpt>
      <trkpt lat="43.73115" lon="3.46614">
        <ele>467.6</ele>
        <time>2023-05-14T09:11:25.000Z</time>
      </trkpt>
      <trkpt lat="43.73108" lon="3.46626">
        <ele>466.6</ele>
        <time>2023-05-14T09:11:31.000Z</time>
      </trkpt>
      <trkpt lat="43.73097" lon="3.46635">
        <ele>465.8</ele>
        <time>2023-05-14T09:11:35.000Z</time>
      </trkpt>
      <trkpt lat="43.73088" lon="3.46639">
        <ele>465.4</ele>
        <time>2023-05-14T09:11:37.000Z</time>
      </trkpt>
      <trkpt lat="43.73079" lon="3.46643">
        <ele>464.9</ele>
        <time>2023-05-14T09:11:39.000Z</time>
      </trkpt>
      <trkpt lat="43.73069" lon="3.46649">
        <ele>463.4</ele>
        <time>2023-05-14T09:11:42.000Z</time>
      </trkpt>
      <trkpt lat="43.73058" lon="3.46655">
        <ele>461.3</ele>
        <time>2023-05-14T09:11:45.000Z</time>
      </trkpt>
      <trkpt lat="43.73048" lon="3.46662">
        <ele>459.4</ele>
        <time>2023-05-14T09:11:48.000Z</time>
      </trkpt>
      <trkpt lat="43.73038" lon="3.46667">
        <ele>457.9</ele>
        <time>2023-05-14T09:11:50.000Z</time>
      </trkpt>
      <trkpt lat="43.73026" lon="3.46669">
        <ele>456.5</ele>
        <time>2023-05-14T09:11:52.000Z</time>
      </trkpt>
      <trkpt lat="43.73014" lon="3.46669">
        <ele>455</ele>
        <time>2023-05-14T09:11:54.000Z</time>
      </trkpt>
      <trkpt lat="43.73004" lon="3.46669">
        <ele>453.6</ele>
        <time>2023-05-14T09:11:56.000Z</time>
      </trkpt>
      <trkpt lat="43.72999" lon="3.46671">
        <ele>451.9</ele>
        <time>2023-05-14T09:12:00.000Z</time>
      </trkpt>
      <trkpt lat="43.72999" lon="3.46672">
        <ele>451</ele>
        <time>2023-05-14T09:12:08.000Z</time>
      </trkpt>
      <trkpt lat="43.72992" lon="3.46682">
        <ele>450.5</ele>
        <time>2023-05-14T09:12:14.000Z</time>
      </trkpt>
      <trkpt lat="43.72993" lon="3.46696">
        <ele>450</ele>
        <time>2023-05-14T09:12:18.000Z</time>
      </trkpt>
      <trkpt lat="43.72997" lon="3.46707">
        <ele>449.7</ele>
        <time>2023-05-14T09:12:20.000Z</time>
      </trkpt>
      <trkpt lat="43.73004" lon="3.46719">
        <ele>449.4</ele>
        <time>2023-05-14T09:12:22.000Z</time>
      </trkpt>
      <trkpt lat="43.73013" lon="3.46731">
        <ele>448.7</ele>
        <time>2023-05-14T09:12:24.000Z</time>
      </trkpt>
      <trkpt lat="43.73022" lon="3.46742">
        <ele>447.6</ele>
        <time>2023-05-14T09:12:26.000Z</time>
      </trkpt>
      <trkpt lat="43.7303" lon="3.46752">
        <ele>446.8</ele>
        <time>2023-05-14T09:12:28.000Z</time>
      </trkpt>
      <trkpt lat="43.73037" lon="3.46764">
        <ele>445.5</ele>
        <time>2023-05-14T09:12:31.000Z</time>
      </trkpt>
      <trkpt lat="43.73044" lon="3.46776">
        <ele>443.9</ele>
        <time>2023-05-14T09:12:34.000Z</time>
      </trkpt>
      <trkpt lat="43.73044" lon="3.46789">
        <ele>442.3</ele>
        <time>2023-05-14T09:12:38.000Z</time>
      </trkpt>
      <trkpt lat="43.73035" lon="3.46794">
        <ele>440.2</ele>
        <time>2023-05-14T09:12:42.000Z</time>
      </trkpt>
      <trkpt lat="43.73025" lon="3.4679">
        <ele>438.9</ele>
        <time>2023-05-14T09:12:46.000Z</time>
      </trkpt>
      <trkpt lat="43.73015" lon="3.46788">
        <ele>437.3</ele>
        <time>2023-05-14T09:12:51.000Z</time>
      </trkpt>
      <trkpt lat="43.73005" lon="3.46786">
        <ele>436.5</ele>
        <time>2023-05-14T09:12:55.000Z</time>
      </trkpt>
      <trkpt lat="43.72995" lon="3.46786">
        <ele>435.7</ele>
        <time>2023-05-14T09:12:59.000Z</time>
      </trkpt>
      <trkpt lat="43.72984" lon="3.46784">
        <ele>434.5</ele>
        <time>2023-05-14T09:13:03.000Z</time>
      </trkpt>
      <trkpt lat="43.72971" lon="3.46785">
        <ele>433.7</ele>
        <time>2023-05-14T09:13:06.000Z</time>
      </trkpt>
      <trkpt lat="43.72959" lon="3.46786">
        <ele>432.9</ele>
        <time>2023-05-14T09:13:08.000Z</time>
      </trkpt>
      <trkpt lat="43.72946" lon="3.46785">
        <ele>431.6</ele>
        <time>2023-05-14T09:13:10.000Z</time>
      </trkpt>
      <trkpt lat="43.72934" lon="3.46785">
        <ele>430.3</ele>
        <time>2023-05-14T09:13:12.000Z</time>
      </trkpt>
      <trkpt lat="43.7292" lon="3.46785">
        <ele>428.5</ele>
        <time>2023-05-14T09:13:14.000Z</time>
      </trkpt>
      <trkpt lat="43.72907" lon="3.46785">
        <ele>426.6</ele>
        <time>2023-05-14T09:13:16.000Z</time>
      </trkpt>
      <trkpt lat="43.72897" lon="3.46782">
        <ele>425.2</ele>
        <time>2023-05-14T09:13:18.000Z</time>
      </trkpt>
      <trkpt lat="43.72888" lon="3.46776">
        <ele>422.1</ele>
        <time>2023-05-14T09:13:22.000Z</time>
      </trkpt>
      <trkpt lat="43.72876" lon="3.46775">
        <ele>420.9</ele>
        <time>2023-05-14T09:13:26.000Z</time>
      </trkpt>
      <trkpt lat="43.72866" lon="3.46775">
        <ele>419.9</ele>
        <time>2023-05-14T09:13:29.000Z</time>
      </trkpt>
      <trkpt lat="43.72854" lon="3.46774">
        <ele>418.8</ele>
        <time>2023-05-14T09:13:33.000Z</time>
      </trkpt>
      <trkpt lat="43.72842" lon="3.46774">
        <ele>418</ele>
        <time>2023-05-14T09:13:36.000Z</time>
      </trkpt>
      <trkpt lat="43.72832" lon="3.46777">
        <ele>416.7</ele>
        <time>2023-05-14T09:13:39.000Z</time>
      </trkpt>
      <trkpt lat="43.72821" lon="3.46778">
        <ele>415.4</ele>
        <time>2023-05-14T09:13:42.000Z</time>
      </trkpt>
      <trkpt lat="43.7281" lon="3.46778">
        <ele>414.6</ele>
        <time>2023-05-14T09:13:45.000Z</time>
      </trkpt>
      <trkpt lat="43.72808" lon="3.46772">
        <ele>413.5</ele>
        <time>2023-05-14T09:13:49.000Z</time>
      </trkpt>
      <trkpt lat="43.72808" lon="3.46772">
        <ele>413.2</ele>
        <time>2023-05-14T09:13:51.000Z</time>
      </trkpt>
      <trkpt lat="43.72808" lon="3.46772">
        <ele>412.9</ele>
        <time>2023-05-14T09:13:53.000Z</time>
      </trkpt>
      <trkpt lat="43.72808" lon="3.46772">
        <ele>411.7</ele>
        <time>2023-05-14T09:14:10.000Z</time>
      </trkpt>
      <trkpt lat="43.72808" lon="3.46772">
        <ele>411.6</ele>
        <time>2023-05-14T09:14:11.000Z</time>
      </trkpt>
      <trkpt lat="43.72808" lon="3.46772">
        <ele>411.6</ele>
        <time>2023-05-14T09:14:12.000Z</time>
      </trkpt>
      <trkpt lat="43.72808" lon="3.46772">
        <ele>411.6</ele>
        <time>2023-05-14T09:14:13.000Z</time>
      </trkpt>
      <trkpt lat="43.72808" lon="3.46772">
        <ele>411.7</ele>
        <time>2023-05-14T09:14:27.000Z</time>
      </trkpt>
      <trkpt lat="43.72809" lon="3.46772">
        <ele>411.7</ele>
        <time>2023-05-14T09:14:30.000Z</time>
      </trkpt>
      <trkpt lat="43.72809" lon="3.46772">
        <ele>411.6</ele>
        <time>2023-05-14T09:14:33.000Z</time>
      </trkpt>
      <trkpt lat="43.72809" lon="3.46772">
        <ele>411.6</ele>
        <time>2023-05-14T09:14:34.000Z</time>
      </trkpt>
      <trkpt lat="43.72809" lon="3.46772">
        <ele>411.5</ele>
        <time>2023-05-14T09:14:42.000Z</time>
      </trkpt>
      <trkpt lat="43.72809" lon="3.46772">
        <ele>411.5</ele>
        <time>2023-05-14T09:14:43.000Z</time>
      </trkpt>
      <trkpt lat="43.72809" lon="3.46772">
        <ele>411.5</ele>
        <time>2023-05-14T09:14:45.000Z</time>
      </trkpt>
      <trkpt lat="43.72809" lon="3.46772">
        <ele>411.5</ele>
        <time>2023-05-14T09:14:46.000Z</time>
      </trkpt>
      <trkpt lat="43.72809" lon="3.46772">
        <ele>411.3</ele>
        <time>2023-05-14T09:15:22.000Z</time>
      </trkpt>
      <trkpt lat="43.72809" lon="3.46772">
        <ele>411.3</ele>
        <time>2023-05-14T09:15:23.000Z</time>
      </trkpt>
      <trkpt lat="43.72809" lon="3.46772">
        <ele>411.3</ele>
        <time>2023-05-14T09:15:24.000Z</time>
      </trkpt>
      <trkpt lat="43.72808" lon="3.46772">
        <ele>411.4</ele>
        <time>2023-05-14T09:15:27.000Z</time>
      </trkpt>
      <trkpt lat="43.72809" lon="3.46772">
        <ele>411.5</ele>
        <time>2023-05-14T09:15:38.000Z</time>
      </trkpt>
      <trkpt lat="43.72809" lon="3.46772">
        <ele>411.5</ele>
        <time>2023-05-14T09:15:39.000Z</time>
      </trkpt>
      <trkpt lat="43.72809" lon="3.46772">
        <ele>411.6</ele>
        <time>2023-05-14T09:16:07.000Z</time>
      </trkpt>
      <trkpt lat="43.72809" lon="3.46772">
        <ele>411.6</ele>
        <time>2023-05-14T09:16:09.000Z</time>
      </trkpt>
      <trkpt lat="43.72809" lon="3.46772">
        <ele>411.7</ele>
        <time>2023-05-14T09:16:16.000Z</time>
      </trkpt>
      <trkpt lat="43.72809" lon="3.46772">
        <ele>411.7</ele>
        <time>2023-05-14T09:16:17.000Z</time>
      </trkpt>
      <trkpt lat="43.72809" lon="3.46772">
        <ele>412.2</ele>
        <time>2023-05-14T09:16:27.000Z</time>
      </trkpt>
      <trkpt lat="43.72807" lon="3.46769">
        <ele>412.8</ele>
        <time>2023-05-14T09:16:38.000Z</time>
      </trkpt>
      <trkpt lat="43.72807" lon="3.46769">
        <ele>413</ele>
        <time>2023-05-14T09:16:43.000Z</time>
      </trkpt>
      <trkpt lat="43.72808" lon="3.46773">
        <ele>413.2</ele>
        <time>2023-05-14T09:16:53.000Z</time>
      </trkpt>
      <trkpt lat="43.72808" lon="3.46773">
        <ele>413.2</ele>
        <time>2023-05-14T09:16:57.000Z</time>
      </trkpt>
      <trkpt lat="43.72808" lon="3.46773">
        <ele>413.2</ele>
        <time>2023-05-14T09:16:58.000Z</time>
      </trkpt>
      <trkpt lat="43.72808" lon="3.46774">
        <ele>413.1</ele>
        <time>2023-05-14T09:17:01.000Z</time>
      </trkpt>
      <trkpt lat="43.72808" lon="3.46774">
        <ele>413.1</ele>
        <time>2023-05-14T09:17:04.000Z</time>
      </trkpt>
      <trkpt lat="43.72808" lon="3.46775">
        <ele>413.1</ele>
        <time>2023-05-14T09:17:10.000Z</time>
      </trkpt>
      <trkpt lat="43.72808" lon="3.46775">
        <ele>413.1</ele>
        <time>2023-05-14T09:17:11.000Z</time>
      </trkpt>
      <trkpt lat="43.72808" lon="3.46774">
        <ele>413.1</ele>
        <time>2023-05-14T09:17:25.000Z</time>
      </trkpt>
      <trkpt lat="43.72808" lon="3.46774">
        <ele>413.1</ele>
        <time>2023-05-14T09:17:26.000Z</time>
      </trkpt>
      <trkpt lat="43.72807" lon="3.46774">
        <ele>413.1</ele>
        <time>2023-05-14T09:17:27.000Z</time>
      </trkpt>
      <trkpt lat="43.72807" lon="3.46774">
        <ele>413.1</ele>
        <time>2023-05-14T09:17:28.000Z</time>
      </trkpt>
      <trkpt lat="43.72807" lon="3.46774">
        <ele>413.1</ele>
        <time>2023-05-14T09:17:29.000Z</time>
      </trkpt>
      <trkpt lat="43.72807" lon="3.46774">
        <ele>413.1</ele>
        <time>2023-05-14T09:17:30.000Z</time>
      </trkpt>
      <trkpt lat="43.72807" lon="3.46774">
        <ele>413.1</ele>
        <time>2023-05-14T09:17:32.000Z</time>
      </trkpt>
      <trkpt lat="43.72807" lon="3.46774">
        <ele>413.1</ele>
        <time>2023-05-14T09:17:33.000Z</time>
      </trkpt>
      <trkpt lat="43.72807" lon="3.46773">
        <ele>413.1</ele>
        <time>2023-05-14T09:17:34.000Z</time>
      </trkpt>
      <trkpt lat="43.72807" lon="3.46773">
        <ele>413.1</ele>
        <time>2023-05-14T09:17:35.000Z</time>
      </trkpt>
      <trkpt lat="43.72807" lon="3.46773">
        <ele>413.2</ele>
        <time>2023-05-14T09:17:39.000Z</time>
      </trkpt>
      <trkpt lat="43.72807" lon="3.46773">
        <ele>413.2</ele>
        <time>2023-05-14T09:17:40.000Z</time>
      </trkpt>
      <trkpt lat="43.72807" lon="3.46773">
        <ele>413.5</ele>
        <time>2023-05-14T09:20:10.000Z</time>
      </trkpt>
      <trkpt lat="43.72807" lon="3.46773">
        <ele>413.5</ele>
        <time>2023-05-14T09:20:11.000Z</time>
      </trkpt>
      <trkpt lat="43.72806" lon="3.46773">
        <ele>413.4</ele>
        <time>2023-05-14T09:20:12.000Z</time>
      </trkpt>
      <trkpt lat="43.72806" lon="3.46773">
        <ele>413.4</ele>
        <time>2023-05-14T09:20:13.000Z</time>
      </trkpt>
      <trkpt lat="43.72806" lon="3.46773">
        <ele>413.4</ele>
        <time>2023-05-14T09:20:31.000Z</time>
      </trkpt>
      <trkpt lat="43.72806" lon="3.46772">
        <ele>413.4</ele>
        <time>2023-05-14T09:20:34.000Z</time>
      </trkpt>
      <trkpt lat="43.72806" lon="3.46772">
        <ele>413.4</ele>
        <time>2023-05-14T09:20:35.000Z</time>
      </trkpt>
      <trkpt lat="43.72806" lon="3.46772">
        <ele>413.4</ele>
        <time>2023-05-14T09:20:37.000Z</time>
      </trkpt>
      <trkpt lat="43.72806" lon="3.46772">
        <ele>413.4</ele>
        <time>2023-05-14T09:20:38.000Z</time>
      </trkpt>
      <trkpt lat="43.72806" lon="3.46772">
        <ele>413.4</ele>
        <time>2023-05-14T09:20:39.000Z</time>
      </trkpt>
      <trkpt lat="43.72806" lon="3.46771">
        <ele>413.5</ele>
        <time>2023-05-14T09:21:25.000Z</time>
      </trkpt>
      <trkpt lat="43.72806" lon="3.46771">
        <ele>413.5</ele>
        <time>2023-05-14T09:21:26.000Z</time>
      </trkpt>
      <trkpt lat="43.72806" lon="3.46771">
        <ele>413.5</ele>
        <time>2023-05-14T09:21:27.000Z</time>
      </trkpt>
      <trkpt lat="43.72806" lon="3.46771">
        <ele>413.5</ele>
        <time>2023-05-14T09:21:28.000Z</time>
      </trkpt>
      <trkpt lat="43.72806" lon="3.4677">
        <ele>413.4</ele>
        <time>2023-05-14T09:21:33.000Z</time>
      </trkpt>
      <trkpt lat="43.72806" lon="3.4677">
        <ele>413.4</ele>
        <time>2023-05-14T09:21:34.000Z</time>
      </trkpt>
      <trkpt lat="43.72806" lon="3.4677">
        <ele>413.2</ele>
        <time>2023-05-14T09:21:42.000Z</time>
      </trkpt>
      <trkpt lat="43.72806" lon="3.4677">
        <ele>413.2</ele>
        <time>2023-05-14T09:21:43.000Z</time>
      </trkpt>
      <trkpt lat="43.72806" lon="3.4677">
        <ele>413.2</ele>
        <time>2023-05-14T09:21:46.000Z</time>
      </trkpt>
      <trkpt lat="43.72806" lon="3.4677">
        <ele>413.2</ele>
        <time>2023-05-14T09:21:47.000Z</time>
      </trkpt>
      <trkpt lat="43.72806" lon="3.4677">
        <ele>413.2</ele>
        <time>2023-05-14T09:21:51.000Z</time>
      </trkpt>
      <trkpt lat="43.72806" lon="3.4677">
        <ele>413.2</ele>
        <time>2023-05-14T09:21:52.000Z</time>
      </trkpt>
      <trkpt lat="43.72806" lon="3.4677">
        <ele>413.2</ele>
        <time>2023-05-14T09:21:53.000Z</time>
      </trkpt>
      <trkpt lat="43.72806" lon="3.4677">
        <ele>413.2</ele>
        <time>2023-05-14T09:21:54.000Z</time>
      </trkpt>
      <trkpt lat="43.72806" lon="3.4677">
        <ele>413.2</ele>
        <time>2023-05-14T09:21:57.000Z</time>
      </trkpt>
      <trkpt lat="43.72806" lon="3.46769">
        <ele>413.2</ele>
        <time>2023-05-14T09:21:58.000Z</time>
      </trkpt>
      <trkpt lat="43.72806" lon="3.46769">
        <ele>413.2</ele>
        <time>2023-05-14T09:22:00.000Z</time>
      </trkpt>
      <trkpt lat="43.72806" lon="3.46769">
        <ele>413.2</ele>
        <time>2023-05-14T09:22:01.000Z</time>
      </trkpt>
      <trkpt lat="43.72806" lon="3.46769">
        <ele>413.2</ele>
        <time>2023-05-14T09:22:06.000Z</time>
      </trkpt>
      <trkpt lat="43.72806" lon="3.46769">
        <ele>413.2</ele>
        <time>2023-05-14T09:22:07.000Z</time>
      </trkpt>
      <trkpt lat="43.72806" lon="3.46768">
        <ele>413.3</ele>
        <time>2023-05-14T09:22:13.000Z</time>
      </trkpt>
      <trkpt lat="43.72806" lon="3.46768">
        <ele>413.3</ele>
        <time>2023-05-14T09:22:14.000Z</time>
      </trkpt>
      <trkpt lat="43.72806" lon="3.46768">
        <ele>413.3</ele>
        <time>2023-05-14T09:22:33.000Z</time>
      </trkpt>
      <trkpt lat="43.72806" lon="3.46768">
        <ele>413.2</ele>
        <time>2023-05-14T09:22:34.000Z</time>
      </trkpt>
      <trkpt lat="43.72806" lon="3.46768">
        <ele>413.2</ele>
        <time>2023-05-14T09:22:49.000Z</time>
      </trkpt>
      <trkpt lat="43.72806" lon="3.46768">
        <ele>413.2</ele>
        <time>2023-05-14T09:22:50.000Z</time>
      </trkpt>
      <trkpt lat="43.72806" lon="3.46768">
        <ele>413.2</ele>
        <time>2023-05-14T09:23:04.000Z</time>
      </trkpt>
      <trkpt lat="43.72806" lon="3.46768">
        <ele>413.2</ele>
        <time>2023-05-14T09:23:05.000Z</time>
      </trkpt>
      <trkpt lat="43.72806" lon="3.46768">
        <ele>413.1</ele>
        <time>2023-05-14T09:23:14.000Z</time>
      </trkpt>
      <trkpt lat="43.72806" lon="3.46768">
        <ele>413.1</ele>
        <time>2023-05-14T09:23:16.000Z</time>
      </trkpt>
      <trkpt lat="43.72806" lon="3.46768">
        <ele>413.4</ele>
        <time>2023-05-14T09:23:59.000Z</time>
      </trkpt>
      <trkpt lat="43.72806" lon="3.46768">
        <ele>413.4</ele>
        <time>2023-05-14T09:24:00.000Z</time>
      </trkpt>
      <trkpt lat="43.72806" lon="3.46768">
        <ele>412.9</ele>
        <time>2023-05-14T09:24:49.000Z</time>
      </trkpt>
      <trkpt lat="43.72806" lon="3.46768">
        <ele>412.9</ele>
        <time>2023-05-14T09:24:50.000Z</time>
      </trkpt>
      <trkpt lat="43.72806" lon="3.46768">
        <ele>412.3</ele>
        <time>2023-05-14T09:26:24.000Z</time>
      </trkpt>
      <trkpt lat="43.72805" lon="3.46768">
        <ele>412.3</ele>
        <time>2023-05-14T09:26:26.000Z</time>
      </trkpt>
      <trkpt lat="43.72806" lon="3.46768">
        <ele>411.6</ele>
        <time>2023-05-14T09:30:42.000Z</time>
      </trkpt>
      <trkpt lat="43.72806" lon="3.46768">
        <ele>411.7</ele>
        <time>2023-05-14T09:30:43.000Z</time>
      </trkpt>
      <trkpt lat="43.72806" lon="3.46768">
        <ele>411.4</ele>
        <time>2023-05-14T09:30:56.000Z</time>
      </trkpt>
      <trkpt lat="43.72806" lon="3.46768">
        <ele>411.4</ele>
        <time>2023-05-14T09:30:57.000Z</time>
      </trkpt>
      <trkpt lat="43.72806" lon="3.46769">
        <ele>412</ele>
        <time>2023-05-14T09:33:11.000Z</time>
      </trkpt>
      <trkpt lat="43.72806" lon="3.46769">
        <ele>412</ele>
        <time>2023-05-14T09:33:12.000Z</time>
      </trkpt>
      <trkpt lat="43.72806" lon="3.46769">
        <ele>411.3</ele>
        <time>2023-05-14T09:35:39.000Z</time>
      </trkpt>
      <trkpt lat="43.72806" lon="3.46769">
        <ele>411.3</ele>
        <time>2023-05-14T09:35:40.000Z</time>
      </trkpt>
      <trkpt lat="43.72806" lon="3.46769">
        <ele>410.9</ele>
        <time>2023-05-14T09:39:34.000Z</time>
      </trkpt>
      <trkpt lat="43.72806" lon="3.46769">
        <ele>410.9</ele>
        <time>2023-05-14T09:39:35.000Z</time>
      </trkpt>
      <trkpt lat="43.72806" lon="3.46769">
        <ele>411.2</ele>
        <time>2023-05-14T09:47:48.000Z</time>
      </trkpt>
      <trkpt lat="43.72806" lon="3.46769">
        <ele>411.2</ele>
        <time>2023-05-14T09:47:49.000Z</time>
      </trkpt>
      <trkpt lat="43.72807" lon="3.46769">
        <ele>410.6</ele>
        <time>2023-05-14T09:48:34.000Z</time>
      </trkpt>
      <trkpt lat="43.72807" lon="3.46769">
        <ele>410.6</ele>
        <time>2023-05-14T09:48:35.000Z</time>
      </trkpt>
      <trkpt lat="43.72807" lon="3.46769">
        <ele>410.8</ele>
        <time>2023-05-14T09:49:47.000Z</time>
      </trkpt>
      <trkpt lat="43.72807" lon="3.46769">
        <ele>410.9</ele>
        <time>2023-05-14T09:49:50.000Z</time>
      </trkpt>
      <trkpt lat="43.72807" lon="3.46769">
        <ele>411.3</ele>
        <time>2023-05-14T09:50:07.000Z</time>
      </trkpt>
      <trkpt lat="43.728" lon="3.46759">
        <ele>411.5</ele>
        <time>2023-05-14T09:50:12.000Z</time>
      </trkpt>
      <trkpt lat="43.72791" lon="3.46752">
        <ele>411.5</ele>
        <time>2023-05-14T09:50:15.000Z</time>
      </trkpt>
      <trkpt lat="43.72781" lon="3.46747">
        <ele>411.5</ele>
        <time>2023-05-14T09:50:18.000Z</time>
      </trkpt>
      <trkpt lat="43.72771" lon="3.4674">
        <ele>411.6</ele>
        <time>2023-05-14T09:50:21.000Z</time>
      </trkpt>
      <trkpt lat="43.72763" lon="3.46732">
        <ele>411.6</ele>
        <time>2023-05-14T09:50:24.000Z</time>
      </trkpt>
      <trkpt lat="43.72753" lon="3.46725">
        <ele>411.6</ele>
        <time>2023-05-14T09:50:28.000Z</time>
      </trkpt>
      <trkpt lat="43.72744" lon="3.46716">
        <ele>411.6</ele>
        <time>2023-05-14T09:50:32.000Z</time>
      </trkpt>
      <trkpt lat="43.72736" lon="3.46709">
        <ele>411.6</ele>
        <time>2023-05-14T09:50:35.000Z</time>
      </trkpt>
      <trkpt lat="43.72727" lon="3.46703">
        <ele>411.6</ele>
        <time>2023-05-14T09:50:38.000Z</time>
      </trkpt>
      <trkpt lat="43.72718" lon="3.46695">
        <ele>411.6</ele>
        <time>2023-05-14T09:50:42.000Z</time>
      </trkpt>
      <trkpt lat="43.72707" lon="3.46697">
        <ele>411.9</ele>
        <time>2023-05-14T09:50:46.000Z</time>
      </trkpt>
      <trkpt lat="43.72701" lon="3.46711">
        <ele>412.2</ele>
        <time>2023-05-14T09:50:50.000Z</time>
      </trkpt>
      <trkpt lat="43.72698" lon="3.46723">
        <ele>412.6</ele>
        <time>2023-05-14T09:50:53.000Z</time>
      </trkpt>
      <trkpt lat="43.72694" lon="3.46737">
        <ele>413</ele>
        <time>2023-05-14T09:50:56.000Z</time>
      </trkpt>
      <trkpt lat="43.72689" lon="3.46753">
        <ele>413.3</ele>
        <time>2023-05-14T09:50:59.000Z</time>
      </trkpt>
      <trkpt lat="43.72684" lon="3.46767">
        <ele>413.6</ele>
        <time>2023-05-14T09:51:02.000Z</time>
      </trkpt>
      <trkpt lat="43.72687" lon="3.46781">
        <ele>414</ele>
        <time>2023-05-14T09:51:05.000Z</time>
      </trkpt>
      <trkpt lat="43.7269" lon="3.46796">
        <ele>414.3</ele>
        <time>2023-05-14T09:51:08.000Z</time>
      </trkpt>
      <trkpt lat="43.72689" lon="3.46813">
        <ele>414.3</ele>
        <time>2023-05-14T09:51:11.000Z</time>
      </trkpt>
      <trkpt lat="43.72686" lon="3.46829">
        <ele>414.3</ele>
        <time>2023-05-14T09:51:14.000Z</time>
      </trkpt>
      <trkpt lat="43.72682" lon="3.46844">
        <ele>414.2</ele>
        <time>2023-05-14T09:51:17.000Z</time>
      </trkpt>
      <trkpt lat="43.72676" lon="3.46856">
        <ele>414.3</ele>
        <time>2023-05-14T09:51:20.000Z</time>
      </trkpt>
      <trkpt lat="43.72668" lon="3.46864">
        <ele>414.4</ele>
        <time>2023-05-14T09:51:23.000Z</time>
      </trkpt>
      <trkpt lat="43.72659" lon="3.46872">
        <ele>414.7</ele>
        <time>2023-05-14T09:51:26.000Z</time>
      </trkpt>
      <trkpt lat="43.7265" lon="3.46882">
        <ele>414.9</ele>
        <time>2023-05-14T09:51:29.000Z</time>
      </trkpt>
      <trkpt lat="43.72641" lon="3.46891">
        <ele>415.1</ele>
        <time>2023-05-14T09:51:32.000Z</time>
      </trkpt>
      <trkpt lat="43.72633" lon="3.46903">
        <ele>415.4</ele>
        <time>2023-05-14T09:51:35.000Z</time>
      </trkpt>
      <trkpt lat="43.72626" lon="3.46916">
        <ele>415.7</ele>
        <time>2023-05-14T09:51:38.000Z</time>
      </trkpt>
      <trkpt lat="43.72621" lon="3.4693">
        <ele>416.1</ele>
        <time>2023-05-14T09:51:41.000Z</time>
      </trkpt>
      <trkpt lat="43.72616" lon="3.46945">
        <ele>416.4</ele>
        <time>2023-05-14T09:51:44.000Z</time>
      </trkpt>
      <trkpt lat="43.72611" lon="3.4696">
        <ele>416.8</ele>
        <time>2023-05-14T09:51:47.000Z</time>
      </trkpt>
      <trkpt lat="43.72603" lon="3.46969">
        <ele>417.1</ele>
        <time>2023-05-14T09:51:50.000Z</time>
      </trkpt>
      <trkpt lat="43.72593" lon="3.46977">
        <ele>417.9</ele>
        <time>2023-05-14T09:51:54.000Z</time>
      </trkpt>
      <trkpt lat="43.72584" lon="3.46985">
        <ele>418.8</ele>
        <time>2023-05-14T09:51:58.000Z</time>
      </trkpt>
      <trkpt lat="43.72576" lon="3.46995">
        <ele>419.5</ele>
        <time>2023-05-14T09:52:02.000Z</time>
      </trkpt>
      <trkpt lat="43.72567" lon="3.47003">
        <ele>420</ele>
        <time>2023-05-14T09:52:06.000Z</time>
      </trkpt>
      <trkpt lat="43.72558" lon="3.47006">
        <ele>420.3</ele>
        <time>2023-05-14T09:52:10.000Z</time>
      </trkpt>
      <trkpt lat="43.72547" lon="3.47007">
        <ele>420.4</ele>
        <time>2023-05-14T09:52:14.000Z</time>
      </trkpt>
      <trkpt lat="43.72536" lon="3.4701">
        <ele>420.5</ele>
        <time>2023-05-14T09:52:18.000Z</time>
      </trkpt>
      <trkpt lat="43.72526" lon="3.4702">
        <ele>420.6</ele>
        <time>2023-05-14T09:52:22.000Z</time>
      </trkpt>
      <trkpt lat="43.72518" lon="3.47025">
        <ele>420.6</ele>
        <time>2023-05-14T09:52:25.000Z</time>
      </trkpt>
      <trkpt lat="43.72508" lon="3.47033">
        <ele>420.7</ele>
        <time>2023-05-14T09:52:29.000Z</time>
      </trkpt>
      <trkpt lat="43.72498" lon="3.4704">
        <ele>420.7</ele>
        <time>2023-05-14T09:52:33.000Z</time>
      </trkpt>
      <trkpt lat="43.72491" lon="3.47049">
        <ele>420.8</ele>
        <time>2023-05-14T09:52:37.000Z</time>
      </trkpt>
      <trkpt lat="43.72483" lon="3.47057">
        <ele>421</ele>
        <time>2023-05-14T09:52:40.000Z</time>
      </trkpt>
      <trkpt lat="43.72474" lon="3.47065">
        <ele>421.1</ele>
        <time>2023-05-14T09:52:43.000Z</time>
      </trkpt>
      <trkpt lat="43.72464" lon="3.47075">
        <ele>421.1</ele>
        <time>2023-05-14T09:52:46.000Z</time>
      </trkpt>
      <trkpt lat="43.72454" lon="3.47085">
        <ele>421.1</ele>
        <time>2023-05-14T09:52:49.000Z</time>
      </trkpt>
      <trkpt lat="43.72445" lon="3.47089">
        <ele>421.1</ele>
        <time>2023-05-14T09:52:51.000Z</time>
      </trkpt>
      <trkpt lat="43.72437" lon="3.47092">
        <ele>421.1</ele>
        <time>2023-05-14T09:52:53.000Z</time>
      </trkpt>
      <trkpt lat="43.72424" lon="3.47097">
        <ele>421</ele>
        <time>2023-05-14T09:52:56.000Z</time>
      </trkpt>
      <trkpt lat="43.72412" lon="3.47105">
        <ele>421</ele>
        <time>2023-05-14T09:52:59.000Z</time>
      </trkpt>
      <trkpt lat="43.72403" lon="3.47107">
        <ele>421</ele>
        <time>2023-05-14T09:53:01.000Z</time>
      </trkpt>
      <trkpt lat="43.7239" lon="3.47109">
        <ele>421</ele>
        <time>2023-05-14T09:53:04.000Z</time>
      </trkpt>
      <trkpt lat="43.72378" lon="3.47114">
        <ele>420.9</ele>
        <time>2023-05-14T09:53:07.000Z</time>
      </trkpt>
      <trkpt lat="43.72367" lon="3.4712">
        <ele>420.7</ele>
        <time>2023-05-14T09:53:09.000Z</time>
      </trkpt>
      <trkpt lat="43.72355" lon="3.47126">
        <ele>420.4</ele>
        <time>2023-05-14T09:53:11.000Z</time>
      </trkpt>
      <trkpt lat="43.72344" lon="3.4713">
        <ele>420.2</ele>
        <time>2023-05-14T09:53:13.000Z</time>
      </trkpt>
      <trkpt lat="43.72333" lon="3.47138">
        <ele>419.9</ele>
        <time>2023-05-14T09:53:15.000Z</time>
      </trkpt>
      <trkpt lat="43.72323" lon="3.4715">
        <ele>419.6</ele>
        <time>2023-05-14T09:53:17.000Z</time>
      </trkpt>
      <trkpt lat="43.72313" lon="3.47162">
        <ele>419.2</ele>
        <time>2023-05-14T09:53:19.000Z</time>
      </trkpt>
      <trkpt lat="43.72304" lon="3.47176">
        <ele>418.8</ele>
        <time>2023-05-14T09:53:21.000Z</time>
      </trkpt>
      <trkpt lat="43.72295" lon="3.47187">
        <ele>418.4</ele>
        <time>2023-05-14T09:53:23.000Z</time>
      </trkpt>
      <trkpt lat="43.72285" lon="3.47197">
        <ele>418.3</ele>
        <time>2023-05-14T09:53:25.000Z</time>
      </trkpt>
      <trkpt lat="43.72277" lon="3.47208">
        <ele>418.1</ele>
        <time>2023-05-14T09:53:27.000Z</time>
      </trkpt>
      <trkpt lat="43.72268" lon="3.47217">
        <ele>417.9</ele>
        <time>2023-05-14T09:53:29.000Z</time>
      </trkpt>
      <trkpt lat="43.72259" lon="3.4723">
        <ele>417.5</ele>
        <time>2023-05-14T09:53:31.000Z</time>
      </trkpt>
      <trkpt lat="43.72248" lon="3.47242">
        <ele>416.9</ele>
        <time>2023-05-14T09:53:33.000Z</time>
      </trkpt>
      <trkpt lat="43.72243" lon="3.47257">
        <ele>416.4</ele>
        <time>2023-05-14T09:53:35.000Z</time>
      </trkpt>
      <trkpt lat="43.72243" lon="3.47276">
        <ele>415.9</ele>
        <time>2023-05-14T09:53:37.000Z</time>
      </trkpt>
      <trkpt lat="43.72244" lon="3.47294">
        <ele>415.5</ele>
        <time>2023-05-14T09:53:39.000Z</time>
      </trkpt>
      <trkpt lat="43.72245" lon="3.47312">
        <ele>415.2</ele>
        <time>2023-05-14T09:53:41.000Z</time>
      </trkpt>
      <trkpt lat="43.72246" lon="3.4733">
        <ele>414.9</ele>
        <time>2023-05-14T09:53:43.000Z</time>
      </trkpt>
      <trkpt lat="43.72249" lon="3.47346">
        <ele>414.7</ele>
        <time>2023-05-14T09:53:45.000Z</time>
      </trkpt>
      <trkpt lat="43.72256" lon="3.47361">
        <ele>414.6</ele>
        <time>2023-05-14T09:53:47.000Z</time>
      </trkpt>
      <trkpt lat="43.72265" lon="3.47373">
        <ele>414.4</ele>
        <time>2023-05-14T09:53:49.000Z</time>
      </trkpt>
      <trkpt lat="43.7227" lon="3.47388">
        <ele>414.1</ele>
        <time>2023-05-14T09:53:51.000Z</time>
      </trkpt>
      <trkpt lat="43.72268" lon="3.47405">
        <ele>413.7</ele>
        <time>2023-05-14T09:53:53.000Z</time>
      </trkpt>
      <trkpt lat="43.72264" lon="3.47421">
        <ele>412.8</ele>
        <time>2023-05-14T09:53:55.000Z</time>
      </trkpt>
      <trkpt lat="43.72257" lon="3.47438">
        <ele>411.5</ele>
        <time>2023-05-14T09:53:57.000Z</time>
      </trkpt>
      <trkpt lat="43.7225" lon="3.47455">
        <ele>410</ele>
        <time>2023-05-14T09:53:59.000Z</time>
      </trkpt>
      <trkpt lat="43.72243" lon="3.47472">
        <ele>408</ele>
        <time>2023-05-14T09:54:01.000Z</time>
      </trkpt>
      <trkpt lat="43.72237" lon="3.4749">
        <ele>406</ele>
        <time>2023-05-14T09:54:03.000Z</time>
      </trkpt>
      <trkpt lat="43.72232" lon="3.4751">
        <ele>404.1</ele>
        <time>2023-05-14T09:54:05.000Z</time>
      </trkpt>
      <trkpt lat="43.72229" lon="3.47531">
        <ele>402.9</ele>
        <time>2023-05-14T09:54:07.000Z</time>
      </trkpt>
      <trkpt lat="43.72226" lon="3.47551">
        <ele>401.3</ele>
        <time>2023-05-14T09:54:09.000Z</time>
      </trkpt>
      <trkpt lat="43.7222" lon="3.47573">
        <ele>399.7</ele>
        <time>2023-05-14T09:54:11.000Z</time>
      </trkpt>
      <trkpt lat="43.72215" lon="3.47595">
        <ele>398.3</ele>
        <time>2023-05-14T09:54:13.000Z</time>
      </trkpt>
      <trkpt lat="43.72212" lon="3.47618">
        <ele>397.4</ele>
        <time>2023-05-14T09:54:15.000Z</time>
      </trkpt>
      <trkpt lat="43.72208" lon="3.47635">
        <ele>396.5</ele>
        <time>2023-05-14T09:54:17.000Z</time>
      </trkpt>
      <trkpt lat="43.72209" lon="3.47649">
        <ele>395.8</ele>
        <time>2023-05-14T09:54:19.000Z</time>
      </trkpt>
      <trkpt lat="43.72213" lon="3.47665">
        <ele>394.4</ele>
        <time>2023-05-14T09:54:22.000Z</time>
      </trkpt>
      <trkpt lat="43.72211" lon="3.47678">
        <ele>393.2</ele>
        <time>2023-05-14T09:54:25.000Z</time>
      </trkpt>
      <trkpt lat="43.72206" lon="3.4769">
        <ele>392.5</ele>
        <time>2023-05-14T09:54:28.000Z</time>
      </trkpt>
      <trkpt lat="43.72202" lon="3.47705">
        <ele>391.4</ele>
        <time>2023-05-14T09:54:32.000Z</time>
      </trkpt>
      <trkpt lat="43.72198" lon="3.47717">
        <ele>390.9</ele>
        <time>2023-05-14T09:54:35.000Z</time>
      </trkpt>
      <trkpt lat="43.72192" lon="3.47731">
        <ele>389.8</ele>
        <time>2023-05-14T09:54:38.000Z</time>
      </trkpt>
      <trkpt lat="43.72187" lon="3.47747">
        <ele>388.8</ele>
        <time>2023-05-14T09:54:41.000Z</time>
      </trkpt>
      <trkpt lat="43.72183" lon="3.47758">
        <ele>388.5</ele>
        <time>2023-05-14T09:54:43.000Z</time>
      </trkpt>
      <trkpt lat="43.72178" lon="3.4777">
        <ele>388</ele>
        <time>2023-05-14T09:54:45.000Z</time>
      </trkpt>
      <trkpt lat="43.72173" lon="3.47781">
        <ele>387.2</ele>
        <time>2023-05-14T09:54:47.000Z</time>
      </trkpt>
      <trkpt lat="43.72169" lon="3.47792">
        <ele>386.5</ele>
        <time>2023-05-14T09:54:49.000Z</time>
      </trkpt>
      <trkpt lat="43.72162" lon="3.47806">
        <ele>385.5</ele>
        <time>2023-05-14T09:54:52.000Z</time>
      </trkpt>
      <trkpt lat="43.72154" lon="3.47821">
        <ele>384.9</ele>
        <time>2023-05-14T09:54:55.000Z</time>
      </trkpt>
      <trkpt lat="43.72147" lon="3.47831">
        <ele>384.2</ele>
        <time>2023-05-14T09:54:57.000Z</time>
      </trkpt>
      <trkpt lat="43.72141" lon="3.47843">
        <ele>383.1</ele>
        <time>2023-05-14T09:54:59.000Z</time>
      </trkpt>
      <trkpt lat="43.72135" lon="3.47853">
        <ele>382</ele>
        <time>2023-05-14T09:55:01.000Z</time>
      </trkpt>
      <trkpt lat="43.72128" lon="3.47867">
        <ele>381</ele>
        <time>2023-05-14T09:55:04.000Z</time>
      </trkpt>
      <trkpt lat="43.72119" lon="3.47878">
        <ele>379.3</ele>
        <time>2023-05-14T09:55:07.000Z</time>
      </trkpt>
      <trkpt lat="43.72109" lon="3.47885">
        <ele>378.2</ele>
        <time>2023-05-14T09:55:10.000Z</time>
      </trkpt>
      <trkpt lat="43.72099" lon="3.47896">
        <ele>377</ele>
        <time>2023-05-14T09:55:13.000Z</time>
      </trkpt>
      <trkpt lat="43.72087" lon="3.479">
        <ele>376</ele>
        <time>2023-05-14T09:55:16.000Z</time>
      </trkpt>
      <trkpt lat="43.72073" lon="3.47897">
        <ele>374.6</ele>
        <time>2023-05-14T09:55:19.000Z</time>
      </trkpt>
      <trkpt lat="43.72063" lon="3.47894">
        <ele>373.4</ele>
        <time>2023-05-14T09:55:21.000Z</time>
      </trkpt>
      <trkpt lat="43.72053" lon="3.47892">
        <ele>372.5</ele>
        <time>2023-05-14T09:55:23.000Z</time>
      </trkpt>
      <trkpt lat="43.72043" lon="3.4789">
        <ele>372</ele>
        <time>2023-05-14T09:55:25.000Z</time>
      </trkpt>
      <trkpt lat="43.72033" lon="3.47893">
        <ele>371.6</ele>
        <time>2023-05-14T09:55:27.000Z</time>
      </trkpt>
      <trkpt lat="43.72022" lon="3.47895">
        <ele>371</ele>
        <time>2023-05-14T09:55:29.000Z</time>
      </trkpt>
      <trkpt lat="43.72011" lon="3.47896">
        <ele>370.5</ele>
        <time>2023-05-14T09:55:31.000Z</time>
      </trkpt>
      <trkpt lat="43.72" lon="3.47894">
        <ele>369.6</ele>
        <time>2023-05-14T09:55:33.000Z</time>
      </trkpt>
      <trkpt lat="43.71991" lon="3.47893">
        <ele>368.1</ele>
        <time>2023-05-14T09:55:35.000Z</time>
      </trkpt>
      <trkpt lat="43.71981" lon="3.47894">
        <ele>366.8</ele>
        <time>2023-05-14T09:55:37.000Z</time>
      </trkpt>
      <trkpt lat="43.71972" lon="3.47897">
        <ele>366.4</ele>
        <time>2023-05-14T09:55:39.000Z</time>
      </trkpt>
      <trkpt lat="43.71963" lon="3.479">
        <ele>365.8</ele>
        <time>2023-05-14T09:55:41.000Z</time>
      </trkpt>
      <trkpt lat="43.71953" lon="3.479">
        <ele>364.5</ele>
        <time>2023-05-14T09:55:43.000Z</time>
      </trkpt>
      <trkpt lat="43.71944" lon="3.47901">
        <ele>363.6</ele>
        <time>2023-05-14T09:55:45.000Z</time>
      </trkpt>
      <trkpt lat="43.71934" lon="3.47899">
        <ele>362.7</ele>
        <time>2023-05-14T09:55:47.000Z</time>
      </trkpt>
      <trkpt lat="43.71922" lon="3.47896">
        <ele>361.4</ele>
        <time>2023-05-14T09:55:49.000Z</time>
      </trkpt>
      <trkpt lat="43.71908" lon="3.47894">
        <ele>359.5</ele>
        <time>2023-05-14T09:55:51.000Z</time>
      </trkpt>
      <trkpt lat="43.71892" lon="3.47891">
        <ele>356.8</ele>
        <time>2023-05-14T09:55:53.000Z</time>
      </trkpt>
      <trkpt lat="43.71877" lon="3.47886">
        <ele>355.2</ele>
        <time>2023-05-14T09:55:55.000Z</time>
      </trkpt>
      <trkpt lat="43.71863" lon="3.47877">
        <ele>354.1</ele>
        <time>2023-05-14T09:55:57.000Z</time>
      </trkpt>
      <trkpt lat="43.71851" lon="3.47869">
        <ele>353.2</ele>
        <time>2023-05-14T09:55:59.000Z</time>
      </trkpt>
      <trkpt lat="43.71841" lon="3.47862">
        <ele>353</ele>
        <time>2023-05-14T09:56:01.000Z</time>
      </trkpt>
      <trkpt lat="43.71829" lon="3.47861">
        <ele>352.7</ele>
        <time>2023-05-14T09:56:03.000Z</time>
      </trkpt>
      <trkpt lat="43.71819" lon="3.47854">
        <ele>352.4</ele>
        <time>2023-05-14T09:56:05.000Z</time>
      </trkpt>
      <trkpt lat="43.71809" lon="3.47847">
        <ele>352.2</ele>
        <time>2023-05-14T09:56:07.000Z</time>
      </trkpt>
      <trkpt lat="43.71799" lon="3.47839">
        <ele>352.1</ele>
        <time>2023-05-14T09:56:09.000Z</time>
      </trkpt>
      <trkpt lat="43.7179" lon="3.47832">
        <ele>352.1</ele>
        <time>2023-05-14T09:56:11.000Z</time>
      </trkpt>
      <trkpt lat="43.71779" lon="3.47825">
        <ele>352.2</ele>
        <time>2023-05-14T09:56:13.000Z</time>
      </trkpt>
      <trkpt lat="43.71769" lon="3.47819">
        <ele>352.3</ele>
        <time>2023-05-14T09:56:15.000Z</time>
      </trkpt>
      <trkpt lat="43.71759" lon="3.47813">
        <ele>352.4</ele>
        <time>2023-05-14T09:56:17.000Z</time>
      </trkpt>
      <trkpt lat="43.71752" lon="3.47803">
        <ele>352.5</ele>
        <time>2023-05-14T09:56:20.000Z</time>
      </trkpt>
      <trkpt lat="43.71747" lon="3.478">
        <ele>352.4</ele>
        <time>2023-05-14T09:56:25.000Z</time>
      </trkpt>
      <trkpt lat="43.71747" lon="3.478">
        <ele>351.9</ele>
        <time>2023-05-14T09:56:55.000Z</time>
      </trkpt>
      <trkpt lat="43.71747" lon="3.478">
        <ele>351.9</ele>
        <time>2023-05-14T09:56:56.000Z</time>
      </trkpt>
      <trkpt lat="43.71747" lon="3.478">
        <ele>351.8</ele>
        <time>2023-05-14T09:57:13.000Z</time>
      </trkpt>
      <trkpt lat="43.71747" lon="3.478">
        <ele>351.7</ele>
        <time>2023-05-14T09:57:14.000Z</time>
      </trkpt>
      <trkpt lat="43.71747" lon="3.478">
        <ele>351.6</ele>
        <time>2023-05-14T09:57:28.000Z</time>
      </trkpt>
      <trkpt lat="43.71737" lon="3.47799">
        <ele>351.5</ele>
        <time>2023-05-14T09:57:33.000Z</time>
      </trkpt>
      <trkpt lat="43.71724" lon="3.47796">
        <ele>351.2</ele>
        <time>2023-05-14T09:57:36.000Z</time>
      </trkpt>
      <trkpt lat="43.71711" lon="3.47791">
        <ele>351</ele>
        <time>2023-05-14T09:57:38.000Z</time>
      </trkpt>
      <trkpt lat="43.71697" lon="3.47784">
        <ele>350.4</ele>
        <time>2023-05-14T09:57:40.000Z</time>
      </trkpt>
      <trkpt lat="43.71681" lon="3.47778">
        <ele>349.7</ele>
        <time>2023-05-14T09:57:42.000Z</time>
      </trkpt>
      <trkpt lat="43.71666" lon="3.47772">
        <ele>348.6</ele>
        <time>2023-05-14T09:57:44.000Z</time>
      </trkpt>
      <trkpt lat="43.71654" lon="3.47766">
        <ele>347.3</ele>
        <time>2023-05-14T09:57:46.000Z</time>
      </trkpt>
      <trkpt lat="43.71642" lon="3.47761">
        <ele>346</ele>
        <time>2023-05-14T09:57:48.000Z</time>
      </trkpt>
      <trkpt lat="43.71631" lon="3.47757">
        <ele>344.9</ele>
        <time>2023-05-14T09:57:50.000Z</time>
      </trkpt>
      <trkpt lat="43.7162" lon="3.47749">
        <ele>344</ele>
        <time>2023-05-14T09:57:52.000Z</time>
      </trkpt>
      <trkpt lat="43.71609" lon="3.47746">
        <ele>343</ele>
        <time>2023-05-14T09:57:54.000Z</time>
      </trkpt>
      <trkpt lat="43.71599" lon="3.47744">
        <ele>342</ele>
        <time>2023-05-14T09:57:56.000Z</time>
      </trkpt>
      <trkpt lat="43.71588" lon="3.47741">
        <ele>341.1</ele>
        <time>2023-05-14T09:57:58.000Z</time>
      </trkpt>
      <trkpt lat="43.71578" lon="3.47738">
        <ele>340.7</ele>
        <time>2023-05-14T09:58:00.000Z</time>
      </trkpt>
      <trkpt lat="43.71568" lon="3.47735">
        <ele>340.4</ele>
        <time>2023-05-14T09:58:02.000Z</time>
      </trkpt>
      <trkpt lat="43.71558" lon="3.47733">
        <ele>340.1</ele>
        <time>2023-05-14T09:58:04.000Z</time>
      </trkpt>
      <trkpt lat="43.71547" lon="3.47731">
        <ele>339.9</ele>
        <time>2023-05-14T09:58:06.000Z</time>
      </trkpt>
      <trkpt lat="43.71537" lon="3.4773">
        <ele>339.9</ele>
        <time>2023-05-14T09:58:08.000Z</time>
      </trkpt>
      <trkpt lat="43.71528" lon="3.47724">
        <ele>339.7</ele>
        <time>2023-05-14T09:58:10.000Z</time>
      </trkpt>
      <trkpt lat="43.71517" lon="3.47723">
        <ele>339.5</ele>
        <time>2023-05-14T09:58:12.000Z</time>
      </trkpt>
      <trkpt lat="43.71507" lon="3.47724">
        <ele>339.4</ele>
        <time>2023-05-14T09:58:14.000Z</time>
      </trkpt>
      <trkpt lat="43.71496" lon="3.47723">
        <ele>339.5</ele>
        <time>2023-05-14T09:58:16.000Z</time>
      </trkpt>
      <trkpt lat="43.71484" lon="3.47724">
        <ele>339.1</ele>
        <time>2023-05-14T09:58:18.000Z</time>
      </trkpt>
      <trkpt lat="43.71472" lon="3.47729">
        <ele>338.5</ele>
        <time>2023-05-14T09:58:20.000Z</time>
      </trkpt>
      <trkpt lat="43.71462" lon="3.47735">
        <ele>337.7</ele>
        <time>2023-05-14T09:58:22.000Z</time>
      </trkpt>
      <trkpt lat="43.71466" lon="3.47746">
        <ele>334.9</ele>
        <time>2023-05-14T09:58:36.000Z</time>
      </trkpt>
      <trkpt lat="43.71477" lon="3.47751">
        <ele>334.7</ele>
        <time>2023-05-14T09:58:39.000Z</time>
      </trkpt>
      <trkpt lat="43.71488" lon="3.47754">
        <ele>334.5</ele>
        <time>2023-05-14T09:58:42.000Z</time>
      </trkpt>
      <trkpt lat="43.71501" lon="3.47756">
        <ele>334.4</ele>
        <time>2023-05-14T09:58:45.000Z</time>
      </trkpt>
      <trkpt lat="43.7151" lon="3.47756">
        <ele>334.3</ele>
        <time>2023-05-14T09:58:47.000Z</time>
      </trkpt>
      <trkpt lat="43.71519" lon="3.47758">
        <ele>334.2</ele>
        <time>2023-05-14T09:58:49.000Z</time>
      </trkpt>
      <trkpt lat="43.71527" lon="3.47765">
        <ele>334.1</ele>
        <time>2023-05-14T09:58:51.000Z</time>
      </trkpt>
      <trkpt lat="43.71527" lon="3.47778">
        <ele>334</ele>
        <time>2023-05-14T09:58:53.000Z</time>
      </trkpt>
      <trkpt lat="43.71524" lon="3.47792">
        <ele>333.9</ele>
        <time>2023-05-14T09:58:55.000Z</time>
      </trkpt>
      <trkpt lat="43.71521" lon="3.47806">
        <ele>333.7</ele>
        <time>2023-05-14T09:58:57.000Z</time>
      </trkpt>
      <trkpt lat="43.71519" lon="3.47819">
        <ele>333.5</ele>
        <time>2023-05-14T09:58:59.000Z</time>
      </trkpt>
      <trkpt lat="43.71517" lon="3.47832">
        <ele>333.2</ele>
        <time>2023-05-14T09:59:01.000Z</time>
      </trkpt>
      <trkpt lat="43.71523" lon="3.47847">
        <ele>332.8</ele>
        <time>2023-05-14T09:59:04.000Z</time>
      </trkpt>
      <trkpt lat="43.71534" lon="3.47852">
        <ele>332.5</ele>
        <time>2023-05-14T09:59:07.000Z</time>
      </trkpt>
      <trkpt lat="43.71544" lon="3.47855">
        <ele>332.2</ele>
        <time>2023-05-14T09:59:10.000Z</time>
      </trkpt>
      <trkpt lat="43.71554" lon="3.47864">
        <ele>332</ele>
        <time>2023-05-14T09:59:13.000Z</time>
      </trkpt>
      <trkpt lat="43.71561" lon="3.47873">
        <ele>331.7</ele>
        <time>2023-05-14T09:59:15.000Z</time>
      </trkpt>
      <trkpt lat="43.71564" lon="3.47886">
        <ele>331.6</ele>
        <time>2023-05-14T09:59:17.000Z</time>
      </trkpt>
      <trkpt lat="43.71562" lon="3.479">
        <ele>331.4</ele>
        <time>2023-05-14T09:59:19.000Z</time>
      </trkpt>
      <trkpt lat="43.71553" lon="3.47912">
        <ele>331.1</ele>
        <time>2023-05-14T09:59:21.000Z</time>
      </trkpt>
      <trkpt lat="43.71541" lon="3.4792">
        <ele>330.7</ele>
        <time>2023-05-14T09:59:23.000Z</time>
      </trkpt>
      <trkpt lat="43.71529" lon="3.47929">
        <ele>330.1</ele>
        <time>2023-05-14T09:59:25.000Z</time>
      </trkpt>
      <trkpt lat="43.71516" lon="3.47939">
        <ele>329.4</ele>
        <time>2023-05-14T09:59:27.000Z</time>
      </trkpt>
      <trkpt lat="43.71503" lon="3.47951">
        <ele>328.6</ele>
        <time>2023-05-14T09:59:29.000Z</time>
      </trkpt>
      <trkpt lat="43.71491" lon="3.47966">
        <ele>327.8</ele>
        <time>2023-05-14T09:59:31.000Z</time>
      </trkpt>
      <trkpt lat="43.7148" lon="3.47981">
        <ele>327</ele>
        <time>2023-05-14T09:59:33.000Z</time>
      </trkpt>
      <trkpt lat="43.71469" lon="3.47988">
        <ele>326.3</ele>
        <time>2023-05-14T09:59:35.000Z</time>
      </trkpt>
      <trkpt lat="43.71458" lon="3.47993">
        <ele>326.4</ele>
        <time>2023-05-14T09:59:38.000Z</time>
      </trkpt>
      <trkpt lat="43.71451" lon="3.48001">
        <ele>327</ele>
        <time>2023-05-14T09:59:41.000Z</time>
      </trkpt>
      <trkpt lat="43.71443" lon="3.48011">
        <ele>327.6</ele>
        <time>2023-05-14T09:59:45.000Z</time>
      </trkpt>
      <trkpt lat="43.71434" lon="3.48021">
        <ele>328.4</ele>
        <time>2023-05-14T09:59:48.000Z</time>
      </trkpt>
      <trkpt lat="43.71425" lon="3.48034">
        <ele>329.2</ele>
        <time>2023-05-14T09:59:51.000Z</time>
      </trkpt>
      <trkpt lat="43.71416" lon="3.48046">
        <ele>329.5</ele>
        <time>2023-05-14T09:59:54.000Z</time>
      </trkpt>
      <trkpt lat="43.71409" lon="3.48054">
        <ele>329.6</ele>
        <time>2023-05-14T09:59:56.000Z</time>
      </trkpt>
      <trkpt lat="43.71399" lon="3.48067">
        <ele>329.7</ele>
        <time>2023-05-14T09:59:59.000Z</time>
      </trkpt>
      <trkpt lat="43.71392" lon="3.48077">
        <ele>329.8</ele>
        <time>2023-05-14T10:00:01.000Z</time>
      </trkpt>
      <trkpt lat="43.71385" lon="3.48085">
        <ele>329.7</ele>
        <time>2023-05-14T10:00:03.000Z</time>
      </trkpt>
      <trkpt lat="43.71376" lon="3.4809">
        <ele>329.8</ele>
        <time>2023-05-14T10:00:05.000Z</time>
      </trkpt>
      <trkpt lat="43.71368" lon="3.48096">
        <ele>329.8</ele>
        <time>2023-05-14T10:00:07.000Z</time>
      </trkpt>
      <trkpt lat="43.7136" lon="3.48104">
        <ele>329.8</ele>
        <time>2023-05-14T10:00:09.000Z</time>
      </trkpt>
      <trkpt lat="43.71351" lon="3.48111">
        <ele>329.6</ele>
        <time>2023-05-14T10:00:11.000Z</time>
      </trkpt>
      <trkpt lat="43.71342" lon="3.48118">
        <ele>329.4</ele>
        <time>2023-05-14T10:00:13.000Z</time>
      </trkpt>
      <trkpt lat="43.71333" lon="3.48125">
        <ele>329.4</ele>
        <time>2023-05-14T10:00:15.000Z</time>
      </trkpt>
      <trkpt lat="43.71325" lon="3.48133">
        <ele>329.3</ele>
        <time>2023-05-14T10:00:17.000Z</time>
      </trkpt>
      <trkpt lat="43.71317" lon="3.48143">
        <ele>329.1</ele>
        <time>2023-05-14T10:00:19.000Z</time>
      </trkpt>
      <trkpt lat="43.71309" lon="3.48154">
        <ele>329</ele>
        <time>2023-05-14T10:00:21.000Z</time>
      </trkpt>
      <trkpt lat="43.71302" lon="3.48167">
        <ele>328.9</ele>
        <time>2023-05-14T10:00:23.000Z</time>
      </trkpt>
      <trkpt lat="43.71293" lon="3.48179">
        <ele>328.6</ele>
        <time>2023-05-14T10:00:25.000Z</time>
      </trkpt>
      <trkpt lat="43.71288" lon="3.48192">
        <ele>328.1</ele>
        <time>2023-05-14T10:00:27.000Z</time>
      </trkpt>
      <trkpt lat="43.71282" lon="3.48204">
        <ele>327.6</ele>
        <time>2023-05-14T10:00:29.000Z</time>
      </trkpt>
      <trkpt lat="43.71274" lon="3.48217">
        <ele>326.8</ele>
        <time>2023-05-14T10:00:31.000Z</time>
      </trkpt>
      <trkpt lat="43.71267" lon="3.48229">
        <ele>325.9</ele>
        <time>2023-05-14T10:00:33.000Z</time>
      </trkpt>
      <trkpt lat="43.71259" lon="3.48242">
        <ele>324.6</ele>
        <time>2023-05-14T10:00:35.000Z</time>
      </trkpt>
      <trkpt lat="43.71251" lon="3.48256">
        <ele>323.4</ele>
        <time>2023-05-14T10:00:37.000Z</time>
      </trkpt>
      <trkpt lat="43.71244" lon="3.48271">
        <ele>321.8</ele>
        <time>2023-05-14T10:00:39.000Z</time>
      </trkpt>
      <trkpt lat="43.71239" lon="3.48284">
        <ele>320.2</ele>
        <time>2023-05-14T10:00:41.000Z</time>
      </trkpt>
      <trkpt lat="43.71234" lon="3.48297">
        <ele>318.7</ele>
        <time>2023-05-14T10:00:43.000Z</time>
      </trkpt>
      <trkpt lat="43.71227" lon="3.48309">
        <ele>317.5</ele>
        <time>2023-05-14T10:00:45.000Z</time>
      </trkpt>
      <trkpt lat="43.71221" lon="3.48324">
        <ele>316.5</ele>
        <time>2023-05-14T10:00:47.000Z</time>
      </trkpt>
      <trkpt lat="43.71215" lon="3.48342">
        <ele>315</ele>
        <time>2023-05-14T10:00:49.000Z</time>
      </trkpt>
      <trkpt lat="43.7121" lon="3.48358">
        <ele>314</ele>
        <time>2023-05-14T10:00:51.000Z</time>
      </trkpt>
      <trkpt lat="43.71205" lon="3.48373">
        <ele>312.7</ele>
        <time>2023-05-14T10:00:53.000Z</time>
      </trkpt>
      <trkpt lat="43.71199" lon="3.48387">
        <ele>310.9</ele>
        <time>2023-05-14T10:00:55.000Z</time>
      </trkpt>
      <trkpt lat="43.71193" lon="3.484">
        <ele>307.7</ele>
        <time>2023-05-14T10:00:59.000Z</time>
      </trkpt>
      <trkpt lat="43.7119" lon="3.48415">
        <ele>306.2</ele>
        <time>2023-05-14T10:01:03.000Z</time>
      </trkpt>
      <trkpt lat="43.71188" lon="3.48429">
        <ele>305.1</ele>
        <time>2023-05-14T10:01:07.000Z</time>
      </trkpt>
      <trkpt lat="43.71183" lon="3.48441">
        <ele>304.5</ele>
        <time>2023-05-14T10:01:11.000Z</time>
      </trkpt>
      <trkpt lat="43.71183" lon="3.48455">
        <ele>303.8</ele>
        <time>2023-05-14T10:01:14.000Z</time>
      </trkpt>
      <trkpt lat="43.71179" lon="3.48469">
        <ele>303.3</ele>
        <time>2023-05-14T10:01:17.000Z</time>
      </trkpt>
      <trkpt lat="43.71177" lon="3.48482">
        <ele>302.9</ele>
        <time>2023-05-14T10:01:19.000Z</time>
      </trkpt>
      <trkpt lat="43.71173" lon="3.48495">
        <ele>302.2</ele>
        <time>2023-05-14T10:01:22.000Z</time>
      </trkpt>
      <trkpt lat="43.71166" lon="3.48505">
        <ele>300.4</ele>
        <time>2023-05-14T10:01:27.000Z</time>
      </trkpt>
      <trkpt lat="43.71159" lon="3.48515">
        <ele>297.9</ele>
        <time>2023-05-14T10:01:31.000Z</time>
      </trkpt>
      <trkpt lat="43.71154" lon="3.48525">
        <ele>294.8</ele>
        <time>2023-05-14T10:01:35.000Z</time>
      </trkpt>
      <trkpt lat="43.7115" lon="3.48539">
        <ele>292.4</ele>
        <time>2023-05-14T10:01:39.000Z</time>
      </trkpt>
      <trkpt lat="43.71147" lon="3.48552">
        <ele>290.9</ele>
        <time>2023-05-14T10:01:43.000Z</time>
      </trkpt>
      <trkpt lat="43.71145" lon="3.48567">
        <ele>289.7</ele>
        <time>2023-05-14T10:01:47.000Z</time>
      </trkpt>
      <trkpt lat="43.71142" lon="3.48579">
        <ele>288.5</ele>
        <time>2023-05-14T10:01:50.000Z</time>
      </trkpt>
      <trkpt lat="43.71142" lon="3.48592">
        <ele>287.2</ele>
        <time>2023-05-14T10:01:53.000Z</time>
      </trkpt>
      <trkpt lat="43.71147" lon="3.48604">
        <ele>285.9</ele>
        <time>2023-05-14T10:01:56.000Z</time>
      </trkpt>
      <trkpt lat="43.71145" lon="3.48618">
        <ele>283.6</ele>
        <time>2023-05-14T10:02:02.000Z</time>
      </trkpt>
      <trkpt lat="43.71139" lon="3.48628">
        <ele>281.4</ele>
        <time>2023-05-14T10:02:07.000Z</time>
      </trkpt>
      <trkpt lat="43.71135" lon="3.48641">
        <ele>278.7</ele>
        <time>2023-05-14T10:02:11.000Z</time>
      </trkpt>
      <trkpt lat="43.71133" lon="3.48655">
        <ele>276</ele>
        <time>2023-05-14T10:02:17.000Z</time>
      </trkpt>
      <trkpt lat="43.71129" lon="3.48669">
        <ele>274.1</ele>
        <time>2023-05-14T10:02:21.000Z</time>
      </trkpt>
      <trkpt lat="43.7112" lon="3.48668">
        <ele>272</ele>
        <time>2023-05-14T10:02:27.000Z</time>
      </trkpt>
      <trkpt lat="43.7111" lon="3.48669">
        <ele>269.1</ele>
        <time>2023-05-14T10:02:35.000Z</time>
      </trkpt>
      <trkpt lat="43.71106" lon="3.48657">
        <ele>267.5</ele>
        <time>2023-05-14T10:02:39.000Z</time>
      </trkpt>
      <trkpt lat="43.71103" lon="3.48641">
        <ele>265.9</ele>
        <time>2023-05-14T10:02:43.000Z</time>
      </trkpt>
      <trkpt lat="43.71102" lon="3.48626">
        <ele>264</ele>
        <time>2023-05-14T10:02:47.000Z</time>
      </trkpt>
      <trkpt lat="43.71094" lon="3.48615">
        <ele>261.3</ele>
        <time>2023-05-14T10:02:54.000Z</time>
      </trkpt>
      <trkpt lat="43.71089" lon="3.48611">
        <ele>259.8</ele>
        <time>2023-05-14T10:02:58.000Z</time>
      </trkpt>
      <trkpt lat="43.71089" lon="3.4861">
        <ele>258.7</ele>
        <time>2023-05-14T10:03:02.000Z</time>
      </trkpt>
      <trkpt lat="43.71089" lon="3.4861">
        <ele>258.4</ele>
        <time>2023-05-14T10:03:04.000Z</time>
      </trkpt>
      <trkpt lat="43.71089" lon="3.48609">
        <ele>258</ele>
        <time>2023-05-14T10:03:08.000Z</time>
      </trkpt>
      <trkpt lat="43.71089" lon="3.48594">
        <ele>257.5</ele>
        <time>2023-05-14T10:03:13.000Z</time>
      </trkpt>
      <trkpt lat="43.71089" lon="3.4858">
        <ele>257.3</ele>
        <time>2023-05-14T10:03:16.000Z</time>
      </trkpt>
      <trkpt lat="43.71088" lon="3.48562">
        <ele>256.8</ele>
        <time>2023-05-14T10:03:19.000Z</time>
      </trkpt>
      <trkpt lat="43.71087" lon="3.4855">
        <ele>256.2</ele>
        <time>2023-05-14T10:03:22.000Z</time>
      </trkpt>
      <trkpt lat="43.71086" lon="3.48545">
        <ele>255</ele>
        <time>2023-05-14T10:03:27.000Z</time>
      </trkpt>
      <trkpt lat="43.71086" lon="3.48545">
        <ele>253.8</ele>
        <time>2023-05-14T10:03:52.000Z</time>
      </trkpt>
      <trkpt lat="43.71086" lon="3.48545">
        <ele>253.8</ele>
        <time>2023-05-14T10:03:53.000Z</time>
      </trkpt>
      <trkpt lat="43.71086" lon="3.48545">
        <ele>253.8</ele>
        <time>2023-05-14T10:04:25.000Z</time>
      </trkpt>
      <trkpt lat="43.71086" lon="3.48545">
        <ele>253.8</ele>
        <time>2023-05-14T10:04:26.000Z</time>
      </trkpt>
      <trkpt lat="43.71086" lon="3.48546">
        <ele>253.6</ele>
        <time>2023-05-14T10:05:35.000Z</time>
      </trkpt>
      <trkpt lat="43.71086" lon="3.48546">
        <ele>253.6</ele>
        <time>2023-05-14T10:05:36.000Z</time>
      </trkpt>
      <trkpt lat="43.71086" lon="3.48545">
        <ele>253.6</ele>
        <time>2023-05-14T10:05:53.000Z</time>
      </trkpt>
      <trkpt lat="43.71081" lon="3.48557">
        <ele>253.6</ele>
        <time>2023-05-14T10:05:59.000Z</time>
      </trkpt>
      <trkpt lat="43.71077" lon="3.48572">
        <ele>253.5</ele>
        <time>2023-05-14T10:06:02.000Z</time>
      </trkpt>
      <trkpt lat="43.71074" lon="3.48584">
        <ele>253.5</ele>
        <time>2023-05-14T10:06:04.000Z</time>
      </trkpt>
      <trkpt lat="43.71072" lon="3.48598">
        <ele>253.4</ele>
        <time>2023-05-14T10:06:06.000Z</time>
      </trkpt>
      <trkpt lat="43.7107" lon="3.48612">
        <ele>253.3</ele>
        <time>2023-05-14T10:06:08.000Z</time>
      </trkpt>
      <trkpt lat="43.71067" lon="3.48627">
        <ele>253.1</ele>
        <time>2023-05-14T10:06:10.000Z</time>
      </trkpt>
      <trkpt lat="43.71064" lon="3.4864">
        <ele>252.9</ele>
        <time>2023-05-14T10:06:12.000Z</time>
      </trkpt>
      <trkpt lat="43.71062" lon="3.48654">
        <ele>252.5</ele>
        <time>2023-05-14T10:06:14.000Z</time>
      </trkpt>
      <trkpt lat="43.7106" lon="3.48668">
        <ele>252.1</ele>
        <time>2023-05-14T10:06:16.000Z</time>
      </trkpt>
      <trkpt lat="43.71058" lon="3.48682">
        <ele>251.5</ele>
        <time>2023-05-14T10:06:18.000Z</time>
      </trkpt>
      <trkpt lat="43.71057" lon="3.48696">
        <ele>250.9</ele>
        <time>2023-05-14T10:06:20.000Z</time>
      </trkpt>
      <trkpt lat="43.71055" lon="3.48712">
        <ele>250.2</ele>
        <time>2023-05-14T10:06:22.000Z</time>
      </trkpt>
      <trkpt lat="43.71054" lon="3.48727">
        <ele>249.5</ele>
        <time>2023-05-14T10:06:24.000Z</time>
      </trkpt>
      <trkpt lat="43.71053" lon="3.48741">
        <ele>248.9</ele>
        <time>2023-05-14T10:06:26.000Z</time>
      </trkpt>
      <trkpt lat="43.71053" lon="3.48757">
        <ele>248.1</ele>
        <time>2023-05-14T10:06:28.000Z</time>
      </trkpt>
      <trkpt lat="43.71053" lon="3.48773">
        <ele>247.3</ele>
        <time>2023-05-14T10:06:30.000Z</time>
      </trkpt>
      <trkpt lat="43.71055" lon="3.48791">
        <ele>246.5</ele>
        <time>2023-05-14T10:06:32.000Z</time>
      </trkpt>
      <trkpt lat="43.71061" lon="3.48806">
        <ele>246</ele>
        <time>2023-05-14T10:06:34.000Z</time>
      </trkpt>
      <trkpt lat="43.71072" lon="3.48815">
        <ele>245.6</ele>
        <time>2023-05-14T10:06:36.000Z</time>
      </trkpt>
      <trkpt lat="43.71084" lon="3.48818">
        <ele>245.2</ele>
        <time>2023-05-14T10:06:38.000Z</time>
      </trkpt>
      <trkpt lat="43.71096" lon="3.48815">
        <ele>244.5</ele>
        <time>2023-05-14T10:06:40.000Z</time>
      </trkpt>
      <trkpt lat="43.71106" lon="3.48804">
        <ele>243.7</ele>
        <time>2023-05-14T10:06:42.000Z</time>
      </trkpt>
      <trkpt lat="43.71114" lon="3.48789">
        <ele>242.6</ele>
        <time>2023-05-14T10:06:44.000Z</time>
      </trkpt>
      <trkpt lat="43.71125" lon="3.4878">
        <ele>241.7</ele>
        <time>2023-05-14T10:06:46.000Z</time>
      </trkpt>
      <trkpt lat="43.71136" lon="3.48788">
        <ele>241</ele>
        <time>2023-05-14T10:06:48.000Z</time>
      </trkpt>
      <trkpt lat="43.71138" lon="3.48808">
        <ele>240.3</ele>
        <time>2023-05-14T10:06:50.000Z</time>
      </trkpt>
      <trkpt lat="43.71136" lon="3.48828">
        <ele>239.6</ele>
        <time>2023-05-14T10:06:52.000Z</time>
      </trkpt>
      <trkpt lat="43.71131" lon="3.48845">
        <ele>238.7</ele>
        <time>2023-05-14T10:06:54.000Z</time>
      </trkpt>
      <trkpt lat="43.71124" lon="3.48857">
        <ele>237.8</ele>
        <time>2023-05-14T10:06:56.000Z</time>
      </trkpt>
      <trkpt lat="43.71116" lon="3.48868">
        <ele>237.1</ele>
        <time>2023-05-14T10:06:58.000Z</time>
      </trkpt>
      <trkpt lat="43.71107" lon="3.48879">
        <ele>236.4</ele>
        <time>2023-05-14T10:07:00.000Z</time>
      </trkpt>
      <trkpt lat="43.71096" lon="3.48887">
        <ele>235.7</ele>
        <time>2023-05-14T10:07:02.000Z</time>
      </trkpt>
      <trkpt lat="43.71086" lon="3.48891">
        <ele>235</ele>
        <time>2023-05-14T10:07:04.000Z</time>
      </trkpt>
      <trkpt lat="43.71075" lon="3.48898">
        <ele>234.3</ele>
        <time>2023-05-14T10:07:06.000Z</time>
      </trkpt>
      <trkpt lat="43.71064" lon="3.48905">
        <ele>233.5</ele>
        <time>2023-05-14T10:07:08.000Z</time>
      </trkpt>
      <trkpt lat="43.71051" lon="3.48913">
        <ele>232.8</ele>
        <time>2023-05-14T10:07:10.000Z</time>
      </trkpt>
      <trkpt lat="43.71041" lon="3.48925">
        <ele>232.1</ele>
        <time>2023-05-14T10:07:12.000Z</time>
      </trkpt>
      <trkpt lat="43.71042" lon="3.48944">
        <ele>231.4</ele>
        <time>2023-05-14T10:07:14.000Z</time>
      </trkpt>
      <trkpt lat="43.71051" lon="3.48961">
        <ele>230.8</ele>
        <time>2023-05-14T10:07:16.000Z</time>
      </trkpt>
      <trkpt lat="43.71061" lon="3.48978">
        <ele>230.2</ele>
        <time>2023-05-14T10:07:18.000Z</time>
      </trkpt>
      <trkpt lat="43.7107" lon="3.48989">
        <ele>229.6</ele>
        <time>2023-05-14T10:07:20.000Z</time>
      </trkpt>
      <trkpt lat="43.71077" lon="3.48997">
        <ele>229.1</ele>
        <time>2023-05-14T10:07:22.000Z</time>
      </trkpt>
      <trkpt lat="43.71084" lon="3.49008">
        <ele>228.3</ele>
        <time>2023-05-14T10:07:26.000Z</time>
      </trkpt>
      <trkpt lat="43.71086" lon="3.4901">
        <ele>227.7</ele>
        <time>2023-05-14T10:07:33.000Z</time>
      </trkpt>
      <trkpt lat="43.71086" lon="3.4901">
        <ele>227.7</ele>
        <time>2023-05-14T10:07:34.000Z</time>
      </trkpt>
      <trkpt lat="43.71081" lon="3.49012">
        <ele>227.5</ele>
        <time>2023-05-14T10:07:48.000Z</time>
      </trkpt>
      <trkpt lat="43.71081" lon="3.49012">
        <ele>226.7</ele>
        <time>2023-05-14T10:09:15.000Z</time>
      </trkpt>
      <trkpt lat="43.71081" lon="3.49012">
        <ele>226.7</ele>
        <time>2023-05-14T10:09:16.000Z</time>
      </trkpt>
      <trkpt lat="43.71081" lon="3.49012">
        <ele>226.1</ele>
        <time>2023-05-14T10:12:09.000Z</time>
      </trkpt>
      <trkpt lat="43.71081" lon="3.49012">
        <ele>226.1</ele>
        <time>2023-05-14T10:12:10.000Z</time>
      </trkpt>
      <trkpt lat="43.71081" lon="3.49012">
        <ele>226.6</ele>
        <time>2023-05-14T10:12:22.000Z</time>
      </trkpt>
      <trkpt lat="43.71081" lon="3.49012">
        <ele>226.6</ele>
        <time>2023-05-14T10:12:23.000Z</time>
      </trkpt>
      <trkpt lat="43.71081" lon="3.49012">
        <ele>226.8</ele>
        <time>2023-05-14T10:12:26.000Z</time>
      </trkpt>
      <trkpt lat="43.71081" lon="3.49012">
        <ele>226.8</ele>
        <time>2023-05-14T10:12:27.000Z</time>
      </trkpt>
      <trkpt lat="43.71081" lon="3.49012">
        <ele>228.1</ele>
        <time>2023-05-14T10:14:40.000Z</time>
      </trkpt>
      <trkpt lat="43.71081" lon="3.49012">
        <ele>228.1</ele>
        <time>2023-05-14T10:14:41.000Z</time>
      </trkpt>
      <trkpt lat="43.71081" lon="3.49011">
        <ele>226.8</ele>
        <time>2023-05-14T10:19:01.000Z</time>
      </trkpt>
      <trkpt lat="43.71079" lon="3.49011">
        <ele>226.7</ele>
        <time>2023-05-14T10:19:08.000Z</time>
      </trkpt>
      <trkpt lat="43.71078" lon="3.49011">
        <ele>226.7</ele>
        <time>2023-05-14T10:19:11.000Z</time>
      </trkpt>
      <trkpt lat="43.71078" lon="3.49011">
        <ele>226.7</ele>
        <time>2023-05-14T10:19:12.000Z</time>
      </trkpt>
      <trkpt lat="43.71078" lon="3.49011">
        <ele>226.4</ele>
        <time>2023-05-14T10:19:25.000Z</time>
      </trkpt>
      <trkpt lat="43.71069" lon="3.49017">
        <ele>226.3</ele>
        <time>2023-05-14T10:19:30.000Z</time>
      </trkpt>
      <trkpt lat="43.71061" lon="3.4903">
        <ele>226.2</ele>
        <time>2023-05-14T10:19:34.000Z</time>
      </trkpt>
      <trkpt lat="43.71053" lon="3.49039">
        <ele>226.1</ele>
        <time>2023-05-14T10:19:37.000Z</time>
      </trkpt>
      <trkpt lat="43.71045" lon="3.49048">
        <ele>226</ele>
        <time>2023-05-14T10:19:40.000Z</time>
      </trkpt>
      <trkpt lat="43.71037" lon="3.49056">
        <ele>225.9</ele>
        <time>2023-05-14T10:19:43.000Z</time>
      </trkpt>
      <trkpt lat="43.7103" lon="3.49065">
        <ele>225.8</ele>
        <time>2023-05-14T10:19:46.000Z</time>
      </trkpt>
      <trkpt lat="43.71029" lon="3.4908">
        <ele>225.6</ele>
        <time>2023-05-14T10:19:50.000Z</time>
      </trkpt>
      <trkpt lat="43.71027" lon="3.49093">
        <ele>225.6</ele>
        <time>2023-05-14T10:19:54.000Z</time>
      </trkpt>
      <trkpt lat="43.71021" lon="3.49107">
        <ele>225.6</ele>
        <time>2023-05-14T10:19:58.000Z</time>
      </trkpt>
      <trkpt lat="43.71021" lon="3.49121">
        <ele>225.7</ele>
        <time>2023-05-14T10:20:03.000Z</time>
      </trkpt>
      <trkpt lat="43.71021" lon="3.49124">
        <ele>225.8</ele>
        <time>2023-05-14T10:20:06.000Z</time>
      </trkpt>
      <trkpt lat="43.71021" lon="3.49124">
        <ele>225.8</ele>
        <time>2023-05-14T10:20:07.000Z</time>
      </trkpt>
      <trkpt lat="43.71021" lon="3.49124">
        <ele>225.8</ele>
        <time>2023-05-14T10:20:08.000Z</time>
      </trkpt>
      <trkpt lat="43.71021" lon="3.49124">
        <ele>226.1</ele>
        <time>2023-05-14T10:20:20.000Z</time>
      </trkpt>
      <trkpt lat="43.71022" lon="3.4914">
        <ele>226.2</ele>
        <time>2023-05-14T10:20:27.000Z</time>
      </trkpt>
      <trkpt lat="43.71026" lon="3.49154">
        <ele>226.5</ele>
        <time>2023-05-14T10:20:31.000Z</time>
      </trkpt>
      <trkpt lat="43.71031" lon="3.49168">
        <ele>226.9</ele>
        <time>2023-05-14T10:20:35.000Z</time>
      </trkpt>
      <trkpt lat="43.71038" lon="3.49179">
        <ele>227.6</ele>
        <time>2023-05-14T10:20:39.000Z</time>
      </trkpt>
      <trkpt lat="43.71044" lon="3.49189">
        <ele>228.6</ele>
        <time>2023-05-14T10:20:43.000Z</time>
      </trkpt>
      <trkpt lat="43.71052" lon="3.49198">
        <ele>229.6</ele>
        <time>2023-05-14T10:20:47.000Z</time>
      </trkpt>
      <trkpt lat="43.71061" lon="3.49206">
        <ele>230.6</ele>
        <time>2023-05-14T10:20:51.000Z</time>
      </trkpt>
      <trkpt lat="43.71071" lon="3.4921">
        <ele>231.7</ele>
        <time>2023-05-14T10:20:55.000Z</time>
      </trkpt>
      <trkpt lat="43.71081" lon="3.49213">
        <ele>232.4</ele>
        <time>2023-05-14T10:20:59.000Z</time>
      </trkpt>
      <trkpt lat="43.71091" lon="3.49217">
        <ele>233.4</ele>
        <time>2023-05-14T10:21:03.000Z</time>
      </trkpt>
      <trkpt lat="43.71101" lon="3.4922">
        <ele>234.4</ele>
        <time>2023-05-14T10:21:07.000Z</time>
      </trkpt>
      <trkpt lat="43.71111" lon="3.49223">
        <ele>235.4</ele>
        <time>2023-05-14T10:21:11.000Z</time>
      </trkpt>
      <trkpt lat="43.71121" lon="3.49226">
        <ele>236.5</ele>
        <time>2023-05-14T10:21:15.000Z</time>
      </trkpt>
      <trkpt lat="43.71131" lon="3.49228">
        <ele>237.6</ele>
        <time>2023-05-14T10:21:19.000Z</time>
      </trkpt>
      <trkpt lat="43.71141" lon="3.49229">
        <ele>238.9</ele>
        <time>2023-05-14T10:21:23.000Z</time>
      </trkpt>
      <trkpt lat="43.7115" lon="3.4923">
        <ele>240.2</ele>
        <time>2023-05-14T10:21:27.000Z</time>
      </trkpt>
      <trkpt lat="43.71159" lon="3.49231">
        <ele>241.4</ele>
        <time>2023-05-14T10:21:31.000Z</time>
      </trkpt>
      <trkpt lat="43.71168" lon="3.49231">
        <ele>242.4</ele>
        <time>2023-05-14T10:21:35.000Z</time>
      </trkpt>
      <trkpt lat="43.71178" lon="3.49232">
        <ele>243.8</ele>
        <time>2023-05-14T10:21:40.000Z</time>
      </trkpt>
      <trkpt lat="43.71188" lon="3.49231">
        <ele>245.5</ele>
        <time>2023-05-14T10:21:45.000Z</time>
      </trkpt>
      <trkpt lat="43.71197" lon="3.49232">
        <ele>247</ele>
        <time>2023-05-14T10:21:50.000Z</time>
      </trkpt>
      <trkpt lat="43.71207" lon="3.49235">
        <ele>247.8</ele>
        <time>2023-05-14T10:21:55.000Z</time>
      </trkpt>
      <trkpt lat="43.71217" lon="3.49234">
        <ele>249</ele>
        <time>2023-05-14T10:22:00.000Z</time>
      </trkpt>
      <trkpt lat="43.71228" lon="3.49232">
        <ele>250.4</ele>
        <time>2023-05-14T10:22:05.000Z</time>
      </trkpt>
      <trkpt lat="43.71238" lon="3.49228">
        <ele>251.9</ele>
        <time>2023-05-14T10:22:10.000Z</time>
      </trkpt>
      <trkpt lat="43.71247" lon="3.49224">
        <ele>253.7</ele>
        <time>2023-05-14T10:22:15.000Z</time>
      </trkpt>
      <trkpt lat="43.71257" lon="3.4922">
        <ele>255.4</ele>
        <time>2023-05-14T10:22:20.000Z</time>
      </trkpt>
      <trkpt lat="43.71265" lon="3.49214">
        <ele>257.2</ele>
        <time>2023-05-14T10:22:26.000Z</time>
      </trkpt>
      <trkpt lat="43.71272" lon="3.49206">
        <ele>258.9</ele>
        <time>2023-05-14T10:22:32.000Z</time>
      </trkpt>
      <trkpt lat="43.71281" lon="3.492">
        <ele>260.5</ele>
        <time>2023-05-14T10:22:37.000Z</time>
      </trkpt>
      <trkpt lat="43.71289" lon="3.49189">
        <ele>261.9</ele>
        <time>2023-05-14T10:22:42.000Z</time>
      </trkpt>
      <trkpt lat="43.71297" lon="3.49182">
        <ele>263.9</ele>
        <time>2023-05-14T10:22:47.000Z</time>
      </trkpt>
      <trkpt lat="43.71305" lon="3.49173">
        <ele>265.8</ele>
        <time>2023-05-14T10:22:52.000Z</time>
      </trkpt>
      <trkpt lat="43.71314" lon="3.49166">
        <ele>268.1</ele>
        <time>2023-05-14T10:22:57.000Z</time>
      </trkpt>
      <trkpt lat="43.71324" lon="3.49164">
        <ele>269.8</ele>
        <time>2023-05-14T10:23:02.000Z</time>
      </trkpt>
      <trkpt lat="43.71333" lon="3.49161">
        <ele>270.8</ele>
        <time>2023-05-14T10:23:07.000Z</time>
      </trkpt>
      <trkpt lat="43.71343" lon="3.4916">
        <ele>272.1</ele>
        <time>2023-05-14T10:23:13.000Z</time>
      </trkpt>
      <trkpt lat="43.71352" lon="3.49165">
        <ele>273</ele>
        <time>2023-05-14T10:23:18.000Z</time>
      </trkpt>
      <trkpt lat="43.7136" lon="3.49172">
        <ele>273.8</ele>
        <time>2023-05-14T10:23:23.000Z</time>
      </trkpt>
      <trkpt lat="43.71369" lon="3.4918">
        <ele>274.1</ele>
        <time>2023-05-14T10:23:29.000Z</time>
      </trkpt>
      <trkpt lat="43.71379" lon="3.49185">
        <ele>275</ele>
        <time>2023-05-14T10:23:35.000Z</time>
      </trkpt>
      <trkpt lat="43.71388" lon="3.49188">
        <ele>276.1</ele>
        <time>2023-05-14T10:23:40.000Z</time>
      </trkpt>
      <trkpt lat="43.71398" lon="3.49194">
        <ele>277.7</ele>
        <time>2023-05-14T10:23:45.000Z</time>
      </trkpt>
      <trkpt lat="43.71404" lon="3.49205">
        <ele>279.4</ele>
        <time>2023-05-14T10:23:50.000Z</time>
      </trkpt>
      <trkpt lat="43.71409" lon="3.49218">
        <ele>281</ele>
        <time>2023-05-14T10:23:55.000Z</time>
      </trkpt>
      <trkpt lat="43.71413" lon="3.49231">
        <ele>281.9</ele>
        <time>2023-05-14T10:24:00.000Z</time>
      </trkpt>
      <trkpt lat="43.7142" lon="3.4924">
        <ele>282.7</ele>
        <time>2023-05-14T10:24:05.000Z</time>
      </trkpt>
      <trkpt lat="43.71427" lon="3.4925">
        <ele>283.8</ele>
        <time>2023-05-14T10:24:10.000Z</time>
      </trkpt>
      <trkpt lat="43.71435" lon="3.49257">
        <ele>285.1</ele>
        <time>2023-05-14T10:24:16.000Z</time>
      </trkpt>
      <trkpt lat="43.71444" lon="3.49263">
        <ele>286</ele>
        <time>2023-05-14T10:24:20.000Z</time>
      </trkpt>
      <trkpt lat="43.71453" lon="3.49267">
        <ele>287.2</ele>
        <time>2023-05-14T10:24:24.000Z</time>
      </trkpt>
      <trkpt lat="43.71462" lon="3.49268">
        <ele>288.4</ele>
        <time>2023-05-14T10:24:28.000Z</time>
      </trkpt>
      <trkpt lat="43.71473" lon="3.49266">
        <ele>289.9</ele>
        <time>2023-05-14T10:24:33.000Z</time>
      </trkpt>
      <trkpt lat="43.71483" lon="3.49267">
        <ele>291.5</ele>
        <time>2023-05-14T10:24:38.000Z</time>
      </trkpt>
      <trkpt lat="43.71493" lon="3.49272">
        <ele>292.8</ele>
        <time>2023-05-14T10:24:43.000Z</time>
      </trkpt>
      <trkpt lat="43.71497" lon="3.49286">
        <ele>295.1</ele>
        <time>2023-05-14T10:24:49.000Z</time>
      </trkpt>
      <trkpt lat="43.71504" lon="3.49295">
        <ele>297.5</ele>
        <time>2023-05-14T10:24:54.000Z</time>
      </trkpt>
      <trkpt lat="43.71513" lon="3.49299">
        <ele>298.8</ele>
        <time>2023-05-14T10:24:59.000Z</time>
      </trkpt>
      <trkpt lat="43.71522" lon="3.49305">
        <ele>299.2</ele>
        <time>2023-05-14T10:25:04.000Z</time>
      </trkpt>
      <trkpt lat="43.71529" lon="3.49315">
        <ele>299.6</ele>
        <time>2023-05-14T10:25:09.000Z</time>
      </trkpt>
      <trkpt lat="43.71537" lon="3.49324">
        <ele>299.8</ele>
        <time>2023-05-14T10:25:14.000Z</time>
      </trkpt>
      <trkpt lat="43.71542" lon="3.49335">
        <ele>300.7</ele>
        <time>2023-05-14T10:25:19.000Z</time>
      </trkpt>
      <trkpt lat="43.71549" lon="3.49346">
        <ele>302.1</ele>
        <time>2023-05-14T10:25:24.000Z</time>
      </trkpt>
      <trkpt lat="43.71556" lon="3.49356">
        <ele>303.7</ele>
        <time>2023-05-14T10:25:29.000Z</time>
      </trkpt>
      <trkpt lat="43.71563" lon="3.49364">
        <ele>304.7</ele>
        <time>2023-05-14T10:25:34.000Z</time>
      </trkpt>
      <trkpt lat="43.71572" lon="3.49372">
        <ele>305.1</ele>
        <time>2023-05-14T10:25:39.000Z</time>
      </trkpt>
      <trkpt lat="43.71584" lon="3.49377">
        <ele>305.3</ele>
        <time>2023-05-14T10:25:43.000Z</time>
      </trkpt>
      <trkpt lat="43.7159" lon="3.49387">
        <ele>305.1</ele>
        <time>2023-05-14T10:25:49.000Z</time>
      </trkpt>
      <trkpt lat="43.71579" lon="3.4939">
        <ele>304.8</ele>
        <time>2023-05-14T10:25:54.000Z</time>
      </trkpt>
      <trkpt lat="43.71569" lon="3.49393">
        <ele>304.6</ele>
        <time>2023-05-14T10:25:58.000Z</time>
      </trkpt>
      <trkpt lat="43.7156" lon="3.49395">
        <ele>304.5</ele>
        <time>2023-05-14T10:26:01.000Z</time>
      </trkpt>
      <trkpt lat="43.71549" lon="3.49397">
        <ele>304.4</ele>
        <time>2023-05-14T10:26:04.000Z</time>
      </trkpt>
      <trkpt lat="43.71537" lon="3.494">
        <ele>304.4</ele>
        <time>2023-05-14T10:26:07.000Z</time>
      </trkpt>
      <trkpt lat="43.71526" lon="3.49402">
        <ele>304.4</ele>
        <time>2023-05-14T10:26:10.000Z</time>
      </trkpt>
      <trkpt lat="43.71516" lon="3.49405">
        <ele>304.4</ele>
        <time>2023-05-14T10:26:13.000Z</time>
      </trkpt>
      <trkpt lat="43.71505" lon="3.49407">
        <ele>304.5</ele>
        <time>2023-05-14T10:26:16.000Z</time>
      </trkpt>
      <trkpt lat="43.71494" lon="3.4941">
        <ele>304.6</ele>
        <time>2023-05-14T10:26:19.000Z</time>
      </trkpt>
      <trkpt lat="43.71482" lon="3.49413">
        <ele>304.7</ele>
        <time>2023-05-14T10:26:22.000Z</time>
      </trkpt>
      <trkpt lat="43.7147" lon="3.49415">
        <ele>304.7</ele>
        <time>2023-05-14T10:26:25.000Z</time>
      </trkpt>
      <trkpt lat="43.71457" lon="3.49416">
        <ele>304.8</ele>
        <time>2023-05-14T10:26:28.000Z</time>
      </trkpt>
      <trkpt lat="43.71447" lon="3.49416">
        <ele>304.9</ele>
        <time>2023-05-14T10:26:30.000Z</time>
      </trkpt>
      <trkpt lat="43.71437" lon="3.49416">
        <ele>304.9</ele>
        <time>2023-05-14T10:26:32.000Z</time>
      </trkpt>
      <trkpt lat="43.71428" lon="3.49415">
        <ele>304.9</ele>
        <time>2023-05-14T10:26:34.000Z</time>
      </trkpt>
      <trkpt lat="43.71419" lon="3.49415">
        <ele>304.9</ele>
        <time>2023-05-14T10:26:36.000Z</time>
      </trkpt>
      <trkpt lat="43.7141" lon="3.49414">
        <ele>304.9</ele>
        <time>2023-05-14T10:26:38.000Z</time>
      </trkpt>
      <trkpt lat="43.71401" lon="3.49414">
        <ele>304.9</ele>
        <time>2023-05-14T10:26:40.000Z</time>
      </trkpt>
      <trkpt lat="43.71392" lon="3.49414">
        <ele>304.9</ele>
        <time>2023-05-14T10:26:42.000Z</time>
      </trkpt>
      <trkpt lat="43.71379" lon="3.49413">
        <ele>304.9</ele>
        <time>2023-05-14T10:26:45.000Z</time>
      </trkpt>
      <trkpt lat="43.71367" lon="3.49412">
        <ele>304.9</ele>
        <time>2023-05-14T10:26:48.000Z</time>
      </trkpt>
      <trkpt lat="43.71353" lon="3.49411">
        <ele>304.8</ele>
        <time>2023-05-14T10:26:51.000Z</time>
      </trkpt>
      <trkpt lat="43.71342" lon="3.4941">
        <ele>304.7</ele>
        <time>2023-05-14T10:26:53.000Z</time>
      </trkpt>
      <trkpt lat="43.71331" lon="3.49409">
        <ele>304.6</ele>
        <time>2023-05-14T10:26:55.000Z</time>
      </trkpt>
      <trkpt lat="43.71319" lon="3.49407">
        <ele>304.5</ele>
        <time>2023-05-14T10:26:57.000Z</time>
      </trkpt>
      <trkpt lat="43.71308" lon="3.49405">
        <ele>304.4</ele>
        <time>2023-05-14T10:26:59.000Z</time>
      </trkpt>
      <trkpt lat="43.71295" lon="3.49403">
        <ele>304.2</ele>
        <time>2023-05-14T10:27:01.000Z</time>
      </trkpt>
      <trkpt lat="43.71282" lon="3.494">
        <ele>303.9</ele>
        <time>2023-05-14T10:27:03.000Z</time>
      </trkpt>
      <trkpt lat="43.71269" lon="3.49397">
        <ele>303.6</ele>
        <time>2023-05-14T10:27:05.000Z</time>
      </trkpt>
      <trkpt lat="43.71255" lon="3.49395">
        <ele>303.1</ele>
        <time>2023-05-14T10:27:07.000Z</time>
      </trkpt>
      <trkpt lat="43.71244" lon="3.49393">
        <ele>302.6</ele>
        <time>2023-05-14T10:27:09.000Z</time>
      </trkpt>
      <trkpt lat="43.71233" lon="3.49391">
        <ele>302</ele>
        <time>2023-05-14T10:27:11.000Z</time>
      </trkpt>
      <trkpt lat="43.71222" lon="3.49389">
        <ele>301.2</ele>
        <time>2023-05-14T10:27:13.000Z</time>
      </trkpt>
      <trkpt lat="43.71212" lon="3.4939">
        <ele>300.2</ele>
        <time>2023-05-14T10:27:16.000Z</time>
      </trkpt>
      <trkpt lat="43.71209" lon="3.49405">
        <ele>299</ele>
        <time>2023-05-14T10:27:19.000Z</time>
      </trkpt>
      <trkpt lat="43.71211" lon="3.49424">
        <ele>298.1</ele>
        <time>2023-05-14T10:27:21.000Z</time>
      </trkpt>
      <trkpt lat="43.71213" lon="3.49447">
        <ele>296.9</ele>
        <time>2023-05-14T10:27:23.000Z</time>
      </trkpt>
      <trkpt lat="43.71216" lon="3.4946">
        <ele>296.1</ele>
        <time>2023-05-14T10:27:24.000Z</time>
      </trkpt>
      <trkpt lat="43.71219" lon="3.49472">
        <ele>295.4</ele>
        <time>2023-05-14T10:27:25.000Z</time>
      </trkpt>
      <trkpt lat="43.71223" lon="3.49485">
        <ele>294.6</ele>
        <time>2023-05-14T10:27:26.000Z</time>
      </trkpt>
      <trkpt lat="43.71227" lon="3.49498">
        <ele>294.1</ele>
        <time>2023-05-14T10:27:27.000Z</time>
      </trkpt>
      <trkpt lat="43.71231" lon="3.4951">
        <ele>293.7</ele>
        <time>2023-05-14T10:27:28.000Z</time>
      </trkpt>
      <trkpt lat="43.71234" lon="3.49532">
        <ele>292.6</ele>
        <time>2023-05-14T10:27:30.000Z</time>
      </trkpt>
      <trkpt lat="43.71233" lon="3.49554">
        <ele>291.8</ele>
        <time>2023-05-14T10:27:32.000Z</time>
      </trkpt>
      <trkpt lat="43.71229" lon="3.49575">
        <ele>291</ele>
        <time>2023-05-14T10:27:34.000Z</time>
      </trkpt>
      <trkpt lat="43.71231" lon="3.49593">
        <ele>290.4</ele>
        <time>2023-05-14T10:27:36.000Z</time>
      </trkpt>
      <trkpt lat="43.71241" lon="3.496">
        <ele>289.8</ele>
        <time>2023-05-14T10:27:38.000Z</time>
      </trkpt>
      <trkpt lat="43.7125" lon="3.49601">
        <ele>289.4</ele>
        <time>2023-05-14T10:27:40.000Z</time>
      </trkpt>
      <trkpt lat="43.71262" lon="3.49605">
        <ele>289.6</ele>
        <time>2023-05-14T10:27:43.000Z</time>
      </trkpt>
      <trkpt lat="43.71273" lon="3.49612">
        <ele>289.9</ele>
        <time>2023-05-14T10:27:46.000Z</time>
      </trkpt>
      <trkpt lat="43.71284" lon="3.49619">
        <ele>290.3</ele>
        <time>2023-05-14T10:27:49.000Z</time>
      </trkpt>
      <trkpt lat="43.71295" lon="3.49625">
        <ele>290.7</ele>
        <time>2023-05-14T10:27:52.000Z</time>
      </trkpt>
      <trkpt lat="43.71305" lon="3.49632">
        <ele>291.1</ele>
        <time>2023-05-14T10:27:55.000Z</time>
      </trkpt>
      <trkpt lat="43.71315" lon="3.49641">
        <ele>291.6</ele>
        <time>2023-05-14T10:27:59.000Z</time>
      </trkpt>
      <trkpt lat="43.71323" lon="3.49649">
        <ele>292.4</ele>
        <time>2023-05-14T10:28:03.000Z</time>
      </trkpt>
      <trkpt lat="43.7133" lon="3.49658">
        <ele>293.1</ele>
        <time>2023-05-14T10:28:08.000Z</time>
      </trkpt>
      <trkpt lat="43.7134" lon="3.49666">
        <ele>293.1</ele>
        <time>2023-05-14T10:28:12.000Z</time>
      </trkpt>
      <trkpt lat="43.71351" lon="3.49672">
        <ele>292.9</ele>
        <time>2023-05-14T10:28:15.000Z</time>
      </trkpt>
      <trkpt lat="43.71361" lon="3.49674">
        <ele>292.7</ele>
        <time>2023-05-14T10:28:17.000Z</time>
      </trkpt>
      <trkpt lat="43.71371" lon="3.49675">
        <ele>292.4</ele>
        <time>2023-05-14T10:28:19.000Z</time>
      </trkpt>
      <trkpt lat="43.71381" lon="3.49676">
        <ele>292</ele>
        <time>2023-05-14T10:28:21.000Z</time>
      </trkpt>
      <trkpt lat="43.7139" lon="3.49678">
        <ele>291.6</ele>
        <time>2023-05-14T10:28:23.000Z</time>
      </trkpt>
      <trkpt lat="43.71399" lon="3.49682">
        <ele>291.2</ele>
        <time>2023-05-14T10:28:25.000Z</time>
      </trkpt>
      <trkpt lat="43.71407" lon="3.49691">
        <ele>290.8</ele>
        <time>2023-05-14T10:28:27.000Z</time>
      </trkpt>
      <trkpt lat="43.71413" lon="3.49707">
        <ele>290</ele>
        <time>2023-05-14T10:28:29.000Z</time>
      </trkpt>
      <trkpt lat="43.71413" lon="3.49729">
        <ele>289</ele>
        <time>2023-05-14T10:28:31.000Z</time>
      </trkpt>
      <trkpt lat="43.71408" lon="3.49749">
        <ele>287.7</ele>
        <time>2023-05-14T10:28:33.000Z</time>
      </trkpt>
      <trkpt lat="43.71403" lon="3.49767">
        <ele>286.4</ele>
        <time>2023-05-14T10:28:35.000Z</time>
      </trkpt>
      <trkpt lat="43.71402" lon="3.49784">
        <ele>285.9</ele>
        <time>2023-05-14T10:28:37.000Z</time>
      </trkpt>
      <trkpt lat="43.71406" lon="3.49797">
        <ele>285.2</ele>
        <time>2023-05-14T10:28:39.000Z</time>
      </trkpt>
      <trkpt lat="43.71409" lon="3.4981">
        <ele>284.4</ele>
        <time>2023-05-14T10:28:41.000Z</time>
      </trkpt>
      <trkpt lat="43.71415" lon="3.49822">
        <ele>283.7</ele>
        <time>2023-05-14T10:28:43.000Z</time>
      </trkpt>
      <trkpt lat="43.71424" lon="3.49832">
        <ele>282.8</ele>
        <time>2023-05-14T10:28:45.000Z</time>
      </trkpt>
      <trkpt lat="43.71434" lon="3.49843">
        <ele>281.9</ele>
        <time>2023-05-14T10:28:47.000Z</time>
      </trkpt>
      <trkpt lat="43.71445" lon="3.49855">
        <ele>280.5</ele>
        <time>2023-05-14T10:28:49.000Z</time>
      </trkpt>
      <trkpt lat="43.71453" lon="3.49867">
        <ele>279.4</ele>
        <time>2023-05-14T10:28:51.000Z</time>
      </trkpt>
      <trkpt lat="43.71462" lon="3.49878">
        <ele>278</ele>
        <time>2023-05-14T10:28:53.000Z</time>
      </trkpt>
      <trkpt lat="43.7147" lon="3.4989">
        <ele>276.4</ele>
        <time>2023-05-14T10:28:55.000Z</time>
      </trkpt>
      <trkpt lat="43.7148" lon="3.49901">
        <ele>274.8</ele>
        <time>2023-05-14T10:28:57.000Z</time>
      </trkpt>
      <trkpt lat="43.71492" lon="3.4991">
        <ele>273</ele>
        <time>2023-05-14T10:28:59.000Z</time>
      </trkpt>
      <trkpt lat="43.71507" lon="3.49915">
        <ele>271.1</ele>
        <time>2023-05-14T10:29:01.000Z</time>
      </trkpt>
      <trkpt lat="43.71521" lon="3.49911">
        <ele>269.9</ele>
        <time>2023-05-14T10:29:03.000Z</time>
      </trkpt>
      <trkpt lat="43.71531" lon="3.499">
        <ele>268.8</ele>
        <time>2023-05-14T10:29:05.000Z</time>
      </trkpt>
      <trkpt lat="43.7154" lon="3.49887">
        <ele>267.6</ele>
        <time>2023-05-14T10:29:07.000Z</time>
      </trkpt>
      <trkpt lat="43.71551" lon="3.49881">
        <ele>266.5</ele>
        <time>2023-05-14T10:29:10.000Z</time>
      </trkpt>
      <trkpt lat="43.71552" lon="3.49894">
        <ele>265.4</ele>
        <time>2023-05-14T10:29:14.000Z</time>
      </trkpt>
      <trkpt lat="43.71547" lon="3.49907">
        <ele>264.7</ele>
        <time>2023-05-14T10:29:16.000Z</time>
      </trkpt>
      <trkpt lat="43.7154" lon="3.49924">
        <ele>263.5</ele>
        <time>2023-05-14T10:29:18.000Z</time>
      </trkpt>
      <trkpt lat="43.71532" lon="3.49942">
        <ele>262.7</ele>
        <time>2023-05-14T10:29:20.000Z</time>
      </trkpt>
      <trkpt lat="43.71517" lon="3.49951">
        <ele>262</ele>
        <time>2023-05-14T10:29:22.000Z</time>
      </trkpt>
      <trkpt lat="43.71503" lon="3.49957">
        <ele>260.8</ele>
        <time>2023-05-14T10:29:24.000Z</time>
      </trkpt>
      <trkpt lat="43.71489" lon="3.49964">
        <ele>259.2</ele>
        <time>2023-05-14T10:29:26.000Z</time>
      </trkpt>
      <trkpt lat="43.71476" lon="3.49971">
        <ele>257.8</ele>
        <time>2023-05-14T10:29:28.000Z</time>
      </trkpt>
      <trkpt lat="43.71464" lon="3.49976">
        <ele>256.1</ele>
        <time>2023-05-14T10:29:30.000Z</time>
      </trkpt>
      <trkpt lat="43.71451" lon="3.49979">
        <ele>255</ele>
        <time>2023-05-14T10:29:32.000Z</time>
      </trkpt>
      <trkpt lat="43.71438" lon="3.49982">
        <ele>254</ele>
        <time>2023-05-14T10:29:34.000Z</time>
      </trkpt>
      <trkpt lat="43.71423" lon="3.49986">
        <ele>252.7</ele>
        <time>2023-05-14T10:29:36.000Z</time>
      </trkpt>
      <trkpt lat="43.71411" lon="3.49988">
        <ele>251.6</ele>
        <time>2023-05-14T10:29:38.000Z</time>
      </trkpt>
      <trkpt lat="43.71401" lon="3.49988">
        <ele>250.6</ele>
        <time>2023-05-14T10:29:40.000Z</time>
      </trkpt>
      <trkpt lat="43.7139" lon="3.49986">
        <ele>249.7</ele>
        <time>2023-05-14T10:29:42.000Z</time>
      </trkpt>
      <trkpt lat="43.71378" lon="3.49986">
        <ele>249.3</ele>
        <time>2023-05-14T10:29:44.000Z</time>
      </trkpt>
      <trkpt lat="43.71369" lon="3.49987">
        <ele>249</ele>
        <time>2023-05-14T10:29:46.000Z</time>
      </trkpt>
      <trkpt lat="43.71357" lon="3.49993">
        <ele>248.3</ele>
        <time>2023-05-14T10:29:49.000Z</time>
      </trkpt>
      <trkpt lat="43.71348" lon="3.49996">
        <ele>247.8</ele>
        <time>2023-05-14T10:29:51.000Z</time>
      </trkpt>
      <trkpt lat="43.71341" lon="3.50004">
        <ele>247.4</ele>
        <time>2023-05-14T10:29:53.000Z</time>
      </trkpt>
      <trkpt lat="43.71334" lon="3.50013">
        <ele>247</ele>
        <time>2023-05-14T10:29:55.000Z</time>
      </trkpt>
      <trkpt lat="43.71324" lon="3.50017">
        <ele>246.6</ele>
        <time>2023-05-14T10:29:58.000Z</time>
      </trkpt>
      <trkpt lat="43.71315" lon="3.5001">
        <ele>246.6</ele>
        <time>2023-05-14T10:30:01.000Z</time>
      </trkpt>
      <trkpt lat="43.71305" lon="3.50004">
        <ele>246.6</ele>
        <time>2023-05-14T10:30:04.000Z</time>
      </trkpt>
      <trkpt lat="43.71294" lon="3.5">
        <ele>246.7</ele>
        <time>2023-05-14T10:30:07.000Z</time>
      </trkpt>
      <trkpt lat="43.71282" lon="3.5">
        <ele>246.6</ele>
        <time>2023-05-14T10:30:10.000Z</time>
      </trkpt>
      <trkpt lat="43.71271" lon="3.50001">
        <ele>246.6</ele>
        <time>2023-05-14T10:30:13.000Z</time>
      </trkpt>
      <trkpt lat="43.71259" lon="3.50003">
        <ele>246.7</ele>
        <time>2023-05-14T10:30:16.000Z</time>
      </trkpt>
      <trkpt lat="43.71249" lon="3.50007">
        <ele>246.8</ele>
        <time>2023-05-14T10:30:19.000Z</time>
      </trkpt>
      <trkpt lat="43.71239" lon="3.50011">
        <ele>246.8</ele>
        <time>2023-05-14T10:30:22.000Z</time>
      </trkpt>
      <trkpt lat="43.7123" lon="3.50014">
        <ele>247.1</ele>
        <time>2023-05-14T10:30:25.000Z</time>
      </trkpt>
      <trkpt lat="43.7122" lon="3.50016">
        <ele>247.5</ele>
        <time>2023-05-14T10:30:29.000Z</time>
      </trkpt>
      <trkpt lat="43.71215" lon="3.50015">
        <ele>248.1</ele>
        <time>2023-05-14T10:30:33.000Z</time>
      </trkpt>
      <trkpt lat="43.71215" lon="3.50015">
        <ele>248.9</ele>
        <time>2023-05-14T10:30:40.000Z</time>
      </trkpt>
      <trkpt lat="43.71215" lon="3.50015">
        <ele>249.1</ele>
        <time>2023-05-14T10:30:41.000Z</time>
      </trkpt>
      <trkpt lat="43.71215" lon="3.50015">
        <ele>249.7</ele>
        <time>2023-05-14T10:30:48.000Z</time>
      </trkpt>
      <trkpt lat="43.71215" lon="3.50016">
        <ele>249.8</ele>
        <time>2023-05-14T10:30:49.000Z</time>
      </trkpt>
      <trkpt lat="43.71216" lon="3.50015">
        <ele>250.1</ele>
        <time>2023-05-14T10:31:04.000Z</time>
      </trkpt>
      <trkpt lat="43.71205" lon="3.50019">
        <ele>250.3</ele>
        <time>2023-05-14T10:31:12.000Z</time>
      </trkpt>
      <trkpt lat="43.71196" lon="3.50021">
        <ele>250.7</ele>
        <time>2023-05-14T10:31:16.000Z</time>
      </trkpt>
      <trkpt lat="43.71186" lon="3.50028">
        <ele>251.6</ele>
        <time>2023-05-14T10:31:21.000Z</time>
      </trkpt>
      <trkpt lat="43.71177" lon="3.50034">
        <ele>253</ele>
        <time>2023-05-14T10:31:25.000Z</time>
      </trkpt>
      <trkpt lat="43.71169" lon="3.50042">
        <ele>254.9</ele>
        <time>2023-05-14T10:31:29.000Z</time>
      </trkpt>
      <trkpt lat="43.71163" lon="3.50052">
        <ele>257.4</ele>
        <time>2023-05-14T10:31:33.000Z</time>
      </trkpt>
      <trkpt lat="43.71158" lon="3.50064">
        <ele>259.5</ele>
        <time>2023-05-14T10:31:37.000Z</time>
      </trkpt>
      <trkpt lat="43.71153" lon="3.50076">
        <ele>260.8</ele>
        <time>2023-05-14T10:31:41.000Z</time>
      </trkpt>
      <trkpt lat="43.71146" lon="3.50088">
        <ele>261.1</ele>
        <time>2023-05-14T10:31:45.000Z</time>
      </trkpt>
      <trkpt lat="43.71142" lon="3.501">
        <ele>261.2</ele>
        <time>2023-05-14T10:31:48.000Z</time>
      </trkpt>
      <trkpt lat="43.71138" lon="3.50112">
        <ele>261.2</ele>
        <time>2023-05-14T10:31:51.000Z</time>
      </trkpt>
      <trkpt lat="43.71129" lon="3.50119">
        <ele>261.5</ele>
        <time>2023-05-14T10:31:55.000Z</time>
      </trkpt>
      <trkpt lat="43.71128" lon="3.50107">
        <ele>262.2</ele>
        <time>2023-05-14T10:32:02.000Z</time>
      </trkpt>
      <trkpt lat="43.71128" lon="3.50106">
        <ele>262.4</ele>
        <time>2023-05-14T10:32:05.000Z</time>
      </trkpt>
      <trkpt lat="43.71128" lon="3.50104">
        <ele>263.2</ele>
        <time>2023-05-14T10:33:16.000Z</time>
      </trkpt>
      <trkpt lat="43.71133" lon="3.50091">
        <ele>263.3</ele>
        <time>2023-05-14T10:33:21.000Z</time>
      </trkpt>
      <trkpt lat="43.71138" lon="3.5008">
        <ele>263.5</ele>
        <time>2023-05-14T10:33:25.000Z</time>
      </trkpt>
      <trkpt lat="43.71144" lon="3.50067">
        <ele>263.7</ele>
        <time>2023-05-14T10:33:29.000Z</time>
      </trkpt>
      <trkpt lat="43.71138" lon="3.50062">
        <ele>264.6</ele>
        <time>2023-05-14T10:33:35.000Z</time>
      </trkpt>
      <trkpt lat="43.71138" lon="3.50062">
        <ele>265.2</ele>
        <time>2023-05-14T10:33:39.000Z</time>
      </trkpt>
      <trkpt lat="43.71138" lon="3.50063">
        <ele>265.9</ele>
        <time>2023-05-14T10:33:44.000Z</time>
      </trkpt>
      <trkpt lat="43.71138" lon="3.50063">
        <ele>266.8</ele>
        <time>2023-05-14T10:33:54.000Z</time>
      </trkpt>
      <trkpt lat="43.71128" lon="3.50067">
        <ele>267.5</ele>
        <time>2023-05-14T10:34:00.000Z</time>
      </trkpt>
      <trkpt lat="43.71118" lon="3.50069">
        <ele>269.2</ele>
        <time>2023-05-14T10:34:05.000Z</time>
      </trkpt>
      <trkpt lat="43.71107" lon="3.50071">
        <ele>271.7</ele>
        <time>2023-05-14T10:34:10.000Z</time>
      </trkpt>
      <trkpt lat="43.71099" lon="3.50077">
        <ele>273.8</ele>
        <time>2023-05-14T10:34:14.000Z</time>
      </trkpt>
      <trkpt lat="43.71091" lon="3.50083">
        <ele>275.9</ele>
        <time>2023-05-14T10:34:18.000Z</time>
      </trkpt>
      <trkpt lat="43.71087" lon="3.50094">
        <ele>277.2</ele>
        <time>2023-05-14T10:34:22.000Z</time>
      </trkpt>
      <trkpt lat="43.71083" lon="3.50108">
        <ele>277.8</ele>
        <time>2023-05-14T10:34:26.000Z</time>
      </trkpt>
      <trkpt lat="43.7108" lon="3.50121">
        <ele>278.7</ele>
        <time>2023-05-14T10:34:30.000Z</time>
      </trkpt>
      <trkpt lat="43.71076" lon="3.50135">
        <ele>279.5</ele>
        <time>2023-05-14T10:34:34.000Z</time>
      </trkpt>
      <trkpt lat="43.71073" lon="3.50149">
        <ele>280.3</ele>
        <time>2023-05-14T10:34:38.000Z</time>
      </trkpt>
      <trkpt lat="43.71068" lon="3.50162">
        <ele>281.4</ele>
        <time>2023-05-14T10:34:42.000Z</time>
      </trkpt>
      <trkpt lat="43.71062" lon="3.50173">
        <ele>282.7</ele>
        <time>2023-05-14T10:34:46.000Z</time>
      </trkpt>
      <trkpt lat="43.71056" lon="3.50186">
        <ele>284.4</ele>
        <time>2023-05-14T10:34:51.000Z</time>
      </trkpt>
      <trkpt lat="43.71051" lon="3.50197">
        <ele>285.9</ele>
        <time>2023-05-14T10:34:55.000Z</time>
      </trkpt>
      <trkpt lat="43.71047" lon="3.50208">
        <ele>287.1</ele>
        <time>2023-05-14T10:34:59.000Z</time>
      </trkpt>
      <trkpt lat="43.71043" lon="3.5022">
        <ele>288.2</ele>
        <time>2023-05-14T10:35:03.000Z</time>
      </trkpt>
      <trkpt lat="43.71037" lon="3.50229">
        <ele>289.1</ele>
        <time>2023-05-14T10:35:07.000Z</time>
      </trkpt>
      <trkpt lat="43.71032" lon="3.50242">
        <ele>289.9</ele>
        <time>2023-05-14T10:35:11.000Z</time>
      </trkpt>
      <trkpt lat="43.71026" lon="3.50252">
        <ele>291.3</ele>
        <time>2023-05-14T10:35:15.000Z</time>
      </trkpt>
      <trkpt lat="43.71021" lon="3.50263">
        <ele>292.5</ele>
        <time>2023-05-14T10:35:19.000Z</time>
      </trkpt>
      <trkpt lat="43.71015" lon="3.50274">
        <ele>293.6</ele>
        <time>2023-05-14T10:35:23.000Z</time>
      </trkpt>
      <trkpt lat="43.7101" lon="3.50285">
        <ele>295.4</ele>
        <time>2023-05-14T10:35:27.000Z</time>
      </trkpt>
      <trkpt lat="43.71005" lon="3.50296">
        <ele>296.9</ele>
        <time>2023-05-14T10:35:31.000Z</time>
      </trkpt>
      <trkpt lat="43.71" lon="3.50307">
        <ele>298.5</ele>
        <time>2023-05-14T10:35:35.000Z</time>
      </trkpt>
      <trkpt lat="43.70996" lon="3.50319">
        <ele>299.9</ele>
        <time>2023-05-14T10:35:39.000Z</time>
      </trkpt>
      <trkpt lat="43.70992" lon="3.50331">
        <ele>301.6</ele>
        <time>2023-05-14T10:35:43.000Z</time>
      </trkpt>
      <trkpt lat="43.70986" lon="3.50342">
        <ele>303.3</ele>
        <time>2023-05-14T10:35:47.000Z</time>
      </trkpt>
      <trkpt lat="43.70977" lon="3.50349">
        <ele>305</ele>
        <time>2023-05-14T10:35:52.000Z</time>
      </trkpt>
      <trkpt lat="43.70967" lon="3.50353">
        <ele>306.5</ele>
        <time>2023-05-14T10:35:56.000Z</time>
      </trkpt>
      <trkpt lat="43.70958" lon="3.50355">
        <ele>308.1</ele>
        <time>2023-05-14T10:36:00.000Z</time>
      </trkpt>
      <trkpt lat="43.7095" lon="3.50362">
        <ele>309.3</ele>
        <time>2023-05-14T10:36:04.000Z</time>
      </trkpt>
      <trkpt lat="43.70942" lon="3.5037">
        <ele>310.3</ele>
        <time>2023-05-14T10:36:08.000Z</time>
      </trkpt>
      <trkpt lat="43.70933" lon="3.50377">
        <ele>310.9</ele>
        <time>2023-05-14T10:36:12.000Z</time>
      </trkpt>
      <trkpt lat="43.70926" lon="3.50388">
        <ele>311.2</ele>
        <time>2023-05-14T10:36:16.000Z</time>
      </trkpt>
      <trkpt lat="43.70926" lon="3.50402">
        <ele>311.4</ele>
        <time>2023-05-14T10:36:21.000Z</time>
      </trkpt>
      <trkpt lat="43.70926" lon="3.50413">
        <ele>311.9</ele>
        <time>2023-05-14T10:36:30.000Z</time>
      </trkpt>
      <trkpt lat="43.70926" lon="3.50414">
        <ele>312.3</ele>
        <time>2023-05-14T10:36:43.000Z</time>
      </trkpt>
      <trkpt lat="43.70925" lon="3.50428">
        <ele>312.5</ele>
        <time>2023-05-14T10:36:48.000Z</time>
      </trkpt>
      <trkpt lat="43.70923" lon="3.50441">
        <ele>312.9</ele>
        <time>2023-05-14T10:36:52.000Z</time>
      </trkpt>
      <trkpt lat="43.70919" lon="3.50453">
        <ele>313.3</ele>
        <time>2023-05-14T10:36:56.000Z</time>
      </trkpt>
      <trkpt lat="43.70915" lon="3.50464">
        <ele>314.1</ele>
        <time>2023-05-14T10:37:00.000Z</time>
      </trkpt>
      <trkpt lat="43.7091" lon="3.50475">
        <ele>315.3</ele>
        <time>2023-05-14T10:37:04.000Z</time>
      </trkpt>
      <trkpt lat="43.70907" lon="3.50486">
        <ele>317</ele>
        <time>2023-05-14T10:37:08.000Z</time>
      </trkpt>
      <trkpt lat="43.70903" lon="3.505">
        <ele>318.6</ele>
        <time>2023-05-14T10:37:12.000Z</time>
      </trkpt>
      <trkpt lat="43.709" lon="3.50513">
        <ele>319.7</ele>
        <time>2023-05-14T10:37:16.000Z</time>
      </trkpt>
      <trkpt lat="43.70898" lon="3.50526">
        <ele>320.6</ele>
        <time>2023-05-14T10:37:20.000Z</time>
      </trkpt>
      <trkpt lat="43.70897" lon="3.50539">
        <ele>321.2</ele>
        <time>2023-05-14T10:37:24.000Z</time>
      </trkpt>
      <trkpt lat="43.70898" lon="3.50552">
        <ele>321.9</ele>
        <time>2023-05-14T10:37:28.000Z</time>
      </trkpt>
      <trkpt lat="43.709" lon="3.50565">
        <ele>322.8</ele>
        <time>2023-05-14T10:37:32.000Z</time>
      </trkpt>
      <trkpt lat="43.70904" lon="3.50579">
        <ele>323.7</ele>
        <time>2023-05-14T10:37:36.000Z</time>
      </trkpt>
      <trkpt lat="43.70909" lon="3.50591">
        <ele>324.7</ele>
        <time>2023-05-14T10:37:40.000Z</time>
      </trkpt>
      <trkpt lat="43.70916" lon="3.50602">
        <ele>325.9</ele>
        <time>2023-05-14T10:37:44.000Z</time>
      </trkpt>
      <trkpt lat="43.70924" lon="3.50612">
        <ele>327</ele>
        <time>2023-05-14T10:37:48.000Z</time>
      </trkpt>
      <trkpt lat="43.70931" lon="3.50622">
        <ele>327.9</ele>
        <time>2023-05-14T10:37:52.000Z</time>
      </trkpt>
      <trkpt lat="43.70938" lon="3.50632">
        <ele>329.4</ele>
        <time>2023-05-14T10:37:56.000Z</time>
      </trkpt>
      <trkpt lat="43.70945" lon="3.50642">
        <ele>330.7</ele>
        <time>2023-05-14T10:38:00.000Z</time>
      </trkpt>
      <trkpt lat="43.70952" lon="3.50653">
        <ele>331.9</ele>
        <time>2023-05-14T10:38:04.000Z</time>
      </trkpt>
      <trkpt lat="43.70959" lon="3.50663">
        <ele>332.4</ele>
        <time>2023-05-14T10:38:08.000Z</time>
      </trkpt>
      <trkpt lat="43.70965" lon="3.50673">
        <ele>333.1</ele>
        <time>2023-05-14T10:38:12.000Z</time>
      </trkpt>
      <trkpt lat="43.70972" lon="3.50683">
        <ele>333.9</ele>
        <time>2023-05-14T10:38:16.000Z</time>
      </trkpt>
      <trkpt lat="43.70979" lon="3.50692">
        <ele>334.7</ele>
        <time>2023-05-14T10:38:20.000Z</time>
      </trkpt>
      <trkpt lat="43.7098" lon="3.50706">
        <ele>335.3</ele>
        <time>2023-05-14T10:38:24.000Z</time>
      </trkpt>
      <trkpt lat="43.7098" lon="3.50719">
        <ele>335.5</ele>
        <time>2023-05-14T10:38:27.000Z</time>
      </trkpt>
      <trkpt lat="43.70982" lon="3.50732">
        <ele>335.7</ele>
        <time>2023-05-14T10:38:30.000Z</time>
      </trkpt>
      <trkpt lat="43.70983" lon="3.50746">
        <ele>335.8</ele>
        <time>2023-05-14T10:38:33.000Z</time>
      </trkpt>
      <trkpt lat="43.70983" lon="3.50758">
        <ele>335.9</ele>
        <time>2023-05-14T10:38:36.000Z</time>
      </trkpt>
      <trkpt lat="43.7098" lon="3.5077">
        <ele>335.8</ele>
        <time>2023-05-14T10:38:39.000Z</time>
      </trkpt>
      <trkpt lat="43.70978" lon="3.50783">
        <ele>335.8</ele>
        <time>2023-05-14T10:38:42.000Z</time>
      </trkpt>
      <trkpt lat="43.70974" lon="3.50795">
        <ele>335.8</ele>
        <time>2023-05-14T10:38:45.000Z</time>
      </trkpt>
      <trkpt lat="43.70969" lon="3.50809">
        <ele>335.5</ele>
        <time>2023-05-14T10:38:48.000Z</time>
      </trkpt>
      <trkpt lat="43.70963" lon="3.50825">
        <ele>334.9</ele>
        <time>2023-05-14T10:38:51.000Z</time>
      </trkpt>
      <trkpt lat="43.70961" lon="3.50844">
        <ele>334</ele>
        <time>2023-05-14T10:38:54.000Z</time>
      </trkpt>
      <trkpt lat="43.7096" lon="3.50857">
        <ele>332.9</ele>
        <time>2023-05-14T10:38:56.000Z</time>
      </trkpt>
      <trkpt lat="43.70959" lon="3.50871">
        <ele>331.1</ele>
        <time>2023-05-14T10:38:59.000Z</time>
      </trkpt>
      <trkpt lat="43.70947" lon="3.50873">
        <ele>328.3</ele>
        <time>2023-05-14T10:39:03.000Z</time>
      </trkpt>
      <trkpt lat="43.70938" lon="3.50866">
        <ele>326.4</ele>
        <time>2023-05-14T10:39:06.000Z</time>
      </trkpt>
      <trkpt lat="43.7093" lon="3.5086">
        <ele>324.6</ele>
        <time>2023-05-14T10:39:09.000Z</time>
      </trkpt>
      <trkpt lat="43.70922" lon="3.50868">
        <ele>322.2</ele>
        <time>2023-05-14T10:39:13.000Z</time>
      </trkpt>
      <trkpt lat="43.70919" lon="3.50881">
        <ele>320.6</ele>
        <time>2023-05-14T10:39:16.000Z</time>
      </trkpt>
      <trkpt lat="43.70915" lon="3.50895">
        <ele>318.9</ele>
        <time>2023-05-14T10:39:19.000Z</time>
      </trkpt>
      <trkpt lat="43.70909" lon="3.50906">
        <ele>317</ele>
        <time>2023-05-14T10:39:22.000Z</time>
      </trkpt>
      <trkpt lat="43.70902" lon="3.50916">
        <ele>315.6</ele>
        <time>2023-05-14T10:39:24.000Z</time>
      </trkpt>
      <trkpt lat="43.70895" lon="3.50923">
        <ele>314.6</ele>
        <time>2023-05-14T10:39:26.000Z</time>
      </trkpt>
      <trkpt lat="43.70885" lon="3.50928">
        <ele>313.4</ele>
        <time>2023-05-14T10:39:29.000Z</time>
      </trkpt>
      <trkpt lat="43.70876" lon="3.50935">
        <ele>312.4</ele>
        <time>2023-05-14T10:39:32.000Z</time>
      </trkpt>
      <trkpt lat="43.70867" lon="3.50945">
        <ele>311.7</ele>
        <time>2023-05-14T10:39:35.000Z</time>
      </trkpt>
      <trkpt lat="43.70857" lon="3.50949">
        <ele>310.8</ele>
        <time>2023-05-14T10:39:38.000Z</time>
      </trkpt>
      <trkpt lat="43.70847" lon="3.50954">
        <ele>309.9</ele>
        <time>2023-05-14T10:39:41.000Z</time>
      </trkpt>
      <trkpt lat="43.70836" lon="3.5096">
        <ele>308.9</ele>
        <time>2023-05-14T10:39:44.000Z</time>
      </trkpt>
      <trkpt lat="43.70825" lon="3.50965">
        <ele>307.3</ele>
        <time>2023-05-14T10:39:47.000Z</time>
      </trkpt>
      <trkpt lat="43.70815" lon="3.5097">
        <ele>305.6</ele>
        <time>2023-05-14T10:39:50.000Z</time>
      </trkpt>
      <trkpt lat="43.70805" lon="3.50976">
        <ele>304</ele>
        <time>2023-05-14T10:39:53.000Z</time>
      </trkpt>
      <trkpt lat="43.70795" lon="3.50985">
        <ele>302.5</ele>
        <time>2023-05-14T10:39:56.000Z</time>
      </trkpt>
      <trkpt lat="43.70784" lon="3.50989">
        <ele>300.6</ele>
        <time>2023-05-14T10:40:00.000Z</time>
      </trkpt>
      <trkpt lat="43.70776" lon="3.50982">
        <ele>299.9</ele>
        <time>2023-05-14T10:40:02.000Z</time>
      </trkpt>
      <trkpt lat="43.70772" lon="3.5097">
        <ele>299</ele>
        <time>2023-05-14T10:40:04.000Z</time>
      </trkpt>
      <trkpt lat="43.70765" lon="3.50955">
        <ele>296.9</ele>
        <time>2023-05-14T10:40:07.000Z</time>
      </trkpt>
      <trkpt lat="43.70759" lon="3.50943">
        <ele>295.3</ele>
        <time>2023-05-14T10:40:09.000Z</time>
      </trkpt>
      <trkpt lat="43.70751" lon="3.50934">
        <ele>294</ele>
        <time>2023-05-14T10:40:11.000Z</time>
      </trkpt>
      <trkpt lat="43.70745" lon="3.50948">
        <ele>292.1</ele>
        <time>2023-05-14T10:40:15.000Z</time>
      </trkpt>
      <trkpt lat="43.70746" lon="3.50963">
        <ele>291.1</ele>
        <time>2023-05-14T10:40:19.000Z</time>
      </trkpt>
      <trkpt lat="43.70744" lon="3.50979">
        <ele>290.2</ele>
        <time>2023-05-14T10:40:24.000Z</time>
      </trkpt>
      <trkpt lat="43.70739" lon="3.50991">
        <ele>289.2</ele>
        <time>2023-05-14T10:40:29.000Z</time>
      </trkpt>
      <trkpt lat="43.70738" lon="3.50993">
        <ele>288.7</ele>
        <time>2023-05-14T10:40:32.000Z</time>
      </trkpt>
      <trkpt lat="43.70738" lon="3.50993">
        <ele>288.4</ele>
        <time>2023-05-14T10:40:36.000Z</time>
      </trkpt>
      <trkpt lat="43.70738" lon="3.50993">
        <ele>288.3</ele>
        <time>2023-05-14T10:40:37.000Z</time>
      </trkpt>
      <trkpt lat="43.70738" lon="3.50993">
        <ele>286.1</ele>
        <time>2023-05-14T10:43:20.000Z</time>
      </trkpt>
      <trkpt lat="43.70733" lon="3.51004">
        <ele>286.1</ele>
        <time>2023-05-14T10:43:25.000Z</time>
      </trkpt>
      <trkpt lat="43.70727" lon="3.51015">
        <ele>285.9</ele>
        <time>2023-05-14T10:43:28.000Z</time>
      </trkpt>
      <trkpt lat="43.70722" lon="3.51027">
        <ele>285.5</ele>
        <time>2023-05-14T10:43:31.000Z</time>
      </trkpt>
      <trkpt lat="43.70717" lon="3.51044">
        <ele>284.7</ele>
        <time>2023-05-14T10:43:34.000Z</time>
      </trkpt>
      <trkpt lat="43.70717" lon="3.51063">
        <ele>283.5</ele>
        <time>2023-05-14T10:43:36.000Z</time>
      </trkpt>
      <trkpt lat="43.70719" lon="3.51082">
        <ele>281.8</ele>
        <time>2023-05-14T10:43:38.000Z</time>
      </trkpt>
      <trkpt lat="43.70726" lon="3.51097">
        <ele>280</ele>
        <time>2023-05-14T10:43:40.000Z</time>
      </trkpt>
      <trkpt lat="43.70717" lon="3.51103">
        <ele>276</ele>
        <time>2023-05-14T10:43:46.000Z</time>
      </trkpt>
      <trkpt lat="43.70708" lon="3.51099">
        <ele>272.1</ele>
        <time>2023-05-14T10:43:50.000Z</time>
      </trkpt>
      <trkpt lat="43.70697" lon="3.5109">
        <ele>269.2</ele>
        <time>2023-05-14T10:43:53.000Z</time>
      </trkpt>
      <trkpt lat="43.70687" lon="3.51089">
        <ele>267.1</ele>
        <time>2023-05-14T10:43:55.000Z</time>
      </trkpt>
      <trkpt lat="43.70679" lon="3.51093">
        <ele>264.7</ele>
        <time>2023-05-14T10:43:57.000Z</time>
      </trkpt>
      <trkpt lat="43.7067" lon="3.511">
        <ele>262</ele>
        <time>2023-05-14T10:43:59.000Z</time>
      </trkpt>
      <trkpt lat="43.70659" lon="3.51112">
        <ele>259.4</ele>
        <time>2023-05-14T10:44:01.000Z</time>
      </trkpt>
      <trkpt lat="43.70646" lon="3.51119">
        <ele>256.4</ele>
        <time>2023-05-14T10:44:03.000Z</time>
      </trkpt>
      <trkpt lat="43.70632" lon="3.51117">
        <ele>255.1</ele>
        <time>2023-05-14T10:44:05.000Z</time>
      </trkpt>
      <trkpt lat="43.70618" lon="3.51113">
        <ele>254.1</ele>
        <time>2023-05-14T10:44:07.000Z</time>
      </trkpt>
      <trkpt lat="43.70605" lon="3.51109">
        <ele>253.3</ele>
        <time>2023-05-14T10:44:09.000Z</time>
      </trkpt>
      <trkpt lat="43.70595" lon="3.51114">
        <ele>252.4</ele>
        <time>2023-05-14T10:44:13.000Z</time>
      </trkpt>
      <trkpt lat="43.70587" lon="3.51122">
        <ele>250.9</ele>
        <time>2023-05-14T10:44:18.000Z</time>
      </trkpt>
      <trkpt lat="43.70583" lon="3.51133">
        <ele>249.5</ele>
        <time>2023-05-14T10:44:22.000Z</time>
      </trkpt>
      <trkpt lat="43.70582" lon="3.51149">
        <ele>246.7</ele>
        <time>2023-05-14T10:44:26.000Z</time>
      </trkpt>
      <trkpt lat="43.70585" lon="3.5116">
        <ele>245</ele>
        <time>2023-05-14T10:44:29.000Z</time>
      </trkpt>
      <trkpt lat="43.70593" lon="3.51172">
        <ele>243.3</ele>
        <time>2023-05-14T10:44:32.000Z</time>
      </trkpt>
      <trkpt lat="43.70602" lon="3.51185">
        <ele>242.1</ele>
        <time>2023-05-14T10:44:35.000Z</time>
      </trkpt>
      <trkpt lat="43.70609" lon="3.51192">
        <ele>241.7</ele>
        <time>2023-05-14T10:44:37.000Z</time>
      </trkpt>
      <trkpt lat="43.70617" lon="3.51203">
        <ele>240.9</ele>
        <time>2023-05-14T10:44:39.000Z</time>
      </trkpt>
      <trkpt lat="43.70623" lon="3.51218">
        <ele>239.7</ele>
        <time>2023-05-14T10:44:41.000Z</time>
      </trkpt>
      <trkpt lat="43.70629" lon="3.51233">
        <ele>238.2</ele>
        <time>2023-05-14T10:44:43.000Z</time>
      </trkpt>
      <trkpt lat="43.70619" lon="3.51239">
        <ele>236.5</ele>
        <time>2023-05-14T10:44:47.000Z</time>
      </trkpt>
      <trkpt lat="43.70609" lon="3.51233">
        <ele>236.1</ele>
        <time>2023-05-14T10:44:49.000Z</time>
      </trkpt>
      <trkpt lat="43.70599" lon="3.51234">
        <ele>235.6</ele>
        <time>2023-05-14T10:44:51.000Z</time>
      </trkpt>
      <trkpt lat="43.7059" lon="3.51241">
        <ele>234.5</ele>
        <time>2023-05-14T10:44:53.000Z</time>
      </trkpt>
      <trkpt lat="43.70579" lon="3.51245">
        <ele>233.2</ele>
        <time>2023-05-14T10:44:55.000Z</time>
      </trkpt>
      <trkpt lat="43.70569" lon="3.51246">
        <ele>232.4</ele>
        <time>2023-05-14T10:44:57.000Z</time>
      </trkpt>
      <trkpt lat="43.70558" lon="3.51249">
        <ele>231.1</ele>
        <time>2023-05-14T10:44:59.000Z</time>
      </trkpt>
      <trkpt lat="43.70548" lon="3.51258">
        <ele>229.7</ele>
        <time>2023-05-14T10:45:01.000Z</time>
      </trkpt>
      <trkpt lat="43.7054" lon="3.51272">
        <ele>228.4</ele>
        <time>2023-05-14T10:45:03.000Z</time>
      </trkpt>
      <trkpt lat="43.70533" lon="3.51282">
        <ele>226.8</ele>
        <time>2023-05-14T10:45:05.000Z</time>
      </trkpt>
      <trkpt lat="43.70523" lon="3.51285">
        <ele>225.7</ele>
        <time>2023-05-14T10:45:07.000Z</time>
      </trkpt>
      <trkpt lat="43.70512" lon="3.51282">
        <ele>224.5</ele>
        <time>2023-05-14T10:45:09.000Z</time>
      </trkpt>
      <trkpt lat="43.70503" lon="3.51274">
        <ele>223</ele>
        <time>2023-05-14T10:45:11.000Z</time>
      </trkpt>
      <trkpt lat="43.70495" lon="3.51264">
        <ele>220.8</ele>
        <time>2023-05-14T10:45:13.000Z</time>
      </trkpt>
      <trkpt lat="43.7049" lon="3.5125">
        <ele>219.5</ele>
        <time>2023-05-14T10:45:15.000Z</time>
      </trkpt>
      <trkpt lat="43.70487" lon="3.51234">
        <ele>217.7</ele>
        <time>2023-05-14T10:45:17.000Z</time>
      </trkpt>
      <trkpt lat="43.70485" lon="3.51216">
        <ele>216.4</ele>
        <time>2023-05-14T10:45:19.000Z</time>
      </trkpt>
      <trkpt lat="43.70481" lon="3.51199">
        <ele>214.9</ele>
        <time>2023-05-14T10:45:21.000Z</time>
      </trkpt>
      <trkpt lat="43.70474" lon="3.51186">
        <ele>213.2</ele>
        <time>2023-05-14T10:45:23.000Z</time>
      </trkpt>
      <trkpt lat="43.70467" lon="3.51173">
        <ele>211.2</ele>
        <time>2023-05-14T10:45:26.000Z</time>
      </trkpt>
      <trkpt lat="43.70461" lon="3.51161">
        <ele>209.6</ele>
        <time>2023-05-14T10:45:29.000Z</time>
      </trkpt>
      <trkpt lat="43.70454" lon="3.51149">
        <ele>208.5</ele>
        <time>2023-05-14T10:45:32.000Z</time>
      </trkpt>
      <trkpt lat="43.70449" lon="3.51134">
        <ele>207.6</ele>
        <time>2023-05-14T10:45:35.000Z</time>
      </trkpt>
      <trkpt lat="43.70447" lon="3.5112">
        <ele>206.4</ele>
        <time>2023-05-14T10:45:37.000Z</time>
      </trkpt>
      <trkpt lat="43.70443" lon="3.51104">
        <ele>205.5</ele>
        <time>2023-05-14T10:45:39.000Z</time>
      </trkpt>
      <trkpt lat="43.70439" lon="3.51087">
        <ele>204.5</ele>
        <time>2023-05-14T10:45:41.000Z</time>
      </trkpt>
      <trkpt lat="43.70438" lon="3.51073">
        <ele>203.5</ele>
        <time>2023-05-14T10:45:44.000Z</time>
      </trkpt>
      <trkpt lat="43.70437" lon="3.51059">
        <ele>202.5</ele>
        <time>2023-05-14T10:45:47.000Z</time>
      </trkpt>
      <trkpt lat="43.70436" lon="3.51044">
        <ele>201.3</ele>
        <time>2023-05-14T10:45:50.000Z</time>
      </trkpt>
      <trkpt lat="43.70434" lon="3.51028">
        <ele>200.7</ele>
        <time>2023-05-14T10:45:53.000Z</time>
      </trkpt>
      <trkpt lat="43.70433" lon="3.51014">
        <ele>200</ele>
        <time>2023-05-14T10:45:56.000Z</time>
      </trkpt>
      <trkpt lat="43.70434" lon="3.50999">
        <ele>198</ele>
        <time>2023-05-14T10:46:01.000Z</time>
      </trkpt>
      <trkpt lat="43.70429" lon="3.50995">
        <ele>195.8</ele>
        <time>2023-05-14T10:46:09.000Z</time>
      </trkpt>
      <trkpt lat="43.70429" lon="3.50996">
        <ele>195.2</ele>
        <time>2023-05-14T10:46:11.000Z</time>
      </trkpt>
      <trkpt lat="43.70429" lon="3.50996">
        <ele>195</ele>
        <time>2023-05-14T10:46:12.000Z</time>
      </trkpt>
      <trkpt lat="43.70429" lon="3.50996">
        <ele>194.9</ele>
        <time>2023-05-14T10:46:13.000Z</time>
      </trkpt>
      <trkpt lat="43.70425" lon="3.50995">
        <ele>193.6</ele>
        <time>2023-05-14T10:46:24.000Z</time>
      </trkpt>
      <trkpt lat="43.70425" lon="3.50995">
        <ele>193.4</ele>
        <time>2023-05-14T10:46:26.000Z</time>
      </trkpt>
      <trkpt lat="43.70414" lon="3.50992">
        <ele>192.5</ele>
        <time>2023-05-14T10:46:32.000Z</time>
      </trkpt>
      <trkpt lat="43.70406" lon="3.50987">
        <ele>190.9</ele>
        <time>2023-05-14T10:46:37.000Z</time>
      </trkpt>
      <trkpt lat="43.70393" lon="3.5099">
        <ele>188.3</ele>
        <time>2023-05-14T10:46:41.000Z</time>
      </trkpt>
      <trkpt lat="43.70382" lon="3.5099">
        <ele>185.3</ele>
        <time>2023-05-14T10:46:44.000Z</time>
      </trkpt>
      <trkpt lat="43.70368" lon="3.50987">
        <ele>182.2</ele>
        <time>2023-05-14T10:46:47.000Z</time>
      </trkpt>
      <trkpt lat="43.70354" lon="3.50984">
        <ele>180.1</ele>
        <time>2023-05-14T10:46:49.000Z</time>
      </trkpt>
      <trkpt lat="43.70345" lon="3.50983">
        <ele>178.7</ele>
        <time>2023-05-14T10:46:50.000Z</time>
      </trkpt>
      <trkpt lat="43.70328" lon="3.5098">
        <ele>175.1</ele>
        <time>2023-05-14T10:46:52.000Z</time>
      </trkpt>
      <trkpt lat="43.70317" lon="3.50979">
        <ele>171.8</ele>
        <time>2023-05-14T10:46:54.000Z</time>
      </trkpt>
      <trkpt lat="43.70312" lon="3.50991">
        <ele>167.7</ele>
        <time>2023-05-14T10:47:00.000Z</time>
      </trkpt>
      <trkpt lat="43.70318" lon="3.51001">
        <ele>167.3</ele>
        <time>2023-05-14T10:47:05.000Z</time>
      </trkpt>
      <trkpt lat="43.70324" lon="3.51012">
        <ele>167.3</ele>
        <time>2023-05-14T10:47:09.000Z</time>
      </trkpt>
      <trkpt lat="43.70329" lon="3.51025">
        <ele>167.5</ele>
        <time>2023-05-14T10:47:13.000Z</time>
      </trkpt>
      <trkpt lat="43.70334" lon="3.51039">
        <ele>167.9</ele>
        <time>2023-05-14T10:47:17.000Z</time>
      </trkpt>
      <trkpt lat="43.70339" lon="3.51052">
        <ele>168.3</ele>
        <time>2023-05-14T10:47:20.000Z</time>
      </trkpt>
      <trkpt lat="43.70343" lon="3.51063">
        <ele>168.7</ele>
        <time>2023-05-14T10:47:23.000Z</time>
      </trkpt>
      <trkpt lat="43.70347" lon="3.51078">
        <ele>169.3</ele>
        <time>2023-05-14T10:47:27.000Z</time>
      </trkpt>
      <trkpt lat="43.7035" lon="3.51093">
        <ele>170.1</ele>
        <time>2023-05-14T10:47:31.000Z</time>
      </trkpt>
      <trkpt lat="43.70353" lon="3.51106">
        <ele>170.6</ele>
        <time>2023-05-14T10:47:34.000Z</time>
      </trkpt>
      <trkpt lat="43.70357" lon="3.51118">
        <ele>171</ele>
        <time>2023-05-14T10:47:37.000Z</time>
      </trkpt>
      <trkpt lat="43.70359" lon="3.5113">
        <ele>171.6</ele>
        <time>2023-05-14T10:47:40.000Z</time>
      </trkpt>
      <trkpt lat="43.70359" lon="3.51143">
        <ele>172.3</ele>
        <time>2023-05-14T10:47:43.000Z</time>
      </trkpt>
      <trkpt lat="43.70359" lon="3.51158">
        <ele>172.8</ele>
        <time>2023-05-14T10:47:46.000Z</time>
      </trkpt>
      <trkpt lat="43.70359" lon="3.51175">
        <ele>172.9</ele>
        <time>2023-05-14T10:47:49.000Z</time>
      </trkpt>
      <trkpt lat="43.70358" lon="3.51194">
        <ele>172.7</ele>
        <time>2023-05-14T10:47:52.000Z</time>
      </trkpt>
      <trkpt lat="43.70358" lon="3.51207">
        <ele>172.7</ele>
        <time>2023-05-14T10:47:54.000Z</time>
      </trkpt>
      <trkpt lat="43.70356" lon="3.5122">
        <ele>172.7</ele>
        <time>2023-05-14T10:47:56.000Z</time>
      </trkpt>
      <trkpt lat="43.70352" lon="3.51236">
        <ele>172.7</ele>
        <time>2023-05-14T10:47:58.000Z</time>
      </trkpt>
      <trkpt lat="43.70349" lon="3.51251">
        <ele>172.5</ele>
        <time>2023-05-14T10:48:00.000Z</time>
      </trkpt>
      <trkpt lat="43.70344" lon="3.51266">
        <ele>172.3</ele>
        <time>2023-05-14T10:48:02.000Z</time>
      </trkpt>
      <trkpt lat="43.70339" lon="3.51282">
        <ele>172</ele>
        <time>2023-05-14T10:48:04.000Z</time>
      </trkpt>
      <trkpt lat="43.70333" lon="3.51299">
        <ele>171.5</ele>
        <time>2023-05-14T10:48:06.000Z</time>
      </trkpt>
      <trkpt lat="43.70328" lon="3.5132">
        <ele>170.8</ele>
        <time>2023-05-14T10:48:08.000Z</time>
      </trkpt>
      <trkpt lat="43.70322" lon="3.51343">
        <ele>169.8</ele>
        <time>2023-05-14T10:48:10.000Z</time>
      </trkpt>
      <trkpt lat="43.7032" lon="3.51355">
        <ele>169.2</ele>
        <time>2023-05-14T10:48:11.000Z</time>
      </trkpt>
      <trkpt lat="43.70317" lon="3.51367">
        <ele>168.5</ele>
        <time>2023-05-14T10:48:12.000Z</time>
      </trkpt>
      <trkpt lat="43.70314" lon="3.5138">
        <ele>167.7</ele>
        <time>2023-05-14T10:48:13.000Z</time>
      </trkpt>
      <trkpt lat="43.70312" lon="3.51393">
        <ele>166.8</ele>
        <time>2023-05-14T10:48:14.000Z</time>
      </trkpt>
      <trkpt lat="43.70309" lon="3.51407">
        <ele>166</ele>
        <time>2023-05-14T10:48:15.000Z</time>
      </trkpt>
      <trkpt lat="43.70305" lon="3.5142">
        <ele>165.1</ele>
        <time>2023-05-14T10:48:16.000Z</time>
      </trkpt>
      <trkpt lat="43.703" lon="3.51431">
        <ele>164.3</ele>
        <time>2023-05-14T10:48:17.000Z</time>
      </trkpt>
      <trkpt lat="43.70295" lon="3.51442">
        <ele>163.5</ele>
        <time>2023-05-14T10:48:18.000Z</time>
      </trkpt>
      <trkpt lat="43.70284" lon="3.5146">
        <ele>161.8</ele>
        <time>2023-05-14T10:48:20.000Z</time>
      </trkpt>
      <trkpt lat="43.70275" lon="3.51477">
        <ele>160.6</ele>
        <time>2023-05-14T10:48:22.000Z</time>
      </trkpt>
      <trkpt lat="43.70269" lon="3.51493">
        <ele>159.8</ele>
        <time>2023-05-14T10:48:24.000Z</time>
      </trkpt>
      <trkpt lat="43.70269" lon="3.51511">
        <ele>159.1</ele>
        <time>2023-05-14T10:48:26.000Z</time>
      </trkpt>
      <trkpt lat="43.70273" lon="3.51528">
        <ele>158.8</ele>
        <time>2023-05-14T10:48:28.000Z</time>
      </trkpt>
      <trkpt lat="43.70278" lon="3.51544">
        <ele>158.5</ele>
        <time>2023-05-14T10:48:30.000Z</time>
      </trkpt>
      <trkpt lat="43.70282" lon="3.5156">
        <ele>158.4</ele>
        <time>2023-05-14T10:48:32.000Z</time>
      </trkpt>
      <trkpt lat="43.70287" lon="3.51576">
        <ele>158.2</ele>
        <time>2023-05-14T10:48:34.000Z</time>
      </trkpt>
      <trkpt lat="43.70291" lon="3.5159">
        <ele>157.9</ele>
        <time>2023-05-14T10:48:36.000Z</time>
      </trkpt>
      <trkpt lat="43.70294" lon="3.51603">
        <ele>157.8</ele>
        <time>2023-05-14T10:48:38.000Z</time>
      </trkpt>
      <trkpt lat="43.70297" lon="3.51615">
        <ele>157.8</ele>
        <time>2023-05-14T10:48:40.000Z</time>
      </trkpt>
      <trkpt lat="43.70303" lon="3.51631">
        <ele>157.7</ele>
        <time>2023-05-14T10:48:43.000Z</time>
      </trkpt>
      <trkpt lat="43.7031" lon="3.51643">
        <ele>157.7</ele>
        <time>2023-05-14T10:48:46.000Z</time>
      </trkpt>
      <trkpt lat="43.70318" lon="3.51655">
        <ele>157.7</ele>
        <time>2023-05-14T10:48:50.000Z</time>
      </trkpt>
      <trkpt lat="43.7032" lon="3.51658">
        <ele>157.7</ele>
        <time>2023-05-14T10:48:53.000Z</time>
      </trkpt>
      <trkpt lat="43.7032" lon="3.51659">
        <ele>157.7</ele>
        <time>2023-05-14T10:49:02.000Z</time>
      </trkpt>
      <trkpt lat="43.7032" lon="3.51659">
        <ele>157.8</ele>
        <time>2023-05-14T10:49:06.000Z</time>
      </trkpt>
      <trkpt lat="43.7032" lon="3.51659">
        <ele>157.8</ele>
        <time>2023-05-14T10:49:23.000Z</time>
      </trkpt>
      <trkpt lat="43.7032" lon="3.51659">
        <ele>157.8</ele>
        <time>2023-05-14T10:49:24.000Z</time>
      </trkpt>
      <trkpt lat="43.7032" lon="3.51659">
        <ele>157.7</ele>
        <time>2023-05-14T10:49:38.000Z</time>
      </trkpt>
      <trkpt lat="43.7032" lon="3.51659">
        <ele>157.7</ele>
        <time>2023-05-14T10:49:40.000Z</time>
      </trkpt>
      <trkpt lat="43.70321" lon="3.5166">
        <ele>157.7</ele>
        <time>2023-05-14T10:49:53.000Z</time>
      </trkpt>
      <trkpt lat="43.70328" lon="3.51668">
        <ele>157.8</ele>
        <time>2023-05-14T10:49:58.000Z</time>
      </trkpt>
      <trkpt lat="43.70335" lon="3.5168">
        <ele>157.8</ele>
        <time>2023-05-14T10:50:02.000Z</time>
      </trkpt>
      <trkpt lat="43.7034" lon="3.51691">
        <ele>157.8</ele>
        <time>2023-05-14T10:50:05.000Z</time>
      </trkpt>
      <trkpt lat="43.70342" lon="3.51703">
        <ele>157.9</ele>
        <time>2023-05-14T10:50:08.000Z</time>
      </trkpt>
      <trkpt lat="43.70345" lon="3.51716">
        <ele>158</ele>
        <time>2023-05-14T10:50:11.000Z</time>
      </trkpt>
      <trkpt lat="43.70349" lon="3.5173">
        <ele>158.2</ele>
        <time>2023-05-14T10:50:14.000Z</time>
      </trkpt>
      <trkpt lat="43.70353" lon="3.51745">
        <ele>158.4</ele>
        <time>2023-05-14T10:50:17.000Z</time>
      </trkpt>
      <trkpt lat="43.70357" lon="3.51758">
        <ele>158.6</ele>
        <time>2023-05-14T10:50:20.000Z</time>
      </trkpt>
      <trkpt lat="43.70361" lon="3.51772">
        <ele>158.8</ele>
        <time>2023-05-14T10:50:23.000Z</time>
      </trkpt>
      <trkpt lat="43.70351" lon="3.51781">
        <ele>159.1</ele>
        <time>2023-05-14T10:50:27.000Z</time>
      </trkpt>
      <trkpt lat="43.70342" lon="3.5178">
        <ele>159.1</ele>
        <time>2023-05-14T10:50:29.000Z</time>
      </trkpt>
      <trkpt lat="43.70331" lon="3.51779">
        <ele>159</ele>
        <time>2023-05-14T10:50:31.000Z</time>
      </trkpt>
      <trkpt lat="43.70319" lon="3.51777">
        <ele>158.9</ele>
        <time>2023-05-14T10:50:33.000Z</time>
      </trkpt>
      <trkpt lat="43.70306" lon="3.51774">
        <ele>158.8</ele>
        <time>2023-05-14T10:50:35.000Z</time>
      </trkpt>
      <trkpt lat="43.70292" lon="3.5177">
        <ele>158.6</ele>
        <time>2023-05-14T10:50:37.000Z</time>
      </trkpt>
      <trkpt lat="43.70275" lon="3.51769">
        <ele>158.2</ele>
        <time>2023-05-14T10:50:39.000Z</time>
      </trkpt>
      <trkpt lat="43.70259" lon="3.51766">
        <ele>157.7</ele>
        <time>2023-05-14T10:50:41.000Z</time>
      </trkpt>
      <trkpt lat="43.70249" lon="3.51756">
        <ele>157.1</ele>
        <time>2023-05-14T10:50:43.000Z</time>
      </trkpt>
      <trkpt lat="43.70244" lon="3.51742">
        <ele>156.3</ele>
        <time>2023-05-14T10:50:45.000Z</time>
      </trkpt>
      <trkpt lat="43.70234" lon="3.51733">
        <ele>155.2</ele>
        <time>2023-05-14T10:50:47.000Z</time>
      </trkpt>
      <trkpt lat="43.70222" lon="3.51731">
        <ele>154.1</ele>
        <time>2023-05-14T10:50:49.000Z</time>
      </trkpt>
      <trkpt lat="43.70208" lon="3.5173">
        <ele>153.1</ele>
        <time>2023-05-14T10:50:51.000Z</time>
      </trkpt>
      <trkpt lat="43.70193" lon="3.51728">
        <ele>152.4</ele>
        <time>2023-05-14T10:50:53.000Z</time>
      </trkpt>
      <trkpt lat="43.70178" lon="3.51726">
        <ele>151.4</ele>
        <time>2023-05-14T10:50:55.000Z</time>
      </trkpt>
      <trkpt lat="43.70161" lon="3.51724">
        <ele>150</ele>
        <time>2023-05-14T10:50:57.000Z</time>
      </trkpt>
      <trkpt lat="43.70145" lon="3.51719">
        <ele>149.2</ele>
        <time>2023-05-14T10:50:59.000Z</time>
      </trkpt>
      <trkpt lat="43.70127" lon="3.51713">
        <ele>148.6</ele>
        <time>2023-05-14T10:51:01.000Z</time>
      </trkpt>
      <trkpt lat="43.70118" lon="3.51712">
        <ele>148.2</ele>
        <time>2023-05-14T10:51:02.000Z</time>
      </trkpt>
      <trkpt lat="43.70109" lon="3.51711">
        <ele>147.6</ele>
        <time>2023-05-14T10:51:03.000Z</time>
      </trkpt>
      <trkpt lat="43.70095" lon="3.51715">
        <ele>146.3</ele>
        <time>2023-05-14T10:51:05.000Z</time>
      </trkpt>
      <trkpt lat="43.70092" lon="3.51729">
        <ele>144.8</ele>
        <time>2023-05-14T10:51:09.000Z</time>
      </trkpt>
      <trkpt lat="43.701" lon="3.5174">
        <ele>144.3</ele>
        <time>2023-05-14T10:51:12.000Z</time>
      </trkpt>
      <trkpt lat="43.7011" lon="3.51752">
        <ele>144.4</ele>
        <time>2023-05-14T10:51:15.000Z</time>
      </trkpt>
      <trkpt lat="43.70118" lon="3.51762">
        <ele>144.4</ele>
        <time>2023-05-14T10:51:18.000Z</time>
      </trkpt>
      <trkpt lat="43.70125" lon="3.51773">
        <ele>144.6</ele>
        <time>2023-05-14T10:51:21.000Z</time>
      </trkpt>
      <trkpt lat="43.70134" lon="3.51784">
        <ele>145</ele>
        <time>2023-05-14T10:51:24.000Z</time>
      </trkpt>
      <trkpt lat="43.70143" lon="3.51795">
        <ele>145.3</ele>
        <time>2023-05-14T10:51:27.000Z</time>
      </trkpt>
      <trkpt lat="43.70152" lon="3.51805">
        <ele>145.7</ele>
        <time>2023-05-14T10:51:30.000Z</time>
      </trkpt>
      <trkpt lat="43.7016" lon="3.51818">
        <ele>146.2</ele>
        <time>2023-05-14T10:51:33.000Z</time>
      </trkpt>
      <trkpt lat="43.70168" lon="3.51831">
        <ele>146.8</ele>
        <time>2023-05-14T10:51:36.000Z</time>
      </trkpt>
      <trkpt lat="43.70176" lon="3.51842">
        <ele>147.3</ele>
        <time>2023-05-14T10:51:39.000Z</time>
      </trkpt>
      <trkpt lat="43.70186" lon="3.51851">
        <ele>147.8</ele>
        <time>2023-05-14T10:51:42.000Z</time>
      </trkpt>
      <trkpt lat="43.70195" lon="3.51859">
        <ele>148.3</ele>
        <time>2023-05-14T10:51:45.000Z</time>
      </trkpt>
      <trkpt lat="43.70205" lon="3.51867">
        <ele>148.9</ele>
        <time>2023-05-14T10:51:48.000Z</time>
      </trkpt>
      <trkpt lat="43.70215" lon="3.51875">
        <ele>149.4</ele>
        <time>2023-05-14T10:51:51.000Z</time>
      </trkpt>
      <trkpt lat="43.70224" lon="3.51882">
        <ele>150</ele>
        <time>2023-05-14T10:51:54.000Z</time>
      </trkpt>
      <trkpt lat="43.70233" lon="3.51889">
        <ele>150.7</ele>
        <time>2023-05-14T10:51:57.000Z</time>
      </trkpt>
      <trkpt lat="43.70242" lon="3.51897">
        <ele>151.5</ele>
        <time>2023-05-14T10:52:00.000Z</time>
      </trkpt>
      <trkpt lat="43.70247" lon="3.51909">
        <ele>152.1</ele>
        <time>2023-05-14T10:52:03.000Z</time>
      </trkpt>
      <trkpt lat="43.7025" lon="3.51923">
        <ele>152.8</ele>
        <time>2023-05-14T10:52:06.000Z</time>
      </trkpt>
      <trkpt lat="43.70253" lon="3.51938">
        <ele>153.5</ele>
        <time>2023-05-14T10:52:09.000Z</time>
      </trkpt>
      <trkpt lat="43.70254" lon="3.51955">
        <ele>154</ele>
        <time>2023-05-14T10:52:12.000Z</time>
      </trkpt>
      <trkpt lat="43.70253" lon="3.51972">
        <ele>154.2</ele>
        <time>2023-05-14T10:52:15.000Z</time>
      </trkpt>
      <trkpt lat="43.70258" lon="3.51988">
        <ele>154.5</ele>
        <time>2023-05-14T10:52:18.000Z</time>
      </trkpt>
      <trkpt lat="43.70263" lon="3.52005">
        <ele>154.8</ele>
        <time>2023-05-14T10:52:21.000Z</time>
      </trkpt>
      <trkpt lat="43.70267" lon="3.52021">
        <ele>155</ele>
        <time>2023-05-14T10:52:24.000Z</time>
      </trkpt>
      <trkpt lat="43.70272" lon="3.52035">
        <ele>155</ele>
        <time>2023-05-14T10:52:27.000Z</time>
      </trkpt>
      <trkpt lat="43.70277" lon="3.52051">
        <ele>155.2</ele>
        <time>2023-05-14T10:52:30.000Z</time>
      </trkpt>
      <trkpt lat="43.70282" lon="3.52066">
        <ele>155.3</ele>
        <time>2023-05-14T10:52:33.000Z</time>
      </trkpt>
      <trkpt lat="43.70287" lon="3.52082">
        <ele>155.6</ele>
        <time>2023-05-14T10:52:36.000Z</time>
      </trkpt>
      <trkpt lat="43.70292" lon="3.52098">
        <ele>155.9</ele>
        <time>2023-05-14T10:52:39.000Z</time>
      </trkpt>
      <trkpt lat="43.70298" lon="3.52112">
        <ele>156.4</ele>
        <time>2023-05-14T10:52:42.000Z</time>
      </trkpt>
      <trkpt lat="43.70306" lon="3.52122">
        <ele>156.9</ele>
        <time>2023-05-14T10:52:45.000Z</time>
      </trkpt>
      <trkpt lat="43.70314" lon="3.52132">
        <ele>157.7</ele>
        <time>2023-05-14T10:52:48.000Z</time>
      </trkpt>
      <trkpt lat="43.70317" lon="3.52146">
        <ele>158.6</ele>
        <time>2023-05-14T10:52:51.000Z</time>
      </trkpt>
      <trkpt lat="43.70316" lon="3.52159">
        <ele>159.6</ele>
        <time>2023-05-14T10:52:54.000Z</time>
      </trkpt>
      <trkpt lat="43.70317" lon="3.52173">
        <ele>160.5</ele>
        <time>2023-05-14T10:52:57.000Z</time>
      </trkpt>
      <trkpt lat="43.70318" lon="3.52186">
        <ele>161.1</ele>
        <time>2023-05-14T10:53:00.000Z</time>
      </trkpt>
      <trkpt lat="43.70317" lon="3.52198">
        <ele>162.1</ele>
        <time>2023-05-14T10:53:03.000Z</time>
      </trkpt>
      <trkpt lat="43.70315" lon="3.52211">
        <ele>163</ele>
        <time>2023-05-14T10:53:06.000Z</time>
      </trkpt>
      <trkpt lat="43.70309" lon="3.52223">
        <ele>164</ele>
        <time>2023-05-14T10:53:10.000Z</time>
      </trkpt>
      <trkpt lat="43.70303" lon="3.52237">
        <ele>165.5</ele>
        <time>2023-05-14T10:53:14.000Z</time>
      </trkpt>
      <trkpt lat="43.70298" lon="3.52249">
        <ele>166.7</ele>
        <time>2023-05-14T10:53:18.000Z</time>
      </trkpt>
      <trkpt lat="43.70292" lon="3.52262">
        <ele>167.8</ele>
        <time>2023-05-14T10:53:22.000Z</time>
      </trkpt>
      <trkpt lat="43.70288" lon="3.52274">
        <ele>168.4</ele>
        <time>2023-05-14T10:53:25.000Z</time>
      </trkpt>
      <trkpt lat="43.70284" lon="3.52289">
        <ele>169.1</ele>
        <time>2023-05-14T10:53:29.000Z</time>
      </trkpt>
      <trkpt lat="43.7028" lon="3.52303">
        <ele>169.9</ele>
        <time>2023-05-14T10:53:33.000Z</time>
      </trkpt>
      <trkpt lat="43.70281" lon="3.52319">
        <ele>171</ele>
        <time>2023-05-14T10:53:37.000Z</time>
      </trkpt>
      <trkpt lat="43.70283" lon="3.52331">
        <ele>171.7</ele>
        <time>2023-05-14T10:53:40.000Z</time>
      </trkpt>
      <trkpt lat="43.70285" lon="3.52347">
        <ele>173.1</ele>
        <time>2023-05-14T10:53:44.000Z</time>
      </trkpt>
      <trkpt lat="43.70288" lon="3.52363">
        <ele>174.4</ele>
        <time>2023-05-14T10:53:48.000Z</time>
      </trkpt>
      <trkpt lat="43.70295" lon="3.52371">
        <ele>175.4</ele>
        <time>2023-05-14T10:53:52.000Z</time>
      </trkpt>
      <trkpt lat="43.70304" lon="3.52376">
        <ele>176.7</ele>
        <time>2023-05-14T10:53:56.000Z</time>
      </trkpt>
      <trkpt lat="43.70313" lon="3.52384">
        <ele>178.2</ele>
        <time>2023-05-14T10:54:01.000Z</time>
      </trkpt>
      <trkpt lat="43.70321" lon="3.52389">
        <ele>179.4</ele>
        <time>2023-05-14T10:54:05.000Z</time>
      </trkpt>
      <trkpt lat="43.70332" lon="3.52391">
        <ele>180.6</ele>
        <time>2023-05-14T10:54:10.000Z</time>
      </trkpt>
      <trkpt lat="43.70341" lon="3.52388">
        <ele>181.6</ele>
        <time>2023-05-14T10:54:14.000Z</time>
      </trkpt>
      <trkpt lat="43.70351" lon="3.52387">
        <ele>182.4</ele>
        <time>2023-05-14T10:54:18.000Z</time>
      </trkpt>
      <trkpt lat="43.7036" lon="3.52395">
        <ele>183.7</ele>
        <time>2023-05-14T10:54:23.000Z</time>
      </trkpt>
      <trkpt lat="43.70367" lon="3.52405">
        <ele>184.7</ele>
        <time>2023-05-14T10:54:27.000Z</time>
      </trkpt>
      <trkpt lat="43.70372" lon="3.52415">
        <ele>185.2</ele>
        <time>2023-05-14T10:54:30.000Z</time>
      </trkpt>
      <trkpt lat="43.70378" lon="3.52429">
        <ele>185.7</ele>
        <time>2023-05-14T10:54:34.000Z</time>
      </trkpt>
      <trkpt lat="43.70387" lon="3.52438">
        <ele>186.2</ele>
        <time>2023-05-14T10:54:38.000Z</time>
      </trkpt>
      <trkpt lat="43.70397" lon="3.52444">
        <ele>186.9</ele>
        <time>2023-05-14T10:54:42.000Z</time>
      </trkpt>
      <trkpt lat="43.70407" lon="3.52452">
        <ele>187.8</ele>
        <time>2023-05-14T10:54:46.000Z</time>
      </trkpt>
      <trkpt lat="43.70417" lon="3.52459">
        <ele>188.4</ele>
        <time>2023-05-14T10:54:50.000Z</time>
      </trkpt>
      <trkpt lat="43.70427" lon="3.52464">
        <ele>188.7</ele>
        <time>2023-05-14T10:54:54.000Z</time>
      </trkpt>
      <trkpt lat="43.70437" lon="3.52468">
        <ele>188.9</ele>
        <time>2023-05-14T10:54:58.000Z</time>
      </trkpt>
      <trkpt lat="43.70429" lon="3.52478">
        <ele>188.9</ele>
        <time>2023-05-14T10:55:04.000Z</time>
      </trkpt>
      <trkpt lat="43.70416" lon="3.52477">
        <ele>188.7</ele>
        <time>2023-05-14T10:55:07.000Z</time>
      </trkpt>
      <trkpt lat="43.70405" lon="3.52475">
        <ele>188.3</ele>
        <time>2023-05-14T10:55:09.000Z</time>
      </trkpt>
      <trkpt lat="43.70394" lon="3.52473">
        <ele>187.8</ele>
        <time>2023-05-14T10:55:11.000Z</time>
      </trkpt>
      <trkpt lat="43.70384" lon="3.52469">
        <ele>187.1</ele>
        <time>2023-05-14T10:55:13.000Z</time>
      </trkpt>
      <trkpt lat="43.70376" lon="3.52463">
        <ele>186.4</ele>
        <time>2023-05-14T10:55:15.000Z</time>
      </trkpt>
      <trkpt lat="43.70368" lon="3.52457">
        <ele>185.5</ele>
        <time>2023-05-14T10:55:17.000Z</time>
      </trkpt>
      <trkpt lat="43.70359" lon="3.52454">
        <ele>184.7</ele>
        <time>2023-05-14T10:55:19.000Z</time>
      </trkpt>
      <trkpt lat="43.70349" lon="3.5245">
        <ele>183.8</ele>
        <time>2023-05-14T10:55:21.000Z</time>
      </trkpt>
      <trkpt lat="43.70338" lon="3.52446">
        <ele>182.8</ele>
        <time>2023-05-14T10:55:23.000Z</time>
      </trkpt>
      <trkpt lat="43.70328" lon="3.52443">
        <ele>181.5</ele>
        <time>2023-05-14T10:55:25.000Z</time>
      </trkpt>
      <trkpt lat="43.70318" lon="3.52438">
        <ele>179.8</ele>
        <time>2023-05-14T10:55:27.000Z</time>
      </trkpt>
      <trkpt lat="43.70308" lon="3.52438">
        <ele>178.8</ele>
        <time>2023-05-14T10:55:29.000Z</time>
      </trkpt>
      <trkpt lat="43.70298" lon="3.52438">
        <ele>177.8</ele>
        <time>2023-05-14T10:55:31.000Z</time>
      </trkpt>
      <trkpt lat="43.70286" lon="3.52438">
        <ele>176.2</ele>
        <time>2023-05-14T10:55:34.000Z</time>
      </trkpt>
      <trkpt lat="43.70277" lon="3.52437">
        <ele>175.3</ele>
        <time>2023-05-14T10:55:36.000Z</time>
      </trkpt>
      <trkpt lat="43.70267" lon="3.52434">
        <ele>174.4</ele>
        <time>2023-05-14T10:55:38.000Z</time>
      </trkpt>
      <trkpt lat="43.70256" lon="3.52433">
        <ele>173.8</ele>
        <time>2023-05-14T10:55:40.000Z</time>
      </trkpt>
      <trkpt lat="43.70245" lon="3.52428">
        <ele>173</ele>
        <time>2023-05-14T10:55:43.000Z</time>
      </trkpt>
      <trkpt lat="43.70235" lon="3.52421">
        <ele>172.9</ele>
        <time>2023-05-14T10:55:46.000Z</time>
      </trkpt>
      <trkpt lat="43.70224" lon="3.52414">
        <ele>172.6</ele>
        <time>2023-05-14T10:55:49.000Z</time>
      </trkpt>
      <trkpt lat="43.70215" lon="3.52409">
        <ele>172.6</ele>
        <time>2023-05-14T10:55:51.000Z</time>
      </trkpt>
      <trkpt lat="43.70206" lon="3.524">
        <ele>172.3</ele>
        <time>2023-05-14T10:55:53.000Z</time>
      </trkpt>
      <trkpt lat="43.70198" lon="3.52392">
        <ele>172</ele>
        <time>2023-05-14T10:55:55.000Z</time>
      </trkpt>
      <trkpt lat="43.70188" lon="3.52383">
        <ele>171.6</ele>
        <time>2023-05-14T10:55:57.000Z</time>
      </trkpt>
      <trkpt lat="43.70179" lon="3.52373">
        <ele>171.3</ele>
        <time>2023-05-14T10:55:59.000Z</time>
      </trkpt>
      <trkpt lat="43.70168" lon="3.52367">
        <ele>171</ele>
        <time>2023-05-14T10:56:01.000Z</time>
      </trkpt>
      <trkpt lat="43.70156" lon="3.52365">
        <ele>170.7</ele>
        <time>2023-05-14T10:56:03.000Z</time>
      </trkpt>
      <trkpt lat="43.70145" lon="3.52367">
        <ele>170.3</ele>
        <time>2023-05-14T10:56:05.000Z</time>
      </trkpt>
      <trkpt lat="43.70134" lon="3.5237">
        <ele>169.8</ele>
        <time>2023-05-14T10:56:07.000Z</time>
      </trkpt>
      <trkpt lat="43.70124" lon="3.52376">
        <ele>169.4</ele>
        <time>2023-05-14T10:56:09.000Z</time>
      </trkpt>
      <trkpt lat="43.70115" lon="3.52382">
        <ele>169</ele>
        <time>2023-05-14T10:56:11.000Z</time>
      </trkpt>
      <trkpt lat="43.70105" lon="3.52389">
        <ele>168.8</ele>
        <time>2023-05-14T10:56:13.000Z</time>
      </trkpt>
      <trkpt lat="43.70095" lon="3.52394">
        <ele>168.2</ele>
        <time>2023-05-14T10:56:15.000Z</time>
      </trkpt>
      <trkpt lat="43.70085" lon="3.52396">
        <ele>167.6</ele>
        <time>2023-05-14T10:56:17.000Z</time>
      </trkpt>
      <trkpt lat="43.70075" lon="3.52393">
        <ele>167.1</ele>
        <time>2023-05-14T10:56:19.000Z</time>
      </trkpt>
      <trkpt lat="43.70065" lon="3.52387">
        <ele>166.6</ele>
        <time>2023-05-14T10:56:21.000Z</time>
      </trkpt>
      <trkpt lat="43.70054" lon="3.5238">
        <ele>166.1</ele>
        <time>2023-05-14T10:56:23.000Z</time>
      </trkpt>
      <trkpt lat="43.70043" lon="3.52374">
        <ele>165.5</ele>
        <time>2023-05-14T10:56:25.000Z</time>
      </trkpt>
      <trkpt lat="43.70028" lon="3.52371">
        <ele>164.4</ele>
        <time>2023-05-14T10:56:27.000Z</time>
      </trkpt>
      <trkpt lat="43.70012" lon="3.52367">
        <ele>163.2</ele>
        <time>2023-05-14T10:56:29.000Z</time>
      </trkpt>
      <trkpt lat="43.69997" lon="3.52361">
        <ele>161.6</ele>
        <time>2023-05-14T10:56:31.000Z</time>
      </trkpt>
      <trkpt lat="43.69984" lon="3.52352">
        <ele>159.5</ele>
        <time>2023-05-14T10:56:33.000Z</time>
      </trkpt>
      <trkpt lat="43.69975" lon="3.52339">
        <ele>157.3</ele>
        <time>2023-05-14T10:56:35.000Z</time>
      </trkpt>
      <trkpt lat="43.69971" lon="3.52328">
        <ele>155.7</ele>
        <time>2023-05-14T10:56:37.000Z</time>
      </trkpt>
      <trkpt lat="43.69965" lon="3.52315">
        <ele>153.2</ele>
        <time>2023-05-14T10:56:42.000Z</time>
      </trkpt>
      <trkpt lat="43.69957" lon="3.52309">
        <ele>151.3</ele>
        <time>2023-05-14T10:56:47.000Z</time>
      </trkpt>
      <trkpt lat="43.69945" lon="3.52302">
        <ele>149.7</ele>
        <time>2023-05-14T10:56:50.000Z</time>
      </trkpt>
      <trkpt lat="43.69936" lon="3.523">
        <ele>148.1</ele>
        <time>2023-05-14T10:56:52.000Z</time>
      </trkpt>
      <trkpt lat="43.69928" lon="3.52312">
        <ele>145.7</ele>
        <time>2023-05-14T10:56:55.000Z</time>
      </trkpt>
      <trkpt lat="43.69923" lon="3.52329">
        <ele>144.5</ele>
        <time>2023-05-14T10:56:58.000Z</time>
      </trkpt>
      <trkpt lat="43.69921" lon="3.52347">
        <ele>144.2</ele>
        <time>2023-05-14T10:57:01.000Z</time>
      </trkpt>
      <trkpt lat="43.69921" lon="3.5236">
        <ele>144.2</ele>
        <time>2023-05-14T10:57:03.000Z</time>
      </trkpt>
      <trkpt lat="43.69922" lon="3.52378">
        <ele>144.2</ele>
        <time>2023-05-14T10:57:06.000Z</time>
      </trkpt>
      <trkpt lat="43.69924" lon="3.52391">
        <ele>144.3</ele>
        <time>2023-05-14T10:57:08.000Z</time>
      </trkpt>
      <trkpt lat="43.69928" lon="3.52407">
        <ele>144.3</ele>
        <time>2023-05-14T10:57:11.000Z</time>
      </trkpt>
      <trkpt lat="43.6993" lon="3.5242">
        <ele>144.3</ele>
        <time>2023-05-14T10:57:13.000Z</time>
      </trkpt>
      <trkpt lat="43.69932" lon="3.52433">
        <ele>144.3</ele>
        <time>2023-05-14T10:57:15.000Z</time>
      </trkpt>
      <trkpt lat="43.6993" lon="3.52446">
        <ele>144.2</ele>
        <time>2023-05-14T10:57:17.000Z</time>
      </trkpt>
      <trkpt lat="43.69928" lon="3.52461">
        <ele>143.8</ele>
        <time>2023-05-14T10:57:19.000Z</time>
      </trkpt>
      <trkpt lat="43.69928" lon="3.52477">
        <ele>143.6</ele>
        <time>2023-05-14T10:57:21.000Z</time>
      </trkpt>
      <trkpt lat="43.69926" lon="3.52491">
        <ele>143.5</ele>
        <time>2023-05-14T10:57:23.000Z</time>
      </trkpt>
      <trkpt lat="43.69924" lon="3.52506">
        <ele>143.3</ele>
        <time>2023-05-14T10:57:25.000Z</time>
      </trkpt>
      <trkpt lat="43.69922" lon="3.52521">
        <ele>143.2</ele>
        <time>2023-05-14T10:57:27.000Z</time>
      </trkpt>
      <trkpt lat="43.69921" lon="3.52534">
        <ele>143.2</ele>
        <time>2023-05-14T10:57:29.000Z</time>
      </trkpt>
      <trkpt lat="43.69919" lon="3.52547">
        <ele>143.4</ele>
        <time>2023-05-14T10:57:31.000Z</time>
      </trkpt>
      <trkpt lat="43.69916" lon="3.5256">
        <ele>143.6</ele>
        <time>2023-05-14T10:57:33.000Z</time>
      </trkpt>
      <trkpt lat="43.69909" lon="3.52575">
        <ele>144</ele>
        <time>2023-05-14T10:57:36.000Z</time>
      </trkpt>
      <trkpt lat="43.69903" lon="3.52589">
        <ele>144.6</ele>
        <time>2023-05-14T10:57:39.000Z</time>
      </trkpt>
      <trkpt lat="43.69905" lon="3.52605">
        <ele>145.4</ele>
        <time>2023-05-14T10:57:42.000Z</time>
      </trkpt>
      <trkpt lat="43.69913" lon="3.5262">
        <ele>146.1</ele>
        <time>2023-05-14T10:57:45.000Z</time>
      </trkpt>
      <trkpt lat="43.69921" lon="3.52632">
        <ele>146.6</ele>
        <time>2023-05-14T10:57:48.000Z</time>
      </trkpt>
      <trkpt lat="43.69931" lon="3.52645">
        <ele>146.9</ele>
        <time>2023-05-14T10:57:51.000Z</time>
      </trkpt>
      <trkpt lat="43.69939" lon="3.52652">
        <ele>147</ele>
        <time>2023-05-14T10:57:53.000Z</time>
      </trkpt>
      <trkpt lat="43.69947" lon="3.52661">
        <ele>146.9</ele>
        <time>2023-05-14T10:57:55.000Z</time>
      </trkpt>
      <trkpt lat="43.69956" lon="3.52672">
        <ele>146.7</ele>
        <time>2023-05-14T10:57:57.000Z</time>
      </trkpt>
      <trkpt lat="43.69963" lon="3.52685">
        <ele>146.6</ele>
        <time>2023-05-14T10:57:59.000Z</time>
      </trkpt>
      <trkpt lat="43.69971" lon="3.52698">
        <ele>146.5</ele>
        <time>2023-05-14T10:58:01.000Z</time>
      </trkpt>
      <trkpt lat="43.69982" lon="3.52709">
        <ele>146.2</ele>
        <time>2023-05-14T10:58:03.000Z</time>
      </trkpt>
      <trkpt lat="43.69993" lon="3.52717">
        <ele>145.9</ele>
        <time>2023-05-14T10:58:05.000Z</time>
      </trkpt>
      <trkpt lat="43.70004" lon="3.52724">
        <ele>145.4</ele>
        <time>2023-05-14T10:58:07.000Z</time>
      </trkpt>
      <trkpt lat="43.70013" lon="3.52731">
        <ele>144.9</ele>
        <time>2023-05-14T10:58:09.000Z</time>
      </trkpt>
      <trkpt lat="43.70021" lon="3.52744">
        <ele>144.2</ele>
        <time>2023-05-14T10:58:12.000Z</time>
      </trkpt>
      <trkpt lat="43.7002" lon="3.52761">
        <ele>143</ele>
        <time>2023-05-14T10:58:15.000Z</time>
      </trkpt>
      <trkpt lat="43.70025" lon="3.52778">
        <ele>142</ele>
        <time>2023-05-14T10:58:18.000Z</time>
      </trkpt>
      <trkpt lat="43.70031" lon="3.52788">
        <ele>141.3</ele>
        <time>2023-05-14T10:58:20.000Z</time>
      </trkpt>
      <trkpt lat="43.70035" lon="3.528">
        <ele>140.6</ele>
        <time>2023-05-14T10:58:23.000Z</time>
      </trkpt>
      <trkpt lat="43.70025" lon="3.52812">
        <ele>139.8</ele>
        <time>2023-05-14T10:58:26.000Z</time>
      </trkpt>
      <trkpt lat="43.70018" lon="3.52822">
        <ele>139.2</ele>
        <time>2023-05-14T10:58:28.000Z</time>
      </trkpt>
      <trkpt lat="43.70017" lon="3.52837">
        <ele>138.7</ele>
        <time>2023-05-14T10:58:30.000Z</time>
      </trkpt>
      <trkpt lat="43.70021" lon="3.52851">
        <ele>138.4</ele>
        <time>2023-05-14T10:58:32.000Z</time>
      </trkpt>
      <trkpt lat="43.70027" lon="3.52866">
        <ele>138.2</ele>
        <time>2023-05-14T10:58:35.000Z</time>
      </trkpt>
      <trkpt lat="43.70032" lon="3.5288">
        <ele>138.1</ele>
        <time>2023-05-14T10:58:38.000Z</time>
      </trkpt>
      <trkpt lat="43.70038" lon="3.52895">
        <ele>138.1</ele>
        <time>2023-05-14T10:58:41.000Z</time>
      </trkpt>
      <trkpt lat="43.70044" lon="3.52909">
        <ele>138.3</ele>
        <time>2023-05-14T10:58:44.000Z</time>
      </trkpt>
      <trkpt lat="43.7005" lon="3.52921">
        <ele>138.5</ele>
        <time>2023-05-14T10:58:47.000Z</time>
      </trkpt>
      <trkpt lat="43.70054" lon="3.52933">
        <ele>138.9</ele>
        <time>2023-05-14T10:58:50.000Z</time>
      </trkpt>
      <trkpt lat="43.70061" lon="3.52946">
        <ele>140.1</ele>
        <time>2023-05-14T10:58:54.000Z</time>
      </trkpt>
      <trkpt lat="43.7007" lon="3.52957">
        <ele>141.8</ele>
        <time>2023-05-14T10:58:58.000Z</time>
      </trkpt>
      <trkpt lat="43.70081" lon="3.52958">
        <ele>143.9</ele>
        <time>2023-05-14T10:59:02.000Z</time>
      </trkpt>
      <trkpt lat="43.70092" lon="3.52957">
        <ele>145.6</ele>
        <time>2023-05-14T10:59:06.000Z</time>
      </trkpt>
      <trkpt lat="43.70101" lon="3.52958">
        <ele>146.8</ele>
        <time>2023-05-14T10:59:09.000Z</time>
      </trkpt>
      <trkpt lat="43.70107" lon="3.52971">
        <ele>148.1</ele>
        <time>2023-05-14T10:59:13.000Z</time>
      </trkpt>
      <trkpt lat="43.70104" lon="3.52983">
        <ele>149.1</ele>
        <time>2023-05-14T10:59:16.000Z</time>
      </trkpt>
      <trkpt lat="43.70098" lon="3.52993">
        <ele>150</ele>
        <time>2023-05-14T10:59:19.000Z</time>
      </trkpt>
      <trkpt lat="43.70091" lon="3.53002">
        <ele>150.9</ele>
        <time>2023-05-14T10:59:22.000Z</time>
      </trkpt>
      <trkpt lat="43.70085" lon="3.53011">
        <ele>151.7</ele>
        <time>2023-05-14T10:59:25.000Z</time>
      </trkpt>
      <trkpt lat="43.70078" lon="3.5302">
        <ele>152.5</ele>
        <time>2023-05-14T10:59:28.000Z</time>
      </trkpt>
      <trkpt lat="43.70073" lon="3.53031">
        <ele>153.1</ele>
        <time>2023-05-14T10:59:31.000Z</time>
      </trkpt>
      <trkpt lat="43.7007" lon="3.53044">
        <ele>153.5</ele>
        <time>2023-05-14T10:59:34.000Z</time>
      </trkpt>
      <trkpt lat="43.70069" lon="3.53057">
        <ele>154.1</ele>
        <time>2023-05-14T10:59:37.000Z</time>
      </trkpt>
      <trkpt lat="43.70069" lon="3.53071">
        <ele>154.6</ele>
        <time>2023-05-14T10:59:40.000Z</time>
      </trkpt>
      <trkpt lat="43.70068" lon="3.53089">
        <ele>155.2</ele>
        <time>2023-05-14T10:59:43.000Z</time>
      </trkpt>
      <trkpt lat="43.70066" lon="3.53103">
        <ele>155.1</ele>
        <time>2023-05-14T10:59:45.000Z</time>
      </trkpt>
      <trkpt lat="43.70064" lon="3.53117">
        <ele>155</ele>
        <time>2023-05-14T10:59:47.000Z</time>
      </trkpt>
      <trkpt lat="43.70061" lon="3.53132">
        <ele>154.9</ele>
        <time>2023-05-14T10:59:49.000Z</time>
      </trkpt>
      <trkpt lat="43.70059" lon="3.53148">
        <ele>154.8</ele>
        <time>2023-05-14T10:59:51.000Z</time>
      </trkpt>
      <trkpt lat="43.70057" lon="3.53165">
        <ele>154.7</ele>
        <time>2023-05-14T10:59:53.000Z</time>
      </trkpt>
      <trkpt lat="43.70054" lon="3.53182">
        <ele>154.6</ele>
        <time>2023-05-14T10:59:55.000Z</time>
      </trkpt>
      <trkpt lat="43.70052" lon="3.532">
        <ele>154.3</ele>
        <time>2023-05-14T10:59:57.000Z</time>
      </trkpt>
      <trkpt lat="43.7005" lon="3.53218">
        <ele>154.1</ele>
        <time>2023-05-14T10:59:59.000Z</time>
      </trkpt>
      <trkpt lat="43.70048" lon="3.53236">
        <ele>153.7</ele>
        <time>2023-05-14T11:00:01.000Z</time>
      </trkpt>
      <trkpt lat="43.70047" lon="3.53255">
        <ele>153.4</ele>
        <time>2023-05-14T11:00:03.000Z</time>
      </trkpt>
      <trkpt lat="43.70045" lon="3.53274">
        <ele>153.1</ele>
        <time>2023-05-14T11:00:05.000Z</time>
      </trkpt>
      <trkpt lat="43.70044" lon="3.53293">
        <ele>152.8</ele>
        <time>2023-05-14T11:00:07.000Z</time>
      </trkpt>
      <trkpt lat="43.70043" lon="3.53311">
        <ele>152.4</ele>
        <time>2023-05-14T11:00:09.000Z</time>
      </trkpt>
      <trkpt lat="43.70043" lon="3.5333">
        <ele>152.2</ele>
        <time>2023-05-14T11:00:11.000Z</time>
      </trkpt>
      <trkpt lat="43.70045" lon="3.53347">
        <ele>152</ele>
        <time>2023-05-14T11:00:13.000Z</time>
      </trkpt>
      <trkpt lat="43.70046" lon="3.53363">
        <ele>152</ele>
        <time>2023-05-14T11:00:15.000Z</time>
      </trkpt>
      <trkpt lat="43.70048" lon="3.53377">
        <ele>152</ele>
        <time>2023-05-14T11:00:17.000Z</time>
      </trkpt>
      <trkpt lat="43.7005" lon="3.5339">
        <ele>152.1</ele>
        <time>2023-05-14T11:00:19.000Z</time>
      </trkpt>
      <trkpt lat="43.70052" lon="3.53403">
        <ele>152.2</ele>
        <time>2023-05-14T11:00:21.000Z</time>
      </trkpt>
      <trkpt lat="43.70055" lon="3.53415">
        <ele>152.2</ele>
        <time>2023-05-14T11:00:23.000Z</time>
      </trkpt>
      <trkpt lat="43.70058" lon="3.53427">
        <ele>152.4</ele>
        <time>2023-05-14T11:00:25.000Z</time>
      </trkpt>
      <trkpt lat="43.7006" lon="3.53439">
        <ele>152.5</ele>
        <time>2023-05-14T11:00:27.000Z</time>
      </trkpt>
      <trkpt lat="43.70063" lon="3.53452">
        <ele>152.7</ele>
        <time>2023-05-14T11:00:29.000Z</time>
      </trkpt>
      <trkpt lat="43.70065" lon="3.53466">
        <ele>152.8</ele>
        <time>2023-05-14T11:00:31.000Z</time>
      </trkpt>
      <trkpt lat="43.70067" lon="3.53481">
        <ele>152.7</ele>
        <time>2023-05-14T11:00:33.000Z</time>
      </trkpt>
      <trkpt lat="43.70069" lon="3.53496">
        <ele>152.8</ele>
        <time>2023-05-14T11:00:35.000Z</time>
      </trkpt>
      <trkpt lat="43.70072" lon="3.53511">
        <ele>152.7</ele>
        <time>2023-05-14T11:00:37.000Z</time>
      </trkpt>
      <trkpt lat="43.70074" lon="3.53527">
        <ele>152.7</ele>
        <time>2023-05-14T11:00:39.000Z</time>
      </trkpt>
      <trkpt lat="43.70077" lon="3.53543">
        <ele>152.6</ele>
        <time>2023-05-14T11:00:41.000Z</time>
      </trkpt>
      <trkpt lat="43.70079" lon="3.53559">
        <ele>152.4</ele>
        <time>2023-05-14T11:00:43.000Z</time>
      </trkpt>
      <trkpt lat="43.70082" lon="3.53575">
        <ele>152.2</ele>
        <time>2023-05-14T11:00:45.000Z</time>
      </trkpt>
      <trkpt lat="43.70085" lon="3.53591">
        <ele>151.8</ele>
        <time>2023-05-14T11:00:47.000Z</time>
      </trkpt>
      <trkpt lat="43.70088" lon="3.53608">
        <ele>151.4</ele>
        <time>2023-05-14T11:00:49.000Z</time>
      </trkpt>
      <trkpt lat="43.70092" lon="3.53627">
        <ele>151</ele>
        <time>2023-05-14T11:00:51.000Z</time>
      </trkpt>
      <trkpt lat="43.70095" lon="3.53646">
        <ele>150.4</ele>
        <time>2023-05-14T11:00:53.000Z</time>
      </trkpt>
      <trkpt lat="43.701" lon="3.53665">
        <ele>149.9</ele>
        <time>2023-05-14T11:00:55.000Z</time>
      </trkpt>
      <trkpt lat="43.70106" lon="3.53685">
        <ele>149.3</ele>
        <time>2023-05-14T11:00:57.000Z</time>
      </trkpt>
      <trkpt lat="43.70112" lon="3.53704">
        <ele>148.8</ele>
        <time>2023-05-14T11:00:59.000Z</time>
      </trkpt>
      <trkpt lat="43.70119" lon="3.53723">
        <ele>148.1</ele>
        <time>2023-05-14T11:01:01.000Z</time>
      </trkpt>
      <trkpt lat="43.70123" lon="3.53744">
        <ele>147.3</ele>
        <time>2023-05-14T11:01:03.000Z</time>
      </trkpt>
      <trkpt lat="43.70126" lon="3.53766">
        <ele>146.6</ele>
        <time>2023-05-14T11:01:05.000Z</time>
      </trkpt>
      <trkpt lat="43.70128" lon="3.53789">
        <ele>146.1</ele>
        <time>2023-05-14T11:01:07.000Z</time>
      </trkpt>
      <trkpt lat="43.70132" lon="3.53812">
        <ele>145.4</ele>
        <time>2023-05-14T11:01:09.000Z</time>
      </trkpt>
      <trkpt lat="43.70135" lon="3.53835">
        <ele>144.8</ele>
        <time>2023-05-14T11:01:11.000Z</time>
      </trkpt>
      <trkpt lat="43.70137" lon="3.53858">
        <ele>144.2</ele>
        <time>2023-05-14T11:01:13.000Z</time>
      </trkpt>
      <trkpt lat="43.70139" lon="3.5388">
        <ele>143.7</ele>
        <time>2023-05-14T11:01:15.000Z</time>
      </trkpt>
      <trkpt lat="43.7014" lon="3.53902">
        <ele>143.1</ele>
        <time>2023-05-14T11:01:17.000Z</time>
      </trkpt>
      <trkpt lat="43.70141" lon="3.53923">
        <ele>142.4</ele>
        <time>2023-05-14T11:01:19.000Z</time>
      </trkpt>
      <trkpt lat="43.70142" lon="3.53944">
        <ele>141.9</ele>
        <time>2023-05-14T11:01:21.000Z</time>
      </trkpt>
      <trkpt lat="43.70144" lon="3.53965">
        <ele>141.5</ele>
        <time>2023-05-14T11:01:23.000Z</time>
      </trkpt>
      <trkpt lat="43.70147" lon="3.53985">
        <ele>141.2</ele>
        <time>2023-05-14T11:01:25.000Z</time>
      </trkpt>
      <trkpt lat="43.70151" lon="3.54004">
        <ele>140.9</ele>
        <time>2023-05-14T11:01:27.000Z</time>
      </trkpt>
      <trkpt lat="43.70155" lon="3.54023">
        <ele>140.6</ele>
        <time>2023-05-14T11:01:29.000Z</time>
      </trkpt>
      <trkpt lat="43.70157" lon="3.54041">
        <ele>140.3</ele>
        <time>2023-05-14T11:01:31.000Z</time>
      </trkpt>
      <trkpt lat="43.70157" lon="3.54059">
        <ele>139.9</ele>
        <time>2023-05-14T11:01:33.000Z</time>
      </trkpt>
      <trkpt lat="43.70156" lon="3.54076">
        <ele>139.8</ele>
        <time>2023-05-14T11:01:35.000Z</time>
      </trkpt>
      <trkpt lat="43.70155" lon="3.54092">
        <ele>139.6</ele>
        <time>2023-05-14T11:01:37.000Z</time>
      </trkpt>
      <trkpt lat="43.70155" lon="3.54107">
        <ele>139.7</ele>
        <time>2023-05-14T11:01:39.000Z</time>
      </trkpt>
      <trkpt lat="43.70155" lon="3.54121">
        <ele>139.9</ele>
        <time>2023-05-14T11:01:41.000Z</time>
      </trkpt>
      <trkpt lat="43.70156" lon="3.54134">
        <ele>140.1</ele>
        <time>2023-05-14T11:01:43.000Z</time>
      </trkpt>
      <trkpt lat="43.70157" lon="3.54151">
        <ele>140.5</ele>
        <time>2023-05-14T11:01:46.000Z</time>
      </trkpt>
      <trkpt lat="43.70158" lon="3.54167">
        <ele>140.8</ele>
        <time>2023-05-14T11:01:49.000Z</time>
      </trkpt>
      <trkpt lat="43.7016" lon="3.54185">
        <ele>140.9</ele>
        <time>2023-05-14T11:01:52.000Z</time>
      </trkpt>
      <trkpt lat="43.7016" lon="3.54201">
        <ele>140.9</ele>
        <time>2023-05-14T11:01:54.000Z</time>
      </trkpt>
      <trkpt lat="43.70161" lon="3.54217">
        <ele>140.9</ele>
        <time>2023-05-14T11:01:56.000Z</time>
      </trkpt>
      <trkpt lat="43.70161" lon="3.54233">
        <ele>140.9</ele>
        <time>2023-05-14T11:01:58.000Z</time>
      </trkpt>
      <trkpt lat="43.70161" lon="3.54249">
        <ele>140.8</ele>
        <time>2023-05-14T11:02:00.000Z</time>
      </trkpt>
      <trkpt lat="43.70161" lon="3.54265">
        <ele>140.8</ele>
        <time>2023-05-14T11:02:02.000Z</time>
      </trkpt>
      <trkpt lat="43.70161" lon="3.5428">
        <ele>140.7</ele>
        <time>2023-05-14T11:02:04.000Z</time>
      </trkpt>
      <trkpt lat="43.70161" lon="3.54298">
        <ele>140.5</ele>
        <time>2023-05-14T11:02:06.000Z</time>
      </trkpt>
      <trkpt lat="43.70159" lon="3.54315">
        <ele>140.4</ele>
        <time>2023-05-14T11:02:08.000Z</time>
      </trkpt>
      <trkpt lat="43.70158" lon="3.54334">
        <ele>140.3</ele>
        <time>2023-05-14T11:02:10.000Z</time>
      </trkpt>
      <trkpt lat="43.7016" lon="3.54353">
        <ele>140</ele>
        <time>2023-05-14T11:02:12.000Z</time>
      </trkpt>
      <trkpt lat="43.70164" lon="3.54373">
        <ele>139.7</ele>
        <time>2023-05-14T11:02:14.000Z</time>
      </trkpt>
      <trkpt lat="43.70169" lon="3.54394">
        <ele>139.1</ele>
        <time>2023-05-14T11:02:16.000Z</time>
      </trkpt>
      <trkpt lat="43.70171" lon="3.54417">
        <ele>138.3</ele>
        <time>2023-05-14T11:02:18.000Z</time>
      </trkpt>
      <trkpt lat="43.70171" lon="3.54429">
        <ele>137.8</ele>
        <time>2023-05-14T11:02:19.000Z</time>
      </trkpt>
      <trkpt lat="43.70171" lon="3.54442">
        <ele>137.3</ele>
        <time>2023-05-14T11:02:20.000Z</time>
      </trkpt>
      <trkpt lat="43.7017" lon="3.54455">
        <ele>136.6</ele>
        <time>2023-05-14T11:02:21.000Z</time>
      </trkpt>
      <trkpt lat="43.70167" lon="3.54477">
        <ele>135.3</ele>
        <time>2023-05-14T11:02:23.000Z</time>
      </trkpt>
      <trkpt lat="43.70159" lon="3.545">
        <ele>133.5</ele>
        <time>2023-05-14T11:02:25.000Z</time>
      </trkpt>
      <trkpt lat="43.70156" lon="3.54511">
        <ele>132.6</ele>
        <time>2023-05-14T11:02:26.000Z</time>
      </trkpt>
      <trkpt lat="43.70153" lon="3.54523">
        <ele>131.9</ele>
        <time>2023-05-14T11:02:27.000Z</time>
      </trkpt>
      <trkpt lat="43.70151" lon="3.54536">
        <ele>131.1</ele>
        <time>2023-05-14T11:02:28.000Z</time>
      </trkpt>
      <trkpt lat="43.7015" lon="3.5455">
        <ele>130.1</ele>
        <time>2023-05-14T11:02:29.000Z</time>
      </trkpt>
      <trkpt lat="43.70151" lon="3.54564">
        <ele>129.2</ele>
        <time>2023-05-14T11:02:30.000Z</time>
      </trkpt>
      <trkpt lat="43.70153" lon="3.54578">
        <ele>128.2</ele>
        <time>2023-05-14T11:02:31.000Z</time>
      </trkpt>
      <trkpt lat="43.70155" lon="3.54592">
        <ele>127.1</ele>
        <time>2023-05-14T11:02:32.000Z</time>
      </trkpt>
      <trkpt lat="43.70157" lon="3.54607">
        <ele>126.2</ele>
        <time>2023-05-14T11:02:33.000Z</time>
      </trkpt>
      <trkpt lat="43.70159" lon="3.54621">
        <ele>125.3</ele>
        <time>2023-05-14T11:02:34.000Z</time>
      </trkpt>
      <trkpt lat="43.70161" lon="3.54636">
        <ele>124.5</ele>
        <time>2023-05-14T11:02:35.000Z</time>
      </trkpt>
      <trkpt lat="43.70163" lon="3.54651">
        <ele>123.7</ele>
        <time>2023-05-14T11:02:36.000Z</time>
      </trkpt>
      <trkpt lat="43.70164" lon="3.54666">
        <ele>123.1</ele>
        <time>2023-05-14T11:02:37.000Z</time>
      </trkpt>
      <trkpt lat="43.70165" lon="3.54681">
        <ele>122.5</ele>
        <time>2023-05-14T11:02:38.000Z</time>
      </trkpt>
      <trkpt lat="43.70166" lon="3.54696">
        <ele>122</ele>
        <time>2023-05-14T11:02:39.000Z</time>
      </trkpt>
      <trkpt lat="43.70167" lon="3.54711">
        <ele>121.4</ele>
        <time>2023-05-14T11:02:40.000Z</time>
      </trkpt>
      <trkpt lat="43.70168" lon="3.54726">
        <ele>120.8</ele>
        <time>2023-05-14T11:02:41.000Z</time>
      </trkpt>
      <trkpt lat="43.70169" lon="3.5474">
        <ele>120.2</ele>
        <time>2023-05-14T11:02:42.000Z</time>
      </trkpt>
      <trkpt lat="43.70169" lon="3.54753">
        <ele>119.7</ele>
        <time>2023-05-14T11:02:43.000Z</time>
      </trkpt>
      <trkpt lat="43.7017" lon="3.54777">
        <ele>119</ele>
        <time>2023-05-14T11:02:45.000Z</time>
      </trkpt>
      <trkpt lat="43.70167" lon="3.54801">
        <ele>118.4</ele>
        <time>2023-05-14T11:02:47.000Z</time>
      </trkpt>
      <trkpt lat="43.70163" lon="3.54824">
        <ele>117.6</ele>
        <time>2023-05-14T11:02:49.000Z</time>
      </trkpt>
      <trkpt lat="43.70157" lon="3.54847">
        <ele>117.1</ele>
        <time>2023-05-14T11:02:51.000Z</time>
      </trkpt>
      <trkpt lat="43.70152" lon="3.54869">
        <ele>116.6</ele>
        <time>2023-05-14T11:02:53.000Z</time>
      </trkpt>
      <trkpt lat="43.70147" lon="3.54889">
        <ele>116</ele>
        <time>2023-05-14T11:02:55.000Z</time>
      </trkpt>
      <trkpt lat="43.70143" lon="3.54907">
        <ele>115.5</ele>
        <time>2023-05-14T11:02:57.000Z</time>
      </trkpt>
      <trkpt lat="43.70137" lon="3.54921">
        <ele>114.9</ele>
        <time>2023-05-14T11:02:59.000Z</time>
      </trkpt>
      <trkpt lat="43.70135" lon="3.54934">
        <ele>114.5</ele>
        <time>2023-05-14T11:03:01.000Z</time>
      </trkpt>
      <trkpt lat="43.70136" lon="3.5495">
        <ele>114</ele>
        <time>2023-05-14T11:03:03.000Z</time>
      </trkpt>
      <trkpt lat="43.70138" lon="3.54965">
        <ele>113.6</ele>
        <time>2023-05-14T11:03:05.000Z</time>
      </trkpt>
      <trkpt lat="43.70139" lon="3.54981">
        <ele>113.1</ele>
        <time>2023-05-14T11:03:07.000Z</time>
      </trkpt>
      <trkpt lat="43.70142" lon="3.54996">
        <ele>112.9</ele>
        <time>2023-05-14T11:03:09.000Z</time>
      </trkpt>
      <trkpt lat="43.70145" lon="3.55012">
        <ele>112.6</ele>
        <time>2023-05-14T11:03:11.000Z</time>
      </trkpt>
      <trkpt lat="43.70149" lon="3.55029">
        <ele>112.3</ele>
        <time>2023-05-14T11:03:13.000Z</time>
      </trkpt>
      <trkpt lat="43.70155" lon="3.55044">
        <ele>112</ele>
        <time>2023-05-14T11:03:15.000Z</time>
      </trkpt>
      <trkpt lat="43.70162" lon="3.55059">
        <ele>111.7</ele>
        <time>2023-05-14T11:03:17.000Z</time>
      </trkpt>
      <trkpt lat="43.70168" lon="3.55074">
        <ele>111.4</ele>
        <time>2023-05-14T11:03:19.000Z</time>
      </trkpt>
      <trkpt lat="43.70174" lon="3.55088">
        <ele>111</ele>
        <time>2023-05-14T11:03:21.000Z</time>
      </trkpt>
      <trkpt lat="43.70181" lon="3.55103">
        <ele>110.7</ele>
        <time>2023-05-14T11:03:23.000Z</time>
      </trkpt>
      <trkpt lat="43.70187" lon="3.55117">
        <ele>110.3</ele>
        <time>2023-05-14T11:03:25.000Z</time>
      </trkpt>
      <trkpt lat="43.70195" lon="3.55133">
        <ele>110</ele>
        <time>2023-05-14T11:03:27.000Z</time>
      </trkpt>
      <trkpt lat="43.70204" lon="3.5515">
        <ele>109.5</ele>
        <time>2023-05-14T11:03:29.000Z</time>
      </trkpt>
      <trkpt lat="43.70211" lon="3.55167">
        <ele>108.8</ele>
        <time>2023-05-14T11:03:31.000Z</time>
      </trkpt>
      <trkpt lat="43.70218" lon="3.55186">
        <ele>108.1</ele>
        <time>2023-05-14T11:03:33.000Z</time>
      </trkpt>
      <trkpt lat="43.70224" lon="3.55206">
        <ele>107.2</ele>
        <time>2023-05-14T11:03:35.000Z</time>
      </trkpt>
      <trkpt lat="43.70229" lon="3.55225">
        <ele>106.4</ele>
        <time>2023-05-14T11:03:37.000Z</time>
      </trkpt>
      <trkpt lat="43.70232" lon="3.55244">
        <ele>105.5</ele>
        <time>2023-05-14T11:03:39.000Z</time>
      </trkpt>
      <trkpt lat="43.70234" lon="3.55261">
        <ele>104.8</ele>
        <time>2023-05-14T11:03:41.000Z</time>
      </trkpt>
      <trkpt lat="43.70242" lon="3.55274">
        <ele>103.9</ele>
        <time>2023-05-14T11:03:43.000Z</time>
      </trkpt>
      <trkpt lat="43.70255" lon="3.55284">
        <ele>102.9</ele>
        <time>2023-05-14T11:03:45.000Z</time>
      </trkpt>
      <trkpt lat="43.70268" lon="3.55293">
        <ele>102</ele>
        <time>2023-05-14T11:03:47.000Z</time>
      </trkpt>
      <trkpt lat="43.7028" lon="3.55302">
        <ele>101.1</ele>
        <time>2023-05-14T11:03:49.000Z</time>
      </trkpt>
      <trkpt lat="43.70293" lon="3.55311">
        <ele>100.3</ele>
        <time>2023-05-14T11:03:51.000Z</time>
      </trkpt>
      <trkpt lat="43.70305" lon="3.55319">
        <ele>99.9</ele>
        <time>2023-05-14T11:03:53.000Z</time>
      </trkpt>
      <trkpt lat="43.70316" lon="3.55328">
        <ele>99.6</ele>
        <time>2023-05-14T11:03:55.000Z</time>
      </trkpt>
      <trkpt lat="43.70328" lon="3.55336">
        <ele>99.3</ele>
        <time>2023-05-14T11:03:57.000Z</time>
      </trkpt>
      <trkpt lat="43.70338" lon="3.55344">
        <ele>99.1</ele>
        <time>2023-05-14T11:03:59.000Z</time>
      </trkpt>
      <trkpt lat="43.70349" lon="3.55351">
        <ele>98.8</ele>
        <time>2023-05-14T11:04:01.000Z</time>
      </trkpt>
      <trkpt lat="43.70358" lon="3.55359">
        <ele>98.6</ele>
        <time>2023-05-14T11:04:03.000Z</time>
      </trkpt>
      <trkpt lat="43.70367" lon="3.55367">
        <ele>98.6</ele>
        <time>2023-05-14T11:04:05.000Z</time>
      </trkpt>
      <trkpt lat="43.70375" lon="3.55375">
        <ele>98.5</ele>
        <time>2023-05-14T11:04:07.000Z</time>
      </trkpt>
      <trkpt lat="43.70383" lon="3.55384">
        <ele>98.5</ele>
        <time>2023-05-14T11:04:09.000Z</time>
      </trkpt>
      <trkpt lat="43.70391" lon="3.55392">
        <ele>98.4</ele>
        <time>2023-05-14T11:04:11.000Z</time>
      </trkpt>
      <trkpt lat="43.70399" lon="3.55401">
        <ele>98.5</ele>
        <time>2023-05-14T11:04:13.000Z</time>
      </trkpt>
      <trkpt lat="43.70407" lon="3.5541">
        <ele>98.4</ele>
        <time>2023-05-14T11:04:15.000Z</time>
      </trkpt>
      <trkpt lat="43.70416" lon="3.55419">
        <ele>98.3</ele>
        <time>2023-05-14T11:04:17.000Z</time>
      </trkpt>
      <trkpt lat="43.70426" lon="3.5543">
        <ele>98.1</ele>
        <time>2023-05-14T11:04:19.000Z</time>
      </trkpt>
      <trkpt lat="43.70436" lon="3.55441">
        <ele>97.8</ele>
        <time>2023-05-14T11:04:21.000Z</time>
      </trkpt>
      <trkpt lat="43.70447" lon="3.55453">
        <ele>97.5</ele>
        <time>2023-05-14T11:04:23.000Z</time>
      </trkpt>
      <trkpt lat="43.70457" lon="3.55465">
        <ele>97.1</ele>
        <time>2023-05-14T11:04:25.000Z</time>
      </trkpt>
      <trkpt lat="43.70468" lon="3.55476">
        <ele>96.4</ele>
        <time>2023-05-14T11:04:27.000Z</time>
      </trkpt>
      <trkpt lat="43.7048" lon="3.55487">
        <ele>95.7</ele>
        <time>2023-05-14T11:04:29.000Z</time>
      </trkpt>
      <trkpt lat="43.70491" lon="3.55498">
        <ele>94.8</ele>
        <time>2023-05-14T11:04:31.000Z</time>
      </trkpt>
      <trkpt lat="43.70504" lon="3.5551">
        <ele>93.7</ele>
        <time>2023-05-14T11:04:33.000Z</time>
      </trkpt>
      <trkpt lat="43.70516" lon="3.55523">
        <ele>92.3</ele>
        <time>2023-05-14T11:04:35.000Z</time>
      </trkpt>
      <trkpt lat="43.7053" lon="3.55534">
        <ele>91.2</ele>
        <time>2023-05-14T11:04:37.000Z</time>
      </trkpt>
      <trkpt lat="43.70545" lon="3.55542">
        <ele>90.2</ele>
        <time>2023-05-14T11:04:39.000Z</time>
      </trkpt>
      <trkpt lat="43.70562" lon="3.55546">
        <ele>89.3</ele>
        <time>2023-05-14T11:04:41.000Z</time>
      </trkpt>
      <trkpt lat="43.70579" lon="3.55545">
        <ele>88.4</ele>
        <time>2023-05-14T11:04:43.000Z</time>
      </trkpt>
      <trkpt lat="43.70597" lon="3.55544">
        <ele>87.3</ele>
        <time>2023-05-14T11:04:45.000Z</time>
      </trkpt>
      <trkpt lat="43.70606" lon="3.55543">
        <ele>86.8</ele>
        <time>2023-05-14T11:04:46.000Z</time>
      </trkpt>
      <trkpt lat="43.70615" lon="3.55543">
        <ele>86.2</ele>
        <time>2023-05-14T11:04:47.000Z</time>
      </trkpt>
      <trkpt lat="43.70624" lon="3.55545">
        <ele>85.5</ele>
        <time>2023-05-14T11:04:48.000Z</time>
      </trkpt>
      <trkpt lat="43.70633" lon="3.55551">
        <ele>84.7</ele>
        <time>2023-05-14T11:04:49.000Z</time>
      </trkpt>
      <trkpt lat="43.70641" lon="3.55558">
        <ele>83.9</ele>
        <time>2023-05-14T11:04:50.000Z</time>
      </trkpt>
      <trkpt lat="43.70649" lon="3.55565">
        <ele>83.3</ele>
        <time>2023-05-14T11:04:51.000Z</time>
      </trkpt>
      <trkpt lat="43.70658" lon="3.55572">
        <ele>82.8</ele>
        <time>2023-05-14T11:04:52.000Z</time>
      </trkpt>
      <trkpt lat="43.70666" lon="3.55578">
        <ele>82.2</ele>
        <time>2023-05-14T11:04:53.000Z</time>
      </trkpt>
      <trkpt lat="43.70674" lon="3.55584">
        <ele>81.6</ele>
        <time>2023-05-14T11:04:54.000Z</time>
      </trkpt>
      <trkpt lat="43.70682" lon="3.5559">
        <ele>81</ele>
        <time>2023-05-14T11:04:55.000Z</time>
      </trkpt>
      <trkpt lat="43.70691" lon="3.55596">
        <ele>80.5</ele>
        <time>2023-05-14T11:04:56.000Z</time>
      </trkpt>
      <trkpt lat="43.70699" lon="3.55602">
        <ele>80.1</ele>
        <time>2023-05-14T11:04:57.000Z</time>
      </trkpt>
      <trkpt lat="43.70707" lon="3.55607">
        <ele>79.7</ele>
        <time>2023-05-14T11:04:58.000Z</time>
      </trkpt>
      <trkpt lat="43.70715" lon="3.55614">
        <ele>79.3</ele>
        <time>2023-05-14T11:04:59.000Z</time>
      </trkpt>
      <trkpt lat="43.70723" lon="3.55621">
        <ele>79</ele>
        <time>2023-05-14T11:05:00.000Z</time>
      </trkpt>
      <trkpt lat="43.70735" lon="3.55638">
        <ele>78.4</ele>
        <time>2023-05-14T11:05:02.000Z</time>
      </trkpt>
      <trkpt lat="43.70743" lon="3.55657">
        <ele>78.2</ele>
        <time>2023-05-14T11:05:04.000Z</time>
      </trkpt>
      <trkpt lat="43.70751" lon="3.55674">
        <ele>78.1</ele>
        <time>2023-05-14T11:05:06.000Z</time>
      </trkpt>
      <trkpt lat="43.7076" lon="3.55687">
        <ele>78</ele>
        <time>2023-05-14T11:05:08.000Z</time>
      </trkpt>
      <trkpt lat="43.70769" lon="3.55694">
        <ele>78</ele>
        <time>2023-05-14T11:05:10.000Z</time>
      </trkpt>
      <trkpt lat="43.70781" lon="3.55696">
        <ele>78</ele>
        <time>2023-05-14T11:05:13.000Z</time>
      </trkpt>
      <trkpt lat="43.70792" lon="3.55697">
        <ele>77.9</ele>
        <time>2023-05-14T11:05:16.000Z</time>
      </trkpt>
      <trkpt lat="43.70798" lon="3.55711">
        <ele>77.8</ele>
        <time>2023-05-14T11:05:19.000Z</time>
      </trkpt>
      <trkpt lat="43.70804" lon="3.55728">
        <ele>77.8</ele>
        <time>2023-05-14T11:05:22.000Z</time>
      </trkpt>
      <trkpt lat="43.70809" lon="3.5574">
        <ele>77.7</ele>
        <time>2023-05-14T11:05:24.000Z</time>
      </trkpt>
      <trkpt lat="43.70814" lon="3.55753">
        <ele>77.6</ele>
        <time>2023-05-14T11:05:26.000Z</time>
      </trkpt>
      <trkpt lat="43.70818" lon="3.55767">
        <ele>77.5</ele>
        <time>2023-05-14T11:05:28.000Z</time>
      </trkpt>
      <trkpt lat="43.70818" lon="3.5578">
        <ele>77.4</ele>
        <time>2023-05-14T11:05:30.000Z</time>
      </trkpt>
      <trkpt lat="43.70811" lon="3.55794">
        <ele>77.1</ele>
        <time>2023-05-14T11:05:33.000Z</time>
      </trkpt>
      <trkpt lat="43.70805" lon="3.55802">
        <ele>76.9</ele>
        <time>2023-05-14T11:05:36.000Z</time>
      </trkpt>
      <trkpt lat="43.70795" lon="3.55805">
        <ele>76.6</ele>
        <time>2023-05-14T11:05:40.000Z</time>
      </trkpt>
      <trkpt lat="43.70785" lon="3.55806">
        <ele>75.9</ele>
        <time>2023-05-14T11:05:46.000Z</time>
      </trkpt>
      <trkpt lat="43.70776" lon="3.55798">
        <ele>74.8</ele>
        <time>2023-05-14T11:05:51.000Z</time>
      </trkpt>
      <trkpt lat="43.70769" lon="3.5579">
        <ele>72.8</ele>
        <time>2023-05-14T11:05:55.000Z</time>
      </trkpt>
      <trkpt lat="43.70772" lon="3.55774">
        <ele>70.9</ele>
        <time>2023-05-14T11:05:59.000Z</time>
      </trkpt>
      <trkpt lat="43.7077" lon="3.55761">
        <ele>69.9</ele>
        <time>2023-05-14T11:06:03.000Z</time>
      </trkpt>
      <trkpt lat="43.7077" lon="3.5576">
        <ele>69.6</ele>
        <time>2023-05-14T11:06:05.000Z</time>
      </trkpt>
      <trkpt lat="43.7077" lon="3.5576">
        <ele>68.7</ele>
        <time>2023-05-14T11:06:32.000Z</time>
      </trkpt>
      <trkpt lat="43.7077" lon="3.5576">
        <ele>68.7</ele>
        <time>2023-05-14T11:06:33.000Z</time>
      </trkpt>
      <trkpt lat="43.7077" lon="3.5576">
        <ele>68.6</ele>
        <time>2023-05-14T11:08:43.000Z</time>
      </trkpt>
      <trkpt lat="43.70769" lon="3.55763">
        <ele>68.6</ele>
        <time>2023-05-14T11:08:48.000Z</time>
      </trkpt>
      <trkpt lat="43.70769" lon="3.55763">
        <ele>68.6</ele>
        <time>2023-05-14T11:08:56.000Z</time>
      </trkpt>
      <trkpt lat="43.70769" lon="3.55763">
        <ele>68.6</ele>
        <time>2023-05-14T11:08:58.000Z</time>
      </trkpt>
      <trkpt lat="43.70769" lon="3.55764">
        <ele>68.6</ele>
        <time>2023-05-14T11:09:04.000Z</time>
      </trkpt>
      <trkpt lat="43.70768" lon="3.55779">
        <ele>68.5</ele>
        <time>2023-05-14T11:09:11.000Z</time>
      </trkpt>
      <trkpt lat="43.70763" lon="3.5579">
        <ele>68.5</ele>
        <time>2023-05-14T11:09:15.000Z</time>
      </trkpt>
      <trkpt lat="43.70758" lon="3.55804">
        <ele>68.5</ele>
        <time>2023-05-14T11:09:19.000Z</time>
      </trkpt>
      <trkpt lat="43.70754" lon="3.55817">
        <ele>68.6</ele>
        <time>2023-05-14T11:09:23.000Z</time>
      </trkpt>
      <trkpt lat="43.70747" lon="3.5583">
        <ele>68.7</ele>
        <time>2023-05-14T11:09:27.000Z</time>
      </trkpt>
      <trkpt lat="43.7074" lon="3.55839">
        <ele>68.8</ele>
        <time>2023-05-14T11:09:30.000Z</time>
      </trkpt>
      <trkpt lat="43.70734" lon="3.55849">
        <ele>69</ele>
        <time>2023-05-14T11:09:33.000Z</time>
      </trkpt>
      <trkpt lat="43.70728" lon="3.5586">
        <ele>69.2</ele>
        <time>2023-05-14T11:09:36.000Z</time>
      </trkpt>
      <trkpt lat="43.70724" lon="3.55873">
        <ele>69.6</ele>
        <time>2023-05-14T11:09:39.000Z</time>
      </trkpt>
      <trkpt lat="43.70721" lon="3.55885">
        <ele>70</ele>
        <time>2023-05-14T11:09:42.000Z</time>
      </trkpt>
      <trkpt lat="43.70718" lon="3.55898">
        <ele>71</ele>
        <time>2023-05-14T11:09:49.000Z</time>
      </trkpt>
      <trkpt lat="43.70711" lon="3.55908">
        <ele>71.5</ele>
        <time>2023-05-14T11:09:53.000Z</time>
      </trkpt>
      <trkpt lat="43.70705" lon="3.55918">
        <ele>71.8</ele>
        <time>2023-05-14T11:09:56.000Z</time>
      </trkpt>
      <trkpt lat="43.70697" lon="3.55929">
        <ele>72.1</ele>
        <time>2023-05-14T11:09:59.000Z</time>
      </trkpt>
      <trkpt lat="43.70689" lon="3.5594">
        <ele>72.4</ele>
        <time>2023-05-14T11:10:02.000Z</time>
      </trkpt>
      <trkpt lat="43.70682" lon="3.55951">
        <ele>72.6</ele>
        <time>2023-05-14T11:10:05.000Z</time>
      </trkpt>
      <trkpt lat="43.70675" lon="3.55961">
        <ele>72.8</ele>
        <time>2023-05-14T11:10:08.000Z</time>
      </trkpt>
      <trkpt lat="43.70667" lon="3.55971">
        <ele>73</ele>
        <time>2023-05-14T11:10:11.000Z</time>
      </trkpt>
      <trkpt lat="43.70659" lon="3.5598">
        <ele>73</ele>
        <time>2023-05-14T11:10:14.000Z</time>
      </trkpt>
      <trkpt lat="43.7065" lon="3.55986">
        <ele>72.9</ele>
        <time>2023-05-14T11:10:19.000Z</time>
      </trkpt>
      <trkpt lat="43.70642" lon="3.5599">
        <ele>72.9</ele>
        <time>2023-05-14T11:10:25.000Z</time>
      </trkpt>
      <trkpt lat="43.70633" lon="3.55996">
        <ele>73</ele>
        <time>2023-05-14T11:10:32.000Z</time>
      </trkpt>
      <trkpt lat="43.70624" lon="3.56002">
        <ele>73</ele>
        <time>2023-05-14T11:10:38.000Z</time>
      </trkpt>
      <trkpt lat="43.70615" lon="3.56007">
        <ele>73</ele>
        <time>2023-05-14T11:10:44.000Z</time>
      </trkpt>
      <trkpt lat="43.70606" lon="3.56014">
        <ele>73.1</ele>
        <time>2023-05-14T11:10:50.000Z</time>
      </trkpt>
      <trkpt lat="43.70598" lon="3.5602">
        <ele>73.1</ele>
        <time>2023-05-14T11:10:56.000Z</time>
      </trkpt>
      <trkpt lat="43.70587" lon="3.56011">
        <ele>73</ele>
        <time>2023-05-14T11:11:01.000Z</time>
      </trkpt>
      <trkpt lat="43.70578" lon="3.56005">
        <ele>73</ele>
        <time>2023-05-14T11:11:04.000Z</time>
      </trkpt>
      <trkpt lat="43.70566" lon="3.56005">
        <ele>73</ele>
        <time>2023-05-14T11:11:07.000Z</time>
      </trkpt>
      <trkpt lat="43.70557" lon="3.56008">
        <ele>72.9</ele>
        <time>2023-05-14T11:11:09.000Z</time>
      </trkpt>
      <trkpt lat="43.70547" lon="3.56012">
        <ele>72.9</ele>
        <time>2023-05-14T11:11:11.000Z</time>
      </trkpt>
      <trkpt lat="43.70537" lon="3.56017">
        <ele>72.8</ele>
        <time>2023-05-14T11:11:13.000Z</time>
      </trkpt>
      <trkpt lat="43.70527" lon="3.56021">
        <ele>72.8</ele>
        <time>2023-05-14T11:11:15.000Z</time>
      </trkpt>
      <trkpt lat="43.70516" lon="3.56025">
        <ele>72.7</ele>
        <time>2023-05-14T11:11:17.000Z</time>
      </trkpt>
      <trkpt lat="43.70505" lon="3.56027">
        <ele>72.7</ele>
        <time>2023-05-14T11:11:19.000Z</time>
      </trkpt>
      <trkpt lat="43.70494" lon="3.5603">
        <ele>72.7</ele>
        <time>2023-05-14T11:11:21.000Z</time>
      </trkpt>
      <trkpt lat="43.70483" lon="3.56031">
        <ele>72.6</ele>
        <time>2023-05-14T11:11:23.000Z</time>
      </trkpt>
      <trkpt lat="43.70473" lon="3.5603">
        <ele>72.6</ele>
        <time>2023-05-14T11:11:25.000Z</time>
      </trkpt>
      <trkpt lat="43.70463" lon="3.56027">
        <ele>72.5</ele>
        <time>2023-05-14T11:11:27.000Z</time>
      </trkpt>
      <trkpt lat="43.70453" lon="3.56023">
        <ele>72.5</ele>
        <time>2023-05-14T11:11:29.000Z</time>
      </trkpt>
      <trkpt lat="43.70442" lon="3.56019">
        <ele>72.4</ele>
        <time>2023-05-14T11:11:31.000Z</time>
      </trkpt>
      <trkpt lat="43.70433" lon="3.56015">
        <ele>72.3</ele>
        <time>2023-05-14T11:11:33.000Z</time>
      </trkpt>
      <trkpt lat="43.70423" lon="3.56012">
        <ele>72.2</ele>
        <time>2023-05-14T11:11:35.000Z</time>
      </trkpt>
      <trkpt lat="43.70415" lon="3.56008">
        <ele>72.1</ele>
        <time>2023-05-14T11:11:37.000Z</time>
      </trkpt>
      <trkpt lat="43.70406" lon="3.56004">
        <ele>71.9</ele>
        <time>2023-05-14T11:11:39.000Z</time>
      </trkpt>
      <trkpt lat="43.70395" lon="3.56">
        <ele>71.7</ele>
        <time>2023-05-14T11:11:41.000Z</time>
      </trkpt>
      <trkpt lat="43.70383" lon="3.55996">
        <ele>71.4</ele>
        <time>2023-05-14T11:11:43.000Z</time>
      </trkpt>
      <trkpt lat="43.70371" lon="3.5599">
        <ele>71.1</ele>
        <time>2023-05-14T11:11:45.000Z</time>
      </trkpt>
      <trkpt lat="43.70357" lon="3.55984">
        <ele>70.7</ele>
        <time>2023-05-14T11:11:47.000Z</time>
      </trkpt>
      <trkpt lat="43.70342" lon="3.55977">
        <ele>70.1</ele>
        <time>2023-05-14T11:11:49.000Z</time>
      </trkpt>
      <trkpt lat="43.70326" lon="3.55968">
        <ele>69.2</ele>
        <time>2023-05-14T11:11:51.000Z</time>
      </trkpt>
      <trkpt lat="43.70314" lon="3.5596">
        <ele>68.1</ele>
        <time>2023-05-14T11:11:53.000Z</time>
      </trkpt>
      <trkpt lat="43.70305" lon="3.5597">
        <ele>66.7</ele>
        <time>2023-05-14T11:11:56.000Z</time>
      </trkpt>
      <trkpt lat="43.70305" lon="3.55985">
        <ele>66</ele>
        <time>2023-05-14T11:11:59.000Z</time>
      </trkpt>
      <trkpt lat="43.70307" lon="3.55999">
        <ele>65.8</ele>
        <time>2023-05-14T11:12:02.000Z</time>
      </trkpt>
      <trkpt lat="43.70307" lon="3.56011">
        <ele>65.9</ele>
        <time>2023-05-14T11:12:05.000Z</time>
      </trkpt>
      <trkpt lat="43.70306" lon="3.56025">
        <ele>66.2</ele>
        <time>2023-05-14T11:12:10.000Z</time>
      </trkpt>
      <trkpt lat="43.70307" lon="3.56037">
        <ele>66.5</ele>
        <time>2023-05-14T11:12:18.000Z</time>
      </trkpt>
      <trkpt lat="43.70307" lon="3.56043">
        <ele>66.7</ele>
        <time>2023-05-14T11:12:24.000Z</time>
      </trkpt>
      <trkpt lat="43.70307" lon="3.56043">
        <ele>66.9</ele>
        <time>2023-05-14T11:12:29.000Z</time>
      </trkpt>
      <trkpt lat="43.70307" lon="3.56043">
        <ele>66.9</ele>
        <time>2023-05-14T11:12:30.000Z</time>
      </trkpt>
      <trkpt lat="43.70307" lon="3.56044">
        <ele>67</ele>
        <time>2023-05-14T11:12:33.000Z</time>
      </trkpt>
      <trkpt lat="43.70307" lon="3.56045">
        <ele>67</ele>
        <time>2023-05-14T11:12:35.000Z</time>
      </trkpt>
      <trkpt lat="43.70307" lon="3.56046">
        <ele>67.3</ele>
        <time>2023-05-14T11:13:00.000Z</time>
      </trkpt>
      <trkpt lat="43.70306" lon="3.56048">
        <ele>67.3</ele>
        <time>2023-05-14T11:13:03.000Z</time>
      </trkpt>
      <trkpt lat="43.70306" lon="3.56048">
        <ele>67.4</ele>
        <time>2023-05-14T11:13:17.000Z</time>
      </trkpt>
      <trkpt lat="43.70306" lon="3.56048">
        <ele>67.4</ele>
        <time>2023-05-14T11:13:18.000Z</time>
      </trkpt>
      <trkpt lat="43.70306" lon="3.56049">
        <ele>67.5</ele>
        <time>2023-05-14T11:13:36.000Z</time>
      </trkpt>
      <trkpt lat="43.70298" lon="3.56055">
        <ele>67.5</ele>
        <time>2023-05-14T11:13:46.000Z</time>
      </trkpt>
      <trkpt lat="43.70298" lon="3.56055">
        <ele>67.5</ele>
        <time>2023-05-14T11:13:48.000Z</time>
      </trkpt>
      <trkpt lat="43.70297" lon="3.56055">
        <ele>67.6</ele>
        <time>2023-05-14T11:14:07.000Z</time>
      </trkpt>
      <trkpt lat="43.7029" lon="3.56052">
        <ele>67.6</ele>
        <time>2023-05-14T11:14:23.000Z</time>
      </trkpt>
      <trkpt lat="43.7029" lon="3.56052">
        <ele>67.6</ele>
        <time>2023-05-14T11:14:24.000Z</time>
      </trkpt>
      <trkpt lat="43.7029" lon="3.56052">
        <ele>67.6</ele>
        <time>2023-05-14T11:14:26.000Z</time>
      </trkpt>
      <trkpt lat="43.7029" lon="3.56051">
        <ele>67.6</ele>
        <time>2023-05-14T11:14:27.000Z</time>
      </trkpt>
      <trkpt lat="43.70289" lon="3.5605">
        <ele>67.6</ele>
        <time>2023-05-14T11:14:30.000Z</time>
      </trkpt>
      <trkpt lat="43.70289" lon="3.5605">
        <ele>67.7</ele>
        <time>2023-05-14T11:14:51.000Z</time>
      </trkpt>
      <trkpt lat="43.70282" lon="3.56058">
        <ele>67.8</ele>
        <time>2023-05-14T11:15:04.000Z</time>
      </trkpt>
      <trkpt lat="43.70281" lon="3.56059">
        <ele>67.8</ele>
        <time>2023-05-14T11:15:07.000Z</time>
      </trkpt>
      <trkpt lat="43.70281" lon="3.56059">
        <ele>68.2</ele>
        <time>2023-05-14T11:16:23.000Z</time>
      </trkpt>
      <trkpt lat="43.70278" lon="3.56054">
        <ele>68.2</ele>
        <time>2023-05-14T11:16:34.000Z</time>
      </trkpt>
      <trkpt lat="43.70278" lon="3.56054">
        <ele>68.2</ele>
        <time>2023-05-14T11:16:35.000Z</time>
      </trkpt>
      <trkpt lat="43.70278" lon="3.56054">
        <ele>68.2</ele>
        <time>2023-05-14T11:16:36.000Z</time>
      </trkpt>
      <trkpt lat="43.70278" lon="3.56054">
        <ele>68.3</ele>
        <time>2023-05-14T11:16:52.000Z</time>
      </trkpt>
      <trkpt lat="43.70277" lon="3.56053">
        <ele>68.3</ele>
        <time>2023-05-14T11:16:54.000Z</time>
      </trkpt>
      <trkpt lat="43.70278" lon="3.56053">
        <ele>68.3</ele>
        <time>2023-05-14T11:16:57.000Z</time>
      </trkpt>
      <trkpt lat="43.70278" lon="3.56053">
        <ele>68.3</ele>
        <time>2023-05-14T11:16:58.000Z</time>
      </trkpt>
      <trkpt lat="43.70277" lon="3.56053">
        <ele>68.5</ele>
        <time>2023-05-14T11:17:29.000Z</time>
      </trkpt>
      <trkpt lat="43.70277" lon="3.56053">
        <ele>68.5</ele>
        <time>2023-05-14T11:17:30.000Z</time>
      </trkpt>
      <trkpt lat="43.70277" lon="3.56053">
        <ele>68.5</ele>
        <time>2023-05-14T11:17:31.000Z</time>
      </trkpt>
      <trkpt lat="43.70276" lon="3.56065">
        <ele>68.4</ele>
        <time>2023-05-14T11:17:48.000Z</time>
      </trkpt>
      <trkpt lat="43.70277" lon="3.56069">
        <ele>68.4</ele>
        <time>2023-05-14T11:17:57.000Z</time>
      </trkpt>
      <trkpt lat="43.70277" lon="3.56069">
        <ele>68.4</ele>
        <time>2023-05-14T11:18:02.000Z</time>
      </trkpt>
      <trkpt lat="43.70276" lon="3.56072">
        <ele>68.4</ele>
        <time>2023-05-14T11:18:11.000Z</time>
      </trkpt>
      <trkpt lat="43.70276" lon="3.56072">
        <ele>68.1</ele>
        <time>2023-05-14T11:19:34.000Z</time>
      </trkpt>
      <trkpt lat="43.70276" lon="3.56072">
        <ele>68.1</ele>
        <time>2023-05-14T11:19:35.000Z</time>
      </trkpt>
      <trkpt lat="43.70277" lon="3.56072">
        <ele>67.8</ele>
        <time>2023-05-14T11:21:13.000Z</time>
      </trkpt>
      <trkpt lat="43.70277" lon="3.56072">
        <ele>67.8</ele>
        <time>2023-05-14T11:21:14.000Z</time>
      </trkpt>
      <trkpt lat="43.70277" lon="3.56071">
        <ele>67.6</ele>
        <time>2023-05-14T11:23:32.000Z</time>
      </trkpt>
      <trkpt lat="43.70277" lon="3.56071">
        <ele>67.6</ele>
        <time>2023-05-14T11:23:33.000Z</time>
      </trkpt>
      <trkpt lat="43.70277" lon="3.56071">
        <ele>67.3</ele>
        <time>2023-05-14T11:24:44.000Z</time>
      </trkpt>
      <trkpt lat="43.70277" lon="3.56071">
        <ele>67.3</ele>
        <time>2023-05-14T11:24:45.000Z</time>
      </trkpt>
      <trkpt lat="43.70277" lon="3.56071">
        <ele>67.4</ele>
        <time>2023-05-14T11:26:22.000Z</time>
      </trkpt>
      <trkpt lat="43.70277" lon="3.56071">
        <ele>67.4</ele>
        <time>2023-05-14T11:26:23.000Z</time>
      </trkpt>
      <trkpt lat="43.70277" lon="3.56071">
        <ele>67.5</ele>
        <time>2023-05-14T11:27:02.000Z</time>
      </trkpt>
      <trkpt lat="43.70278" lon="3.56072">
        <ele>67.5</ele>
        <time>2023-05-14T11:27:07.000Z</time>
      </trkpt>
      <trkpt lat="43.70278" lon="3.56072">
        <ele>67.5</ele>
        <time>2023-05-14T11:27:16.000Z</time>
      </trkpt>
      <trkpt lat="43.70278" lon="3.56072">
        <ele>67.5</ele>
        <time>2023-05-14T11:27:18.000Z</time>
      </trkpt>
      <trkpt lat="43.70278" lon="3.56073">
        <ele>67.5</ele>
        <time>2023-05-14T11:27:46.000Z</time>
      </trkpt>
      <trkpt lat="43.7027" lon="3.56081">
        <ele>67.5</ele>
        <time>2023-05-14T11:27:54.000Z</time>
      </trkpt>
      <trkpt lat="43.70261" lon="3.56085">
        <ele>67.5</ele>
        <time>2023-05-14T11:27:58.000Z</time>
      </trkpt>
      <trkpt lat="43.70252" lon="3.56084">
        <ele>67.5</ele>
        <time>2023-05-14T11:28:02.000Z</time>
      </trkpt>
      <trkpt lat="43.70242" lon="3.56085">
        <ele>67.6</ele>
        <time>2023-05-14T11:28:07.000Z</time>
      </trkpt>
      <trkpt lat="43.70233" lon="3.5608">
        <ele>67.6</ele>
        <time>2023-05-14T11:28:13.000Z</time>
      </trkpt>
      <trkpt lat="43.70235" lon="3.56067">
        <ele>67.6</ele>
        <time>2023-05-14T11:28:18.000Z</time>
      </trkpt>
      <trkpt lat="43.70232" lon="3.56056">
        <ele>67.5</ele>
        <time>2023-05-14T11:28:29.000Z</time>
      </trkpt>
      <trkpt lat="43.7023" lon="3.56052">
        <ele>67.5</ele>
        <time>2023-05-14T11:28:36.000Z</time>
      </trkpt>
      <trkpt lat="43.7023" lon="3.56052">
        <ele>67.5</ele>
        <time>2023-05-14T11:28:46.000Z</time>
      </trkpt>
      <trkpt lat="43.70231" lon="3.56052">
        <ele>67.5</ele>
        <time>2023-05-14T11:28:48.000Z</time>
      </trkpt>
      <trkpt lat="43.70231" lon="3.56051">
        <ele>67.4</ele>
        <time>2023-05-14T11:29:10.000Z</time>
      </trkpt>
      <trkpt lat="43.70232" lon="3.56046">
        <ele>67.4</ele>
        <time>2023-05-14T11:29:16.000Z</time>
      </trkpt>
      <trkpt lat="43.70232" lon="3.56046">
        <ele>67.4</ele>
        <time>2023-05-14T11:29:20.000Z</time>
      </trkpt>
      <trkpt lat="43.70232" lon="3.56046">
        <ele>67.4</ele>
        <time>2023-05-14T11:29:21.000Z</time>
      </trkpt>
      <trkpt lat="43.70232" lon="3.56046">
        <ele>67.3</ele>
        <time>2023-05-14T11:29:25.000Z</time>
      </trkpt>
      <trkpt lat="43.70232" lon="3.56046">
        <ele>67.3</ele>
        <time>2023-05-14T11:29:26.000Z</time>
      </trkpt>
      <trkpt lat="43.70232" lon="3.56046">
        <ele>67.3</ele>
        <time>2023-05-14T11:29:27.000Z</time>
      </trkpt>
      <trkpt lat="43.70232" lon="3.56046">
        <ele>67.3</ele>
        <time>2023-05-14T11:29:29.000Z</time>
      </trkpt>
      <trkpt lat="43.70232" lon="3.56046">
        <ele>67.2</ele>
        <time>2023-05-14T11:30:18.000Z</time>
      </trkpt>
      <trkpt lat="43.70232" lon="3.56033">
        <ele>67.2</ele>
        <time>2023-05-14T11:30:24.000Z</time>
      </trkpt>
      <trkpt lat="43.70231" lon="3.56019">
        <ele>67.1</ele>
        <time>2023-05-14T11:30:27.000Z</time>
      </trkpt>
      <trkpt lat="43.70231" lon="3.56002">
        <ele>67.1</ele>
        <time>2023-05-14T11:30:30.000Z</time>
      </trkpt>
      <trkpt lat="43.70231" lon="3.55987">
        <ele>67</ele>
        <time>2023-05-14T11:30:33.000Z</time>
      </trkpt>
      <trkpt lat="43.7023" lon="3.55972">
        <ele>67</ele>
        <time>2023-05-14T11:30:36.000Z</time>
      </trkpt>
      <trkpt lat="43.70233" lon="3.55958">
        <ele>66.9</ele>
        <time>2023-05-14T11:30:39.000Z</time>
      </trkpt>
      <trkpt lat="43.70243" lon="3.55955">
        <ele>66.8</ele>
        <time>2023-05-14T11:30:43.000Z</time>
      </trkpt>
      <trkpt lat="43.70253" lon="3.55961">
        <ele>66.7</ele>
        <time>2023-05-14T11:30:46.000Z</time>
      </trkpt>
      <trkpt lat="43.70264" lon="3.55965">
        <ele>66.6</ele>
        <time>2023-05-14T11:30:49.000Z</time>
      </trkpt>
      <trkpt lat="43.70274" lon="3.55969">
        <ele>66.6</ele>
        <time>2023-05-14T11:30:52.000Z</time>
      </trkpt>
      <trkpt lat="43.70283" lon="3.55974">
        <ele>66.5</ele>
        <time>2023-05-14T11:30:55.000Z</time>
      </trkpt>
      <trkpt lat="43.7029" lon="3.55983">
        <ele>66.5</ele>
        <time>2023-05-14T11:30:58.000Z</time>
      </trkpt>
      <trkpt lat="43.70299" lon="3.55986">
        <ele>66.4</ele>
        <time>2023-05-14T11:31:05.000Z</time>
      </trkpt>
      <trkpt lat="43.70309" lon="3.55978">
        <ele>66.2</ele>
        <time>2023-05-14T11:31:10.000Z</time>
      </trkpt>
      <trkpt lat="43.70309" lon="3.55966">
        <ele>66.1</ele>
        <time>2023-05-14T11:31:12.000Z</time>
      </trkpt>
      <trkpt lat="43.70307" lon="3.55951">
        <ele>66</ele>
        <time>2023-05-14T11:31:14.000Z</time>
      </trkpt>
      <trkpt lat="43.703" lon="3.5594">
        <ele>65.8</ele>
        <time>2023-05-14T11:31:16.000Z</time>
      </trkpt>
      <trkpt lat="43.7029" lon="3.55933">
        <ele>65.6</ele>
        <time>2023-05-14T11:31:18.000Z</time>
      </trkpt>
      <trkpt lat="43.70282" lon="3.55926">
        <ele>65.5</ele>
        <time>2023-05-14T11:31:20.000Z</time>
      </trkpt>
      <trkpt lat="43.70277" lon="3.55916">
        <ele>65.3</ele>
        <time>2023-05-14T11:31:22.000Z</time>
      </trkpt>
      <trkpt lat="43.7027" lon="3.55904">
        <ele>65.2</ele>
        <time>2023-05-14T11:31:24.000Z</time>
      </trkpt>
      <trkpt lat="43.70262" lon="3.55894">
        <ele>65.1</ele>
        <time>2023-05-14T11:31:26.000Z</time>
      </trkpt>
      <trkpt lat="43.70253" lon="3.55886">
        <ele>65</ele>
        <time>2023-05-14T11:31:28.000Z</time>
      </trkpt>
      <trkpt lat="43.70244" lon="3.55878">
        <ele>64.9</ele>
        <time>2023-05-14T11:31:30.000Z</time>
      </trkpt>
      <trkpt lat="43.70235" lon="3.55869">
        <ele>64.8</ele>
        <time>2023-05-14T11:31:32.000Z</time>
      </trkpt>
      <trkpt lat="43.70225" lon="3.55863">
        <ele>64.8</ele>
        <time>2023-05-14T11:31:34.000Z</time>
      </trkpt>
      <trkpt lat="43.70214" lon="3.55858">
        <ele>64.8</ele>
        <time>2023-05-14T11:31:36.000Z</time>
      </trkpt>
      <trkpt lat="43.70204" lon="3.55855">
        <ele>64.9</ele>
        <time>2023-05-14T11:31:38.000Z</time>
      </trkpt>
      <trkpt lat="43.70193" lon="3.55853">
        <ele>65</ele>
        <time>2023-05-14T11:31:40.000Z</time>
      </trkpt>
      <trkpt lat="43.70182" lon="3.55852">
        <ele>65.2</ele>
        <time>2023-05-14T11:31:42.000Z</time>
      </trkpt>
      <trkpt lat="43.70172" lon="3.55854">
        <ele>65.3</ele>
        <time>2023-05-14T11:31:44.000Z</time>
      </trkpt>
      <trkpt lat="43.70162" lon="3.55856">
        <ele>65.4</ele>
        <time>2023-05-14T11:31:46.000Z</time>
      </trkpt>
      <trkpt lat="43.70149" lon="3.55857">
        <ele>65.7</ele>
        <time>2023-05-14T11:31:49.000Z</time>
      </trkpt>
      <trkpt lat="43.70137" lon="3.55856">
        <ele>66.1</ele>
        <time>2023-05-14T11:31:52.000Z</time>
      </trkpt>
      <trkpt lat="43.70127" lon="3.55858">
        <ele>66.7</ele>
        <time>2023-05-14T11:31:55.000Z</time>
      </trkpt>
      <trkpt lat="43.70117" lon="3.55862">
        <ele>67.6</ele>
        <time>2023-05-14T11:31:58.000Z</time>
      </trkpt>
      <trkpt lat="43.70109" lon="3.55867">
        <ele>68.7</ele>
        <time>2023-05-14T11:32:01.000Z</time>
      </trkpt>
      <trkpt lat="43.701" lon="3.55873">
        <ele>69.7</ele>
        <time>2023-05-14T11:32:04.000Z</time>
      </trkpt>
      <trkpt lat="43.7009" lon="3.55879">
        <ele>70.7</ele>
        <time>2023-05-14T11:32:07.000Z</time>
      </trkpt>
      <trkpt lat="43.7008" lon="3.55884">
        <ele>71.5</ele>
        <time>2023-05-14T11:32:10.000Z</time>
      </trkpt>
      <trkpt lat="43.70069" lon="3.5589">
        <ele>72.2</ele>
        <time>2023-05-14T11:32:13.000Z</time>
      </trkpt>
      <trkpt lat="43.70058" lon="3.55896">
        <ele>72.5</ele>
        <time>2023-05-14T11:32:16.000Z</time>
      </trkpt>
      <trkpt lat="43.70046" lon="3.55901">
        <ele>72.8</ele>
        <time>2023-05-14T11:32:19.000Z</time>
      </trkpt>
      <trkpt lat="43.70037" lon="3.55904">
        <ele>72.9</ele>
        <time>2023-05-14T11:32:21.000Z</time>
      </trkpt>
      <trkpt lat="43.70027" lon="3.55907">
        <ele>72.9</ele>
        <time>2023-05-14T11:32:23.000Z</time>
      </trkpt>
      <trkpt lat="43.70018" lon="3.55911">
        <ele>73</ele>
        <time>2023-05-14T11:32:25.000Z</time>
      </trkpt>
      <trkpt lat="43.70009" lon="3.55916">
        <ele>73</ele>
        <time>2023-05-14T11:32:27.000Z</time>
      </trkpt>
      <trkpt lat="43.7" lon="3.55922">
        <ele>73</ele>
        <time>2023-05-14T11:32:29.000Z</time>
      </trkpt>
      <trkpt lat="43.69992" lon="3.55929">
        <ele>73</ele>
        <time>2023-05-14T11:32:31.000Z</time>
      </trkpt>
      <trkpt lat="43.69984" lon="3.55935">
        <ele>73</ele>
        <time>2023-05-14T11:32:33.000Z</time>
      </trkpt>
      <trkpt lat="43.69975" lon="3.55939">
        <ele>72.9</ele>
        <time>2023-05-14T11:32:35.000Z</time>
      </trkpt>
      <trkpt lat="43.69965" lon="3.55943">
        <ele>72.9</ele>
        <time>2023-05-14T11:32:37.000Z</time>
      </trkpt>
      <trkpt lat="43.69955" lon="3.5595">
        <ele>72.8</ele>
        <time>2023-05-14T11:32:39.000Z</time>
      </trkpt>
      <trkpt lat="43.69946" lon="3.55959">
        <ele>72.7</ele>
        <time>2023-05-14T11:32:41.000Z</time>
      </trkpt>
      <trkpt lat="43.69937" lon="3.55968">
        <ele>72.5</ele>
        <time>2023-05-14T11:32:43.000Z</time>
      </trkpt>
      <trkpt lat="43.69926" lon="3.55974">
        <ele>72.4</ele>
        <time>2023-05-14T11:32:45.000Z</time>
      </trkpt>
      <trkpt lat="43.69913" lon="3.55974">
        <ele>72.2</ele>
        <time>2023-05-14T11:32:47.000Z</time>
      </trkpt>
      <trkpt lat="43.699" lon="3.55976">
        <ele>71.9</ele>
        <time>2023-05-14T11:32:49.000Z</time>
      </trkpt>
      <trkpt lat="43.69889" lon="3.55983">
        <ele>71.6</ele>
        <time>2023-05-14T11:32:51.000Z</time>
      </trkpt>
      <trkpt lat="43.69879" lon="3.55992">
        <ele>71.3</ele>
        <time>2023-05-14T11:32:53.000Z</time>
      </trkpt>
      <trkpt lat="43.69869" lon="3.56001">
        <ele>71</ele>
        <time>2023-05-14T11:32:55.000Z</time>
      </trkpt>
      <trkpt lat="43.6986" lon="3.56009">
        <ele>70.8</ele>
        <time>2023-05-14T11:32:57.000Z</time>
      </trkpt>
      <trkpt lat="43.6985" lon="3.56019">
        <ele>70.6</ele>
        <time>2023-05-14T11:32:59.000Z</time>
      </trkpt>
      <trkpt lat="43.69841" lon="3.56029">
        <ele>70.4</ele>
        <time>2023-05-14T11:33:01.000Z</time>
      </trkpt>
      <trkpt lat="43.69832" lon="3.56039">
        <ele>70.2</ele>
        <time>2023-05-14T11:33:03.000Z</time>
      </trkpt>
      <trkpt lat="43.69822" lon="3.56049">
        <ele>70.1</ele>
        <time>2023-05-14T11:33:05.000Z</time>
      </trkpt>
      <trkpt lat="43.69813" lon="3.56058">
        <ele>70</ele>
        <time>2023-05-14T11:33:07.000Z</time>
      </trkpt>
      <trkpt lat="43.69803" lon="3.56067">
        <ele>69.9</ele>
        <time>2023-05-14T11:33:09.000Z</time>
      </trkpt>
      <trkpt lat="43.69793" lon="3.56075">
        <ele>69.9</ele>
        <time>2023-05-14T11:33:11.000Z</time>
      </trkpt>
      <trkpt lat="43.69784" lon="3.56084">
        <ele>69.8</ele>
        <time>2023-05-14T11:33:13.000Z</time>
      </trkpt>
      <trkpt lat="43.69774" lon="3.56093">
        <ele>69.8</ele>
        <time>2023-05-14T11:33:15.000Z</time>
      </trkpt>
      <trkpt lat="43.69765" lon="3.56104">
        <ele>69.8</ele>
        <time>2023-05-14T11:33:17.000Z</time>
      </trkpt>
      <trkpt lat="43.69757" lon="3.56115">
        <ele>69.8</ele>
        <time>2023-05-14T11:33:19.000Z</time>
      </trkpt>
      <trkpt lat="43.69749" lon="3.56126">
        <ele>69.8</ele>
        <time>2023-05-14T11:33:21.000Z</time>
      </trkpt>
      <trkpt lat="43.6974" lon="3.56137">
        <ele>69.9</ele>
        <time>2023-05-14T11:33:23.000Z</time>
      </trkpt>
      <trkpt lat="43.69732" lon="3.56146">
        <ele>69.9</ele>
        <time>2023-05-14T11:33:25.000Z</time>
      </trkpt>
      <trkpt lat="43.69722" lon="3.56154">
        <ele>69.9</ele>
        <time>2023-05-14T11:33:27.000Z</time>
      </trkpt>
      <trkpt lat="43.69712" lon="3.56161">
        <ele>69.9</ele>
        <time>2023-05-14T11:33:29.000Z</time>
      </trkpt>
      <trkpt lat="43.697" lon="3.56169">
        <ele>69.9</ele>
        <time>2023-05-14T11:33:31.000Z</time>
      </trkpt>
      <trkpt lat="43.69686" lon="3.56181">
        <ele>69.7</ele>
        <time>2023-05-14T11:33:33.000Z</time>
      </trkpt>
      <trkpt lat="43.69678" lon="3.56187">
        <ele>69.6</ele>
        <time>2023-05-14T11:33:34.000Z</time>
      </trkpt>
      <trkpt lat="43.6967" lon="3.56193">
        <ele>69.5</ele>
        <time>2023-05-14T11:33:35.000Z</time>
      </trkpt>
      <trkpt lat="43.69655" lon="3.56206">
        <ele>69.2</ele>
        <time>2023-05-14T11:33:37.000Z</time>
      </trkpt>
      <trkpt lat="43.69643" lon="3.5622">
        <ele>68.9</ele>
        <time>2023-05-14T11:33:39.000Z</time>
      </trkpt>
      <trkpt lat="43.69634" lon="3.56236">
        <ele>68.5</ele>
        <time>2023-05-14T11:33:41.000Z</time>
      </trkpt>
      <trkpt lat="43.69625" lon="3.56252">
        <ele>68.2</ele>
        <time>2023-05-14T11:33:43.000Z</time>
      </trkpt>
      <trkpt lat="43.69618" lon="3.56266">
        <ele>67.9</ele>
        <time>2023-05-14T11:33:45.000Z</time>
      </trkpt>
      <trkpt lat="43.69612" lon="3.56277">
        <ele>67.9</ele>
        <time>2023-05-14T11:33:47.000Z</time>
      </trkpt>
      <trkpt lat="43.69604" lon="3.56287">
        <ele>67.8</ele>
        <time>2023-05-14T11:33:49.000Z</time>
      </trkpt>
      <trkpt lat="43.69594" lon="3.56298">
        <ele>67.7</ele>
        <time>2023-05-14T11:33:51.000Z</time>
      </trkpt>
      <trkpt lat="43.69585" lon="3.56314">
        <ele>67.5</ele>
        <time>2023-05-14T11:33:53.000Z</time>
      </trkpt>
      <trkpt lat="43.69575" lon="3.56331">
        <ele>67.2</ele>
        <time>2023-05-14T11:33:55.000Z</time>
      </trkpt>
      <trkpt lat="43.69564" lon="3.56347">
        <ele>66.8</ele>
        <time>2023-05-14T11:33:57.000Z</time>
      </trkpt>
      <trkpt lat="43.69551" lon="3.56359">
        <ele>66.4</ele>
        <time>2023-05-14T11:33:59.000Z</time>
      </trkpt>
      <trkpt lat="43.69538" lon="3.56371">
        <ele>66</ele>
        <time>2023-05-14T11:34:01.000Z</time>
      </trkpt>
      <trkpt lat="43.6953" lon="3.56382">
        <ele>65.8</ele>
        <time>2023-05-14T11:34:03.000Z</time>
      </trkpt>
      <trkpt lat="43.69524" lon="3.56394">
        <ele>65.7</ele>
        <time>2023-05-14T11:34:05.000Z</time>
      </trkpt>
      <trkpt lat="43.69516" lon="3.56407">
        <ele>65.7</ele>
        <time>2023-05-14T11:34:07.000Z</time>
      </trkpt>
      <trkpt lat="43.69507" lon="3.56422">
        <ele>65.5</ele>
        <time>2023-05-14T11:34:09.000Z</time>
      </trkpt>
      <trkpt lat="43.69497" lon="3.56437">
        <ele>65.3</ele>
        <time>2023-05-14T11:34:11.000Z</time>
      </trkpt>
      <trkpt lat="43.6949" lon="3.56455">
        <ele>65.1</ele>
        <time>2023-05-14T11:34:13.000Z</time>
      </trkpt>
      <trkpt lat="43.69487" lon="3.56471">
        <ele>65</ele>
        <time>2023-05-14T11:34:15.000Z</time>
      </trkpt>
      <trkpt lat="43.69484" lon="3.56487">
        <ele>64.9</ele>
        <time>2023-05-14T11:34:17.000Z</time>
      </trkpt>
      <trkpt lat="43.69479" lon="3.56502">
        <ele>64.8</ele>
        <time>2023-05-14T11:34:19.000Z</time>
      </trkpt>
      <trkpt lat="43.69474" lon="3.56517">
        <ele>64.7</ele>
        <time>2023-05-14T11:34:21.000Z</time>
      </trkpt>
      <trkpt lat="43.69471" lon="3.56533">
        <ele>64.7</ele>
        <time>2023-05-14T11:34:23.000Z</time>
      </trkpt>
      <trkpt lat="43.69469" lon="3.56549">
        <ele>64.7</ele>
        <time>2023-05-14T11:34:25.000Z</time>
      </trkpt>
      <trkpt lat="43.69468" lon="3.56566">
        <ele>64.6</ele>
        <time>2023-05-14T11:34:27.000Z</time>
      </trkpt>
      <trkpt lat="43.69467" lon="3.56583">
        <ele>64.5</ele>
        <time>2023-05-14T11:34:29.000Z</time>
      </trkpt>
      <trkpt lat="43.69465" lon="3.566">
        <ele>64.4</ele>
        <time>2023-05-14T11:34:31.000Z</time>
      </trkpt>
      <trkpt lat="43.69464" lon="3.56617">
        <ele>64.2</ele>
        <time>2023-05-14T11:34:33.000Z</time>
      </trkpt>
      <trkpt lat="43.69463" lon="3.56634">
        <ele>64.1</ele>
        <time>2023-05-14T11:34:35.000Z</time>
      </trkpt>
      <trkpt lat="43.69463" lon="3.5665">
        <ele>64</ele>
        <time>2023-05-14T11:34:37.000Z</time>
      </trkpt>
      <trkpt lat="43.69465" lon="3.56667">
        <ele>63.9</ele>
        <time>2023-05-14T11:34:39.000Z</time>
      </trkpt>
      <trkpt lat="43.69468" lon="3.56682">
        <ele>63.8</ele>
        <time>2023-05-14T11:34:41.000Z</time>
      </trkpt>
      <trkpt lat="43.69472" lon="3.56697">
        <ele>63.7</ele>
        <time>2023-05-14T11:34:43.000Z</time>
      </trkpt>
      <trkpt lat="43.69476" lon="3.56712">
        <ele>63.7</ele>
        <time>2023-05-14T11:34:45.000Z</time>
      </trkpt>
      <trkpt lat="43.69481" lon="3.56727">
        <ele>63.7</ele>
        <time>2023-05-14T11:34:47.000Z</time>
      </trkpt>
      <trkpt lat="43.69485" lon="3.56741">
        <ele>63.8</ele>
        <time>2023-05-14T11:34:49.000Z</time>
      </trkpt>
      <trkpt lat="43.69491" lon="3.56756">
        <ele>63.9</ele>
        <time>2023-05-14T11:34:51.000Z</time>
      </trkpt>
      <trkpt lat="43.69495" lon="3.56771">
        <ele>63.9</ele>
        <time>2023-05-14T11:34:53.000Z</time>
      </trkpt>
      <trkpt lat="43.69499" lon="3.56785">
        <ele>64.1</ele>
        <time>2023-05-14T11:34:55.000Z</time>
      </trkpt>
      <trkpt lat="43.69503" lon="3.568">
        <ele>64.3</ele>
        <time>2023-05-14T11:34:57.000Z</time>
      </trkpt>
      <trkpt lat="43.69504" lon="3.56814">
        <ele>64.5</ele>
        <time>2023-05-14T11:34:59.000Z</time>
      </trkpt>
      <trkpt lat="43.69507" lon="3.5683">
        <ele>65</ele>
        <time>2023-05-14T11:35:02.000Z</time>
      </trkpt>
      <trkpt lat="43.69514" lon="3.56842">
        <ele>65.7</ele>
        <time>2023-05-14T11:35:06.000Z</time>
      </trkpt>
      <trkpt lat="43.69515" lon="3.56856">
        <ele>66.3</ele>
        <time>2023-05-14T11:35:09.000Z</time>
      </trkpt>
      <trkpt lat="43.69511" lon="3.56872">
        <ele>67</ele>
        <time>2023-05-14T11:35:12.000Z</time>
      </trkpt>
      <trkpt lat="43.69507" lon="3.56888">
        <ele>67.7</ele>
        <time>2023-05-14T11:35:15.000Z</time>
      </trkpt>
      <trkpt lat="43.69505" lon="3.56904">
        <ele>68.4</ele>
        <time>2023-05-14T11:35:18.000Z</time>
      </trkpt>
      <trkpt lat="43.69509" lon="3.56918">
        <ele>69.4</ele>
        <time>2023-05-14T11:35:21.000Z</time>
      </trkpt>
      <trkpt lat="43.69519" lon="3.56922">
        <ele>70.5</ele>
        <time>2023-05-14T11:35:24.000Z</time>
      </trkpt>
      <trkpt lat="43.69531" lon="3.56924">
        <ele>71.4</ele>
        <time>2023-05-14T11:35:27.000Z</time>
      </trkpt>
      <trkpt lat="43.69544" lon="3.56928">
        <ele>72.3</ele>
        <time>2023-05-14T11:35:30.000Z</time>
      </trkpt>
      <trkpt lat="43.69557" lon="3.56929">
        <ele>72.6</ele>
        <time>2023-05-14T11:35:33.000Z</time>
      </trkpt>
      <trkpt lat="43.6957" lon="3.56925">
        <ele>73</ele>
        <time>2023-05-14T11:35:36.000Z</time>
      </trkpt>
      <trkpt lat="43.69579" lon="3.56921">
        <ele>73</ele>
        <time>2023-05-14T11:35:38.000Z</time>
      </trkpt>
      <trkpt lat="43.69588" lon="3.56916">
        <ele>72.9</ele>
        <time>2023-05-14T11:35:40.000Z</time>
      </trkpt>
      <trkpt lat="43.69597" lon="3.56911">
        <ele>72.7</ele>
        <time>2023-05-14T11:35:42.000Z</time>
      </trkpt>
      <trkpt lat="43.69607" lon="3.56905">
        <ele>72.5</ele>
        <time>2023-05-14T11:35:44.000Z</time>
      </trkpt>
      <trkpt lat="43.69616" lon="3.56899">
        <ele>72.3</ele>
        <time>2023-05-14T11:35:46.000Z</time>
      </trkpt>
      <trkpt lat="43.69626" lon="3.56892">
        <ele>72.1</ele>
        <time>2023-05-14T11:35:48.000Z</time>
      </trkpt>
      <trkpt lat="43.69635" lon="3.56883">
        <ele>71.8</ele>
        <time>2023-05-14T11:35:50.000Z</time>
      </trkpt>
      <trkpt lat="43.69644" lon="3.56874">
        <ele>71.4</ele>
        <time>2023-05-14T11:35:52.000Z</time>
      </trkpt>
      <trkpt lat="43.6965" lon="3.56861">
        <ele>71</ele>
        <time>2023-05-14T11:35:54.000Z</time>
      </trkpt>
      <trkpt lat="43.69655" lon="3.56848">
        <ele>70.5</ele>
        <time>2023-05-14T11:35:56.000Z</time>
      </trkpt>
      <trkpt lat="43.69659" lon="3.56835">
        <ele>70.1</ele>
        <time>2023-05-14T11:35:58.000Z</time>
      </trkpt>
      <trkpt lat="43.69664" lon="3.56821">
        <ele>69.8</ele>
        <time>2023-05-14T11:36:00.000Z</time>
      </trkpt>
      <trkpt lat="43.69668" lon="3.56807">
        <ele>69.3</ele>
        <time>2023-05-14T11:36:02.000Z</time>
      </trkpt>
      <trkpt lat="43.69673" lon="3.56793">
        <ele>69</ele>
        <time>2023-05-14T11:36:04.000Z</time>
      </trkpt>
      <trkpt lat="43.69678" lon="3.56779">
        <ele>68.8</ele>
        <time>2023-05-14T11:36:06.000Z</time>
      </trkpt>
      <trkpt lat="43.69683" lon="3.56765">
        <ele>68.5</ele>
        <time>2023-05-14T11:36:08.000Z</time>
      </trkpt>
      <trkpt lat="43.69688" lon="3.56752">
        <ele>68.3</ele>
        <time>2023-05-14T11:36:10.000Z</time>
      </trkpt>
      <trkpt lat="43.69694" lon="3.56742">
        <ele>68.3</ele>
        <time>2023-05-14T11:36:12.000Z</time>
      </trkpt>
      <trkpt lat="43.69701" lon="3.56733">
        <ele>68.2</ele>
        <time>2023-05-14T11:36:14.000Z</time>
      </trkpt>
      <trkpt lat="43.69709" lon="3.56726">
        <ele>68.1</ele>
        <time>2023-05-14T11:36:17.000Z</time>
      </trkpt>
      <trkpt lat="43.6972" lon="3.56718">
        <ele>68</ele>
        <time>2023-05-14T11:36:21.000Z</time>
      </trkpt>
      <trkpt lat="43.69733" lon="3.56713">
        <ele>68</ele>
        <time>2023-05-14T11:36:24.000Z</time>
      </trkpt>
      <trkpt lat="43.69742" lon="3.5671">
        <ele>67.9</ele>
        <time>2023-05-14T11:36:26.000Z</time>
      </trkpt>
      <trkpt lat="43.69751" lon="3.5671">
        <ele>67.9</ele>
        <time>2023-05-14T11:36:28.000Z</time>
      </trkpt>
      <trkpt lat="43.69761" lon="3.5671">
        <ele>67.9</ele>
        <time>2023-05-14T11:36:30.000Z</time>
      </trkpt>
      <trkpt lat="43.6977" lon="3.56713">
        <ele>67.9</ele>
        <time>2023-05-14T11:36:32.000Z</time>
      </trkpt>
      <trkpt lat="43.69779" lon="3.56719">
        <ele>68</ele>
        <time>2023-05-14T11:36:34.000Z</time>
      </trkpt>
      <trkpt lat="43.69788" lon="3.56725">
        <ele>68</ele>
        <time>2023-05-14T11:36:36.000Z</time>
      </trkpt>
      <trkpt lat="43.69797" lon="3.56733">
        <ele>68.1</ele>
        <time>2023-05-14T11:36:38.000Z</time>
      </trkpt>
      <trkpt lat="43.69805" lon="3.56741">
        <ele>68.1</ele>
        <time>2023-05-14T11:36:40.000Z</time>
      </trkpt>
      <trkpt lat="43.69812" lon="3.56749">
        <ele>68.1</ele>
        <time>2023-05-14T11:36:42.000Z</time>
      </trkpt>
      <trkpt lat="43.6982" lon="3.56761">
        <ele>68</ele>
        <time>2023-05-14T11:36:45.000Z</time>
      </trkpt>
      <trkpt lat="43.69826" lon="3.56771">
        <ele>68</ele>
        <time>2023-05-14T11:36:48.000Z</time>
      </trkpt>
      <trkpt lat="43.69835" lon="3.5678">
        <ele>68</ele>
        <time>2023-05-14T11:36:51.000Z</time>
      </trkpt>
      <trkpt lat="43.69844" lon="3.56788">
        <ele>68.1</ele>
        <time>2023-05-14T11:36:54.000Z</time>
      </trkpt>
      <trkpt lat="43.69852" lon="3.56796">
        <ele>68.1</ele>
        <time>2023-05-14T11:36:57.000Z</time>
      </trkpt>
      <trkpt lat="43.6986" lon="3.56807">
        <ele>68.1</ele>
        <time>2023-05-14T11:37:00.000Z</time>
      </trkpt>
      <trkpt lat="43.6987" lon="3.56819">
        <ele>68.2</ele>
        <time>2023-05-14T11:37:03.000Z</time>
      </trkpt>
      <trkpt lat="43.6988" lon="3.5683">
        <ele>68.2</ele>
        <time>2023-05-14T11:37:06.000Z</time>
      </trkpt>
      <trkpt lat="43.69889" lon="3.56838">
        <ele>68.3</ele>
        <time>2023-05-14T11:37:09.000Z</time>
      </trkpt>
      <trkpt lat="43.69897" lon="3.56847">
        <ele>68.4</ele>
        <time>2023-05-14T11:37:13.000Z</time>
      </trkpt>
      <trkpt lat="43.69904" lon="3.56843">
        <ele>68.4</ele>
        <time>2023-05-14T11:37:26.000Z</time>
      </trkpt>
      <trkpt lat="43.69904" lon="3.56843">
        <ele>68.4</ele>
        <time>2023-05-14T11:37:35.000Z</time>
      </trkpt>
      <trkpt lat="43.69904" lon="3.56843">
        <ele>68.4</ele>
        <time>2023-05-14T11:37:36.000Z</time>
      </trkpt>
      <trkpt lat="43.69904" lon="3.56843">
        <ele>68.4</ele>
        <time>2023-05-14T11:38:07.000Z</time>
      </trkpt>
      <trkpt lat="43.69904" lon="3.56843">
        <ele>68.4</ele>
        <time>2023-05-14T11:38:08.000Z</time>
      </trkpt>
      <trkpt lat="43.69904" lon="3.56843">
        <ele>68.5</ele>
        <time>2023-05-14T11:39:08.000Z</time>
      </trkpt>
      <trkpt lat="43.69904" lon="3.56843">
        <ele>68.5</ele>
        <time>2023-05-14T11:39:09.000Z</time>
      </trkpt>
      <trkpt lat="43.69904" lon="3.56842">
        <ele>69.9</ele>
        <time>2023-05-14T11:44:27.000Z</time>
      </trkpt>
      <trkpt lat="43.69904" lon="3.56842">
        <ele>69.9</ele>
        <time>2023-05-14T11:44:28.000Z</time>
      </trkpt>
      <trkpt lat="43.69904" lon="3.56842">
        <ele>69.9</ele>
        <time>2023-05-14T11:47:00.000Z</time>
      </trkpt>
      <trkpt lat="43.69905" lon="3.5684">
        <ele>69.9</ele>
        <time>2023-05-14T11:47:03.000Z</time>
      </trkpt>
      <trkpt lat="43.69905" lon="3.5684">
        <ele>69.9</ele>
        <time>2023-05-14T11:47:03.000Z</time>
      </trkpt>
      <trkpt lat="43.69905" lon="3.5684">
        <ele>69.9</ele>
        <time>2023-05-14T11:47:03.000Z</time>
      </trkpt>
      <trkpt lat="43.69905" lon="3.5684">
        <ele>69.9</ele>
        <time>2023-05-14T11:47:03.000Z</time>
      </trkpt>
    </trkseg>
  </trk>
</gpx>